<?xml version='1.0' encoding='UTF-8'?><gpx version="1.1" creator="JPX - https://github.com/jenetics/jpx" xmlns="http://www.topografix.com/GPX/1/1"><trk><trkseg><trkpt lat="45.6956333" lon="9.0353617"><ele>293.0</ele><time>2026-04-08T08:23:28.741Z</time></trkpt><trkpt lat="45.695525" lon="9.035345"><ele>293.0</ele><time>2026-04-08T08:23:30.741Z</time></trkpt><trkpt lat="45.6953883" lon="9.0353383"><ele>293.0</ele><time>2026-04-08T08:23:32.74Z</time></trkpt><trkpt lat="45.69531" lon="9.035335"><ele>293.0</ele><time>2026-04-08T08:23:33.741Z</time></trkpt><trkpt lat="45.69523" lon="9.0353267"><ele>293.0</ele><time>2026-04-08T08:23:34.741Z</time></trkpt><trkpt lat="45.6951567" lon="9.0353333"><ele>292.33333333333337</ele><time>2026-04-08T08:23:35.741Z</time></trkpt><trkpt lat="45.6950267" lon="9.0353383"><ele>291.6666666666667</ele><time>2026-04-08T08:23:37.741Z</time></trkpt><trkpt lat="45.694955" lon="9.0353183"><ele>291.0</ele><time>2026-04-08T08:23:38.74Z</time></trkpt><trkpt lat="45.6948917" lon="9.0353"><ele>290.3333333333333</ele><time>2026-04-08T08:23:39.741Z</time></trkpt><trkpt lat="45.6948033" lon="9.035285"><ele>289.66666666666663</ele><time>2026-04-08T08:23:41.741Z</time></trkpt><trkpt lat="45.69473" lon="9.0352733"><ele>289.0</ele><time>2026-04-08T08:23:43.741Z</time></trkpt><trkpt lat="45.6946733" lon="9.0353133"><ele>289.0</ele><time>2026-04-08T08:23:45.741Z</time></trkpt><trkpt lat="45.6946417" lon="9.0354183"><ele>289.0</ele><time>2026-04-08T08:23:48.74Z</time></trkpt><trkpt lat="45.6946683" lon="9.035535"><ele>289.0</ele><time>2026-04-08T08:23:51.741Z</time></trkpt><trkpt lat="45.6947217" lon="9.0356233"><ele>289.0</ele><time>2026-04-08T08:23:53.74Z</time></trkpt><trkpt lat="45.6948333" lon="9.0357483"><ele>289.0</ele><time>2026-04-08T08:23:55.741Z</time></trkpt><trkpt lat="45.6948833" lon="9.0360033"><ele>289.0</ele><time>2026-04-08T08:23:58.741Z</time></trkpt><trkpt lat="45.6948767" lon="9.0360983"><ele>289.0</ele><time>2026-04-08T08:23:59.741Z</time></trkpt><trkpt lat="45.6948683" lon="9.0361983"><ele>289.0</ele><time>2026-04-08T08:24:00.74Z</time></trkpt><trkpt lat="45.6948617" lon="9.0363"><ele>289.0</ele><time>2026-04-08T08:24:01.741Z</time></trkpt><trkpt lat="45.6948633" lon="9.0364117"><ele>289.0</ele><time>2026-04-08T08:24:02.74Z</time></trkpt><trkpt lat="45.694865" lon="9.03652"><ele>289.0</ele><time>2026-04-08T08:24:03.741Z</time></trkpt><trkpt lat="45.694865" lon="9.03664"><ele>289.0</ele><time>2026-04-08T08:24:04.741Z</time></trkpt><trkpt lat="45.6948617" lon="9.0367683"><ele>289.8</ele><time>2026-04-08T08:24:05.741Z</time></trkpt><trkpt lat="45.6948517" lon="9.0369017"><ele>290.59999999999997</ele><time>2026-04-08T08:24:06.74Z</time></trkpt><trkpt lat="45.6948483" lon="9.0370483"><ele>291.4</ele><time>2026-04-08T08:24:07.741Z</time></trkpt><trkpt lat="45.6948467" lon="9.0372"><ele>292.2</ele><time>2026-04-08T08:24:08.741Z</time></trkpt><trkpt lat="45.6948367" lon="9.0373617"><ele>293.0</ele><time>2026-04-08T08:24:09.741Z</time></trkpt><trkpt lat="45.6948333" lon="9.03752"><ele>293.2</ele><time>2026-04-08T08:24:10.741Z</time></trkpt><trkpt lat="45.694835" lon="9.03768"><ele>293.4</ele><time>2026-04-08T08:24:11.741Z</time></trkpt><trkpt lat="45.694835" lon="9.037835"><ele>293.59999999999997</ele><time>2026-04-08T08:24:12.741Z</time></trkpt><trkpt lat="45.6948333" lon="9.0380033"><ele>293.8</ele><time>2026-04-08T08:24:13.741Z</time></trkpt><trkpt lat="45.6948333" lon="9.0381517"><ele>294.0</ele><time>2026-04-08T08:24:14.74Z</time></trkpt><trkpt lat="45.694835" lon="9.038305"><ele>293.59999999999997</ele><time>2026-04-08T08:24:15.741Z</time></trkpt><trkpt lat="45.69483" lon="9.0384433"><ele>293.2</ele><time>2026-04-08T08:24:16.741Z</time></trkpt><trkpt lat="45.6948267" lon="9.038585"><ele>292.79999999999995</ele><time>2026-04-08T08:24:17.741Z</time></trkpt><trkpt lat="45.694825" lon="9.03873"><ele>292.4</ele><time>2026-04-08T08:24:18.741Z</time></trkpt><trkpt lat="45.6948183" lon="9.0388867"><ele>292.0</ele><time>2026-04-08T08:24:19.741Z</time></trkpt><trkpt lat="45.6948133" lon="9.0390433"><ele>291.16666666666663</ele><time>2026-04-08T08:24:20.741Z</time></trkpt><trkpt lat="45.694805" lon="9.03919"><ele>290.3333333333333</ele><time>2026-04-08T08:24:21.74Z</time></trkpt><trkpt lat="45.6948017" lon="9.0393283"><ele>289.5</ele><time>2026-04-08T08:24:22.741Z</time></trkpt><trkpt lat="45.6948" lon="9.039455"><ele>288.6666666666667</ele><time>2026-04-08T08:24:23.741Z</time></trkpt><trkpt lat="45.6948083" lon="9.0395683"><ele>287.83333333333337</ele><time>2026-04-08T08:24:24.741Z</time></trkpt><trkpt lat="45.6948" lon="9.03967"><ele>287.0</ele><time>2026-04-08T08:24:25.741Z</time></trkpt><trkpt lat="45.6947817" lon="9.0397617"><ele>287.0</ele><time>2026-04-08T08:24:26.74Z</time></trkpt><trkpt lat="45.6947567" lon="9.0399117"><ele>287.0</ele><time>2026-04-08T08:24:28.741Z</time></trkpt><trkpt lat="45.6947517" lon="9.0400233"><ele>287.0</ele><time>2026-04-08T08:24:30.741Z</time></trkpt><trkpt lat="45.6947533" lon="9.040115"><ele>287.0</ele><time>2026-04-08T08:24:32.74Z</time></trkpt><trkpt lat="45.6947467" lon="9.040225"><ele>287.0</ele><time>2026-04-08T08:24:35.741Z</time></trkpt><trkpt lat="45.6946667" lon="9.0402633"><ele>287.0</ele><time>2026-04-08T08:24:38.741Z</time></trkpt><trkpt lat="45.6945867" lon="9.0402733"><ele>287.0</ele><time>2026-04-08T08:24:40.741Z</time></trkpt><trkpt lat="45.69447" lon="9.0403017"><ele>287.0</ele><time>2026-04-08T08:24:42.74Z</time></trkpt><trkpt lat="45.694405" lon="9.04031"><ele>287.0</ele><time>2026-04-08T08:24:43.741Z</time></trkpt><trkpt lat="45.69425" lon="9.0403317"><ele>287.0</ele><time>2026-04-08T08:24:46.741Z</time></trkpt><trkpt lat="45.6941667" lon="9.040435"><ele>287.0</ele><time>2026-04-08T08:24:48.741Z</time></trkpt><trkpt lat="45.6941333" lon="9.0405817"><ele>287.0</ele><time>2026-04-08T08:24:50.741Z</time></trkpt><trkpt lat="45.6941217" lon="9.04068"><ele>287.0</ele><time>2026-04-08T08:24:51.741Z</time></trkpt><trkpt lat="45.6941183" lon="9.040795"><ele>287.0</ele><time>2026-04-08T08:24:52.74Z</time></trkpt><trkpt lat="45.6941367" lon="9.0409283"><ele>287.0</ele><time>2026-04-08T08:24:53.74Z</time></trkpt><trkpt lat="45.69414" lon="9.0410717"><ele>287.0</ele><time>2026-04-08T08:24:54.741Z</time></trkpt><trkpt lat="45.69413" lon="9.0412017"><ele>287.0</ele><time>2026-04-08T08:24:55.741Z</time></trkpt><trkpt lat="45.6941167" lon="9.0413433"><ele>287.0</ele><time>2026-04-08T08:24:56.741Z</time></trkpt><trkpt lat="45.6941017" lon="9.0414883"><ele>287.0</ele><time>2026-04-08T08:24:57.741Z</time></trkpt><trkpt lat="45.6940817" lon="9.041625"><ele>287.0</ele><time>2026-04-08T08:24:58.741Z</time></trkpt><trkpt lat="45.69404" lon="9.041755"><ele>287.1666666666667</ele><time>2026-04-08T08:24:59.74Z</time></trkpt><trkpt lat="45.69402" lon="9.0418867"><ele>287.33333333333337</ele><time>2026-04-08T08:25:00.741Z</time></trkpt><trkpt lat="45.6940033" lon="9.0420067"><ele>287.5</ele><time>2026-04-08T08:25:01.741Z</time></trkpt><trkpt lat="45.693975" lon="9.042115"><ele>287.6666666666667</ele><time>2026-04-08T08:25:02.741Z</time></trkpt><trkpt lat="45.693935" lon="9.0422083"><ele>287.8333333333333</ele><time>2026-04-08T08:25:03.74Z</time></trkpt><trkpt lat="45.693885" lon="9.042305"><ele>288.0</ele><time>2026-04-08T08:25:04.741Z</time></trkpt><trkpt lat="45.693815" lon="9.0423867"><ele>288.0</ele><time>2026-04-08T08:25:05.74Z</time></trkpt><trkpt lat="45.6937567" lon="9.0424767"><ele>288.0</ele><time>2026-04-08T08:25:06.741Z</time></trkpt><trkpt lat="45.69369" lon="9.0425567"><ele>288.0</ele><time>2026-04-08T08:25:07.741Z</time></trkpt><trkpt lat="45.69361" lon="9.0426367"><ele>288.0</ele><time>2026-04-08T08:25:08.741Z</time></trkpt><trkpt lat="45.6935217" lon="9.04271"><ele>288.0</ele><time>2026-04-08T08:25:09.74Z</time></trkpt><trkpt lat="45.69343" lon="9.0427983"><ele>286.75</ele><time>2026-04-08T08:25:10.741Z</time></trkpt><trkpt lat="45.693325" lon="9.0428783"><ele>285.5</ele><time>2026-04-08T08:25:11.741Z</time></trkpt><trkpt lat="45.6932283" lon="9.0429833"><ele>284.25</ele><time>2026-04-08T08:25:12.74Z</time></trkpt><trkpt lat="45.6931283" lon="9.0430817"><ele>283.0</ele><time>2026-04-08T08:25:13.741Z</time></trkpt><trkpt lat="45.6930217" lon="9.043175"><ele>283.0</ele><time>2026-04-08T08:25:14.74Z</time></trkpt><trkpt lat="45.6929233" lon="9.0432733"><ele>283.0</ele><time>2026-04-08T08:25:15.741Z</time></trkpt><trkpt lat="45.6928267" lon="9.0433883"><ele>283.0</ele><time>2026-04-08T08:25:16.741Z</time></trkpt><trkpt lat="45.6927367" lon="9.043525"><ele>283.0</ele><time>2026-04-08T08:25:17.741Z</time></trkpt><trkpt lat="45.6926533" lon="9.0436617"><ele>282.0</ele><time>2026-04-08T08:25:18.74Z</time></trkpt><trkpt lat="45.6925767" lon="9.0437967"><ele>281.0</ele><time>2026-04-08T08:25:19.741Z</time></trkpt><trkpt lat="45.6925017" lon="9.0439383"><ele>280.0</ele><time>2026-04-08T08:25:20.741Z</time></trkpt><trkpt lat="45.6924267" lon="9.0440733"><ele>279.0</ele><time>2026-04-08T08:25:21.741Z</time></trkpt><trkpt lat="45.6923617" lon="9.0442267"><ele>278.8</ele><time>2026-04-08T08:25:22.741Z</time></trkpt><trkpt lat="45.6923033" lon="9.0443717"><ele>278.59999999999997</ele><time>2026-04-08T08:25:23.741Z</time></trkpt><trkpt lat="45.69225" lon="9.0445017"><ele>278.4</ele><time>2026-04-08T08:25:24.741Z</time></trkpt><trkpt lat="45.6922083" lon="9.04462"><ele>278.2</ele><time>2026-04-08T08:25:25.74Z</time></trkpt><trkpt lat="45.6921783" lon="9.044735"><ele>278.0</ele><time>2026-04-08T08:25:26.741Z</time></trkpt><trkpt lat="45.692155" lon="9.0448483"><ele>278.0</ele><time>2026-04-08T08:25:27.741Z</time></trkpt><trkpt lat="45.692145" lon="9.0449533"><ele>278.0</ele><time>2026-04-08T08:25:28.741Z</time></trkpt><trkpt lat="45.6921517" lon="9.0450633"><ele>278.0</ele><time>2026-04-08T08:25:29.74Z</time></trkpt><trkpt lat="45.6921733" lon="9.045175"><ele>278.0</ele><time>2026-04-08T08:25:30.74Z</time></trkpt><trkpt lat="45.6921933" lon="9.0452933"><ele>278.0</ele><time>2026-04-08T08:25:31.741Z</time></trkpt><trkpt lat="45.6922067" lon="9.0454283"><ele>278.0</ele><time>2026-04-08T08:25:32.741Z</time></trkpt><trkpt lat="45.6922183" lon="9.0455767"><ele>277.6</ele><time>2026-04-08T08:25:33.741Z</time></trkpt><trkpt lat="45.6922367" lon="9.045725"><ele>277.20000000000005</ele><time>2026-04-08T08:25:34.741Z</time></trkpt><trkpt lat="45.6922633" lon="9.04586"><ele>276.8</ele><time>2026-04-08T08:25:35.74Z</time></trkpt><trkpt lat="45.6923033" lon="9.0459817"><ele>276.40000000000003</ele><time>2026-04-08T08:25:36.741Z</time></trkpt><trkpt lat="45.6923567" lon="9.0460883"><ele>276.0</ele><time>2026-04-08T08:25:37.741Z</time></trkpt><trkpt lat="45.6924217" lon="9.0461767"><ele>274.0</ele><time>2026-04-08T08:25:38.741Z</time></trkpt><trkpt lat="45.69249" lon="9.0462617"><ele>272.0</ele><time>2026-04-08T08:25:39.741Z</time></trkpt><trkpt lat="45.6925683" lon="9.0463467"><ele>270.0</ele><time>2026-04-08T08:25:40.741Z</time></trkpt><trkpt lat="45.6926483" lon="9.046435"><ele>268.0</ele><time>2026-04-08T08:25:41.741Z</time></trkpt><trkpt lat="45.692735" lon="9.0465117"><ele>266.0</ele><time>2026-04-08T08:25:42.741Z</time></trkpt><trkpt lat="45.6928217" lon="9.0465967"><ele>264.0</ele><time>2026-04-08T08:25:43.74Z</time></trkpt><trkpt lat="45.6929017" lon="9.04668"><ele>262.0</ele><time>2026-04-08T08:25:44.741Z</time></trkpt><trkpt lat="45.692985" lon="9.0467733"><ele>260.0</ele><time>2026-04-08T08:25:45.741Z</time></trkpt><trkpt lat="45.6930633" lon="9.0468783"><ele>258.0</ele><time>2026-04-08T08:25:46.741Z</time></trkpt><trkpt lat="45.6931467" lon="9.0469833"><ele>256.0</ele><time>2026-04-08T08:25:47.741Z</time></trkpt><trkpt lat="45.6932333" lon="9.0470867"><ele>256.0</ele><time>2026-04-08T08:25:48.741Z</time></trkpt><trkpt lat="45.6933083" lon="9.0471933"><ele>256.0</ele><time>2026-04-08T08:25:49.741Z</time></trkpt><trkpt lat="45.69338" lon="9.0473083"><ele>256.0</ele><time>2026-04-08T08:25:50.741Z</time></trkpt><trkpt lat="45.6934433" lon="9.04742"><ele>256.0</ele><time>2026-04-08T08:25:51.74Z</time></trkpt><trkpt lat="45.6934983" lon="9.0475417"><ele>256.0</ele><time>2026-04-08T08:25:52.74Z</time></trkpt><trkpt lat="45.6935517" lon="9.0476717"><ele>256.5</ele><time>2026-04-08T08:25:53.741Z</time></trkpt><trkpt lat="45.6936033" lon="9.0478067"><ele>257.0</ele><time>2026-04-08T08:25:54.74Z</time></trkpt><trkpt lat="45.6936433" lon="9.04797"><ele>257.5</ele><time>2026-04-08T08:25:55.741Z</time></trkpt><trkpt lat="45.6936783" lon="9.0481317"><ele>258.0</ele><time>2026-04-08T08:25:56.74Z</time></trkpt><trkpt lat="45.69372" lon="9.0483067"><ele>258.0</ele><time>2026-04-08T08:25:57.741Z</time></trkpt><trkpt lat="45.6937667" lon="9.0484867"><ele>258.0</ele><time>2026-04-08T08:25:58.741Z</time></trkpt><trkpt lat="45.6938117" lon="9.0486717"><ele>258.0</ele><time>2026-04-08T08:25:59.74Z</time></trkpt><trkpt lat="45.693865" lon="9.0488517"><ele>258.0</ele><time>2026-04-08T08:26:00.741Z</time></trkpt><trkpt lat="45.693915" lon="9.0490367"><ele>259.0</ele><time>2026-04-08T08:26:01.741Z</time></trkpt><trkpt lat="45.69396" lon="9.0492133"><ele>260.0</ele><time>2026-04-08T08:26:02.74Z</time></trkpt><trkpt lat="45.6940083" lon="9.0493933"><ele>261.0</ele><time>2026-04-08T08:26:03.741Z</time></trkpt><trkpt lat="45.6940517" lon="9.0495717"><ele>262.0</ele><time>2026-04-08T08:26:04.741Z</time></trkpt><trkpt lat="45.6940933" lon="9.0497367"><ele>262.0</ele><time>2026-04-08T08:26:05.74Z</time></trkpt><trkpt lat="45.69414" lon="9.0498983"><ele>262.0</ele><time>2026-04-08T08:26:06.74Z</time></trkpt><trkpt lat="45.694185" lon="9.0500567"><ele>262.0</ele><time>2026-04-08T08:26:07.74Z</time></trkpt><trkpt lat="45.694235" lon="9.05022"><ele>262.0</ele><time>2026-04-08T08:26:08.74Z</time></trkpt><trkpt lat="45.6942783" lon="9.0503833"><ele>263.0</ele><time>2026-04-08T08:26:09.74Z</time></trkpt><trkpt lat="45.6943233" lon="9.050555"><ele>264.0</ele><time>2026-04-08T08:26:10.74Z</time></trkpt><trkpt lat="45.6943583" lon="9.0507233"><ele>265.0</ele><time>2026-04-08T08:26:11.74Z</time></trkpt><trkpt lat="45.6943983" lon="9.050895"><ele>266.0</ele><time>2026-04-08T08:26:12.739Z</time></trkpt><trkpt lat="45.6944417" lon="9.0510567"><ele>266.0</ele><time>2026-04-08T08:26:13.74Z</time></trkpt><trkpt lat="45.6944767" lon="9.0512183"><ele>266.0</ele><time>2026-04-08T08:26:14.739Z</time></trkpt><trkpt lat="45.69451" lon="9.0513867"><ele>266.0</ele><time>2026-04-08T08:26:15.74Z</time></trkpt><trkpt lat="45.694555" lon="9.0515467"><ele>266.0</ele><time>2026-04-08T08:26:16.74Z</time></trkpt><trkpt lat="45.6945967" lon="9.0517"><ele>267.5</ele><time>2026-04-08T08:26:17.74Z</time></trkpt><trkpt lat="45.694635" lon="9.051855"><ele>269.0</ele><time>2026-04-08T08:26:18.74Z</time></trkpt><trkpt lat="45.694675" lon="9.0520017"><ele>270.5</ele><time>2026-04-08T08:26:19.74Z</time></trkpt><trkpt lat="45.6947133" lon="9.0521533"><ele>272.0</ele><time>2026-04-08T08:26:20.74Z</time></trkpt><trkpt lat="45.6947567" lon="9.0523083"><ele>274.0</ele><time>2026-04-08T08:26:21.74Z</time></trkpt><trkpt lat="45.6948" lon="9.0524667"><ele>276.0</ele><time>2026-04-08T08:26:22.74Z</time></trkpt><trkpt lat="45.69484" lon="9.052635"><ele>278.0</ele><time>2026-04-08T08:26:23.739Z</time></trkpt><trkpt lat="45.6948767" lon="9.0528033"><ele>280.0</ele><time>2026-04-08T08:26:24.74Z</time></trkpt><trkpt lat="45.694915" lon="9.0529533"><ele>280.0</ele><time>2026-04-08T08:26:25.74Z</time></trkpt><trkpt lat="45.6949533" lon="9.053095"><ele>280.0</ele><time>2026-04-08T08:26:26.74Z</time></trkpt><trkpt lat="45.6949883" lon="9.05322"><ele>280.0</ele><time>2026-04-08T08:26:27.74Z</time></trkpt><trkpt lat="45.6950167" lon="9.0533383"><ele>280.0</ele><time>2026-04-08T08:26:28.739Z</time></trkpt><trkpt lat="45.6950517" lon="9.0534433"><ele>280.0</ele><time>2026-04-08T08:26:29.74Z</time></trkpt><trkpt lat="45.69511" lon="9.053585"><ele>280.16666666666663</ele><time>2026-04-08T08:26:31.74Z</time></trkpt><trkpt lat="45.6951633" lon="9.0537233"><ele>280.3333333333333</ele><time>2026-04-08T08:26:33.74Z</time></trkpt><trkpt lat="45.6951983" lon="9.0538483"><ele>280.5</ele><time>2026-04-08T08:26:35.739Z</time></trkpt><trkpt lat="45.6952117" lon="9.0539667"><ele>280.6666666666667</ele><time>2026-04-08T08:26:38.739Z</time></trkpt><trkpt lat="45.695195" lon="9.0540717"><ele>280.83333333333337</ele><time>2026-04-08T08:26:51.74Z</time></trkpt><trkpt lat="45.6952067" lon="9.0541683"><ele>281.0</ele><time>2026-04-08T08:26:53.739Z</time></trkpt><trkpt lat="45.69521" lon="9.0543267"><ele>281.0</ele><time>2026-04-08T08:26:55.74Z</time></trkpt><trkpt lat="45.6952333" lon="9.0544267"><ele>281.0</ele><time>2026-04-08T08:26:56.74Z</time></trkpt><trkpt lat="45.69525" lon="9.0545217"><ele>281.0</ele><time>2026-04-08T08:26:57.74Z</time></trkpt><trkpt lat="45.6952617" lon="9.0546167"><ele>281.0</ele><time>2026-04-08T08:26:58.74Z</time></trkpt><trkpt lat="45.6952767" lon="9.0547267"><ele>281.0</ele><time>2026-04-08T08:26:59.74Z</time></trkpt><trkpt lat="45.6952967" lon="9.054855"><ele>281.0</ele><time>2026-04-08T08:27:00.74Z</time></trkpt><trkpt lat="45.6953183" lon="9.0549883"><ele>281.6</ele><time>2026-04-08T08:27:01.74Z</time></trkpt><trkpt lat="45.6953417" lon="9.05512"><ele>282.20000000000005</ele><time>2026-04-08T08:27:02.74Z</time></trkpt><trkpt lat="45.6953717" lon="9.0552583"><ele>282.79999999999995</ele><time>2026-04-08T08:27:03.739Z</time></trkpt><trkpt lat="45.6954017" lon="9.0554"><ele>283.4</ele><time>2026-04-08T08:27:04.74Z</time></trkpt><trkpt lat="45.69543" lon="9.0555383"><ele>284.0</ele><time>2026-04-08T08:27:05.74Z</time></trkpt><trkpt lat="45.6954417" lon="9.05568"><ele>284.0</ele><time>2026-04-08T08:27:06.739Z</time></trkpt><trkpt lat="45.6954517" lon="9.0558133"><ele>284.0</ele><time>2026-04-08T08:27:07.74Z</time></trkpt><trkpt lat="45.6954433" lon="9.0559533"><ele>284.0</ele><time>2026-04-08T08:27:08.739Z</time></trkpt><trkpt lat="45.69546" lon="9.0560967"><ele>284.0</ele><time>2026-04-08T08:27:09.74Z</time></trkpt><trkpt lat="45.6954733" lon="9.0562417"><ele>284.0</ele><time>2026-04-08T08:27:10.739Z</time></trkpt><trkpt lat="45.695505" lon="9.0563883"><ele>284.0</ele><time>2026-04-08T08:27:11.74Z</time></trkpt><trkpt lat="45.6955233" lon="9.056515"><ele>284.0</ele><time>2026-04-08T08:27:12.74Z</time></trkpt><trkpt lat="45.6955633" lon="9.05667"><ele>284.0</ele><time>2026-04-08T08:27:13.74Z</time></trkpt><trkpt lat="45.6955983" lon="9.0568183"><ele>284.0</ele><time>2026-04-08T08:27:14.74Z</time></trkpt><trkpt lat="45.6956333" lon="9.05697"><ele>284.0</ele><time>2026-04-08T08:27:15.739Z</time></trkpt><trkpt lat="45.69568" lon="9.0571167"><ele>284.0</ele><time>2026-04-08T08:27:16.739Z</time></trkpt><trkpt lat="45.6957167" lon="9.0572767"><ele>284.0</ele><time>2026-04-08T08:27:17.74Z</time></trkpt><trkpt lat="45.6957617" lon="9.0574333"><ele>284.0</ele><time>2026-04-08T08:27:18.74Z</time></trkpt><trkpt lat="45.6958033" lon="9.057585"><ele>284.0</ele><time>2026-04-08T08:27:19.74Z</time></trkpt><trkpt lat="45.6958267" lon="9.0577367"><ele>284.0</ele><time>2026-04-08T08:27:20.74Z</time></trkpt><trkpt lat="45.69585" lon="9.0578817"><ele>284.0</ele><time>2026-04-08T08:27:21.74Z</time></trkpt><trkpt lat="45.695875" lon="9.0580067"><ele>284.0</ele><time>2026-04-08T08:27:22.74Z</time></trkpt><trkpt lat="45.6958917" lon="9.0581083"><ele>284.0</ele><time>2026-04-08T08:27:23.739Z</time></trkpt><trkpt lat="45.6959217" lon="9.0582867"><ele>284.0</ele><time>2026-04-08T08:27:25.74Z</time></trkpt><trkpt lat="45.6959433" lon="9.05838"><ele>284.1666666666667</ele><time>2026-04-08T08:27:26.739Z</time></trkpt><trkpt lat="45.6959633" lon="9.0584833"><ele>284.33333333333337</ele><time>2026-04-08T08:27:27.739Z</time></trkpt><trkpt lat="45.6959817" lon="9.0585917"><ele>284.5</ele><time>2026-04-08T08:27:28.74Z</time></trkpt><trkpt lat="45.6960067" lon="9.05871"><ele>284.6666666666667</ele><time>2026-04-08T08:27:29.74Z</time></trkpt><trkpt lat="45.6960317" lon="9.0588467"><ele>284.8333333333333</ele><time>2026-04-08T08:27:30.74Z</time></trkpt><trkpt lat="45.69606" lon="9.058985"><ele>285.0</ele><time>2026-04-08T08:27:31.739Z</time></trkpt><trkpt lat="45.6960783" lon="9.0591317"><ele>285.8</ele><time>2026-04-08T08:27:32.74Z</time></trkpt><trkpt lat="45.6960967" lon="9.0592767"><ele>286.6</ele><time>2026-04-08T08:27:33.74Z</time></trkpt><trkpt lat="45.69612" lon="9.05941"><ele>287.4</ele><time>2026-04-08T08:27:34.74Z</time></trkpt><trkpt lat="45.6961433" lon="9.0595417"><ele>288.2</ele><time>2026-04-08T08:27:35.74Z</time></trkpt><trkpt lat="45.69616" lon="9.0596533"><ele>289.0</ele><time>2026-04-08T08:27:36.739Z</time></trkpt><trkpt lat="45.6961767" lon="9.05976"><ele>289.0</ele><time>2026-04-08T08:27:37.74Z</time></trkpt><trkpt lat="45.69619" lon="9.059855"><ele>289.0</ele><time>2026-04-08T08:27:38.74Z</time></trkpt><trkpt lat="45.6962083" lon="9.0599617"><ele>289.0</ele><time>2026-04-08T08:27:40.74Z</time></trkpt><trkpt lat="45.6961983" lon="9.06014"><ele>289.0</ele><time>2026-04-08T08:28:16.74Z</time></trkpt><trkpt lat="45.6962067" lon="9.0602583"><ele>289.0</ele><time>2026-04-08T08:28:18.74Z</time></trkpt><trkpt lat="45.6962217" lon="9.0603517"><ele>289.0</ele><time>2026-04-08T08:28:19.74Z</time></trkpt><trkpt lat="45.6962333" lon="9.0604583"><ele>288.8</ele><time>2026-04-08T08:28:20.74Z</time></trkpt><trkpt lat="45.6962417" lon="9.0605783"><ele>288.59999999999997</ele><time>2026-04-08T08:28:21.74Z</time></trkpt><trkpt lat="45.6962617" lon="9.0607283"><ele>288.4</ele><time>2026-04-08T08:28:22.74Z</time></trkpt><trkpt lat="45.6962817" lon="9.0608783"><ele>288.2</ele><time>2026-04-08T08:28:23.74Z</time></trkpt><trkpt lat="45.6963067" lon="9.0610417"><ele>288.0</ele><time>2026-04-08T08:28:24.74Z</time></trkpt><trkpt lat="45.69632" lon="9.061205"><ele>288.0</ele><time>2026-04-08T08:28:25.739Z</time></trkpt><trkpt lat="45.69633" lon="9.0613783"><ele>288.0</ele><time>2026-04-08T08:28:26.74Z</time></trkpt><trkpt lat="45.6963433" lon="9.0615567"><ele>288.0</ele><time>2026-04-08T08:28:27.74Z</time></trkpt><trkpt lat="45.69636" lon="9.0617367"><ele>288.0</ele><time>2026-04-08T08:28:28.74Z</time></trkpt><trkpt lat="45.6963733" lon="9.0619283"><ele>288.0</ele><time>2026-04-08T08:28:29.739Z</time></trkpt><trkpt lat="45.6963833" lon="9.0621117"><ele>288.0</ele><time>2026-04-08T08:28:30.739Z</time></trkpt><trkpt lat="45.6963867" lon="9.0622833"><ele>288.0</ele><time>2026-04-08T08:28:31.739Z</time></trkpt><trkpt lat="45.6963767" lon="9.06245"><ele>288.0</ele><time>2026-04-08T08:28:32.739Z</time></trkpt><trkpt lat="45.696385" lon="9.0626"><ele>287.6</ele><time>2026-04-08T08:28:33.739Z</time></trkpt><trkpt lat="45.6963967" lon="9.0627417"><ele>287.20000000000005</ele><time>2026-04-08T08:28:34.74Z</time></trkpt><trkpt lat="45.6964233" lon="9.0628817"><ele>286.8</ele><time>2026-04-08T08:28:35.74Z</time></trkpt><trkpt lat="45.69644" lon="9.0630183"><ele>286.40000000000003</ele><time>2026-04-08T08:28:36.74Z</time></trkpt><trkpt lat="45.6964517" lon="9.0631667"><ele>286.0</ele><time>2026-04-08T08:28:37.74Z</time></trkpt><trkpt lat="45.6964733" lon="9.0632983"><ele>286.0</ele><time>2026-04-08T08:28:38.739Z</time></trkpt><trkpt lat="45.6964817" lon="9.0634233"><ele>286.0</ele><time>2026-04-08T08:28:39.739Z</time></trkpt><trkpt lat="45.6964933" lon="9.0635483"><ele>286.0</ele><time>2026-04-08T08:28:40.74Z</time></trkpt><trkpt lat="45.6964883" lon="9.0636567"><ele>286.0</ele><time>2026-04-08T08:28:41.74Z</time></trkpt><trkpt lat="45.6964833" lon="9.06375"><ele>286.0</ele><time>2026-04-08T08:28:42.74Z</time></trkpt><trkpt lat="45.6964933" lon="9.0639033"><ele>286.0</ele><time>2026-04-08T08:28:44.74Z</time></trkpt><trkpt lat="45.6965067" lon="9.0640733"><ele>286.0</ele><time>2026-04-08T08:28:46.74Z</time></trkpt><trkpt lat="45.6965167" lon="9.0641833"><ele>286.0</ele><time>2026-04-08T08:28:47.739Z</time></trkpt><trkpt lat="45.6965267" lon="9.0643"><ele>286.0</ele><time>2026-04-08T08:28:48.739Z</time></trkpt><trkpt lat="45.6965267" lon="9.0644433"><ele>286.0</ele><time>2026-04-08T08:28:49.739Z</time></trkpt><trkpt lat="45.6965383" lon="9.06458"><ele>286.0</ele><time>2026-04-08T08:28:50.74Z</time></trkpt><trkpt lat="45.6965383" lon="9.06472"><ele>286.0</ele><time>2026-04-08T08:28:51.739Z</time></trkpt><trkpt lat="45.696565" lon="9.0648717"><ele>286.0</ele><time>2026-04-08T08:28:52.74Z</time></trkpt><trkpt lat="45.69658" lon="9.0650233"><ele>286.0</ele><time>2026-04-08T08:28:53.74Z</time></trkpt><trkpt lat="45.696595" lon="9.0651867"><ele>286.0</ele><time>2026-04-08T08:28:54.74Z</time></trkpt><trkpt lat="45.6966167" lon="9.06536"><ele>286.0</ele><time>2026-04-08T08:28:55.74Z</time></trkpt><trkpt lat="45.6966267" lon="9.0655333"><ele>286.0</ele><time>2026-04-08T08:28:56.739Z</time></trkpt><trkpt lat="45.69664" lon="9.0657033"><ele>286.0</ele><time>2026-04-08T08:28:57.74Z</time></trkpt><trkpt lat="45.696655" lon="9.0658717"><ele>286.0</ele><time>2026-04-08T08:28:58.74Z</time></trkpt><trkpt lat="45.6966717" lon="9.0660333"><ele>286.0</ele><time>2026-04-08T08:28:59.74Z</time></trkpt><trkpt lat="45.6966817" lon="9.0661933"><ele>286.0</ele><time>2026-04-08T08:29:00.74Z</time></trkpt><trkpt lat="45.696695" lon="9.0663583"><ele>286.0</ele><time>2026-04-08T08:29:01.739Z</time></trkpt><trkpt lat="45.69671" lon="9.0665033"><ele>286.0</ele><time>2026-04-08T08:29:02.74Z</time></trkpt><trkpt lat="45.6967167" lon="9.0666517"><ele>286.0</ele><time>2026-04-08T08:29:03.74Z</time></trkpt><trkpt lat="45.69673" lon="9.0667983"><ele>285.6</ele><time>2026-04-08T08:29:04.74Z</time></trkpt><trkpt lat="45.696755" lon="9.0669533"><ele>285.20000000000005</ele><time>2026-04-08T08:29:05.74Z</time></trkpt><trkpt lat="45.6967783" lon="9.067095"><ele>284.79999999999995</ele><time>2026-04-08T08:29:06.74Z</time></trkpt><trkpt lat="45.6968167" lon="9.06723"><ele>284.4</ele><time>2026-04-08T08:29:07.739Z</time></trkpt><trkpt lat="45.6968717" lon="9.0673583"><ele>284.0</ele><time>2026-04-08T08:29:08.739Z</time></trkpt><trkpt lat="45.69693" lon="9.067495"><ele>283.25</ele><time>2026-04-08T08:29:09.74Z</time></trkpt><trkpt lat="45.69699" lon="9.06764"><ele>282.5</ele><time>2026-04-08T08:29:10.74Z</time></trkpt><trkpt lat="45.69705" lon="9.067785"><ele>281.75</ele><time>2026-04-08T08:29:11.74Z</time></trkpt><trkpt lat="45.6971117" lon="9.067935"><ele>281.0</ele><time>2026-04-08T08:29:12.74Z</time></trkpt><trkpt lat="45.6971717" lon="9.06808"><ele>281.0</ele><time>2026-04-08T08:29:13.739Z</time></trkpt><trkpt lat="45.69723" lon="9.0682267"><ele>281.0</ele><time>2026-04-08T08:29:14.74Z</time></trkpt><trkpt lat="45.6972833" lon="9.0683717"><ele>281.0</ele><time>2026-04-08T08:29:15.739Z</time></trkpt><trkpt lat="45.6973383" lon="9.068515"><ele>281.0</ele><time>2026-04-08T08:29:16.739Z</time></trkpt><trkpt lat="45.6974033" lon="9.0686633"><ele>280.75</ele><time>2026-04-08T08:29:17.74Z</time></trkpt><trkpt lat="45.697465" lon="9.0688033"><ele>280.5</ele><time>2026-04-08T08:29:18.739Z</time></trkpt><trkpt lat="45.697525" lon="9.0689467"><ele>280.25</ele><time>2026-04-08T08:29:19.74Z</time></trkpt><trkpt lat="45.6975783" lon="9.0690933"><ele>280.0</ele><time>2026-04-08T08:29:20.74Z</time></trkpt><trkpt lat="45.6976317" lon="9.0692233"><ele>280.0</ele><time>2026-04-08T08:29:21.739Z</time></trkpt><trkpt lat="45.6976783" lon="9.069365"><ele>280.0</ele><time>2026-04-08T08:29:22.74Z</time></trkpt><trkpt lat="45.69773" lon="9.0694967"><ele>280.0</ele><time>2026-04-08T08:29:23.739Z</time></trkpt><trkpt lat="45.6977867" lon="9.0696267"><ele>280.0</ele><time>2026-04-08T08:29:24.74Z</time></trkpt><trkpt lat="45.6978483" lon="9.0697617"><ele>280.0</ele><time>2026-04-08T08:29:25.74Z</time></trkpt><trkpt lat="45.6979117" lon="9.069895"><ele>282.0</ele><time>2026-04-08T08:29:26.74Z</time></trkpt><trkpt lat="45.6979783" lon="9.0700317"><ele>284.0</ele><time>2026-04-08T08:29:27.739Z</time></trkpt><trkpt lat="45.69805" lon="9.070175"><ele>286.0</ele><time>2026-04-08T08:29:28.74Z</time></trkpt><trkpt lat="45.6981133" lon="9.0703233"><ele>288.0</ele><time>2026-04-08T08:29:29.74Z</time></trkpt><trkpt lat="45.6981767" lon="9.0704667"><ele>288.0</ele><time>2026-04-08T08:29:30.74Z</time></trkpt><trkpt lat="45.6982383" lon="9.07061"><ele>288.0</ele><time>2026-04-08T08:29:31.739Z</time></trkpt><trkpt lat="45.6983" lon="9.0707517"><ele>288.0</ele><time>2026-04-08T08:29:32.74Z</time></trkpt><trkpt lat="45.69836" lon="9.070895"><ele>288.0</ele><time>2026-04-08T08:29:33.74Z</time></trkpt><trkpt lat="45.69842" lon="9.0710317"><ele>288.5</ele><time>2026-04-08T08:29:34.74Z</time></trkpt><trkpt lat="45.6984783" lon="9.0711567"><ele>289.0</ele><time>2026-04-08T08:29:35.74Z</time></trkpt><trkpt lat="45.6985283" lon="9.071285"><ele>289.5</ele><time>2026-04-08T08:29:36.739Z</time></trkpt><trkpt lat="45.69857" lon="9.07139"><ele>290.0</ele><time>2026-04-08T08:29:37.74Z</time></trkpt><trkpt lat="45.6986117" lon="9.0714867"><ele>290.5</ele><time>2026-04-08T08:29:38.74Z</time></trkpt><trkpt lat="45.69865" lon="9.0715733"><ele>291.0</ele><time>2026-04-08T08:29:39.74Z</time></trkpt><trkpt lat="45.698685" lon="9.0716617"><ele>292.0</ele><time>2026-04-08T08:29:40.74Z</time></trkpt><trkpt lat="45.698725" lon="9.07176"><ele>293.0</ele><time>2026-04-08T08:29:41.739Z</time></trkpt><trkpt lat="45.698765" lon="9.07186"><ele>294.0</ele><time>2026-04-08T08:29:42.74Z</time></trkpt><trkpt lat="45.69881" lon="9.07197"><ele>295.0</ele><time>2026-04-08T08:29:43.739Z</time></trkpt><trkpt lat="45.698855" lon="9.0720833"><ele>296.0</ele><time>2026-04-08T08:29:44.74Z</time></trkpt><trkpt lat="45.698905" lon="9.0722"><ele>297.0</ele><time>2026-04-08T08:29:45.74Z</time></trkpt><trkpt lat="45.698955" lon="9.07232"><ele>297.0</ele><time>2026-04-08T08:29:46.74Z</time></trkpt><trkpt lat="45.6990067" lon="9.0724317"><ele>297.0</ele><time>2026-04-08T08:29:47.74Z</time></trkpt><trkpt lat="45.6990583" lon="9.0725517"><ele>297.0</ele><time>2026-04-08T08:29:48.739Z</time></trkpt><trkpt lat="45.69911" lon="9.072675"><ele>297.0</ele><time>2026-04-08T08:29:49.74Z</time></trkpt><trkpt lat="45.699165" lon="9.0728033"><ele>297.0</ele><time>2026-04-08T08:29:50.739Z</time></trkpt><trkpt lat="45.6992233" lon="9.0729367"><ele>297.25</ele><time>2026-04-08T08:29:51.74Z</time></trkpt><trkpt lat="45.699275" lon="9.0730717"><ele>297.5</ele><time>2026-04-08T08:29:52.74Z</time></trkpt><trkpt lat="45.6993333" lon="9.07322"><ele>297.75</ele><time>2026-04-08T08:29:53.74Z</time></trkpt><trkpt lat="45.69939" lon="9.0733667"><ele>298.0</ele><time>2026-04-08T08:29:54.74Z</time></trkpt><trkpt lat="45.6994617" lon="9.073515"><ele>299.5</ele><time>2026-04-08T08:29:55.74Z</time></trkpt><trkpt lat="45.6995267" lon="9.07366"><ele>301.0</ele><time>2026-04-08T08:29:56.74Z</time></trkpt><trkpt lat="45.6995883" lon="9.0738067"><ele>302.5</ele><time>2026-04-08T08:29:57.74Z</time></trkpt><trkpt lat="45.6996583" lon="9.0739467"><ele>304.0</ele><time>2026-04-08T08:29:58.74Z</time></trkpt><trkpt lat="45.6997267" lon="9.0740883"><ele>304.0</ele><time>2026-04-08T08:29:59.74Z</time></trkpt><trkpt lat="45.6998033" lon="9.0742283"><ele>304.0</ele><time>2026-04-08T08:30:00.74Z</time></trkpt><trkpt lat="45.6998783" lon="9.074365"><ele>304.0</ele><time>2026-04-08T08:30:01.74Z</time></trkpt><trkpt lat="45.6999517" lon="9.0745017"><ele>304.0</ele><time>2026-04-08T08:30:02.74Z</time></trkpt><trkpt lat="45.7000267" lon="9.07464"><ele>304.0</ele><time>2026-04-08T08:30:03.74Z</time></trkpt><trkpt lat="45.7001017" lon="9.0747717"><ele>304.0</ele><time>2026-04-08T08:30:04.74Z</time></trkpt><trkpt lat="45.7001733" lon="9.07491"><ele>304.0</ele><time>2026-04-08T08:30:05.739Z</time></trkpt><trkpt lat="45.700245" lon="9.0750283"><ele>304.0</ele><time>2026-04-08T08:30:06.74Z</time></trkpt><trkpt lat="45.7003083" lon="9.0751433"><ele>304.2</ele><time>2026-04-08T08:30:07.74Z</time></trkpt><trkpt lat="45.7003683" lon="9.0752633"><ele>304.4</ele><time>2026-04-08T08:30:08.74Z</time></trkpt><trkpt lat="45.7004283" lon="9.075375"><ele>304.6</ele><time>2026-04-08T08:30:09.74Z</time></trkpt><trkpt lat="45.7004883" lon="9.07549"><ele>304.8</ele><time>2026-04-08T08:30:10.74Z</time></trkpt><trkpt lat="45.700545" lon="9.075615"><ele>305.0</ele><time>2026-04-08T08:30:11.739Z</time></trkpt><trkpt lat="45.7006017" lon="9.0757317"><ele>304.8</ele><time>2026-04-08T08:30:12.74Z</time></trkpt><trkpt lat="45.700655" lon="9.07586"><ele>304.6</ele><time>2026-04-08T08:30:13.74Z</time></trkpt><trkpt lat="45.7007183" lon="9.0759817"><ele>304.4</ele><time>2026-04-08T08:30:14.74Z</time></trkpt><trkpt lat="45.70078" lon="9.0761067"><ele>304.2</ele><time>2026-04-08T08:30:15.74Z</time></trkpt><trkpt lat="45.700835" lon="9.0762533"><ele>304.0</ele><time>2026-04-08T08:30:16.74Z</time></trkpt><trkpt lat="45.7008883" lon="9.0763967"><ele>304.0</ele><time>2026-04-08T08:30:17.74Z</time></trkpt><trkpt lat="45.7009383" lon="9.0765333"><ele>304.0</ele><time>2026-04-08T08:30:18.74Z</time></trkpt><trkpt lat="45.700985" lon="9.0766817"><ele>304.0</ele><time>2026-04-08T08:30:19.74Z</time></trkpt><trkpt lat="45.701025" lon="9.0768317"><ele>304.0</ele><time>2026-04-08T08:30:20.74Z</time></trkpt><trkpt lat="45.701055" lon="9.07698"><ele>304.0</ele><time>2026-04-08T08:30:21.74Z</time></trkpt><trkpt lat="45.7010867" lon="9.077135"><ele>303.5</ele><time>2026-04-08T08:30:22.74Z</time></trkpt><trkpt lat="45.7011233" lon="9.077295"><ele>303.0</ele><time>2026-04-08T08:30:23.739Z</time></trkpt><trkpt lat="45.701165" lon="9.07747"><ele>302.5</ele><time>2026-04-08T08:30:24.74Z</time></trkpt><trkpt lat="45.7012033" lon="9.077645"><ele>302.0</ele><time>2026-04-08T08:30:25.74Z</time></trkpt><trkpt lat="45.701235" lon="9.0778183"><ele>301.75</ele><time>2026-04-08T08:30:26.74Z</time></trkpt><trkpt lat="45.7012733" lon="9.0779883"><ele>301.5</ele><time>2026-04-08T08:30:27.74Z</time></trkpt><trkpt lat="45.7013183" lon="9.0781433"><ele>301.25</ele><time>2026-04-08T08:30:28.74Z</time></trkpt><trkpt lat="45.7013633" lon="9.0783017"><ele>301.0</ele><time>2026-04-08T08:30:29.74Z</time></trkpt><trkpt lat="45.7014083" lon="9.07846"><ele>301.0</ele><time>2026-04-08T08:30:30.74Z</time></trkpt><trkpt lat="45.7014483" lon="9.078615"><ele>301.0</ele><time>2026-04-08T08:30:31.74Z</time></trkpt><trkpt lat="45.701485" lon="9.0787733"><ele>301.0</ele><time>2026-04-08T08:30:32.74Z</time></trkpt><trkpt lat="45.701525" lon="9.078935"><ele>301.0</ele><time>2026-04-08T08:30:33.74Z</time></trkpt><trkpt lat="45.70157" lon="9.0790883"><ele>301.25</ele><time>2026-04-08T08:30:34.74Z</time></trkpt><trkpt lat="45.7016067" lon="9.079235"><ele>301.5</ele><time>2026-04-08T08:30:35.74Z</time></trkpt><trkpt lat="45.7016183" lon="9.0793867"><ele>301.75</ele><time>2026-04-08T08:30:36.739Z</time></trkpt><trkpt lat="45.70165" lon="9.07955"><ele>302.0</ele><time>2026-04-08T08:30:37.74Z</time></trkpt><trkpt lat="45.7016933" lon="9.07971"><ele>302.0</ele><time>2026-04-08T08:30:38.74Z</time></trkpt><trkpt lat="45.70173" lon="9.079865"><ele>302.0</ele><time>2026-04-08T08:30:39.74Z</time></trkpt><trkpt lat="45.70176" lon="9.0800133"><ele>302.0</ele><time>2026-04-08T08:30:40.74Z</time></trkpt><trkpt lat="45.70179" lon="9.0801767"><ele>302.0</ele><time>2026-04-08T08:30:41.739Z</time></trkpt><trkpt lat="45.7018217" lon="9.080335"><ele>302.0</ele><time>2026-04-08T08:30:42.74Z</time></trkpt><trkpt lat="45.701855" lon="9.0804867"><ele>302.0</ele><time>2026-04-08T08:30:43.74Z</time></trkpt><trkpt lat="45.70189" lon="9.080625"><ele>302.0</ele><time>2026-04-08T08:30:44.74Z</time></trkpt><trkpt lat="45.7019417" lon="9.0807633"><ele>302.0</ele><time>2026-04-08T08:30:45.74Z</time></trkpt><trkpt lat="45.7019583" lon="9.0808983"><ele>302.0</ele><time>2026-04-08T08:30:46.739Z</time></trkpt><trkpt lat="45.7019867" lon="9.0810283"><ele>302.0</ele><time>2026-04-08T08:30:47.74Z</time></trkpt><trkpt lat="45.7019783" lon="9.08114"><ele>302.0</ele><time>2026-04-08T08:30:48.74Z</time></trkpt><trkpt lat="45.70202" lon="9.0812667"><ele>302.0</ele><time>2026-04-08T08:30:49.74Z</time></trkpt><trkpt lat="45.7020533" lon="9.0814033"><ele>302.0</ele><time>2026-04-08T08:30:50.74Z</time></trkpt><trkpt lat="45.7020883" lon="9.081535"><ele>302.0</ele><time>2026-04-08T08:30:51.74Z</time></trkpt><trkpt lat="45.702125" lon="9.0816717"><ele>302.4</ele><time>2026-04-08T08:30:52.74Z</time></trkpt><trkpt lat="45.702155" lon="9.0818"><ele>302.79999999999995</ele><time>2026-04-08T08:30:53.739Z</time></trkpt><trkpt lat="45.7021883" lon="9.081925"><ele>303.2</ele><time>2026-04-08T08:30:54.74Z</time></trkpt><trkpt lat="45.702215" lon="9.08205"><ele>303.59999999999997</ele><time>2026-04-08T08:30:55.739Z</time></trkpt><trkpt lat="45.702245" lon="9.0821867"><ele>304.0</ele><time>2026-04-08T08:30:56.74Z</time></trkpt><trkpt lat="45.7022783" lon="9.0823283"><ele>304.0</ele><time>2026-04-08T08:30:57.739Z</time></trkpt><trkpt lat="45.7023067" lon="9.0824733"><ele>304.0</ele><time>2026-04-08T08:30:58.74Z</time></trkpt><trkpt lat="45.7023367" lon="9.0826133"><ele>304.0</ele><time>2026-04-08T08:30:59.74Z</time></trkpt><trkpt lat="45.7023783" lon="9.0827467"><ele>304.0</ele><time>2026-04-08T08:31:00.74Z</time></trkpt><trkpt lat="45.7024117" lon="9.082885"><ele>304.0</ele><time>2026-04-08T08:31:01.74Z</time></trkpt><trkpt lat="45.7024433" lon="9.08302"><ele>304.0</ele><time>2026-04-08T08:31:02.74Z</time></trkpt><trkpt lat="45.7024733" lon="9.0831633"><ele>304.0</ele><time>2026-04-08T08:31:03.739Z</time></trkpt><trkpt lat="45.7025017" lon="9.083305"><ele>304.0</ele><time>2026-04-08T08:31:04.74Z</time></trkpt><trkpt lat="45.7025317" lon="9.0834467"><ele>304.0</ele><time>2026-04-08T08:31:05.74Z</time></trkpt><trkpt lat="45.702565" lon="9.0835967"><ele>304.0</ele><time>2026-04-08T08:31:06.74Z</time></trkpt><trkpt lat="45.7025983" lon="9.08374"><ele>303.8</ele><time>2026-04-08T08:31:07.739Z</time></trkpt><trkpt lat="45.70263" lon="9.0838833"><ele>303.59999999999997</ele><time>2026-04-08T08:31:08.74Z</time></trkpt><trkpt lat="45.7026667" lon="9.08403"><ele>303.4</ele><time>2026-04-08T08:31:09.74Z</time></trkpt><trkpt lat="45.7026933" lon="9.08417"><ele>303.2</ele><time>2026-04-08T08:31:10.74Z</time></trkpt><trkpt lat="45.70273" lon="9.08431"><ele>303.0</ele><time>2026-04-08T08:31:11.74Z</time></trkpt><trkpt lat="45.70276" lon="9.08446"><ele>302.8</ele><time>2026-04-08T08:31:12.74Z</time></trkpt><trkpt lat="45.7027917" lon="9.0846067"><ele>302.6</ele><time>2026-04-08T08:31:13.739Z</time></trkpt><trkpt lat="45.7028217" lon="9.0847483"><ele>302.4</ele><time>2026-04-08T08:31:14.74Z</time></trkpt><trkpt lat="45.702845" lon="9.0848717"><ele>302.2</ele><time>2026-04-08T08:31:15.739Z</time></trkpt><trkpt lat="45.7028733" lon="9.0849917"><ele>302.0</ele><time>2026-04-08T08:31:16.739Z</time></trkpt><trkpt lat="45.7029083" lon="9.0851067"><ele>302.0</ele><time>2026-04-08T08:31:17.74Z</time></trkpt><trkpt lat="45.70293" lon="9.0852283"><ele>302.0</ele><time>2026-04-08T08:31:18.74Z</time></trkpt><trkpt lat="45.70296" lon="9.08534"><ele>302.0</ele><time>2026-04-08T08:31:19.739Z</time></trkpt><trkpt lat="45.7029883" lon="9.08546"><ele>302.0</ele><time>2026-04-08T08:31:20.74Z</time></trkpt><trkpt lat="45.7030167" lon="9.085575"><ele>302.0</ele><time>2026-04-08T08:31:21.74Z</time></trkpt><trkpt lat="45.7030517" lon="9.0857"><ele>302.0</ele><time>2026-04-08T08:31:22.739Z</time></trkpt><trkpt lat="45.703085" lon="9.085835"><ele>301.8</ele><time>2026-04-08T08:31:23.739Z</time></trkpt><trkpt lat="45.7031117" lon="9.08597"><ele>301.6</ele><time>2026-04-08T08:31:24.74Z</time></trkpt><trkpt lat="45.7031367" lon="9.0861167"><ele>301.40000000000003</ele><time>2026-04-08T08:31:25.739Z</time></trkpt><trkpt lat="45.703165" lon="9.0862617"><ele>301.2</ele><time>2026-04-08T08:31:26.74Z</time></trkpt><trkpt lat="45.7031933" lon="9.0864067"><ele>301.0</ele><time>2026-04-08T08:31:27.739Z</time></trkpt><trkpt lat="45.703225" lon="9.08654"><ele>300.85714285714283</ele><time>2026-04-08T08:31:28.74Z</time></trkpt><trkpt lat="45.70325" lon="9.0866617"><ele>300.7142857142857</ele><time>2026-04-08T08:31:29.739Z</time></trkpt><trkpt lat="45.7032717" lon="9.0867683"><ele>300.57142857142856</ele><time>2026-04-08T08:31:30.739Z</time></trkpt><trkpt lat="45.7032933" lon="9.0868633"><ele>300.42857142857144</ele><time>2026-04-08T08:31:31.74Z</time></trkpt><trkpt lat="45.7033133" lon="9.08695"><ele>300.2857142857143</ele><time>2026-04-08T08:31:32.739Z</time></trkpt><trkpt lat="45.7033333" lon="9.0870417"><ele>300.1428571428571</ele><time>2026-04-08T08:31:33.74Z</time></trkpt><trkpt lat="45.70335" lon="9.0871433"><ele>300.0</ele><time>2026-04-08T08:31:34.74Z</time></trkpt><trkpt lat="45.7033733" lon="9.0872417"><ele>300.0</ele><time>2026-04-08T08:31:35.74Z</time></trkpt><trkpt lat="45.7034083" lon="9.087355"><ele>300.0</ele><time>2026-04-08T08:31:36.74Z</time></trkpt><trkpt lat="45.703435" lon="9.0874683"><ele>300.0</ele><time>2026-04-08T08:31:37.74Z</time></trkpt><trkpt lat="45.7034567" lon="9.0875883"><ele>300.0</ele><time>2026-04-08T08:31:38.739Z</time></trkpt><trkpt lat="45.7034767" lon="9.0877167"><ele>300.0</ele><time>2026-04-08T08:31:39.74Z</time></trkpt><trkpt lat="45.7035" lon="9.0878467"><ele>300.0</ele><time>2026-04-08T08:31:40.74Z</time></trkpt><trkpt lat="45.703525" lon="9.0879783"><ele>300.2</ele><time>2026-04-08T08:31:41.74Z</time></trkpt><trkpt lat="45.7035583" lon="9.0881067"><ele>300.4</ele><time>2026-04-08T08:31:42.74Z</time></trkpt><trkpt lat="45.7035883" lon="9.08824"><ele>300.6</ele><time>2026-04-08T08:31:43.739Z</time></trkpt><trkpt lat="45.7036183" lon="9.0883733"><ele>300.8</ele><time>2026-04-08T08:31:44.74Z</time></trkpt><trkpt lat="45.7036517" lon="9.0885"><ele>301.0</ele><time>2026-04-08T08:31:45.74Z</time></trkpt><trkpt lat="45.70369" lon="9.0886317"><ele>300.2</ele><time>2026-04-08T08:31:46.74Z</time></trkpt><trkpt lat="45.7037233" lon="9.0887617"><ele>299.40000000000003</ele><time>2026-04-08T08:31:47.739Z</time></trkpt><trkpt lat="45.7037583" lon="9.0889017"><ele>298.6</ele><time>2026-04-08T08:31:48.74Z</time></trkpt><trkpt lat="45.7037883" lon="9.089045"><ele>297.8</ele><time>2026-04-08T08:31:49.739Z</time></trkpt><trkpt lat="45.7038233" lon="9.08919"><ele>297.0</ele><time>2026-04-08T08:31:50.74Z</time></trkpt><trkpt lat="45.7038517" lon="9.08934"><ele>297.0</ele><time>2026-04-08T08:31:51.739Z</time></trkpt><trkpt lat="45.70388" lon="9.0895017"><ele>297.0</ele><time>2026-04-08T08:31:52.739Z</time></trkpt><trkpt lat="45.7039133" lon="9.0896633"><ele>297.0</ele><time>2026-04-08T08:31:53.739Z</time></trkpt><trkpt lat="45.7039517" lon="9.08981"><ele>297.0</ele><time>2026-04-08T08:31:54.74Z</time></trkpt><trkpt lat="45.7039867" lon="9.0899483"><ele>297.0</ele><time>2026-04-08T08:31:55.739Z</time></trkpt><trkpt lat="45.7040183" lon="9.0900883"><ele>297.2</ele><time>2026-04-08T08:31:56.74Z</time></trkpt><trkpt lat="45.70405" lon="9.0902317"><ele>297.4</ele><time>2026-04-08T08:31:57.739Z</time></trkpt><trkpt lat="45.7040767" lon="9.0903733"><ele>297.6</ele><time>2026-04-08T08:31:58.739Z</time></trkpt><trkpt lat="45.7041067" lon="9.0905"><ele>297.8</ele><time>2026-04-08T08:31:59.739Z</time></trkpt><trkpt lat="45.7041333" lon="9.0906167"><ele>298.0</ele><time>2026-04-08T08:32:00.74Z</time></trkpt><trkpt lat="45.70416" lon="9.0907267"><ele>298.0</ele><time>2026-04-08T08:32:01.739Z</time></trkpt><trkpt lat="45.7041783" lon="9.0908233"><ele>298.0</ele><time>2026-04-08T08:32:02.74Z</time></trkpt><trkpt lat="45.7042133" lon="9.0909567"><ele>298.0</ele><time>2026-04-08T08:32:04.739Z</time></trkpt><trkpt lat="45.7042283" lon="9.091055"><ele>298.0</ele><time>2026-04-08T08:32:07.739Z</time></trkpt><trkpt lat="45.7042317" lon="9.091205"><ele>298.0</ele><time>2026-04-08T08:32:13.74Z</time></trkpt><trkpt lat="45.70425" lon="9.0912933"><ele>298.0</ele><time>2026-04-08T08:32:14.74Z</time></trkpt><trkpt lat="45.7042733" lon="9.0913833"><ele>298.0</ele><time>2026-04-08T08:32:15.74Z</time></trkpt><trkpt lat="45.7043067" lon="9.09147"><ele>298.0</ele><time>2026-04-08T08:32:16.74Z</time></trkpt><trkpt lat="45.7043433" lon="9.091575"><ele>298.0</ele><time>2026-04-08T08:32:17.74Z</time></trkpt><trkpt lat="45.7043667" lon="9.0916683"><ele>298.0</ele><time>2026-04-08T08:32:18.74Z</time></trkpt><trkpt lat="45.7043917" lon="9.0917783"><ele>298.0</ele><time>2026-04-08T08:32:19.74Z</time></trkpt><trkpt lat="45.7044167" lon="9.0918967"><ele>298.0</ele><time>2026-04-08T08:32:20.74Z</time></trkpt><trkpt lat="45.7044433" lon="9.092025"><ele>298.2</ele><time>2026-04-08T08:32:21.74Z</time></trkpt><trkpt lat="45.7044717" lon="9.0921567"><ele>298.4</ele><time>2026-04-08T08:32:22.74Z</time></trkpt><trkpt lat="45.7045033" lon="9.0922817"><ele>298.59999999999997</ele><time>2026-04-08T08:32:23.74Z</time></trkpt><trkpt lat="45.7045333" lon="9.0924167"><ele>298.8</ele><time>2026-04-08T08:32:24.74Z</time></trkpt><trkpt lat="45.7045667" lon="9.0925433"><ele>299.0</ele><time>2026-04-08T08:32:25.74Z</time></trkpt><trkpt lat="45.7045967" lon="9.092675"><ele>299.4</ele><time>2026-04-08T08:32:26.739Z</time></trkpt><trkpt lat="45.7046233" lon="9.0928017"><ele>299.79999999999995</ele><time>2026-04-08T08:32:27.74Z</time></trkpt><trkpt lat="45.7046517" lon="9.0929367"><ele>300.20000000000005</ele><time>2026-04-08T08:32:28.74Z</time></trkpt><trkpt lat="45.70468" lon="9.0930617"><ele>300.6</ele><time>2026-04-08T08:32:29.739Z</time></trkpt><trkpt lat="45.70471" lon="9.0931917"><ele>301.0</ele><time>2026-04-08T08:32:30.74Z</time></trkpt><trkpt lat="45.7047317" lon="9.0933117"><ele>301.5</ele><time>2026-04-08T08:32:31.74Z</time></trkpt><trkpt lat="45.704765" lon="9.093415"><ele>302.0</ele><time>2026-04-08T08:32:32.74Z</time></trkpt><trkpt lat="45.7047833" lon="9.0935167"><ele>302.5</ele><time>2026-04-08T08:32:33.739Z</time></trkpt><trkpt lat="45.704805" lon="9.093605"><ele>303.0</ele><time>2026-04-08T08:32:34.74Z</time></trkpt><trkpt lat="45.7048483" lon="9.0937633"><ele>303.5</ele><time>2026-04-08T08:32:36.74Z</time></trkpt><trkpt lat="45.7048867" lon="9.0938983"><ele>304.0</ele><time>2026-04-08T08:32:38.74Z</time></trkpt><trkpt lat="45.7049267" lon="9.0940267"><ele>304.4</ele><time>2026-04-08T08:32:40.74Z</time></trkpt><trkpt lat="45.70496" lon="9.0941533"><ele>304.79999999999995</ele><time>2026-04-08T08:32:42.74Z</time></trkpt><trkpt lat="45.7050167" lon="9.094275"><ele>305.20000000000005</ele><time>2026-04-08T08:32:44.74Z</time></trkpt><trkpt lat="45.7051067" lon="9.0943267"><ele>305.6</ele><time>2026-04-08T08:32:46.74Z</time></trkpt><trkpt lat="45.7052217" lon="9.0942967"><ele>306.0</ele><time>2026-04-08T08:32:48.739Z</time></trkpt><trkpt lat="45.7053567" lon="9.0942433"><ele>306.0</ele><time>2026-04-08T08:32:50.739Z</time></trkpt><trkpt lat="45.7054383" lon="9.0942017"><ele>306.0</ele><time>2026-04-08T08:32:51.74Z</time></trkpt><trkpt lat="45.70552" lon="9.0941583"><ele>306.0</ele><time>2026-04-08T08:32:52.74Z</time></trkpt><trkpt lat="45.7056033" lon="9.0941067"><ele>306.0</ele><time>2026-04-08T08:32:53.74Z</time></trkpt><trkpt lat="45.7056867" lon="9.0940583"><ele>306.0</ele><time>2026-04-08T08:32:54.74Z</time></trkpt><trkpt lat="45.70577" lon="9.0940083"><ele>306.0</ele><time>2026-04-08T08:32:55.739Z</time></trkpt><trkpt lat="45.7058533" lon="9.0939567"><ele>306.6666666666667</ele><time>2026-04-08T08:32:56.74Z</time></trkpt><trkpt lat="45.705935" lon="9.0939133"><ele>307.3333333333333</ele><time>2026-04-08T08:32:57.74Z</time></trkpt><trkpt lat="45.70602" lon="9.0938717"><ele>308.0</ele><time>2026-04-08T08:32:58.74Z</time></trkpt><trkpt lat="45.7061083" lon="9.093845"><ele>308.66666666666663</ele><time>2026-04-08T08:32:59.74Z</time></trkpt><trkpt lat="45.7061983" lon="9.0938183"><ele>309.3333333333333</ele><time>2026-04-08T08:33:00.739Z</time></trkpt><trkpt lat="45.7062817" lon="9.093805"><ele>310.0</ele><time>2026-04-08T08:33:01.739Z</time></trkpt><trkpt lat="45.7063767" lon="9.0937933"><ele>310.6</ele><time>2026-04-08T08:33:02.74Z</time></trkpt><trkpt lat="45.7064817" lon="9.0938033"><ele>311.2</ele><time>2026-04-08T08:33:03.739Z</time></trkpt><trkpt lat="45.7065883" lon="9.093825"><ele>311.8</ele><time>2026-04-08T08:33:04.74Z</time></trkpt><trkpt lat="45.706695" lon="9.09383"><ele>312.4</ele><time>2026-04-08T08:33:05.74Z</time></trkpt><trkpt lat="45.7068017" lon="9.0938317"><ele>313.0</ele><time>2026-04-08T08:33:06.74Z</time></trkpt><trkpt lat="45.7069083" lon="9.093825"><ele>312.5</ele><time>2026-04-08T08:33:07.74Z</time></trkpt><trkpt lat="45.7070167" lon="9.09381"><ele>312.0</ele><time>2026-04-08T08:33:08.739Z</time></trkpt><trkpt lat="45.7071283" lon="9.093785"><ele>311.5</ele><time>2026-04-08T08:33:09.74Z</time></trkpt><trkpt lat="45.7072417" lon="9.0937583"><ele>311.0</ele><time>2026-04-08T08:33:10.74Z</time></trkpt><trkpt lat="45.7073617" lon="9.0937317"><ele>311.0</ele><time>2026-04-08T08:33:11.739Z</time></trkpt><trkpt lat="45.7074883" lon="9.09371"><ele>311.0</ele><time>2026-04-08T08:33:12.74Z</time></trkpt><trkpt lat="45.7076117" lon="9.0936967"><ele>311.0</ele><time>2026-04-08T08:33:13.74Z</time></trkpt><trkpt lat="45.7077317" lon="9.0936617"><ele>311.0</ele><time>2026-04-08T08:33:14.739Z</time></trkpt><trkpt lat="45.70785" lon="9.0936433"><ele>310.40000000000003</ele><time>2026-04-08T08:33:15.739Z</time></trkpt><trkpt lat="45.7079633" lon="9.0936167"><ele>309.8</ele><time>2026-04-08T08:33:16.74Z</time></trkpt><trkpt lat="45.7080717" lon="9.0935833"><ele>309.20000000000005</ele><time>2026-04-08T08:33:17.74Z</time></trkpt><trkpt lat="45.7081783" lon="9.0935517"><ele>308.6</ele><time>2026-04-08T08:33:18.739Z</time></trkpt><trkpt lat="45.7082867" lon="9.0935117"><ele>308.0</ele><time>2026-04-08T08:33:19.74Z</time></trkpt><trkpt lat="45.7083967" lon="9.0934617"><ele>308.0</ele><time>2026-04-08T08:33:20.74Z</time></trkpt><trkpt lat="45.7085033" lon="9.0934083"><ele>308.0</ele><time>2026-04-08T08:33:21.74Z</time></trkpt><trkpt lat="45.7086033" lon="9.0933583"><ele>308.0</ele><time>2026-04-08T08:33:22.74Z</time></trkpt><trkpt lat="45.708705" lon="9.0933017"><ele>308.0</ele><time>2026-04-08T08:33:23.74Z</time></trkpt><trkpt lat="45.7088067" lon="9.0932433"><ele>308.0</ele><time>2026-04-08T08:33:24.74Z</time></trkpt><trkpt lat="45.7089067" lon="9.09319"><ele>308.0</ele><time>2026-04-08T08:33:25.74Z</time></trkpt><trkpt lat="45.709" lon="9.093135"><ele>308.0</ele><time>2026-04-08T08:33:26.739Z</time></trkpt><trkpt lat="45.7090867" lon="9.0930983"><ele>308.0</ele><time>2026-04-08T08:33:27.74Z</time></trkpt><trkpt lat="45.70917" lon="9.0930717"><ele>308.0</ele><time>2026-04-08T08:33:28.74Z</time></trkpt><trkpt lat="45.709255" lon="9.0930683"><ele>308.0</ele><time>2026-04-08T08:33:29.74Z</time></trkpt><trkpt lat="45.70934" lon="9.0930867"><ele>308.0</ele><time>2026-04-08T08:33:30.74Z</time></trkpt><trkpt lat="45.7094233" lon="9.0931383"><ele>308.0</ele><time>2026-04-08T08:33:31.739Z</time></trkpt><trkpt lat="45.709495" lon="9.0932083"><ele>308.0</ele><time>2026-04-08T08:33:32.74Z</time></trkpt><trkpt lat="45.70957" lon="9.093305"><ele>308.0</ele><time>2026-04-08T08:33:33.74Z</time></trkpt><trkpt lat="45.7096433" lon="9.0934"><ele>308.0</ele><time>2026-04-08T08:33:34.739Z</time></trkpt><trkpt lat="45.7097217" lon="9.093495"><ele>308.0</ele><time>2026-04-08T08:33:35.739Z</time></trkpt><trkpt lat="45.7097933" lon="9.0935983"><ele>305.8</ele><time>2026-04-08T08:33:36.74Z</time></trkpt><trkpt lat="45.7098567" lon="9.0937083"><ele>303.6</ele><time>2026-04-08T08:33:37.74Z</time></trkpt><trkpt lat="45.7098967" lon="9.0938317"><ele>301.4</ele><time>2026-04-08T08:33:38.74Z</time></trkpt><trkpt lat="45.7099233" lon="9.0939517"><ele>299.2</ele><time>2026-04-08T08:33:39.739Z</time></trkpt><trkpt lat="45.7099367" lon="9.0940867"><ele>297.0</ele><time>2026-04-08T08:33:40.74Z</time></trkpt><trkpt lat="45.7099433" lon="9.09423"><ele>296.8</ele><time>2026-04-08T08:33:41.74Z</time></trkpt><trkpt lat="45.7099467" lon="9.0943817"><ele>296.6</ele><time>2026-04-08T08:33:42.739Z</time></trkpt><trkpt lat="45.7099617" lon="9.0945217"><ele>296.40000000000003</ele><time>2026-04-08T08:33:43.739Z</time></trkpt><trkpt lat="45.7099833" lon="9.0946483"><ele>296.2</ele><time>2026-04-08T08:33:44.74Z</time></trkpt><trkpt lat="45.7100217" lon="9.0947717"><ele>296.0</ele><time>2026-04-08T08:33:45.739Z</time></trkpt><trkpt lat="45.7100733" lon="9.09488"><ele>295.40000000000003</ele><time>2026-04-08T08:33:46.74Z</time></trkpt><trkpt lat="45.710145" lon="9.094975"><ele>294.8</ele><time>2026-04-08T08:33:47.74Z</time></trkpt><trkpt lat="45.7102267" lon="9.0950583"><ele>294.20000000000005</ele><time>2026-04-08T08:33:48.74Z</time></trkpt><trkpt lat="45.710315" lon="9.0951233"><ele>293.6</ele><time>2026-04-08T08:33:49.739Z</time></trkpt><trkpt lat="45.7104067" lon="9.0951583"><ele>293.0</ele><time>2026-04-08T08:33:50.74Z</time></trkpt><trkpt lat="45.710505" lon="9.09518"><ele>293.0</ele><time>2026-04-08T08:33:51.74Z</time></trkpt><trkpt lat="45.7106083" lon="9.0951883"><ele>293.0</ele><time>2026-04-08T08:33:52.74Z</time></trkpt><trkpt lat="45.71071" lon="9.0951867"><ele>293.0</ele><time>2026-04-08T08:33:53.74Z</time></trkpt><trkpt lat="45.7108217" lon="9.0951783"><ele>293.0</ele><time>2026-04-08T08:33:54.739Z</time></trkpt><trkpt lat="45.71094" lon="9.0951733"><ele>293.0</ele><time>2026-04-08T08:33:55.739Z</time></trkpt><trkpt lat="45.7110633" lon="9.0951617"><ele>292.0</ele><time>2026-04-08T08:33:56.74Z</time></trkpt><trkpt lat="45.7111967" lon="9.0951617"><ele>291.0</ele><time>2026-04-08T08:33:57.739Z</time></trkpt><trkpt lat="45.7113333" lon="9.0951667"><ele>290.0</ele><time>2026-04-08T08:33:58.74Z</time></trkpt><trkpt lat="45.7114783" lon="9.0951683"><ele>289.0</ele><time>2026-04-08T08:33:59.739Z</time></trkpt><trkpt lat="45.7116267" lon="9.095165"><ele>289.0</ele><time>2026-04-08T08:34:00.74Z</time></trkpt><trkpt lat="45.7117833" lon="9.0951567"><ele>289.0</ele><time>2026-04-08T08:34:01.74Z</time></trkpt><trkpt lat="45.7119383" lon="9.0951567"><ele>289.0</ele><time>2026-04-08T08:34:02.74Z</time></trkpt><trkpt lat="45.7120933" lon="9.0951617"><ele>288.3333333333333</ele><time>2026-04-08T08:34:03.74Z</time></trkpt><trkpt lat="45.7122483" lon="9.095165"><ele>287.6666666666667</ele><time>2026-04-08T08:34:04.74Z</time></trkpt><trkpt lat="45.7124133" lon="9.0951483"><ele>287.0</ele><time>2026-04-08T08:34:05.74Z</time></trkpt><trkpt lat="45.7125733" lon="9.0951317"><ele>287.0</ele><time>2026-04-08T08:34:06.74Z</time></trkpt><trkpt lat="45.712735" lon="9.09514"><ele>287.0</ele><time>2026-04-08T08:34:07.74Z</time></trkpt><trkpt lat="45.712895" lon="9.095145"><ele>287.0</ele><time>2026-04-08T08:34:08.74Z</time></trkpt><trkpt lat="45.7130517" lon="9.095155"><ele>287.0</ele><time>2026-04-08T08:34:09.74Z</time></trkpt><trkpt lat="45.71321" lon="9.09516"><ele>287.0</ele><time>2026-04-08T08:34:10.74Z</time></trkpt><trkpt lat="45.7133583" lon="9.095155"><ele>287.0</ele><time>2026-04-08T08:34:11.739Z</time></trkpt><trkpt lat="45.7135017" lon="9.095145"><ele>285.5</ele><time>2026-04-08T08:34:12.739Z</time></trkpt><trkpt lat="45.7136417" lon="9.095135"><ele>284.0</ele><time>2026-04-08T08:34:13.739Z</time></trkpt><trkpt lat="45.713765" lon="9.0951367"><ele>282.5</ele><time>2026-04-08T08:34:14.74Z</time></trkpt><trkpt lat="45.7138817" lon="9.0951367"><ele>281.0</ele><time>2026-04-08T08:34:15.739Z</time></trkpt><trkpt lat="45.7139917" lon="9.09515"><ele>281.0</ele><time>2026-04-08T08:34:16.74Z</time></trkpt><trkpt lat="45.7140933" lon="9.09517"><ele>281.0</ele><time>2026-04-08T08:34:17.739Z</time></trkpt><trkpt lat="45.7141883" lon="9.0952133"><ele>281.0</ele><time>2026-04-08T08:34:18.74Z</time></trkpt><trkpt lat="45.7142667" lon="9.0952583"><ele>281.0</ele><time>2026-04-08T08:34:19.74Z</time></trkpt><trkpt lat="45.71433" lon="9.09532"><ele>281.0</ele><time>2026-04-08T08:34:20.74Z</time></trkpt><trkpt lat="45.714385" lon="9.0953967"><ele>281.0</ele><time>2026-04-08T08:34:21.739Z</time></trkpt><trkpt lat="45.714425" lon="9.09549"><ele>280.83333333333337</ele><time>2026-04-08T08:34:22.739Z</time></trkpt><trkpt lat="45.7144583" lon="9.0955983"><ele>280.6666666666667</ele><time>2026-04-08T08:34:23.74Z</time></trkpt><trkpt lat="45.7144767" lon="9.095715"><ele>280.5</ele><time>2026-04-08T08:34:24.74Z</time></trkpt><trkpt lat="45.7144783" lon="9.0958317"><ele>280.3333333333333</ele><time>2026-04-08T08:34:25.74Z</time></trkpt><trkpt lat="45.7144583" lon="9.0959617"><ele>280.16666666666663</ele><time>2026-04-08T08:34:26.74Z</time></trkpt><trkpt lat="45.7144217" lon="9.0960883"><ele>280.0</ele><time>2026-04-08T08:34:27.74Z</time></trkpt><trkpt lat="45.7143683" lon="9.0962017"><ele>277.4</ele><time>2026-04-08T08:34:28.74Z</time></trkpt><trkpt lat="45.7143033" lon="9.0962933"><ele>274.8</ele><time>2026-04-08T08:34:29.74Z</time></trkpt><trkpt lat="45.7142167" lon="9.09637"><ele>272.2</ele><time>2026-04-08T08:34:30.739Z</time></trkpt><trkpt lat="45.714125" lon="9.0964267"><ele>269.6</ele><time>2026-04-08T08:34:31.74Z</time></trkpt><trkpt lat="45.7140183" lon="9.0964633"><ele>267.0</ele><time>2026-04-08T08:34:32.74Z</time></trkpt><trkpt lat="45.7138867" lon="9.096505"><ele>267.0</ele><time>2026-04-08T08:34:33.74Z</time></trkpt><trkpt lat="45.7137583" lon="9.09654"><ele>267.0</ele><time>2026-04-08T08:34:34.74Z</time></trkpt><trkpt lat="45.7136333" lon="9.0965867"><ele>267.0</ele><time>2026-04-08T08:34:35.74Z</time></trkpt><trkpt lat="45.7135083" lon="9.0966283"><ele>267.0</ele><time>2026-04-08T08:34:36.74Z</time></trkpt><trkpt lat="45.7133883" lon="9.0966767"><ele>266.5</ele><time>2026-04-08T08:34:37.74Z</time></trkpt><trkpt lat="45.7132667" lon="9.09672"><ele>266.0</ele><time>2026-04-08T08:34:38.739Z</time></trkpt><trkpt lat="45.7131517" lon="9.096775"><ele>265.5</ele><time>2026-04-08T08:34:39.739Z</time></trkpt><trkpt lat="45.713035" lon="9.0968367"><ele>265.0</ele><time>2026-04-08T08:34:40.74Z</time></trkpt><trkpt lat="45.71293" lon="9.0969117"><ele>265.0</ele><time>2026-04-08T08:34:41.74Z</time></trkpt><trkpt lat="45.7128383" lon="9.097"><ele>265.0</ele><time>2026-04-08T08:34:42.74Z</time></trkpt><trkpt lat="45.7127567" lon="9.0971"><ele>265.0</ele><time>2026-04-08T08:34:43.739Z</time></trkpt><trkpt lat="45.712685" lon="9.097215"><ele>265.0</ele><time>2026-04-08T08:34:44.739Z</time></trkpt><trkpt lat="45.7126267" lon="9.0973417"><ele>265.0</ele><time>2026-04-08T08:34:45.74Z</time></trkpt><trkpt lat="45.712575" lon="9.0974817"><ele>262.75</ele><time>2026-04-08T08:34:46.739Z</time></trkpt><trkpt lat="45.7125383" lon="9.0976317"><ele>260.5</ele><time>2026-04-08T08:34:47.74Z</time></trkpt><trkpt lat="45.7125117" lon="9.097795"><ele>258.25</ele><time>2026-04-08T08:34:48.74Z</time></trkpt><trkpt lat="45.712495" lon="9.09797"><ele>256.0</ele><time>2026-04-08T08:34:49.74Z</time></trkpt><trkpt lat="45.7124917" lon="9.09814"><ele>255.0</ele><time>2026-04-08T08:34:50.739Z</time></trkpt><trkpt lat="45.7125067" lon="9.0982983"><ele>254.00000000000003</ele><time>2026-04-08T08:34:51.74Z</time></trkpt><trkpt lat="45.7125367" lon="9.0984467"><ele>253.00000000000003</ele><time>2026-04-08T08:34:52.74Z</time></trkpt><trkpt lat="45.7125767" lon="9.09859"><ele>252.0</ele><time>2026-04-08T08:34:53.74Z</time></trkpt><trkpt lat="45.71263" lon="9.0987167"><ele>251.0</ele><time>2026-04-08T08:34:54.74Z</time></trkpt><trkpt lat="45.71269" lon="9.0988317"><ele>251.0</ele><time>2026-04-08T08:34:55.74Z</time></trkpt><trkpt lat="45.7127683" lon="9.098915"><ele>251.00000000000003</ele><time>2026-04-08T08:34:56.74Z</time></trkpt><trkpt lat="45.71286" lon="9.09898"><ele>251.00000000000003</ele><time>2026-04-08T08:34:57.74Z</time></trkpt><trkpt lat="45.7129533" lon="9.09902"><ele>251.0</ele><time>2026-04-08T08:34:58.74Z</time></trkpt><trkpt lat="45.7130433" lon="9.0990583"><ele>251.0</ele><time>2026-04-08T08:34:59.74Z</time></trkpt><trkpt lat="45.7131333" lon="9.09908"><ele>251.20000000000002</ele><time>2026-04-08T08:35:00.74Z</time></trkpt><trkpt lat="45.7132333" lon="9.09909"><ele>251.40000000000003</ele><time>2026-04-08T08:35:01.74Z</time></trkpt><trkpt lat="45.7133417" lon="9.0990983"><ele>251.6</ele><time>2026-04-08T08:35:02.74Z</time></trkpt><trkpt lat="45.7134533" lon="9.099105"><ele>251.8</ele><time>2026-04-08T08:35:03.74Z</time></trkpt><trkpt lat="45.7135567" lon="9.0991133"><ele>252.0</ele><time>2026-04-08T08:35:04.74Z</time></trkpt><trkpt lat="45.7136533" lon="9.0991583"><ele>251.39999999999998</ele><time>2026-04-08T08:35:05.74Z</time></trkpt><trkpt lat="45.7137517" lon="9.0992033"><ele>250.79999999999998</ele><time>2026-04-08T08:35:06.739Z</time></trkpt><trkpt lat="45.713855" lon="9.099265"><ele>250.2</ele><time>2026-04-08T08:35:07.74Z</time></trkpt><trkpt lat="45.7139583" lon="9.099315"><ele>249.6</ele><time>2026-04-08T08:35:08.739Z</time></trkpt><trkpt lat="45.71406" lon="9.099385"><ele>249.0</ele><time>2026-04-08T08:35:09.74Z</time></trkpt><trkpt lat="45.7141683" lon="9.09944"><ele>249.0</ele><time>2026-04-08T08:35:10.74Z</time></trkpt><trkpt lat="45.7142783" lon="9.09949"><ele>248.99999999999997</ele><time>2026-04-08T08:35:11.74Z</time></trkpt><trkpt lat="45.7143867" lon="9.0995383"><ele>248.99999999999997</ele><time>2026-04-08T08:35:12.74Z</time></trkpt><trkpt lat="45.714495" lon="9.09959"><ele>249.0</ele><time>2026-04-08T08:35:13.74Z</time></trkpt><trkpt lat="45.7145883" lon="9.09963"><ele>249.0</ele><time>2026-04-08T08:35:14.739Z</time></trkpt><trkpt lat="45.7146783" lon="9.0996633"><ele>248.83333333333334</ele><time>2026-04-08T08:35:15.739Z</time></trkpt><trkpt lat="45.7147683" lon="9.0996883"><ele>248.66666666666669</ele><time>2026-04-08T08:35:16.739Z</time></trkpt><trkpt lat="45.714845" lon="9.0996983"><ele>248.5</ele><time>2026-04-08T08:35:17.74Z</time></trkpt><trkpt lat="45.71492" lon="9.0996933"><ele>248.33333333333334</ele><time>2026-04-08T08:35:18.74Z</time></trkpt><trkpt lat="45.715" lon="9.0997"><ele>248.16666666666669</ele><time>2026-04-08T08:35:19.74Z</time></trkpt><trkpt lat="45.7150733" lon="9.0997133"><ele>248.0</ele><time>2026-04-08T08:35:20.739Z</time></trkpt><trkpt lat="45.7151433" lon="9.0997217"><ele>248.0</ele><time>2026-04-08T08:35:21.74Z</time></trkpt><trkpt lat="45.7152083" lon="9.0997233"><ele>248.00000000000003</ele><time>2026-04-08T08:35:22.74Z</time></trkpt><trkpt lat="45.7152783" lon="9.09974"><ele>248.0</ele><time>2026-04-08T08:35:23.74Z</time></trkpt><trkpt lat="45.7153467" lon="9.0997533"><ele>248.0</ele><time>2026-04-08T08:35:24.74Z</time></trkpt><trkpt lat="45.715415" lon="9.0997617"><ele>248.00000000000003</ele><time>2026-04-08T08:35:25.74Z</time></trkpt><trkpt lat="45.7154917" lon="9.0997717"><ele>248.0</ele><time>2026-04-08T08:35:26.74Z</time></trkpt><trkpt lat="45.7155617" lon="9.0997817"><ele>248.0</ele><time>2026-04-08T08:35:27.739Z</time></trkpt><trkpt lat="45.7156367" lon="9.0998033"><ele>248.2857142857143</ele><time>2026-04-08T08:35:28.739Z</time></trkpt><trkpt lat="45.715705" lon="9.0998183"><ele>248.5714285714286</ele><time>2026-04-08T08:35:29.74Z</time></trkpt><trkpt lat="45.7157733" lon="9.0998283"><ele>248.85714285714286</ele><time>2026-04-08T08:35:30.74Z</time></trkpt><trkpt lat="45.7158417" lon="9.0998317"><ele>249.14285714285717</ele><time>2026-04-08T08:35:31.74Z</time></trkpt><trkpt lat="45.7159117" lon="9.0998317"><ele>249.42857142857144</ele><time>2026-04-08T08:35:32.739Z</time></trkpt><trkpt lat="45.715985" lon="9.0998367"><ele>249.71428571428572</ele><time>2026-04-08T08:35:33.74Z</time></trkpt><trkpt lat="45.7160617" lon="9.09985"><ele>250.0</ele><time>2026-04-08T08:35:34.74Z</time></trkpt><trkpt lat="45.71613" lon="9.0998483"><ele>250.14285714285714</ele><time>2026-04-08T08:35:35.739Z</time></trkpt><trkpt lat="45.716195" lon="9.0998583"><ele>250.28571428571428</ele><time>2026-04-08T08:35:36.74Z</time></trkpt><trkpt lat="45.7162583" lon="9.099855"><ele>250.42857142857142</ele><time>2026-04-08T08:35:37.74Z</time></trkpt><trkpt lat="45.7163217" lon="9.0998467"><ele>250.57142857142856</ele><time>2026-04-08T08:35:38.74Z</time></trkpt><trkpt lat="45.716385" lon="9.09982"><ele>250.71428571428572</ele><time>2026-04-08T08:35:39.739Z</time></trkpt><trkpt lat="45.7164517" lon="9.0998017"><ele>250.85714285714283</ele><time>2026-04-08T08:35:40.74Z</time></trkpt><trkpt lat="45.71652" lon="9.0997867"><ele>250.99999999999997</ele><time>2026-04-08T08:35:41.74Z</time></trkpt><trkpt lat="45.716595" lon="9.099775"><ele>251.0</ele><time>2026-04-08T08:35:42.74Z</time></trkpt><trkpt lat="45.716685" lon="9.0997917"><ele>251.00000000000003</ele><time>2026-04-08T08:35:43.739Z</time></trkpt><trkpt lat="45.71678" lon="9.0998"><ele>251.00000000000003</ele><time>2026-04-08T08:35:44.739Z</time></trkpt><trkpt lat="45.71688" lon="9.09983"><ele>251.0</ele><time>2026-04-08T08:35:45.74Z</time></trkpt><trkpt lat="45.71698" lon="9.0998567"><ele>251.0</ele><time>2026-04-08T08:35:46.74Z</time></trkpt><trkpt lat="45.7170783" lon="9.0998983"><ele>250.50000000000003</ele><time>2026-04-08T08:35:47.74Z</time></trkpt><trkpt lat="45.7171733" lon="9.0999233"><ele>250.0</ele><time>2026-04-08T08:35:48.74Z</time></trkpt><trkpt lat="45.7172567" lon="9.0999517"><ele>249.5</ele><time>2026-04-08T08:35:49.739Z</time></trkpt><trkpt lat="45.7173417" lon="9.0999783"><ele>249.0</ele><time>2026-04-08T08:35:50.74Z</time></trkpt><trkpt lat="45.7174233" lon="9.1000067"><ele>248.50000000000003</ele><time>2026-04-08T08:35:51.74Z</time></trkpt><trkpt lat="45.717505" lon="9.1000217"><ele>248.0</ele><time>2026-04-08T08:35:52.74Z</time></trkpt><trkpt lat="45.7175833" lon="9.1000267"><ele>248.00000000000003</ele><time>2026-04-08T08:35:53.739Z</time></trkpt><trkpt lat="45.7176667" lon="9.1000467"><ele>248.0</ele><time>2026-04-08T08:35:54.74Z</time></trkpt><trkpt lat="45.71775" lon="9.10006"><ele>248.0</ele><time>2026-04-08T08:35:55.74Z</time></trkpt><trkpt lat="45.717835" lon="9.1000867"><ele>248.0</ele><time>2026-04-08T08:35:56.74Z</time></trkpt><trkpt lat="45.71792" lon="9.1001233"><ele>248.00000000000003</ele><time>2026-04-08T08:35:57.74Z</time></trkpt><trkpt lat="45.718015" lon="9.10017"><ele>248.0</ele><time>2026-04-08T08:35:58.74Z</time></trkpt><trkpt lat="45.7181067" lon="9.1002217"><ele>248.0</ele><time>2026-04-08T08:35:59.739Z</time></trkpt><trkpt lat="45.7182" lon="9.1002867"><ele>248.0</ele><time>2026-04-08T08:36:00.74Z</time></trkpt><trkpt lat="45.7182983" lon="9.1003333"><ele>248.0</ele><time>2026-04-08T08:36:01.74Z</time></trkpt><trkpt lat="45.7184017" lon="9.1003917"><ele>248.0</ele><time>2026-04-08T08:36:02.739Z</time></trkpt><trkpt lat="45.7184967" lon="9.10045"><ele>248.0</ele><time>2026-04-08T08:36:03.739Z</time></trkpt><trkpt lat="45.718595" lon="9.1005083"><ele>248.0</ele><time>2026-04-08T08:36:04.74Z</time></trkpt><trkpt lat="45.7186867" lon="9.100555"><ele>248.0</ele><time>2026-04-08T08:36:05.739Z</time></trkpt><trkpt lat="45.71878" lon="9.1006117"><ele>248.0</ele><time>2026-04-08T08:36:06.74Z</time></trkpt><trkpt lat="45.71887" lon="9.1006633"><ele>248.0</ele><time>2026-04-08T08:36:07.74Z</time></trkpt><trkpt lat="45.71896" lon="9.100715"><ele>248.0</ele><time>2026-04-08T08:36:08.74Z</time></trkpt><trkpt lat="45.7190567" lon="9.1007683"><ele>248.60000000000002</ele><time>2026-04-08T08:36:09.74Z</time></trkpt><trkpt lat="45.7191483" lon="9.1008183"><ele>249.20000000000002</ele><time>2026-04-08T08:36:10.74Z</time></trkpt><trkpt lat="45.7192367" lon="9.10087"><ele>249.8</ele><time>2026-04-08T08:36:11.739Z</time></trkpt><trkpt lat="45.7193233" lon="9.1009133"><ele>250.4</ele><time>2026-04-08T08:36:12.74Z</time></trkpt><trkpt lat="45.7194017" lon="9.1009633"><ele>251.0</ele><time>2026-04-08T08:36:13.74Z</time></trkpt><trkpt lat="45.7194733" lon="9.10101"><ele>250.99999999999997</ele><time>2026-04-08T08:36:14.74Z</time></trkpt><trkpt lat="45.7195433" lon="9.10105"><ele>251.0</ele><time>2026-04-08T08:36:15.74Z</time></trkpt><trkpt lat="45.71961" lon="9.1010883"><ele>250.99999999999997</ele><time>2026-04-08T08:36:16.74Z</time></trkpt><trkpt lat="45.7196783" lon="9.1011233"><ele>250.99999999999997</ele><time>2026-04-08T08:36:17.74Z</time></trkpt><trkpt lat="45.7197467" lon="9.1011633"><ele>251.0</ele><time>2026-04-08T08:36:18.74Z</time></trkpt><trkpt lat="45.719815" lon="9.1012"><ele>250.99999999999997</ele><time>2026-04-08T08:36:19.74Z</time></trkpt><trkpt lat="45.7198817" lon="9.1012383"><ele>250.99999999999997</ele><time>2026-04-08T08:36:20.74Z</time></trkpt><trkpt lat="45.719945" lon="9.1012767"><ele>251.00000000000003</ele><time>2026-04-08T08:36:21.74Z</time></trkpt><trkpt lat="45.7200067" lon="9.1013183"><ele>251.0</ele><time>2026-04-08T08:36:22.74Z</time></trkpt><trkpt lat="45.72007" lon="9.1013733"><ele>251.0</ele><time>2026-04-08T08:36:23.739Z</time></trkpt><trkpt lat="45.7201283" lon="9.10143"><ele>251.0</ele><time>2026-04-08T08:36:24.74Z</time></trkpt><trkpt lat="45.7201917" lon="9.1015033"><ele>251.00000000000003</ele><time>2026-04-08T08:36:25.74Z</time></trkpt><trkpt lat="45.7202467" lon="9.10159"><ele>251.0</ele><time>2026-04-08T08:36:26.74Z</time></trkpt><trkpt lat="45.7203133" lon="9.1016817"><ele>252.20000000000002</ele><time>2026-04-08T08:36:27.739Z</time></trkpt><trkpt lat="45.72038" lon="9.1017883"><ele>253.40000000000003</ele><time>2026-04-08T08:36:28.74Z</time></trkpt><trkpt lat="45.7204517" lon="9.101895"><ele>254.6</ele><time>2026-04-08T08:36:29.74Z</time></trkpt><trkpt lat="45.7205317" lon="9.1020017"><ele>255.8</ele><time>2026-04-08T08:36:30.74Z</time></trkpt><trkpt lat="45.7206167" lon="9.10212"><ele>257.0</ele><time>2026-04-08T08:36:31.74Z</time></trkpt><trkpt lat="45.7207083" lon="9.1022383"><ele>257.0</ele><time>2026-04-08T08:36:32.74Z</time></trkpt><trkpt lat="45.7208033" lon="9.10236"><ele>257.0</ele><time>2026-04-08T08:36:33.74Z</time></trkpt><trkpt lat="45.7208967" lon="9.1024967"><ele>257.0</ele><time>2026-04-08T08:36:34.739Z</time></trkpt><trkpt lat="45.7209917" lon="9.1026317"><ele>257.0</ele><time>2026-04-08T08:36:35.74Z</time></trkpt><trkpt lat="45.7210917" lon="9.1027867"><ele>259.33333333333337</ele><time>2026-04-08T08:36:36.74Z</time></trkpt><trkpt lat="45.7211967" lon="9.1029433"><ele>261.6666666666667</ele><time>2026-04-08T08:36:37.74Z</time></trkpt><trkpt lat="45.72131" lon="9.103095"><ele>264.0</ele><time>2026-04-08T08:36:38.74Z</time></trkpt><trkpt lat="45.721425" lon="9.1032367"><ele>263.0</ele><time>2026-04-08T08:36:39.74Z</time></trkpt><trkpt lat="45.72154" lon="9.103375"><ele>262.0</ele><time>2026-04-08T08:36:40.739Z</time></trkpt><trkpt lat="45.7216617" lon="9.1035017"><ele>261.0</ele><time>2026-04-08T08:36:41.74Z</time></trkpt><trkpt lat="45.7217917" lon="9.1036133"><ele>263.0</ele><time>2026-04-08T08:36:42.739Z</time></trkpt><trkpt lat="45.72192" lon="9.1037167"><ele>265.0</ele><time>2026-04-08T08:36:43.739Z</time></trkpt><trkpt lat="45.722055" lon="9.1038117"><ele>267.0</ele><time>2026-04-08T08:36:44.74Z</time></trkpt><trkpt lat="45.7221783" lon="9.1039"><ele>269.0</ele><time>2026-04-08T08:36:45.74Z</time></trkpt><trkpt lat="45.7223067" lon="9.1039983"><ele>268.25</ele><time>2026-04-08T08:36:46.739Z</time></trkpt><trkpt lat="45.72243" lon="9.1040883"><ele>267.5</ele><time>2026-04-08T08:36:47.74Z</time></trkpt><trkpt lat="45.722555" lon="9.1041767"><ele>266.75</ele><time>2026-04-08T08:36:48.74Z</time></trkpt><trkpt lat="45.722675" lon="9.10427"><ele>266.0</ele><time>2026-04-08T08:36:49.74Z</time></trkpt><trkpt lat="45.7228033" lon="9.1043617"><ele>266.0</ele><time>2026-04-08T08:36:50.739Z</time></trkpt><trkpt lat="45.7229233" lon="9.1044583"><ele>266.0</ele><time>2026-04-08T08:36:51.74Z</time></trkpt><trkpt lat="45.7230417" lon="9.1045517"><ele>266.0</ele><time>2026-04-08T08:36:52.739Z</time></trkpt><trkpt lat="45.7231583" lon="9.104655"><ele>266.0</ele><time>2026-04-08T08:36:53.74Z</time></trkpt><trkpt lat="45.723265" lon="9.1047683"><ele>266.0</ele><time>2026-04-08T08:36:54.74Z</time></trkpt><trkpt lat="45.7233717" lon="9.10489"><ele>266.0</ele><time>2026-04-08T08:36:55.739Z</time></trkpt><trkpt lat="45.7234717" lon="9.1050217"><ele>266.0</ele><time>2026-04-08T08:36:56.74Z</time></trkpt><trkpt lat="45.7235667" lon="9.1051633"><ele>266.0</ele><time>2026-04-08T08:36:57.739Z</time></trkpt><trkpt lat="45.72366" lon="9.1053083"><ele>267.75</ele><time>2026-04-08T08:36:58.739Z</time></trkpt><trkpt lat="45.723765" lon="9.1054417"><ele>269.5</ele><time>2026-04-08T08:36:59.74Z</time></trkpt><trkpt lat="45.7238717" lon="9.1055483"><ele>271.25</ele><time>2026-04-08T08:37:00.74Z</time></trkpt><trkpt lat="45.7239867" lon="9.1056467"><ele>273.0</ele><time>2026-04-08T08:37:01.739Z</time></trkpt><trkpt lat="45.724105" lon="9.1057433"><ele>274.25</ele><time>2026-04-08T08:37:02.74Z</time></trkpt><trkpt lat="45.724225" lon="9.1058367"><ele>275.5</ele><time>2026-04-08T08:37:03.739Z</time></trkpt><trkpt lat="45.7243433" lon="9.10593"><ele>276.75</ele><time>2026-04-08T08:37:04.74Z</time></trkpt><trkpt lat="45.7244617" lon="9.10602"><ele>278.0</ele><time>2026-04-08T08:37:05.74Z</time></trkpt><trkpt lat="45.7245783" lon="9.106115"><ele>278.5</ele><time>2026-04-08T08:37:06.74Z</time></trkpt><trkpt lat="45.724695" lon="9.1062083"><ele>279.0</ele><time>2026-04-08T08:37:07.74Z</time></trkpt><trkpt lat="45.7248117" lon="9.1063033"><ele>279.5</ele><time>2026-04-08T08:37:08.74Z</time></trkpt><trkpt lat="45.72493" lon="9.1064017"><ele>280.0</ele><time>2026-04-08T08:37:09.74Z</time></trkpt><trkpt lat="45.72505" lon="9.1065"><ele>281.75</ele><time>2026-04-08T08:37:10.739Z</time></trkpt><trkpt lat="45.7251683" lon="9.106595"><ele>283.5</ele><time>2026-04-08T08:37:11.739Z</time></trkpt><trkpt lat="45.7252883" lon="9.1066883"><ele>285.25</ele><time>2026-04-08T08:37:12.74Z</time></trkpt><trkpt lat="45.72541" lon="9.1067717"><ele>287.0</ele><time>2026-04-08T08:37:13.739Z</time></trkpt><trkpt lat="45.7255317" lon="9.1068583"><ele>287.0</ele><time>2026-04-08T08:37:14.739Z</time></trkpt><trkpt lat="45.725655" lon="9.1069567"><ele>287.0</ele><time>2026-04-08T08:37:15.739Z</time></trkpt><trkpt lat="45.725775" lon="9.1070717"><ele>287.0</ele><time>2026-04-08T08:37:16.74Z</time></trkpt><trkpt lat="45.7258967" lon="9.1071883"><ele>287.0</ele><time>2026-04-08T08:37:17.739Z</time></trkpt><trkpt lat="45.7260067" lon="9.1072917"><ele>286.75</ele><time>2026-04-08T08:37:18.74Z</time></trkpt><trkpt lat="45.72611" lon="9.1073783"><ele>286.5</ele><time>2026-04-08T08:37:19.74Z</time></trkpt><trkpt lat="45.7262067" lon="9.107445"><ele>286.25</ele><time>2026-04-08T08:37:20.74Z</time></trkpt><trkpt lat="45.7263167" lon="9.1075117"><ele>286.0</ele><time>2026-04-08T08:37:21.74Z</time></trkpt><trkpt lat="45.7264233" lon="9.1075533"><ele>287.6</ele><time>2026-04-08T08:37:22.74Z</time></trkpt><trkpt lat="45.7265333" lon="9.10757"><ele>289.20000000000005</ele><time>2026-04-08T08:37:23.74Z</time></trkpt><trkpt lat="45.72663" lon="9.1075567"><ele>290.79999999999995</ele><time>2026-04-08T08:37:24.74Z</time></trkpt><trkpt lat="45.7267267" lon="9.1075267"><ele>292.4</ele><time>2026-04-08T08:37:25.739Z</time></trkpt><trkpt lat="45.72683" lon="9.1075017"><ele>294.0</ele><time>2026-04-08T08:37:26.739Z</time></trkpt><trkpt lat="45.7269117" lon="9.1074367"><ele>294.0</ele><time>2026-04-08T08:37:27.74Z</time></trkpt><trkpt lat="45.726985" lon="9.1073483"><ele>294.0</ele><time>2026-04-08T08:37:28.74Z</time></trkpt><trkpt lat="45.7270483" lon="9.107245"><ele>294.0</ele><time>2026-04-08T08:37:29.739Z</time></trkpt><trkpt lat="45.72711" lon="9.107115"><ele>294.0</ele><time>2026-04-08T08:37:30.74Z</time></trkpt><trkpt lat="45.7271817" lon="9.1069883"><ele>294.0</ele><time>2026-04-08T08:37:31.74Z</time></trkpt><trkpt lat="45.7272517" lon="9.106845"><ele>294.0</ele><time>2026-04-08T08:37:32.74Z</time></trkpt><trkpt lat="45.72732" lon="9.1066967"><ele>294.0</ele><time>2026-04-08T08:37:33.74Z</time></trkpt><trkpt lat="45.7273867" lon="9.106555"><ele>294.0</ele><time>2026-04-08T08:37:34.74Z</time></trkpt><trkpt lat="45.7274567" lon="9.1064283"><ele>294.0</ele><time>2026-04-08T08:37:35.739Z</time></trkpt><trkpt lat="45.7275333" lon="9.10633"><ele>294.2</ele><time>2026-04-08T08:37:36.74Z</time></trkpt><trkpt lat="45.72762" lon="9.106265"><ele>294.4</ele><time>2026-04-08T08:37:37.74Z</time></trkpt><trkpt lat="45.72771" lon="9.1062233"><ele>294.6</ele><time>2026-04-08T08:37:38.74Z</time></trkpt><trkpt lat="45.7278083" lon="9.1062"><ele>294.8</ele><time>2026-04-08T08:37:39.74Z</time></trkpt><trkpt lat="45.7279017" lon="9.1062033"><ele>295.0</ele><time>2026-04-08T08:37:40.74Z</time></trkpt><trkpt lat="45.728" lon="9.1062217"><ele>295.0</ele><time>2026-04-08T08:37:41.739Z</time></trkpt><trkpt lat="45.72811" lon="9.1062533"><ele>295.0</ele><time>2026-04-08T08:37:42.74Z</time></trkpt><trkpt lat="45.7282183" lon="9.1063"><ele>295.0</ele><time>2026-04-08T08:37:43.74Z</time></trkpt><trkpt lat="45.7283183" lon="9.1063517"><ele>295.0</ele><time>2026-04-08T08:37:44.739Z</time></trkpt><trkpt lat="45.7284233" lon="9.106425"><ele>295.0</ele><time>2026-04-08T08:37:45.74Z</time></trkpt><trkpt lat="45.72851" lon="9.1065083"><ele>296.2</ele><time>2026-04-08T08:37:46.74Z</time></trkpt><trkpt lat="45.7285833" lon="9.1066083"><ele>297.4</ele><time>2026-04-08T08:37:47.739Z</time></trkpt><trkpt lat="45.7286417" lon="9.1067383"><ele>298.6</ele><time>2026-04-08T08:37:48.738Z</time></trkpt><trkpt lat="45.728685" lon="9.1068733"><ele>299.8</ele><time>2026-04-08T08:37:49.739Z</time></trkpt><trkpt lat="45.7287133" lon="9.1070117"><ele>301.0</ele><time>2026-04-08T08:37:50.738Z</time></trkpt><trkpt lat="45.7287367" lon="9.10714"><ele>301.0</ele><time>2026-04-08T08:37:51.739Z</time></trkpt><trkpt lat="45.7287467" lon="9.1072583"><ele>301.0</ele><time>2026-04-08T08:37:52.739Z</time></trkpt><trkpt lat="45.7287683" lon="9.1073683"><ele>301.0</ele><time>2026-04-08T08:37:53.739Z</time></trkpt><trkpt lat="45.7287933" lon="9.1074967"><ele>301.0</ele><time>2026-04-08T08:37:55.739Z</time></trkpt><trkpt lat="45.7288167" lon="9.1075933"><ele>301.0</ele><time>2026-04-08T08:37:59.739Z</time></trkpt><trkpt lat="45.7288367" lon="9.1076883"><ele>301.0</ele><time>2026-04-08T08:38:03.739Z</time></trkpt><trkpt lat="45.7288517" lon="9.1077833"><ele>300.8333333333333</ele><time>2026-04-08T08:38:07.739Z</time></trkpt><trkpt lat="45.7288683" lon="9.1078767"><ele>300.66666666666663</ele><time>2026-04-08T08:38:10.739Z</time></trkpt><trkpt lat="45.728885" lon="9.108"><ele>300.5</ele><time>2026-04-08T08:38:13.739Z</time></trkpt><trkpt lat="45.7289067" lon="9.10812"><ele>300.3333333333333</ele><time>2026-04-08T08:38:15.739Z</time></trkpt><trkpt lat="45.7289333" lon="9.10823"><ele>300.1666666666667</ele><time>2026-04-08T08:38:17.738Z</time></trkpt><trkpt lat="45.7289567" lon="9.1083367"><ele>300.0</ele><time>2026-04-08T08:38:19.738Z</time></trkpt><trkpt lat="45.72897" lon="9.1084383"><ele>300.4</ele><time>2026-04-08T08:38:21.738Z</time></trkpt><trkpt lat="45.7289783" lon="9.1085483"><ele>300.8</ele><time>2026-04-08T08:38:23.738Z</time></trkpt><trkpt lat="45.7290017" lon="9.1087017"><ele>301.2</ele><time>2026-04-08T08:38:25.738Z</time></trkpt><trkpt lat="45.7290533" lon="9.1088383"><ele>301.6</ele><time>2026-04-08T08:38:27.738Z</time></trkpt><trkpt lat="45.7291367" lon="9.1089"><ele>302.0</ele><time>2026-04-08T08:38:29.739Z</time></trkpt><trkpt lat="45.72924" lon="9.10887"><ele>302.0</ele><time>2026-04-08T08:38:31.738Z</time></trkpt><trkpt lat="45.729295" lon="9.1088217"><ele>302.0</ele><time>2026-04-08T08:38:32.738Z</time></trkpt><trkpt lat="45.7293583" lon="9.1087683"><ele>302.0</ele><time>2026-04-08T08:38:33.738Z</time></trkpt><trkpt lat="45.729435" lon="9.108715"><ele>302.0</ele><time>2026-04-08T08:38:34.739Z</time></trkpt><trkpt lat="45.729515" lon="9.1086717"><ele>302.0</ele><time>2026-04-08T08:38:35.738Z</time></trkpt><trkpt lat="45.7296133" lon="9.1086417"><ele>302.0</ele><time>2026-04-08T08:38:36.738Z</time></trkpt><trkpt lat="45.7297083" lon="9.1086167"><ele>301.4</ele><time>2026-04-08T08:38:37.739Z</time></trkpt><trkpt lat="45.7298033" lon="9.10859"><ele>300.79999999999995</ele><time>2026-04-08T08:38:38.739Z</time></trkpt><trkpt lat="45.7299117" lon="9.10858"><ele>300.2</ele><time>2026-04-08T08:38:39.739Z</time></trkpt><trkpt lat="45.7300267" lon="9.10856"><ele>299.59999999999997</ele><time>2026-04-08T08:38:40.739Z</time></trkpt><trkpt lat="45.7301517" lon="9.1085517"><ele>299.0</ele><time>2026-04-08T08:38:41.739Z</time></trkpt><trkpt lat="45.730265" lon="9.1085167"><ele>298.8</ele><time>2026-04-08T08:38:42.739Z</time></trkpt><trkpt lat="45.7303767" lon="9.1084883"><ele>298.59999999999997</ele><time>2026-04-08T08:38:43.739Z</time></trkpt><trkpt lat="45.7304917" lon="9.1084667"><ele>298.4</ele><time>2026-04-08T08:38:44.739Z</time></trkpt><trkpt lat="45.730605" lon="9.1084483"><ele>298.2</ele><time>2026-04-08T08:38:45.739Z</time></trkpt><trkpt lat="45.7307083" lon="9.1084233"><ele>298.0</ele><time>2026-04-08T08:38:46.739Z</time></trkpt><trkpt lat="45.7308183" lon="9.1084117"><ele>298.0</ele><time>2026-04-08T08:38:47.738Z</time></trkpt><trkpt lat="45.7309317" lon="9.1084117"><ele>298.0</ele><time>2026-04-08T08:38:48.739Z</time></trkpt><trkpt lat="45.73105" lon="9.1084317"><ele>298.0</ele><time>2026-04-08T08:38:49.738Z</time></trkpt><trkpt lat="45.7311633" lon="9.1084733"><ele>298.0</ele><time>2026-04-08T08:38:50.738Z</time></trkpt><trkpt lat="45.7312833" lon="9.1085333"><ele>297.0</ele><time>2026-04-08T08:38:51.739Z</time></trkpt><trkpt lat="45.7314033" lon="9.1086067"><ele>296.0</ele><time>2026-04-08T08:38:52.738Z</time></trkpt><trkpt lat="45.731535" lon="9.1086917"><ele>295.0</ele><time>2026-04-08T08:38:53.739Z</time></trkpt><trkpt lat="45.7316483" lon="9.1087683"><ele>294.0</ele><time>2026-04-08T08:38:54.739Z</time></trkpt><trkpt lat="45.7317617" lon="9.1088267"><ele>294.0</ele><time>2026-04-08T08:38:55.739Z</time></trkpt><trkpt lat="45.73188" lon="9.1089017"><ele>294.0</ele><time>2026-04-08T08:38:56.739Z</time></trkpt><trkpt lat="45.7319883" lon="9.1089767"><ele>294.0</ele><time>2026-04-08T08:38:57.739Z</time></trkpt><trkpt lat="45.7321033" lon="9.1090533"><ele>294.0</ele><time>2026-04-08T08:38:58.739Z</time></trkpt><trkpt lat="45.7322167" lon="9.1091417"><ele>294.75</ele><time>2026-04-08T08:38:59.738Z</time></trkpt><trkpt lat="45.7323183" lon="9.109235"><ele>295.5</ele><time>2026-04-08T08:39:00.739Z</time></trkpt><trkpt lat="45.732415" lon="9.1093233"><ele>296.25</ele><time>2026-04-08T08:39:01.739Z</time></trkpt><trkpt lat="45.7325133" lon="9.1094217"><ele>297.0</ele><time>2026-04-08T08:39:02.739Z</time></trkpt><trkpt lat="45.732615" lon="9.1095183"><ele>297.0</ele><time>2026-04-08T08:39:03.739Z</time></trkpt><trkpt lat="45.7327133" lon="9.1096233"><ele>297.0</ele><time>2026-04-08T08:39:04.738Z</time></trkpt><trkpt lat="45.732805" lon="9.1097367"><ele>297.0</ele><time>2026-04-08T08:39:05.739Z</time></trkpt><trkpt lat="45.7328983" lon="9.1098483"><ele>297.0</ele><time>2026-04-08T08:39:06.738Z</time></trkpt><trkpt lat="45.732995" lon="9.10996"><ele>297.5</ele><time>2026-04-08T08:39:07.739Z</time></trkpt><trkpt lat="45.7330983" lon="9.1100817"><ele>298.0</ele><time>2026-04-08T08:39:08.738Z</time></trkpt><trkpt lat="45.7332" lon="9.1102033"><ele>298.5</ele><time>2026-04-08T08:39:09.739Z</time></trkpt><trkpt lat="45.7332983" lon="9.1103367"><ele>299.0</ele><time>2026-04-08T08:39:10.739Z</time></trkpt><trkpt lat="45.733395" lon="9.1104633"><ele>299.0</ele><time>2026-04-08T08:39:11.738Z</time></trkpt><trkpt lat="45.7334817" lon="9.11058"><ele>299.0</ele><time>2026-04-08T08:39:12.739Z</time></trkpt><trkpt lat="45.73356" lon="9.1107"><ele>299.0</ele><time>2026-04-08T08:39:13.739Z</time></trkpt><trkpt lat="45.7336383" lon="9.1108033"><ele>299.0</ele><time>2026-04-08T08:39:14.738Z</time></trkpt><trkpt lat="45.73371" lon="9.1108883"><ele>299.0</ele><time>2026-04-08T08:39:15.739Z</time></trkpt><trkpt lat="45.733775" lon="9.1109683"><ele>298.7142857142857</ele><time>2026-04-08T08:39:16.739Z</time></trkpt><trkpt lat="45.7338317" lon="9.1110517"><ele>298.42857142857144</ele><time>2026-04-08T08:39:17.739Z</time></trkpt><trkpt lat="45.7338867" lon="9.111125"><ele>298.14285714285717</ele><time>2026-04-08T08:39:18.739Z</time></trkpt><trkpt lat="45.7339383" lon="9.1111917"><ele>297.8571428571429</ele><time>2026-04-08T08:39:19.739Z</time></trkpt><trkpt lat="45.73399" lon="9.1112633"><ele>297.5714285714286</ele><time>2026-04-08T08:39:20.738Z</time></trkpt><trkpt lat="45.73404" lon="9.1113433"><ele>297.2857142857143</ele><time>2026-04-08T08:39:21.739Z</time></trkpt><trkpt lat="45.7340917" lon="9.1114183"><ele>297.0</ele><time>2026-04-08T08:39:22.738Z</time></trkpt><trkpt lat="45.7341367" lon="9.1115133"><ele>296.8571428571429</ele><time>2026-04-08T08:39:23.739Z</time></trkpt><trkpt lat="45.7341817" lon="9.11161"><ele>296.7142857142857</ele><time>2026-04-08T08:39:24.739Z</time></trkpt><trkpt lat="45.7342233" lon="9.1117117"><ele>296.57142857142856</ele><time>2026-04-08T08:39:25.739Z</time></trkpt><trkpt lat="45.7342633" lon="9.1118"><ele>296.42857142857144</ele><time>2026-04-08T08:39:26.738Z</time></trkpt><trkpt lat="45.7343033" lon="9.11188"><ele>296.2857142857143</ele><time>2026-04-08T08:39:27.738Z</time></trkpt><trkpt lat="45.7343533" lon="9.1119383"><ele>296.14285714285717</ele><time>2026-04-08T08:39:28.739Z</time></trkpt><trkpt lat="45.73441" lon="9.1119817"><ele>296.0</ele><time>2026-04-08T08:39:29.738Z</time></trkpt><trkpt lat="45.7344783" lon="9.11201"><ele>295.6</ele><time>2026-04-08T08:39:30.739Z</time></trkpt><trkpt lat="45.734555" lon="9.11204"><ele>295.20000000000005</ele><time>2026-04-08T08:39:31.739Z</time></trkpt><trkpt lat="45.734635" lon="9.1120867"><ele>294.79999999999995</ele><time>2026-04-08T08:39:32.738Z</time></trkpt><trkpt lat="45.734715" lon="9.11215"><ele>294.4</ele><time>2026-04-08T08:39:33.739Z</time></trkpt><trkpt lat="45.7347983" lon="9.1122333"><ele>294.0</ele><time>2026-04-08T08:39:34.738Z</time></trkpt><trkpt lat="45.7348883" lon="9.112335"><ele>294.5</ele><time>2026-04-08T08:39:35.738Z</time></trkpt><trkpt lat="45.734985" lon="9.11244"><ele>295.0</ele><time>2026-04-08T08:39:36.739Z</time></trkpt><trkpt lat="45.735095" lon="9.112545"><ele>295.5</ele><time>2026-04-08T08:39:37.739Z</time></trkpt><trkpt lat="45.7352083" lon="9.1126633"><ele>296.0</ele><time>2026-04-08T08:39:38.739Z</time></trkpt><trkpt lat="45.735325" lon="9.1127767"><ele>296.33333333333337</ele><time>2026-04-08T08:39:39.739Z</time></trkpt><trkpt lat="45.7354433" lon="9.1129133"><ele>296.6666666666667</ele><time>2026-04-08T08:39:40.739Z</time></trkpt><trkpt lat="45.7355633" lon="9.1130467"><ele>297.0</ele><time>2026-04-08T08:39:41.738Z</time></trkpt><trkpt lat="45.73568" lon="9.1131767"><ele>297.3333333333333</ele><time>2026-04-08T08:39:42.739Z</time></trkpt><trkpt lat="45.7357967" lon="9.1133167"><ele>297.66666666666663</ele><time>2026-04-08T08:39:43.739Z</time></trkpt><trkpt lat="45.73592" lon="9.1134583"><ele>298.0</ele><time>2026-04-08T08:39:44.739Z</time></trkpt><trkpt lat="45.7360317" lon="9.1136117"><ele>298.0</ele><time>2026-04-08T08:39:45.738Z</time></trkpt><trkpt lat="45.7361417" lon="9.11376"><ele>298.0</ele><time>2026-04-08T08:39:46.739Z</time></trkpt><trkpt lat="45.7362467" lon="9.11391"><ele>298.0</ele><time>2026-04-08T08:39:47.738Z</time></trkpt><trkpt lat="45.7363467" lon="9.1140583"><ele>298.0</ele><time>2026-04-08T08:39:48.739Z</time></trkpt><trkpt lat="45.7364417" lon="9.1142083"><ele>298.75</ele><time>2026-04-08T08:39:49.739Z</time></trkpt><trkpt lat="45.7365433" lon="9.1143617"><ele>299.5</ele><time>2026-04-08T08:39:50.739Z</time></trkpt><trkpt lat="45.7366383" lon="9.1145117"><ele>300.25</ele><time>2026-04-08T08:39:51.739Z</time></trkpt><trkpt lat="45.7367283" lon="9.1146683"><ele>301.0</ele><time>2026-04-08T08:39:52.738Z</time></trkpt><trkpt lat="45.7368167" lon="9.114815"><ele>301.25</ele><time>2026-04-08T08:39:53.738Z</time></trkpt><trkpt lat="45.73691" lon="9.11496"><ele>301.5</ele><time>2026-04-08T08:39:54.739Z</time></trkpt><trkpt lat="45.7370017" lon="9.1151017"><ele>301.75</ele><time>2026-04-08T08:39:55.739Z</time></trkpt><trkpt lat="45.737095" lon="9.11524"><ele>302.0</ele><time>2026-04-08T08:39:56.738Z</time></trkpt><trkpt lat="45.7372" lon="9.1153617"><ele>302.0</ele><time>2026-04-08T08:39:57.738Z</time></trkpt><trkpt lat="45.737305" lon="9.1154833"><ele>302.0</ele><time>2026-04-08T08:39:58.739Z</time></trkpt><trkpt lat="45.73741" lon="9.1156017"><ele>302.0</ele><time>2026-04-08T08:39:59.739Z</time></trkpt><trkpt lat="45.7375133" lon="9.11572"><ele>302.0</ele><time>2026-04-08T08:40:00.739Z</time></trkpt><trkpt lat="45.7376117" lon="9.11582"><ele>302.2</ele><time>2026-04-08T08:40:01.738Z</time></trkpt><trkpt lat="45.7377033" lon="9.11593"><ele>302.4</ele><time>2026-04-08T08:40:02.739Z</time></trkpt><trkpt lat="45.737795" lon="9.11602"><ele>302.6</ele><time>2026-04-08T08:40:03.739Z</time></trkpt><trkpt lat="45.7378767" lon="9.1161167"><ele>302.8</ele><time>2026-04-08T08:40:04.738Z</time></trkpt><trkpt lat="45.737955" lon="9.116205"><ele>303.0</ele><time>2026-04-08T08:40:05.739Z</time></trkpt><trkpt lat="45.73804" lon="9.1162967"><ele>303.0</ele><time>2026-04-08T08:40:06.739Z</time></trkpt><trkpt lat="45.7381283" lon="9.116385"><ele>303.0</ele><time>2026-04-08T08:40:07.738Z</time></trkpt><trkpt lat="45.7382183" lon="9.1164683"><ele>303.0</ele><time>2026-04-08T08:40:08.739Z</time></trkpt><trkpt lat="45.7383067" lon="9.1165517"><ele>303.0</ele><time>2026-04-08T08:40:09.739Z</time></trkpt><trkpt lat="45.7383917" lon="9.116635"><ele>303.0</ele><time>2026-04-08T08:40:10.739Z</time></trkpt><trkpt lat="45.738475" lon="9.1167117"><ele>303.4</ele><time>2026-04-08T08:40:11.739Z</time></trkpt><trkpt lat="45.7385567" lon="9.1167867"><ele>303.8</ele><time>2026-04-08T08:40:12.739Z</time></trkpt><trkpt lat="45.7386383" lon="9.11686"><ele>304.2</ele><time>2026-04-08T08:40:13.738Z</time></trkpt><trkpt lat="45.73872" lon="9.1169283"><ele>304.6</ele><time>2026-04-08T08:40:14.739Z</time></trkpt><trkpt lat="45.7387967" lon="9.117005"><ele>305.0</ele><time>2026-04-08T08:40:15.738Z</time></trkpt><trkpt lat="45.7388783" lon="9.1170867"><ele>305.0</ele><time>2026-04-08T08:40:16.739Z</time></trkpt><trkpt lat="45.7389633" lon="9.117165"><ele>305.0</ele><time>2026-04-08T08:40:17.738Z</time></trkpt><trkpt lat="45.7390483" lon="9.1172433"><ele>305.0</ele><time>2026-04-08T08:40:18.739Z</time></trkpt><trkpt lat="45.7391367" lon="9.1173233"><ele>305.0</ele><time>2026-04-08T08:40:19.739Z</time></trkpt><trkpt lat="45.7392267" lon="9.1174067"><ele>305.0</ele><time>2026-04-08T08:40:20.739Z</time></trkpt><trkpt lat="45.739315" lon="9.1175017"><ele>305.0</ele><time>2026-04-08T08:40:21.739Z</time></trkpt><trkpt lat="45.7394083" lon="9.11759"><ele>305.0</ele><time>2026-04-08T08:40:22.739Z</time></trkpt><trkpt lat="45.7395017" lon="9.11767"><ele>305.0</ele><time>2026-04-08T08:40:23.739Z</time></trkpt><trkpt lat="45.739595" lon="9.1177483"><ele>305.0</ele><time>2026-04-08T08:40:24.739Z</time></trkpt><trkpt lat="45.7396817" lon="9.1178317"><ele>305.0</ele><time>2026-04-08T08:40:25.739Z</time></trkpt><trkpt lat="45.739765" lon="9.1179083"><ele>305.0</ele><time>2026-04-08T08:40:26.739Z</time></trkpt><trkpt lat="45.73985" lon="9.1179883"><ele>305.0</ele><time>2026-04-08T08:40:27.739Z</time></trkpt><trkpt lat="45.7399317" lon="9.1180683"><ele>305.0</ele><time>2026-04-08T08:40:28.738Z</time></trkpt><trkpt lat="45.7400133" lon="9.118145"><ele>305.0</ele><time>2026-04-08T08:40:29.738Z</time></trkpt><trkpt lat="45.7400917" lon="9.1182133"><ele>305.0</ele><time>2026-04-08T08:40:30.738Z</time></trkpt><trkpt lat="45.74017" lon="9.1182833"><ele>305.6666666666667</ele><time>2026-04-08T08:40:31.739Z</time></trkpt><trkpt lat="45.7402483" lon="9.1183567"><ele>306.33333333333337</ele><time>2026-04-08T08:40:32.738Z</time></trkpt><trkpt lat="45.74032" lon="9.11843"><ele>307.0</ele><time>2026-04-08T08:40:33.739Z</time></trkpt><trkpt lat="45.74039" lon="9.1184967"><ele>307.6666666666667</ele><time>2026-04-08T08:40:34.739Z</time></trkpt><trkpt lat="45.7404633" lon="9.1185717"><ele>308.3333333333333</ele><time>2026-04-08T08:40:35.739Z</time></trkpt><trkpt lat="45.7405317" lon="9.1186383"><ele>309.0</ele><time>2026-04-08T08:40:36.739Z</time></trkpt><trkpt lat="45.7405967" lon="9.1186933"><ele>309.0</ele><time>2026-04-08T08:40:37.739Z</time></trkpt><trkpt lat="45.7407017" lon="9.118785"><ele>309.0</ele><time>2026-04-08T08:40:39.738Z</time></trkpt><trkpt lat="45.74079" lon="9.1188833"><ele>309.0</ele><time>2026-04-08T08:40:41.738Z</time></trkpt><trkpt lat="45.7408433" lon="9.118955"><ele>309.0</ele><time>2026-04-08T08:40:43.739Z</time></trkpt><trkpt lat="45.7409167" lon="9.1190517"><ele>309.0</ele><time>2026-04-08T08:40:46.738Z</time></trkpt><trkpt lat="45.7409633" lon="9.1191567"><ele>309.0</ele><time>2026-04-08T08:40:48.738Z</time></trkpt><trkpt lat="45.7409817" lon="9.1192667"><ele>309.0</ele><time>2026-04-08T08:40:50.739Z</time></trkpt><trkpt lat="45.7409733" lon="9.11943"><ele>309.0</ele><time>2026-04-08T08:40:52.739Z</time></trkpt><trkpt lat="45.740955" lon="9.1196217"><ele>309.0</ele><time>2026-04-08T08:40:54.739Z</time></trkpt><trkpt lat="45.740945" lon="9.11973"><ele>309.0</ele><time>2026-04-08T08:40:55.738Z</time></trkpt><trkpt lat="45.7409133" lon="9.1199"><ele>309.0</ele><time>2026-04-08T08:40:57.739Z</time></trkpt><trkpt lat="45.74089" lon="9.1200483"><ele>309.0</ele><time>2026-04-08T08:40:59.739Z</time></trkpt><trkpt lat="45.740875" lon="9.1201733"><ele>309.0</ele><time>2026-04-08T08:41:01.738Z</time></trkpt><trkpt lat="45.7408583" lon="9.1203033"><ele>309.0</ele><time>2026-04-08T08:41:03.739Z</time></trkpt><trkpt lat="45.7408433" lon="9.1204117"><ele>309.0</ele><time>2026-04-08T08:41:05.739Z</time></trkpt><trkpt lat="45.740825" lon="9.1205067"><ele>309.0</ele><time>2026-04-08T08:41:08.739Z</time></trkpt><trkpt lat="45.74079" lon="9.1205867"><ele>309.0</ele><time>2026-04-08T08:41:25.739Z</time></trkpt><trkpt lat="45.740785" lon="9.120695"><ele>309.0</ele><time>2026-04-08T08:41:27.738Z</time></trkpt><trkpt lat="45.7407467" lon="9.12085"><ele>309.0</ele><time>2026-04-08T08:41:29.738Z</time></trkpt><trkpt lat="45.740715" lon="9.121025"><ele>309.0</ele><time>2026-04-08T08:41:31.739Z</time></trkpt><trkpt lat="45.7407017" lon="9.1211267"><ele>309.0</ele><time>2026-04-08T08:41:32.739Z</time></trkpt><trkpt lat="45.7406817" lon="9.1212433"><ele>309.2</ele><time>2026-04-08T08:41:33.739Z</time></trkpt><trkpt lat="45.74066" lon="9.1213733"><ele>309.4</ele><time>2026-04-08T08:41:34.738Z</time></trkpt><trkpt lat="45.7406383" lon="9.1215067"><ele>309.6</ele><time>2026-04-08T08:41:35.738Z</time></trkpt><trkpt lat="45.7406133" lon="9.1216333"><ele>309.8</ele><time>2026-04-08T08:41:36.739Z</time></trkpt><trkpt lat="45.74059" lon="9.1217717"><ele>310.0</ele><time>2026-04-08T08:41:37.739Z</time></trkpt><trkpt lat="45.7405733" lon="9.12191"><ele>310.2</ele><time>2026-04-08T08:41:38.739Z</time></trkpt><trkpt lat="45.7405583" lon="9.1220417"><ele>310.4</ele><time>2026-04-08T08:41:39.738Z</time></trkpt><trkpt lat="45.7405383" lon="9.1221683"><ele>310.6</ele><time>2026-04-08T08:41:40.739Z</time></trkpt><trkpt lat="45.74052" lon="9.122295"><ele>310.8</ele><time>2026-04-08T08:41:41.739Z</time></trkpt><trkpt lat="45.7404983" lon="9.12243"><ele>311.0</ele><time>2026-04-08T08:41:42.739Z</time></trkpt><trkpt lat="45.7404783" lon="9.1225633"><ele>311.2</ele><time>2026-04-08T08:41:43.739Z</time></trkpt><trkpt lat="45.7404533" lon="9.1226867"><ele>311.40000000000003</ele><time>2026-04-08T08:41:44.738Z</time></trkpt><trkpt lat="45.74043" lon="9.1228183"><ele>311.6</ele><time>2026-04-08T08:41:45.739Z</time></trkpt><trkpt lat="45.74041" lon="9.122955"><ele>311.8</ele><time>2026-04-08T08:41:46.739Z</time></trkpt><trkpt lat="45.7403967" lon="9.1230917"><ele>312.0</ele><time>2026-04-08T08:41:47.738Z</time></trkpt><trkpt lat="45.740375" lon="9.1232317"><ele>313.5</ele><time>2026-04-08T08:41:48.739Z</time></trkpt><trkpt lat="45.7403567" lon="9.12338"><ele>315.0</ele><time>2026-04-08T08:41:49.739Z</time></trkpt><trkpt lat="45.74033" lon="9.12353"><ele>316.5</ele><time>2026-04-08T08:41:50.739Z</time></trkpt><trkpt lat="45.7402983" lon="9.12369"><ele>318.0</ele><time>2026-04-08T08:41:51.739Z</time></trkpt><trkpt lat="45.7402667" lon="9.1238567"><ele>318.0</ele><time>2026-04-08T08:41:52.739Z</time></trkpt><trkpt lat="45.7402383" lon="9.1240167"><ele>318.0</ele><time>2026-04-08T08:41:53.739Z</time></trkpt><trkpt lat="45.7402133" lon="9.12417"><ele>318.0</ele><time>2026-04-08T08:41:54.739Z</time></trkpt><trkpt lat="45.7401833" lon="9.124345"><ele>318.0</ele><time>2026-04-08T08:41:55.739Z</time></trkpt><trkpt lat="45.7401567" lon="9.1244933"><ele>319.2</ele><time>2026-04-08T08:41:56.739Z</time></trkpt><trkpt lat="45.7401317" lon="9.1246517"><ele>320.4</ele><time>2026-04-08T08:41:57.738Z</time></trkpt><trkpt lat="45.7401017" lon="9.12481"><ele>321.59999999999997</ele><time>2026-04-08T08:41:58.739Z</time></trkpt><trkpt lat="45.740075" lon="9.1249467"><ele>322.8</ele><time>2026-04-08T08:41:59.739Z</time></trkpt><trkpt lat="45.7400533" lon="9.1250517"><ele>324.0</ele><time>2026-04-08T08:42:00.738Z</time></trkpt><trkpt lat="45.7400233" lon="9.1251867"><ele>325.0</ele><time>2026-04-08T08:43:05.739Z</time></trkpt><trkpt lat="45.7399983" lon="9.1253567"><ele>326.0</ele><time>2026-04-08T08:43:07.739Z</time></trkpt><trkpt lat="45.73997" lon="9.125465"><ele>327.0</ele><time>2026-04-08T08:43:08.738Z</time></trkpt><trkpt lat="45.7399433" lon="9.125585"><ele>328.0</ele><time>2026-04-08T08:43:09.739Z</time></trkpt><trkpt lat="45.73992" lon="9.12571"><ele>329.0</ele><time>2026-04-08T08:43:10.739Z</time></trkpt><trkpt lat="45.739905" lon="9.125835"><ele>330.4</ele><time>2026-04-08T08:43:11.739Z</time></trkpt><trkpt lat="45.7398917" lon="9.12598"><ele>331.79999999999995</ele><time>2026-04-08T08:43:12.739Z</time></trkpt><trkpt lat="45.73987" lon="9.1261017"><ele>333.20000000000005</ele><time>2026-04-08T08:43:13.738Z</time></trkpt><trkpt lat="45.7398467" lon="9.1262267"><ele>334.6</ele><time>2026-04-08T08:43:14.738Z</time></trkpt><trkpt lat="45.7398367" lon="9.1263467"><ele>336.0</ele><time>2026-04-08T08:43:15.739Z</time></trkpt><trkpt lat="45.7398183" lon="9.1264733"><ele>337.3333333333333</ele><time>2026-04-08T08:43:16.739Z</time></trkpt><trkpt lat="45.7398133" lon="9.1265933"><ele>338.6666666666667</ele><time>2026-04-08T08:43:17.738Z</time></trkpt><trkpt lat="45.7398067" lon="9.12671"><ele>340.0</ele><time>2026-04-08T08:43:18.738Z</time></trkpt><trkpt lat="45.7397867" lon="9.1268333"><ele>341.33333333333337</ele><time>2026-04-08T08:43:19.739Z</time></trkpt><trkpt lat="45.7397683" lon="9.126955"><ele>342.6666666666667</ele><time>2026-04-08T08:43:20.739Z</time></trkpt><trkpt lat="45.7397467" lon="9.1270633"><ele>344.0</ele><time>2026-04-08T08:43:21.739Z</time></trkpt><trkpt lat="45.73972" lon="9.1271767"><ele>344.0</ele><time>2026-04-08T08:43:22.739Z</time></trkpt><trkpt lat="45.7396867" lon="9.1272983"><ele>344.0</ele><time>2026-04-08T08:43:23.739Z</time></trkpt><trkpt lat="45.7396483" lon="9.1274183"><ele>344.0</ele><time>2026-04-08T08:43:24.739Z</time></trkpt><trkpt lat="45.7396217" lon="9.1275417"><ele>344.0</ele><time>2026-04-08T08:43:25.739Z</time></trkpt><trkpt lat="45.7395983" lon="9.127665"><ele>344.0</ele><time>2026-04-08T08:43:26.739Z</time></trkpt><trkpt lat="45.7395767" lon="9.1277833"><ele>344.0</ele><time>2026-04-08T08:43:27.739Z</time></trkpt><trkpt lat="45.7395533" lon="9.1279"><ele>345.1666666666667</ele><time>2026-04-08T08:43:28.739Z</time></trkpt><trkpt lat="45.7395467" lon="9.1280267"><ele>346.33333333333337</ele><time>2026-04-08T08:43:29.739Z</time></trkpt><trkpt lat="45.73954" lon="9.1281333"><ele>347.5</ele><time>2026-04-08T08:43:30.739Z</time></trkpt><trkpt lat="45.73953" lon="9.1282917"><ele>348.6666666666667</ele><time>2026-04-08T08:43:32.738Z</time></trkpt><trkpt lat="45.7395417" lon="9.128395"><ele>349.8333333333333</ele><time>2026-04-08T08:43:34.739Z</time></trkpt><trkpt lat="45.7395217" lon="9.12853"><ele>351.0</ele><time>2026-04-08T08:43:39.739Z</time></trkpt><trkpt lat="45.7395133" lon="9.1286233"><ele>352.20000000000005</ele><time>2026-04-08T08:43:41.739Z</time></trkpt><trkpt lat="45.7394433" lon="9.1287083"><ele>353.40000000000003</ele><time>2026-04-08T08:43:43.739Z</time></trkpt><trkpt lat="45.7393467" lon="9.1287733"><ele>354.6</ele><time>2026-04-08T08:43:45.739Z</time></trkpt><trkpt lat="45.7392783" lon="9.1288633"><ele>355.8</ele><time>2026-04-08T08:43:47.739Z</time></trkpt><trkpt lat="45.739225" lon="9.1289733"><ele>357.0</ele><time>2026-04-08T08:43:49.738Z</time></trkpt><trkpt lat="45.7391883" lon="9.1291133"><ele>357.8333333333333</ele><time>2026-04-08T08:43:51.739Z</time></trkpt><trkpt lat="45.7391483" lon="9.1292683"><ele>358.6666666666667</ele><time>2026-04-08T08:43:53.739Z</time></trkpt><trkpt lat="45.7391167" lon="9.129355"><ele>359.5</ele><time>2026-04-08T08:43:54.739Z</time></trkpt><trkpt lat="45.739085" lon="9.12944"><ele>360.33333333333337</ele><time>2026-04-08T08:43:55.739Z</time></trkpt><trkpt lat="45.7390583" lon="9.12953"><ele>361.1666666666667</ele><time>2026-04-08T08:43:56.739Z</time></trkpt><trkpt lat="45.73903" lon="9.1296767"><ele>362.0</ele><time>2026-04-08T08:43:58.739Z</time></trkpt><trkpt lat="45.73902" lon="9.1297733"><ele>362.0</ele><time>2026-04-08T08:43:59.739Z</time></trkpt><trkpt lat="45.7390067" lon="9.1298767"><ele>362.0</ele><time>2026-04-08T08:44:00.739Z</time></trkpt><trkpt lat="45.738995" lon="9.129985"><ele>362.0</ele><time>2026-04-08T08:44:01.739Z</time></trkpt><trkpt lat="45.73897" lon="9.1300933"><ele>362.0</ele><time>2026-04-08T08:44:02.739Z</time></trkpt><trkpt lat="45.7389417" lon="9.13019"><ele>362.0</ele><time>2026-04-08T08:44:03.738Z</time></trkpt><trkpt lat="45.73892" lon="9.1302883"><ele>362.0</ele><time>2026-04-08T08:44:04.739Z</time></trkpt><trkpt lat="45.7389" lon="9.1303917"><ele>362.0</ele><time>2026-04-08T08:44:05.738Z</time></trkpt><trkpt lat="45.7388683" lon="9.1304917"><ele>361.6666666666667</ele><time>2026-04-08T08:44:06.739Z</time></trkpt><trkpt lat="45.7388283" lon="9.1305817"><ele>361.33333333333337</ele><time>2026-04-08T08:44:07.739Z</time></trkpt><trkpt lat="45.7388" lon="9.13069"><ele>361.0</ele><time>2026-04-08T08:44:08.739Z</time></trkpt><trkpt lat="45.7387717" lon="9.1308017"><ele>360.6666666666667</ele><time>2026-04-08T08:44:09.739Z</time></trkpt><trkpt lat="45.73875" lon="9.13091"><ele>360.3333333333333</ele><time>2026-04-08T08:44:10.739Z</time></trkpt><trkpt lat="45.7387333" lon="9.1310217"><ele>360.0</ele><time>2026-04-08T08:44:11.739Z</time></trkpt><trkpt lat="45.7387233" lon="9.1311433"><ele>360.0</ele><time>2026-04-08T08:44:12.739Z</time></trkpt><trkpt lat="45.7387233" lon="9.1312717"><ele>360.0</ele><time>2026-04-08T08:44:13.739Z</time></trkpt><trkpt lat="45.7387217" lon="9.1313933"><ele>360.0</ele><time>2026-04-08T08:44:14.739Z</time></trkpt><trkpt lat="45.7387167" lon="9.1315217"><ele>360.0</ele><time>2026-04-08T08:44:15.738Z</time></trkpt><trkpt lat="45.7387133" lon="9.131635"><ele>360.0</ele><time>2026-04-08T08:44:16.738Z</time></trkpt><trkpt lat="45.7387217" lon="9.1317483"><ele>360.0</ele><time>2026-04-08T08:44:17.739Z</time></trkpt><trkpt lat="45.73872" lon="9.1318583"><ele>359.0</ele><time>2026-04-08T08:44:18.739Z</time></trkpt><trkpt lat="45.7387267" lon="9.131975"><ele>358.0</ele><time>2026-04-08T08:44:19.739Z</time></trkpt><trkpt lat="45.73871" lon="9.132085"><ele>357.0</ele><time>2026-04-08T08:44:20.739Z</time></trkpt><trkpt lat="45.7387033" lon="9.1322083"><ele>356.0</ele><time>2026-04-08T08:44:21.738Z</time></trkpt><trkpt lat="45.7386933" lon="9.132325"><ele>355.0</ele><time>2026-04-08T08:44:22.738Z</time></trkpt><trkpt lat="45.7386817" lon="9.1324367"><ele>354.0</ele><time>2026-04-08T08:44:23.739Z</time></trkpt><trkpt lat="45.7386683" lon="9.1325483"><ele>353.1666666666667</ele><time>2026-04-08T08:44:24.739Z</time></trkpt><trkpt lat="45.7386667" lon="9.1326533"><ele>352.3333333333333</ele><time>2026-04-08T08:44:25.738Z</time></trkpt><trkpt lat="45.7386667" lon="9.1327517"><ele>351.5</ele><time>2026-04-08T08:44:26.739Z</time></trkpt><trkpt lat="45.7386683" lon="9.132855"><ele>350.66666666666663</ele><time>2026-04-08T08:44:27.738Z</time></trkpt><trkpt lat="45.7386683" lon="9.133"><ele>349.8333333333333</ele><time>2026-04-08T08:44:29.739Z</time></trkpt><trkpt lat="45.7387" lon="9.1330933"><ele>349.0</ele><time>2026-04-08T08:44:33.739Z</time></trkpt><trkpt lat="45.738745" lon="9.133175"><ele>347.75</ele><time>2026-04-08T08:44:35.739Z</time></trkpt><trkpt lat="45.738825" lon="9.1332933"><ele>346.5</ele><time>2026-04-08T08:44:37.739Z</time></trkpt><trkpt lat="45.7389267" lon="9.1333717"><ele>345.25</ele><time>2026-04-08T08:44:39.739Z</time></trkpt><trkpt lat="45.73902" lon="9.1334783"><ele>344.0</ele><time>2026-04-08T08:44:41.738Z</time></trkpt><trkpt lat="45.7390983" lon="9.1336067"><ele>344.0</ele><time>2026-04-08T08:44:43.739Z</time></trkpt><trkpt lat="45.739185" lon="9.1337317"><ele>344.0</ele><time>2026-04-08T08:44:45.739Z</time></trkpt><trkpt lat="45.73924" lon="9.1338033"><ele>344.0</ele><time>2026-04-08T08:44:46.739Z</time></trkpt><trkpt lat="45.7393" lon="9.133885"><ele>344.0</ele><time>2026-04-08T08:44:47.739Z</time></trkpt><trkpt lat="45.7393667" lon="9.1339617"><ele>344.0</ele><time>2026-04-08T08:44:48.739Z</time></trkpt><trkpt lat="45.7394233" lon="9.1340517"><ele>344.5714285714286</ele><time>2026-04-08T08:44:49.739Z</time></trkpt><trkpt lat="45.7394883" lon="9.1341233"><ele>345.14285714285717</ele><time>2026-04-08T08:44:50.738Z</time></trkpt><trkpt lat="45.7395533" lon="9.1341717"><ele>345.7142857142857</ele><time>2026-04-08T08:44:51.738Z</time></trkpt><trkpt lat="45.7396167" lon="9.1341933"><ele>346.28571428571433</ele><time>2026-04-08T08:44:52.739Z</time></trkpt><trkpt lat="45.73968" lon="9.13421"><ele>346.8571428571429</ele><time>2026-04-08T08:44:53.739Z</time></trkpt><trkpt lat="45.7397433" lon="9.1342217"><ele>347.42857142857144</ele><time>2026-04-08T08:44:54.739Z</time></trkpt><trkpt lat="45.7398083" lon="9.1342083"><ele>348.0</ele><time>2026-04-08T08:44:55.739Z</time></trkpt><trkpt lat="45.7398717" lon="9.1342"><ele>348.0</ele><time>2026-04-08T08:44:56.739Z</time></trkpt><trkpt lat="45.739945" lon="9.1341867"><ele>348.0</ele><time>2026-04-08T08:44:57.738Z</time></trkpt><trkpt lat="45.7400167" lon="9.1341817"><ele>348.0</ele><time>2026-04-08T08:44:58.739Z</time></trkpt><trkpt lat="45.7401217" lon="9.1341383"><ele>348.0</ele><time>2026-04-08T08:45:00.738Z</time></trkpt><trkpt lat="45.7402167" lon="9.1341083"><ele>348.0</ele><time>2026-04-08T08:45:02.738Z</time></trkpt><trkpt lat="45.74033" lon="9.1341333"><ele>348.6666666666667</ele><time>2026-04-08T08:45:04.739Z</time></trkpt><trkpt lat="45.7404267" lon="9.1341833"><ele>349.3333333333333</ele><time>2026-04-08T08:45:06.739Z</time></trkpt><trkpt lat="45.7405283" lon="9.134265"><ele>350.0</ele><time>2026-04-08T08:45:08.738Z</time></trkpt><trkpt lat="45.7405817" lon="9.1343183"><ele>350.66666666666663</ele><time>2026-04-08T08:45:09.738Z</time></trkpt><trkpt lat="45.7406417" lon="9.134375"><ele>351.3333333333333</ele><time>2026-04-08T08:45:10.738Z</time></trkpt><trkpt lat="45.740695" lon="9.1344483"><ele>352.0</ele><time>2026-04-08T08:45:11.739Z</time></trkpt><trkpt lat="45.740755" lon="9.134525"><ele>352.0</ele><time>2026-04-08T08:45:12.739Z</time></trkpt><trkpt lat="45.7408167" lon="9.1346067"><ele>352.0</ele><time>2026-04-08T08:45:13.739Z</time></trkpt><trkpt lat="45.7408833" lon="9.1346883"><ele>352.0</ele><time>2026-04-08T08:45:14.739Z</time></trkpt><trkpt lat="45.7409617" lon="9.1347517"><ele>352.0</ele><time>2026-04-08T08:45:15.739Z</time></trkpt><trkpt lat="45.741035" lon="9.1348183"><ele>352.0</ele><time>2026-04-08T08:45:16.739Z</time></trkpt><trkpt lat="45.7410983" lon="9.134885"><ele>352.0</ele><time>2026-04-08T08:45:17.739Z</time></trkpt><trkpt lat="45.74117" lon="9.13495"><ele>352.8333333333333</ele><time>2026-04-08T08:45:18.738Z</time></trkpt><trkpt lat="45.7412417" lon="9.1350033"><ele>353.66666666666663</ele><time>2026-04-08T08:45:19.739Z</time></trkpt><trkpt lat="45.7413067" lon="9.1350667"><ele>354.5</ele><time>2026-04-08T08:45:20.738Z</time></trkpt><trkpt lat="45.7413833" lon="9.1351283"><ele>355.3333333333333</ele><time>2026-04-08T08:45:21.739Z</time></trkpt><trkpt lat="45.741455" lon="9.1352017"><ele>356.1666666666667</ele><time>2026-04-08T08:45:22.739Z</time></trkpt><trkpt lat="45.7415267" lon="9.1352617"><ele>357.0</ele><time>2026-04-08T08:45:23.739Z</time></trkpt><trkpt lat="45.7415983" lon="9.1353183"><ele>357.0</ele><time>2026-04-08T08:45:24.738Z</time></trkpt><trkpt lat="45.74167" lon="9.135375"><ele>357.0</ele><time>2026-04-08T08:45:25.739Z</time></trkpt><trkpt lat="45.74174" lon="9.13543"><ele>357.0</ele><time>2026-04-08T08:45:26.738Z</time></trkpt><trkpt lat="45.741815" lon="9.1354767"><ele>357.0</ele><time>2026-04-08T08:45:27.739Z</time></trkpt><trkpt lat="45.741885" lon="9.1355167"><ele>357.0</ele><time>2026-04-08T08:45:28.739Z</time></trkpt><trkpt lat="45.7419533" lon="9.1355533"><ele>357.0</ele><time>2026-04-08T08:45:29.739Z</time></trkpt><trkpt lat="45.742015" lon="9.1355817"><ele>356.8333333333333</ele><time>2026-04-08T08:45:30.739Z</time></trkpt><trkpt lat="45.742115" lon="9.1356283"><ele>356.6666666666667</ele><time>2026-04-08T08:45:32.738Z</time></trkpt><trkpt lat="45.7421783" lon="9.135675"><ele>356.5</ele><time>2026-04-08T08:45:34.739Z</time></trkpt><trkpt lat="45.74221" lon="9.1358"><ele>356.33333333333337</ele><time>2026-04-08T08:45:37.739Z</time></trkpt><trkpt lat="45.7422833" lon="9.1359167"><ele>356.1666666666667</ele><time>2026-04-08T08:45:39.739Z</time></trkpt><trkpt lat="45.7423333" lon="9.1359867"><ele>356.0</ele><time>2026-04-08T08:45:40.739Z</time></trkpt><trkpt lat="45.7423767" lon="9.1360733"><ele>356.0</ele><time>2026-04-08T08:45:41.739Z</time></trkpt><trkpt lat="45.7424217" lon="9.136165"><ele>356.0</ele><time>2026-04-08T08:45:42.739Z</time></trkpt><trkpt lat="45.74247" lon="9.13626"><ele>356.0</ele><time>2026-04-08T08:45:43.739Z</time></trkpt><trkpt lat="45.7425133" lon="9.1363683"><ele>356.0</ele><time>2026-04-08T08:45:44.739Z</time></trkpt><trkpt lat="45.7425567" lon="9.1364817"><ele>356.0</ele><time>2026-04-08T08:45:45.739Z</time></trkpt><trkpt lat="45.7426083" lon="9.1366"><ele>356.0</ele><time>2026-04-08T08:45:46.739Z</time></trkpt><trkpt lat="45.7426567" lon="9.1367233"><ele>356.0</ele><time>2026-04-08T08:45:47.739Z</time></trkpt><trkpt lat="45.7427117" lon="9.136845"><ele>356.0</ele><time>2026-04-08T08:45:48.739Z</time></trkpt><trkpt lat="45.74277" lon="9.136985"><ele>356.0</ele><time>2026-04-08T08:45:49.738Z</time></trkpt><trkpt lat="45.7428317" lon="9.137105"><ele>356.0</ele><time>2026-04-08T08:45:50.739Z</time></trkpt><trkpt lat="45.7428967" lon="9.13723"><ele>356.0</ele><time>2026-04-08T08:45:51.738Z</time></trkpt><trkpt lat="45.74296" lon="9.1373583"><ele>354.8</ele><time>2026-04-08T08:45:52.738Z</time></trkpt><trkpt lat="45.7430267" lon="9.1374867"><ele>353.6</ele><time>2026-04-08T08:45:53.739Z</time></trkpt><trkpt lat="45.7430867" lon="9.1376183"><ele>352.4</ele><time>2026-04-08T08:45:54.739Z</time></trkpt><trkpt lat="45.743155" lon="9.1377467"><ele>351.2</ele><time>2026-04-08T08:45:55.739Z</time></trkpt><trkpt lat="45.74322" lon="9.1378783"><ele>350.0</ele><time>2026-04-08T08:45:56.739Z</time></trkpt><trkpt lat="45.7432833" lon="9.1380083"><ele>350.0</ele><time>2026-04-08T08:45:57.739Z</time></trkpt><trkpt lat="45.7433433" lon="9.13815"><ele>350.0</ele><time>2026-04-08T08:45:58.738Z</time></trkpt><trkpt lat="45.7434133" lon="9.1382717"><ele>350.0</ele><time>2026-04-08T08:45:59.739Z</time></trkpt><trkpt lat="45.74348" lon="9.1383933"><ele>350.0</ele><time>2026-04-08T08:46:00.739Z</time></trkpt><trkpt lat="45.7435417" lon="9.1385167"><ele>350.0</ele><time>2026-04-08T08:46:01.739Z</time></trkpt><trkpt lat="45.7436067" lon="9.1386467"><ele>349.4</ele><time>2026-04-08T08:46:02.739Z</time></trkpt><trkpt lat="45.743665" lon="9.1387783"><ele>348.8</ele><time>2026-04-08T08:46:03.739Z</time></trkpt><trkpt lat="45.74372" lon="9.1389133"><ele>348.20000000000005</ele><time>2026-04-08T08:46:04.739Z</time></trkpt><trkpt lat="45.74378" lon="9.1390517"><ele>347.6</ele><time>2026-04-08T08:46:05.739Z</time></trkpt><trkpt lat="45.7438417" lon="9.1391733"><ele>347.0</ele><time>2026-04-08T08:46:06.739Z</time></trkpt><trkpt lat="45.7438967" lon="9.1392967"><ele>346.8</ele><time>2026-04-08T08:46:07.739Z</time></trkpt><trkpt lat="45.7439483" lon="9.1394183"><ele>346.6</ele><time>2026-04-08T08:46:08.739Z</time></trkpt><trkpt lat="45.7439983" lon="9.1395267"><ele>346.40000000000003</ele><time>2026-04-08T08:46:09.739Z</time></trkpt><trkpt lat="45.744035" lon="9.139615"><ele>346.20000000000005</ele><time>2026-04-08T08:46:10.738Z</time></trkpt><trkpt lat="45.7440767" lon="9.1397733"><ele>346.0</ele><time>2026-04-08T08:46:12.738Z</time></trkpt><trkpt lat="45.7440883" lon="9.139915"><ele>345.6</ele><time>2026-04-08T08:46:14.739Z</time></trkpt><trkpt lat="45.7440633" lon="9.140065"><ele>345.20000000000005</ele><time>2026-04-08T08:46:16.739Z</time></trkpt><trkpt lat="45.744" lon="9.140215"><ele>344.79999999999995</ele><time>2026-04-08T08:46:18.739Z</time></trkpt><trkpt lat="45.7439517" lon="9.1402883"><ele>344.4</ele><time>2026-04-08T08:46:19.739Z</time></trkpt><trkpt lat="45.7438933" lon="9.1403583"><ele>344.0</ele><time>2026-04-08T08:46:20.738Z</time></trkpt><trkpt lat="45.7438283" lon="9.1404317"><ele>344.0</ele><time>2026-04-08T08:46:21.739Z</time></trkpt><trkpt lat="45.7437567" lon="9.1405"><ele>344.0</ele><time>2026-04-08T08:46:22.738Z</time></trkpt><trkpt lat="45.7436767" lon="9.1405733"><ele>344.0</ele><time>2026-04-08T08:46:23.739Z</time></trkpt><trkpt lat="45.7435983" lon="9.140645"><ele>344.0</ele><time>2026-04-08T08:46:24.739Z</time></trkpt><trkpt lat="45.7435167" lon="9.1407167"><ele>344.0</ele><time>2026-04-08T08:46:25.739Z</time></trkpt><trkpt lat="45.743435" lon="9.1407933"><ele>343.6</ele><time>2026-04-08T08:46:26.739Z</time></trkpt><trkpt lat="45.74335" lon="9.14087"><ele>343.2</ele><time>2026-04-08T08:46:27.739Z</time></trkpt><trkpt lat="45.74326" lon="9.1409517"><ele>342.8</ele><time>2026-04-08T08:46:28.739Z</time></trkpt><trkpt lat="45.7431667" lon="9.1410383"><ele>342.40000000000003</ele><time>2026-04-08T08:46:29.738Z</time></trkpt><trkpt lat="45.743075" lon="9.1411333"><ele>342.0</ele><time>2026-04-08T08:46:30.738Z</time></trkpt><trkpt lat="45.7429767" lon="9.141225"><ele>342.0</ele><time>2026-04-08T08:46:31.738Z</time></trkpt><trkpt lat="45.7428783" lon="9.1413267"><ele>342.0</ele><time>2026-04-08T08:46:32.739Z</time></trkpt><trkpt lat="45.7427633" lon="9.1414267"><ele>342.0</ele><time>2026-04-08T08:46:33.739Z</time></trkpt><trkpt lat="45.7426533" lon="9.1415317"><ele>342.0</ele><time>2026-04-08T08:46:34.739Z</time></trkpt><trkpt lat="45.7425417" lon="9.1416367"><ele>342.0</ele><time>2026-04-08T08:46:35.739Z</time></trkpt><trkpt lat="45.742425" lon="9.1417383"><ele>342.0</ele><time>2026-04-08T08:46:36.738Z</time></trkpt><trkpt lat="45.7423067" lon="9.14185"><ele>342.0</ele><time>2026-04-08T08:46:37.739Z</time></trkpt><trkpt lat="45.7421817" lon="9.1419617"><ele>342.0</ele><time>2026-04-08T08:46:38.739Z</time></trkpt><trkpt lat="45.74206" lon="9.1420833"><ele>342.0</ele><time>2026-04-08T08:46:39.739Z</time></trkpt><trkpt lat="45.741935" lon="9.1421983"><ele>342.0</ele><time>2026-04-08T08:46:40.738Z</time></trkpt><trkpt lat="45.741805" lon="9.1423133"><ele>342.0</ele><time>2026-04-08T08:46:41.739Z</time></trkpt><trkpt lat="45.7416767" lon="9.1424467"><ele>341.6666666666667</ele><time>2026-04-08T08:46:42.738Z</time></trkpt><trkpt lat="45.7415417" lon="9.14257"><ele>341.33333333333337</ele><time>2026-04-08T08:46:43.738Z</time></trkpt><trkpt lat="45.7414133" lon="9.1426983"><ele>341.0</ele><time>2026-04-08T08:46:44.739Z</time></trkpt><trkpt lat="45.74128" lon="9.142825"><ele>341.0</ele><time>2026-04-08T08:46:45.739Z</time></trkpt><trkpt lat="45.7411533" lon="9.14294"><ele>341.0</ele><time>2026-04-08T08:46:46.738Z</time></trkpt><trkpt lat="45.7410267" lon="9.1430617"><ele>341.0</ele><time>2026-04-08T08:46:47.738Z</time></trkpt><trkpt lat="45.7409033" lon="9.14319"><ele>340.0</ele><time>2026-04-08T08:46:48.739Z</time></trkpt><trkpt lat="45.7407817" lon="9.1433167"><ele>339.0</ele><time>2026-04-08T08:46:49.739Z</time></trkpt><trkpt lat="45.7406633" lon="9.14345"><ele>338.0</ele><time>2026-04-08T08:46:50.738Z</time></trkpt><trkpt lat="45.7405583" lon="9.1435833"><ele>337.0</ele><time>2026-04-08T08:46:51.739Z</time></trkpt><trkpt lat="45.740455" lon="9.14372"><ele>337.0</ele><time>2026-04-08T08:46:52.739Z</time></trkpt><trkpt lat="45.7403617" lon="9.1438583"><ele>337.0</ele><time>2026-04-08T08:46:53.739Z</time></trkpt><trkpt lat="45.7402717" lon="9.1440083"><ele>337.0</ele><time>2026-04-08T08:46:54.739Z</time></trkpt><trkpt lat="45.740185" lon="9.1441517"><ele>337.0</ele><time>2026-04-08T08:46:55.738Z</time></trkpt><trkpt lat="45.7401083" lon="9.1442867"><ele>336.8</ele><time>2026-04-08T08:46:56.739Z</time></trkpt><trkpt lat="45.7400367" lon="9.1444167"><ele>336.6</ele><time>2026-04-08T08:46:57.739Z</time></trkpt><trkpt lat="45.7399717" lon="9.1445467"><ele>336.40000000000003</ele><time>2026-04-08T08:46:58.739Z</time></trkpt><trkpt lat="45.7399117" lon="9.14467"><ele>336.20000000000005</ele><time>2026-04-08T08:46:59.738Z</time></trkpt><trkpt lat="45.73986" lon="9.1447817"><ele>336.0</ele><time>2026-04-08T08:47:00.739Z</time></trkpt><trkpt lat="45.7398167" lon="9.1448733"><ele>335.7142857142857</ele><time>2026-04-08T08:47:01.739Z</time></trkpt><trkpt lat="45.7397767" lon="9.14495"><ele>335.42857142857144</ele><time>2026-04-08T08:47:02.739Z</time></trkpt><trkpt lat="45.73973" lon="9.145025"><ele>335.1428571428571</ele><time>2026-04-08T08:47:03.738Z</time></trkpt><trkpt lat="45.7396733" lon="9.1450817"><ele>334.8571428571429</ele><time>2026-04-08T08:47:04.739Z</time></trkpt><trkpt lat="45.7396233" lon="9.1451567"><ele>334.57142857142856</ele><time>2026-04-08T08:47:05.739Z</time></trkpt><trkpt lat="45.7395833" lon="9.1452467"><ele>334.2857142857143</ele><time>2026-04-08T08:47:06.739Z</time></trkpt><trkpt lat="45.73955" lon="9.1453467"><ele>334.0</ele><time>2026-04-08T08:47:07.739Z</time></trkpt><trkpt lat="45.7395217" lon="9.1454617"><ele>334.0</ele><time>2026-04-08T08:47:08.739Z</time></trkpt><trkpt lat="45.7394933" lon="9.1455817"><ele>334.0</ele><time>2026-04-08T08:47:09.739Z</time></trkpt><trkpt lat="45.73946" lon="9.14571"><ele>334.0</ele><time>2026-04-08T08:47:10.739Z</time></trkpt><trkpt lat="45.7394233" lon="9.1458367"><ele>334.0</ele><time>2026-04-08T08:47:11.739Z</time></trkpt><trkpt lat="45.7393767" lon="9.1459667"><ele>334.0</ele><time>2026-04-08T08:47:12.738Z</time></trkpt><trkpt lat="45.73932" lon="9.1460983"><ele>334.0</ele><time>2026-04-08T08:47:13.738Z</time></trkpt><trkpt lat="45.73926" lon="9.1462333"><ele>334.0</ele><time>2026-04-08T08:47:14.739Z</time></trkpt><trkpt lat="45.7392" lon="9.1463717"><ele>334.0</ele><time>2026-04-08T08:47:15.738Z</time></trkpt><trkpt lat="45.7391317" lon="9.146525"><ele>334.0</ele><time>2026-04-08T08:47:16.739Z</time></trkpt><trkpt lat="45.7390683" lon="9.146675"><ele>334.0</ele><time>2026-04-08T08:47:17.739Z</time></trkpt><trkpt lat="45.7390017" lon="9.14683"><ele>334.0</ele><time>2026-04-08T08:47:18.739Z</time></trkpt><trkpt lat="45.7389333" lon="9.1469933"><ele>334.0</ele><time>2026-04-08T08:47:19.738Z</time></trkpt><trkpt lat="45.738865" lon="9.14716"><ele>334.0</ele><time>2026-04-08T08:47:20.738Z</time></trkpt><trkpt lat="45.7387933" lon="9.1473317"><ele>333.75</ele><time>2026-04-08T08:47:21.739Z</time></trkpt><trkpt lat="45.7387217" lon="9.1475067"><ele>333.5</ele><time>2026-04-08T08:47:22.739Z</time></trkpt><trkpt lat="45.7386483" lon="9.147685"><ele>333.25</ele><time>2026-04-08T08:47:23.739Z</time></trkpt><trkpt lat="45.7385733" lon="9.1478617"><ele>333.0</ele><time>2026-04-08T08:47:24.739Z</time></trkpt><trkpt lat="45.738495" lon="9.148045"><ele>331.6666666666667</ele><time>2026-04-08T08:47:25.739Z</time></trkpt><trkpt lat="45.73842" lon="9.1482283"><ele>330.33333333333337</ele><time>2026-04-08T08:47:26.739Z</time></trkpt><trkpt lat="45.7383417" lon="9.14842"><ele>329.0</ele><time>2026-04-08T08:47:27.738Z</time></trkpt><trkpt lat="45.73826" lon="9.148615"><ele>329.0</ele><time>2026-04-08T08:47:28.738Z</time></trkpt><trkpt lat="45.7381717" lon="9.1488117"><ele>329.0</ele><time>2026-04-08T08:47:29.739Z</time></trkpt><trkpt lat="45.7380983" lon="9.1490017"><ele>329.0</ele><time>2026-04-08T08:47:30.739Z</time></trkpt><trkpt lat="45.7380183" lon="9.1491917"><ele>330.0</ele><time>2026-04-08T08:47:31.739Z</time></trkpt><trkpt lat="45.73794" lon="9.1493817"><ele>331.0</ele><time>2026-04-08T08:47:32.739Z</time></trkpt><trkpt lat="45.7378583" lon="9.1495767"><ele>332.0</ele><time>2026-04-08T08:47:33.739Z</time></trkpt><trkpt lat="45.7377883" lon="9.1497567"><ele>331.75</ele><time>2026-04-08T08:47:34.739Z</time></trkpt><trkpt lat="45.7377133" lon="9.1499367"><ele>331.5</ele><time>2026-04-08T08:47:35.738Z</time></trkpt><trkpt lat="45.7376333" lon="9.1501033"><ele>331.25</ele><time>2026-04-08T08:47:36.739Z</time></trkpt><trkpt lat="45.7375567" lon="9.1502633"><ele>331.0</ele><time>2026-04-08T08:47:37.739Z</time></trkpt><trkpt lat="45.737475" lon="9.15042"><ele>331.0</ele><time>2026-04-08T08:47:38.739Z</time></trkpt><trkpt lat="45.73739" lon="9.1505817"><ele>331.0</ele><time>2026-04-08T08:47:39.738Z</time></trkpt><trkpt lat="45.7373067" lon="9.1507383"><ele>331.0</ele><time>2026-04-08T08:47:40.739Z</time></trkpt><trkpt lat="45.7372233" lon="9.150895"><ele>331.0</ele><time>2026-04-08T08:47:41.738Z</time></trkpt><trkpt lat="45.73713" lon="9.1510433"><ele>331.25</ele><time>2026-04-08T08:47:42.738Z</time></trkpt><trkpt lat="45.73704" lon="9.1511767"><ele>331.5</ele><time>2026-04-08T08:47:43.738Z</time></trkpt><trkpt lat="45.7369533" lon="9.1513017"><ele>331.75</ele><time>2026-04-08T08:47:44.739Z</time></trkpt><trkpt lat="45.7368767" lon="9.15142"><ele>332.0</ele><time>2026-04-08T08:47:45.739Z</time></trkpt><trkpt lat="45.7368133" lon="9.1515183"><ele>331.5</ele><time>2026-04-08T08:47:46.738Z</time></trkpt><trkpt lat="45.7367567" lon="9.1515983"><ele>331.0</ele><time>2026-04-08T08:47:47.739Z</time></trkpt><trkpt lat="45.7366867" lon="9.1516933"><ele>330.5</ele><time>2026-04-08T08:47:49.739Z</time></trkpt><trkpt lat="45.7366267" lon="9.151775"><ele>330.0</ele><time>2026-04-08T08:47:51.739Z</time></trkpt><trkpt lat="45.7365483" lon="9.1518933"><ele>329.5</ele><time>2026-04-08T08:47:53.738Z</time></trkpt><trkpt lat="45.7364983" lon="9.1519683"><ele>329.0</ele><time>2026-04-08T08:47:54.738Z</time></trkpt><trkpt lat="45.73644" lon="9.15205"><ele>329.0</ele><time>2026-04-08T08:47:55.739Z</time></trkpt><trkpt lat="45.73638" lon="9.1521367"><ele>329.0</ele><time>2026-04-08T08:47:56.739Z</time></trkpt><trkpt lat="45.7363167" lon="9.152225"><ele>329.0</ele><time>2026-04-08T08:47:57.739Z</time></trkpt><trkpt lat="45.7362417" lon="9.1523217"><ele>329.0</ele><time>2026-04-08T08:47:58.739Z</time></trkpt><trkpt lat="45.7361733" lon="9.152425"><ele>329.0</ele><time>2026-04-08T08:47:59.739Z</time></trkpt><trkpt lat="45.7361" lon="9.1525317"><ele>329.0</ele><time>2026-04-08T08:48:00.739Z</time></trkpt><trkpt lat="45.7360217" lon="9.1526383"><ele>329.0</ele><time>2026-04-08T08:48:01.739Z</time></trkpt><trkpt lat="45.7359417" lon="9.152755"><ele>329.0</ele><time>2026-04-08T08:48:02.738Z</time></trkpt><trkpt lat="45.7358683" lon="9.1528683"><ele>329.0</ele><time>2026-04-08T08:48:03.739Z</time></trkpt><trkpt lat="45.735795" lon="9.1529767"><ele>329.0</ele><time>2026-04-08T08:48:04.739Z</time></trkpt><trkpt lat="45.73572" lon="9.153085"><ele>329.0</ele><time>2026-04-08T08:48:05.739Z</time></trkpt><trkpt lat="45.7356367" lon="9.1531917"><ele>329.0</ele><time>2026-04-08T08:48:06.738Z</time></trkpt><trkpt lat="45.7355633" lon="9.153305"><ele>329.0</ele><time>2026-04-08T08:48:07.739Z</time></trkpt><trkpt lat="45.7355017" lon="9.1534067"><ele>329.0</ele><time>2026-04-08T08:48:08.739Z</time></trkpt><trkpt lat="45.735445" lon="9.1534833"><ele>329.0</ele><time>2026-04-08T08:48:09.739Z</time></trkpt><trkpt lat="45.73539" lon="9.153555"><ele>329.4</ele><time>2026-04-08T08:48:10.738Z</time></trkpt><trkpt lat="45.7353133" lon="9.153665"><ele>329.79999999999995</ele><time>2026-04-08T08:48:12.739Z</time></trkpt><trkpt lat="45.735225" lon="9.1537867"><ele>330.20000000000005</ele><time>2026-04-08T08:48:14.739Z</time></trkpt><trkpt lat="45.735175" lon="9.15386"><ele>330.6</ele><time>2026-04-08T08:48:15.738Z</time></trkpt><trkpt lat="45.7351333" lon="9.1539317"><ele>331.0</ele><time>2026-04-08T08:48:16.738Z</time></trkpt><trkpt lat="45.73506" lon="9.15405"><ele>331.6</ele><time>2026-04-08T08:48:18.739Z</time></trkpt><trkpt lat="45.7349967" lon="9.1541583"><ele>332.20000000000005</ele><time>2026-04-08T08:48:20.739Z</time></trkpt><trkpt lat="45.734965" lon="9.1543"><ele>332.79999999999995</ele><time>2026-04-08T08:48:22.739Z</time></trkpt><trkpt lat="45.73496" lon="9.154495"><ele>333.4</ele><time>2026-04-08T08:48:24.739Z</time></trkpt><trkpt lat="45.7349567" lon="9.1546017"><ele>334.0</ele><time>2026-04-08T08:48:25.739Z</time></trkpt><trkpt lat="45.7349467" lon="9.1547117"><ele>334.0</ele><time>2026-04-08T08:48:26.739Z</time></trkpt><trkpt lat="45.7349317" lon="9.1548283"><ele>334.0</ele><time>2026-04-08T08:48:27.739Z</time></trkpt><trkpt lat="45.7349067" lon="9.1549483"><ele>334.0</ele><time>2026-04-08T08:48:28.739Z</time></trkpt><trkpt lat="45.7348733" lon="9.1550783"><ele>334.0</ele><time>2026-04-08T08:48:29.737Z</time></trkpt><trkpt lat="45.734835" lon="9.155215"><ele>334.0</ele><time>2026-04-08T08:48:30.737Z</time></trkpt><trkpt lat="45.7347967" lon="9.155365"><ele>335.0</ele><time>2026-04-08T08:48:31.738Z</time></trkpt><trkpt lat="45.7347617" lon="9.155515"><ele>336.0</ele><time>2026-04-08T08:48:32.738Z</time></trkpt><trkpt lat="45.7347133" lon="9.1556567"><ele>337.0</ele><time>2026-04-08T08:48:33.738Z</time></trkpt><trkpt lat="45.7346717" lon="9.1557983"><ele>338.0</ele><time>2026-04-08T08:48:34.737Z</time></trkpt><trkpt lat="45.7346367" lon="9.155945"><ele>339.0</ele><time>2026-04-08T08:48:35.737Z</time></trkpt><trkpt lat="45.7345967" lon="9.1560933"><ele>337.79999999999995</ele><time>2026-04-08T08:48:36.738Z</time></trkpt><trkpt lat="45.734555" lon="9.156235"><ele>336.59999999999997</ele><time>2026-04-08T08:48:37.738Z</time></trkpt><trkpt lat="45.7345117" lon="9.1563783"><ele>335.4</ele><time>2026-04-08T08:48:38.738Z</time></trkpt><trkpt lat="45.7344717" lon="9.1565233"><ele>334.2</ele><time>2026-04-08T08:48:39.737Z</time></trkpt><trkpt lat="45.7344267" lon="9.1566583"><ele>333.0</ele><time>2026-04-08T08:48:40.738Z</time></trkpt><trkpt lat="45.7343817" lon="9.1567967"><ele>333.0</ele><time>2026-04-08T08:48:41.737Z</time></trkpt><trkpt lat="45.73434" lon="9.1569417"><ele>333.0</ele><time>2026-04-08T08:48:42.738Z</time></trkpt><trkpt lat="45.7343017" lon="9.1570883"><ele>333.0</ele><time>2026-04-08T08:48:43.738Z</time></trkpt><trkpt lat="45.73426" lon="9.15722"><ele>333.0</ele><time>2026-04-08T08:48:44.738Z</time></trkpt><trkpt lat="45.734225" lon="9.1573383"><ele>333.0</ele><time>2026-04-08T08:48:45.737Z</time></trkpt><trkpt lat="45.7341933" lon="9.1574517"><ele>333.0</ele><time>2026-04-08T08:48:46.738Z</time></trkpt><trkpt lat="45.734165" lon="9.1575467"><ele>333.0</ele><time>2026-04-08T08:48:47.738Z</time></trkpt><trkpt lat="45.734115" lon="9.157715"><ele>333.0</ele><time>2026-04-08T08:48:49.737Z</time></trkpt><trkpt lat="45.734085" lon="9.1578133"><ele>333.0</ele><time>2026-04-08T08:48:50.737Z</time></trkpt><trkpt lat="45.7340533" lon="9.15792"><ele>333.0</ele><time>2026-04-08T08:48:51.738Z</time></trkpt><trkpt lat="45.7340217" lon="9.1580267"><ele>333.0</ele><time>2026-04-08T08:48:52.737Z</time></trkpt><trkpt lat="45.7339867" lon="9.1581483"><ele>333.2</ele><time>2026-04-08T08:48:53.738Z</time></trkpt><trkpt lat="45.7339517" lon="9.158285"><ele>333.4</ele><time>2026-04-08T08:48:54.738Z</time></trkpt><trkpt lat="45.7339217" lon="9.1584233"><ele>333.59999999999997</ele><time>2026-04-08T08:48:55.738Z</time></trkpt><trkpt lat="45.7338883" lon="9.15856"><ele>333.79999999999995</ele><time>2026-04-08T08:48:56.738Z</time></trkpt><trkpt lat="45.7338617" lon="9.1587083"><ele>334.0</ele><time>2026-04-08T08:48:57.738Z</time></trkpt><trkpt lat="45.7338417" lon="9.1588733"><ele>335.0</ele><time>2026-04-08T08:48:58.738Z</time></trkpt><trkpt lat="45.7338267" lon="9.1590367"><ele>336.0</ele><time>2026-04-08T08:48:59.738Z</time></trkpt><trkpt lat="45.733815" lon="9.1592017"><ele>337.0</ele><time>2026-04-08T08:49:00.738Z</time></trkpt><trkpt lat="45.7338083" lon="9.15936"><ele>338.0</ele><time>2026-04-08T08:49:01.738Z</time></trkpt><trkpt lat="45.7338067" lon="9.1595217"><ele>338.0</ele><time>2026-04-08T08:49:02.738Z</time></trkpt><trkpt lat="45.7338083" lon="9.1596783"><ele>338.0</ele><time>2026-04-08T08:49:03.738Z</time></trkpt><trkpt lat="45.7338067" lon="9.159845"><ele>338.0</ele><time>2026-04-08T08:49:04.738Z</time></trkpt><trkpt lat="45.73381" lon="9.160015"><ele>338.0</ele><time>2026-04-08T08:49:05.738Z</time></trkpt><trkpt lat="45.7338133" lon="9.1601717"><ele>337.0</ele><time>2026-04-08T08:49:06.737Z</time></trkpt><trkpt lat="45.7338133" lon="9.160325"><ele>336.0</ele><time>2026-04-08T08:49:07.738Z</time></trkpt><trkpt lat="45.7338167" lon="9.1604733"><ele>335.0</ele><time>2026-04-08T08:49:08.738Z</time></trkpt><trkpt lat="45.7338133" lon="9.1606117"><ele>334.0</ele><time>2026-04-08T08:49:09.737Z</time></trkpt><trkpt lat="45.7338" lon="9.160735"><ele>333.0</ele><time>2026-04-08T08:49:10.738Z</time></trkpt><trkpt lat="45.7337833" lon="9.1608467"><ele>332.0</ele><time>2026-04-08T08:49:11.738Z</time></trkpt><trkpt lat="45.7337633" lon="9.1609533"><ele>331.0</ele><time>2026-04-08T08:49:12.737Z</time></trkpt><trkpt lat="45.73373" lon="9.1610617"><ele>330.0</ele><time>2026-04-08T08:49:13.738Z</time></trkpt><trkpt lat="45.733685" lon="9.161155"><ele>329.0</ele><time>2026-04-08T08:49:14.738Z</time></trkpt><trkpt lat="45.73363" lon="9.1612283"><ele>328.0</ele><time>2026-04-08T08:49:15.737Z</time></trkpt><trkpt lat="45.7335783" lon="9.16129"><ele>327.0</ele><time>2026-04-08T08:49:16.738Z</time></trkpt><trkpt lat="45.7334933" lon="9.1613767"><ele>326.5</ele><time>2026-04-08T08:49:18.738Z</time></trkpt><trkpt lat="45.73346" lon="9.1614767"><ele>326.0</ele><time>2026-04-08T08:49:20.737Z</time></trkpt><trkpt lat="45.7334967" lon="9.1615733"><ele>325.5</ele><time>2026-04-08T08:49:22.738Z</time></trkpt><trkpt lat="45.73358" lon="9.1616217"><ele>325.0</ele><time>2026-04-08T08:49:24.737Z</time></trkpt><trkpt lat="45.7337067" lon="9.1616833"><ele>324.5</ele><time>2026-04-08T08:49:26.738Z</time></trkpt><trkpt lat="45.7337683" lon="9.1617283"><ele>324.0</ele><time>2026-04-08T08:49:27.737Z</time></trkpt><trkpt lat="45.7338267" lon="9.161775"><ele>323.8333333333333</ele><time>2026-04-08T08:49:28.738Z</time></trkpt><trkpt lat="45.7339083" lon="9.1619"><ele>323.6666666666667</ele><time>2026-04-08T08:49:30.738Z</time></trkpt><trkpt lat="45.7339517" lon="9.162045"><ele>323.5</ele><time>2026-04-08T08:49:32.737Z</time></trkpt><trkpt lat="45.7339567" lon="9.1621433"><ele>323.33333333333337</ele><time>2026-04-08T08:49:33.737Z</time></trkpt><trkpt lat="45.7339567" lon="9.1622417"><ele>323.1666666666667</ele><time>2026-04-08T08:49:34.738Z</time></trkpt><trkpt lat="45.7339517" lon="9.162355"><ele>323.0</ele><time>2026-04-08T08:49:35.738Z</time></trkpt><trkpt lat="45.7339417" lon="9.1624783"><ele>322.79999999999995</ele><time>2026-04-08T08:49:36.738Z</time></trkpt><trkpt lat="45.7339333" lon="9.1626133"><ele>322.6</ele><time>2026-04-08T08:49:37.737Z</time></trkpt><trkpt lat="45.73393" lon="9.16276"><ele>322.4</ele><time>2026-04-08T08:49:38.738Z</time></trkpt><trkpt lat="45.7339267" lon="9.16291"><ele>322.20000000000005</ele><time>2026-04-08T08:49:39.738Z</time></trkpt><trkpt lat="45.73392" lon="9.163065"><ele>322.0</ele><time>2026-04-08T08:49:40.737Z</time></trkpt><trkpt lat="45.7339217" lon="9.163225"><ele>322.0</ele><time>2026-04-08T08:49:41.738Z</time></trkpt><trkpt lat="45.7339167" lon="9.1633767"><ele>322.0</ele><time>2026-04-08T08:49:42.738Z</time></trkpt><trkpt lat="45.7339133" lon="9.163535"><ele>322.0</ele><time>2026-04-08T08:49:43.738Z</time></trkpt><trkpt lat="45.73391" lon="9.1636917"><ele>322.0</ele><time>2026-04-08T08:49:44.738Z</time></trkpt><trkpt lat="45.73391" lon="9.16385"><ele>322.0</ele><time>2026-04-08T08:49:45.738Z</time></trkpt><trkpt lat="45.7339083" lon="9.1639967"><ele>321.8333333333333</ele><time>2026-04-08T08:49:46.738Z</time></trkpt><trkpt lat="45.7339117" lon="9.1641283"><ele>321.66666666666663</ele><time>2026-04-08T08:49:47.738Z</time></trkpt><trkpt lat="45.7339183" lon="9.16425"><ele>321.5</ele><time>2026-04-08T08:49:48.737Z</time></trkpt><trkpt lat="45.73394" lon="9.1643633"><ele>321.3333333333333</ele><time>2026-04-08T08:49:49.738Z</time></trkpt><trkpt lat="45.73397" lon="9.1644617"><ele>321.1666666666667</ele><time>2026-04-08T08:49:50.738Z</time></trkpt><trkpt lat="45.7340133" lon="9.1645533"><ele>321.0</ele><time>2026-04-08T08:49:51.738Z</time></trkpt><trkpt lat="45.7340667" lon="9.1646483"><ele>321.0</ele><time>2026-04-08T08:49:52.738Z</time></trkpt><trkpt lat="45.7341233" lon="9.164745"><ele>321.0</ele><time>2026-04-08T08:49:53.738Z</time></trkpt><trkpt lat="45.7341833" lon="9.16485"><ele>321.0</ele><time>2026-04-08T08:49:54.738Z</time></trkpt><trkpt lat="45.7342467" lon="9.16496"><ele>321.0</ele><time>2026-04-08T08:49:55.738Z</time></trkpt><trkpt lat="45.7343133" lon="9.1650833"><ele>321.0</ele><time>2026-04-08T08:49:56.738Z</time></trkpt><trkpt lat="45.7343883" lon="9.1651983"><ele>321.0</ele><time>2026-04-08T08:49:57.738Z</time></trkpt><trkpt lat="45.73445" lon="9.1653117"><ele>321.0</ele><time>2026-04-08T08:49:58.737Z</time></trkpt><trkpt lat="45.734505" lon="9.1654233"><ele>321.0</ele><time>2026-04-08T08:49:59.738Z</time></trkpt><trkpt lat="45.7345633" lon="9.16553"><ele>321.0</ele><time>2026-04-08T08:50:00.737Z</time></trkpt><trkpt lat="45.7346167" lon="9.1656217"><ele>321.0</ele><time>2026-04-08T08:50:01.738Z</time></trkpt><trkpt lat="45.7346583" lon="9.1657033"><ele>321.0</ele><time>2026-04-08T08:50:02.738Z</time></trkpt><trkpt lat="45.7347133" lon="9.16582"><ele>323.20000000000005</ele><time>2026-04-08T08:50:04.738Z</time></trkpt><trkpt lat="45.7347367" lon="9.1659533"><ele>325.40000000000003</ele><time>2026-04-08T08:50:06.738Z</time></trkpt><trkpt lat="45.734775" lon="9.166085"><ele>327.6</ele><time>2026-04-08T08:50:08.738Z</time></trkpt><trkpt lat="45.7348483" lon="9.1661317"><ele>329.8</ele><time>2026-04-08T08:50:10.738Z</time></trkpt><trkpt lat="45.73494" lon="9.1661"><ele>332.0</ele><time>2026-04-08T08:50:12.738Z</time></trkpt><trkpt lat="45.735055" lon="9.1660583"><ele>332.0</ele><time>2026-04-08T08:50:14.738Z</time></trkpt><trkpt lat="45.73513" lon="9.1660583"><ele>332.0</ele><time>2026-04-08T08:50:15.737Z</time></trkpt><trkpt lat="45.7352283" lon="9.1660783"><ele>332.0</ele><time>2026-04-08T08:50:16.738Z</time></trkpt><trkpt lat="45.7353333" lon="9.1661067"><ele>332.0</ele><time>2026-04-08T08:50:17.738Z</time></trkpt><trkpt lat="45.7354417" lon="9.1661517"><ele>332.0</ele><time>2026-04-08T08:50:18.737Z</time></trkpt><trkpt lat="45.7355533" lon="9.1661917"><ele>331.20000000000005</ele><time>2026-04-08T08:50:19.738Z</time></trkpt><trkpt lat="45.7356567" lon="9.166235"><ele>330.4</ele><time>2026-04-08T08:50:20.737Z</time></trkpt><trkpt lat="45.73575" lon="9.1662867"><ele>329.6</ele><time>2026-04-08T08:50:21.738Z</time></trkpt><trkpt lat="45.7358317" lon="9.1663367"><ele>328.79999999999995</ele><time>2026-04-08T08:50:22.738Z</time></trkpt><trkpt lat="45.735905" lon="9.166405"><ele>328.0</ele><time>2026-04-08T08:50:23.738Z</time></trkpt><trkpt lat="45.7359683" lon="9.1664867"><ele>329.5</ele><time>2026-04-08T08:50:24.738Z</time></trkpt><trkpt lat="45.7360167" lon="9.1665833"><ele>331.0</ele><time>2026-04-08T08:50:25.738Z</time></trkpt><trkpt lat="45.73606" lon="9.1666817"><ele>332.5</ele><time>2026-04-08T08:50:26.737Z</time></trkpt><trkpt lat="45.7360867" lon="9.16679"><ele>334.0</ele><time>2026-04-08T08:50:27.738Z</time></trkpt><trkpt lat="45.73611" lon="9.1669167"><ele>335.5</ele><time>2026-04-08T08:50:28.737Z</time></trkpt><trkpt lat="45.7361217" lon="9.16705"><ele>337.0</ele><time>2026-04-08T08:50:29.738Z</time></trkpt><trkpt lat="45.7361317" lon="9.1671933"><ele>338.25</ele><time>2026-04-08T08:50:30.738Z</time></trkpt><trkpt lat="45.73613" lon="9.1673533"><ele>339.5</ele><time>2026-04-08T08:50:31.737Z</time></trkpt><trkpt lat="45.7361283" lon="9.167525"><ele>340.75</ele><time>2026-04-08T08:50:32.738Z</time></trkpt><trkpt lat="45.736125" lon="9.1677"><ele>342.0</ele><time>2026-04-08T08:50:33.738Z</time></trkpt><trkpt lat="45.7361233" lon="9.1678817"><ele>342.0</ele><time>2026-04-08T08:50:34.738Z</time></trkpt><trkpt lat="45.7361233" lon="9.1680717"><ele>342.0</ele><time>2026-04-08T08:50:35.737Z</time></trkpt><trkpt lat="45.7361217" lon="9.168265"><ele>342.0</ele><time>2026-04-08T08:50:36.737Z</time></trkpt><trkpt lat="45.736125" lon="9.16847"><ele>342.0</ele><time>2026-04-08T08:50:37.738Z</time></trkpt><trkpt lat="45.736125" lon="9.1686733"><ele>342.0</ele><time>2026-04-08T08:50:38.738Z</time></trkpt><trkpt lat="45.7361267" lon="9.1688683"><ele>342.0</ele><time>2026-04-08T08:50:39.738Z</time></trkpt><trkpt lat="45.736125" lon="9.169065"><ele>342.0</ele><time>2026-04-08T08:50:40.737Z</time></trkpt><trkpt lat="45.736125" lon="9.16926"><ele>342.0</ele><time>2026-04-08T08:50:41.738Z</time></trkpt><trkpt lat="45.7361233" lon="9.1694583"><ele>342.0</ele><time>2026-04-08T08:50:42.738Z</time></trkpt><trkpt lat="45.7361183" lon="9.1696667"><ele>342.0</ele><time>2026-04-08T08:50:43.738Z</time></trkpt><trkpt lat="45.73612" lon="9.169875"><ele>342.0</ele><time>2026-04-08T08:50:44.738Z</time></trkpt><trkpt lat="45.7361233" lon="9.1700833"><ele>342.0</ele><time>2026-04-08T08:50:45.737Z</time></trkpt><trkpt lat="45.7361333" lon="9.1702917"><ele>342.75</ele><time>2026-04-08T08:50:46.738Z</time></trkpt><trkpt lat="45.7361367" lon="9.170505"><ele>343.5</ele><time>2026-04-08T08:50:47.737Z</time></trkpt><trkpt lat="45.7361383" lon="9.1707133"><ele>344.25</ele><time>2026-04-08T08:50:48.738Z</time></trkpt><trkpt lat="45.736135" lon="9.17092"><ele>345.0</ele><time>2026-04-08T08:50:49.738Z</time></trkpt><trkpt lat="45.7361367" lon="9.17113"><ele>347.25</ele><time>2026-04-08T08:50:50.738Z</time></trkpt><trkpt lat="45.7361283" lon="9.171345"><ele>349.5</ele><time>2026-04-08T08:50:51.738Z</time></trkpt><trkpt lat="45.7361317" lon="9.1715533"><ele>351.75</ele><time>2026-04-08T08:50:52.738Z</time></trkpt><trkpt lat="45.7361317" lon="9.17176"><ele>354.0</ele><time>2026-04-08T08:50:53.738Z</time></trkpt><trkpt lat="45.736135" lon="9.1719583"><ele>354.5</ele><time>2026-04-08T08:50:54.737Z</time></trkpt><trkpt lat="45.736135" lon="9.1721467"><ele>355.0</ele><time>2026-04-08T08:50:55.738Z</time></trkpt><trkpt lat="45.7361317" lon="9.1723317"><ele>355.5</ele><time>2026-04-08T08:50:56.737Z</time></trkpt><trkpt lat="45.73613" lon="9.17252"><ele>356.0</ele><time>2026-04-08T08:50:57.738Z</time></trkpt><trkpt lat="45.7361267" lon="9.1727083"><ele>356.25</ele><time>2026-04-08T08:50:58.738Z</time></trkpt><trkpt lat="45.73612" lon="9.172885"><ele>356.5</ele><time>2026-04-08T08:50:59.738Z</time></trkpt><trkpt lat="45.73612" lon="9.173055"><ele>356.75</ele><time>2026-04-08T08:51:00.738Z</time></trkpt><trkpt lat="45.736115" lon="9.17322"><ele>357.0</ele><time>2026-04-08T08:51:01.737Z</time></trkpt><trkpt lat="45.7361217" lon="9.1733717"><ele>357.0</ele><time>2026-04-08T08:51:02.737Z</time></trkpt><trkpt lat="45.7361183" lon="9.17352"><ele>357.0</ele><time>2026-04-08T08:51:03.738Z</time></trkpt><trkpt lat="45.7361133" lon="9.1736567"><ele>357.0</ele><time>2026-04-08T08:51:04.738Z</time></trkpt><trkpt lat="45.7361133" lon="9.1737867"><ele>357.0</ele><time>2026-04-08T08:51:05.738Z</time></trkpt><trkpt lat="45.7361167" lon="9.173905"><ele>357.0</ele><time>2026-04-08T08:51:06.738Z</time></trkpt><trkpt lat="45.7361083" lon="9.1740117"><ele>357.0</ele><time>2026-04-08T08:51:07.738Z</time></trkpt><trkpt lat="45.7360883" lon="9.1741833"><ele>356.40000000000003</ele><time>2026-04-08T08:51:09.738Z</time></trkpt><trkpt lat="45.7361" lon="9.174355"><ele>355.8</ele><time>2026-04-08T08:51:11.738Z</time></trkpt><trkpt lat="45.7361117" lon="9.1744633"><ele>355.2</ele><time>2026-04-08T08:51:12.738Z</time></trkpt><trkpt lat="45.73612" lon="9.1745833"><ele>354.6</ele><time>2026-04-08T08:51:13.737Z</time></trkpt><trkpt lat="45.736125" lon="9.1747167"><ele>354.0</ele><time>2026-04-08T08:51:14.737Z</time></trkpt><trkpt lat="45.7361283" lon="9.1748633"><ele>353.0</ele><time>2026-04-08T08:51:15.738Z</time></trkpt><trkpt lat="45.73613" lon="9.1750083"><ele>352.0</ele><time>2026-04-08T08:51:16.737Z</time></trkpt><trkpt lat="45.7361233" lon="9.17516"><ele>351.0</ele><time>2026-04-08T08:51:17.738Z</time></trkpt><trkpt lat="45.7361217" lon="9.1753133"><ele>350.0</ele><time>2026-04-08T08:51:18.738Z</time></trkpt><trkpt lat="45.73612" lon="9.1754683"><ele>349.0</ele><time>2026-04-08T08:51:19.738Z</time></trkpt><trkpt lat="45.7361233" lon="9.175615"><ele>348.4</ele><time>2026-04-08T08:51:20.738Z</time></trkpt><trkpt lat="45.73612" lon="9.175765"><ele>347.79999999999995</ele><time>2026-04-08T08:51:21.737Z</time></trkpt><trkpt lat="45.7361233" lon="9.1759133"><ele>347.20000000000005</ele><time>2026-04-08T08:51:22.738Z</time></trkpt><trkpt lat="45.7361217" lon="9.176055"><ele>346.6</ele><time>2026-04-08T08:51:23.738Z</time></trkpt><trkpt lat="45.736125" lon="9.1762"><ele>346.0</ele><time>2026-04-08T08:51:24.737Z</time></trkpt><trkpt lat="45.7361317" lon="9.176335"><ele>346.0</ele><time>2026-04-08T08:51:25.737Z</time></trkpt><trkpt lat="45.7361383" lon="9.17647"><ele>346.0</ele><time>2026-04-08T08:51:26.738Z</time></trkpt><trkpt lat="45.73616" lon="9.1766017"><ele>346.0</ele><time>2026-04-08T08:51:27.738Z</time></trkpt><trkpt lat="45.7361783" lon="9.1767367"><ele>346.0</ele><time>2026-04-08T08:51:28.737Z</time></trkpt><trkpt lat="45.7362017" lon="9.1768667"><ele>346.0</ele><time>2026-04-08T08:51:29.738Z</time></trkpt><trkpt lat="45.736225" lon="9.177005"><ele>346.4</ele><time>2026-04-08T08:51:30.738Z</time></trkpt><trkpt lat="45.7362467" lon="9.17715"><ele>346.8</ele><time>2026-04-08T08:51:31.737Z</time></trkpt><trkpt lat="45.7362667" lon="9.1773017"><ele>347.2</ele><time>2026-04-08T08:51:32.738Z</time></trkpt><trkpt lat="45.736295" lon="9.177455"><ele>347.59999999999997</ele><time>2026-04-08T08:51:33.738Z</time></trkpt><trkpt lat="45.7363267" lon="9.1776067"><ele>348.0</ele><time>2026-04-08T08:51:34.738Z</time></trkpt><trkpt lat="45.736365" lon="9.1777633"><ele>348.0</ele><time>2026-04-08T08:51:35.738Z</time></trkpt><trkpt lat="45.7364" lon="9.1778967"><ele>348.0</ele><time>2026-04-08T08:51:36.738Z</time></trkpt><trkpt lat="45.7364367" lon="9.1780583"><ele>348.0</ele><time>2026-04-08T08:51:37.738Z</time></trkpt><trkpt lat="45.7364733" lon="9.1782233"><ele>348.0</ele><time>2026-04-08T08:51:38.738Z</time></trkpt><trkpt lat="45.7365117" lon="9.1783867"><ele>348.0</ele><time>2026-04-08T08:51:39.737Z</time></trkpt><trkpt lat="45.73655" lon="9.17855"><ele>348.0</ele><time>2026-04-08T08:51:40.738Z</time></trkpt><trkpt lat="45.7365867" lon="9.1786983"><ele>348.0</ele><time>2026-04-08T08:51:41.738Z</time></trkpt><trkpt lat="45.7366233" lon="9.1788467"><ele>348.0</ele><time>2026-04-08T08:51:42.738Z</time></trkpt><trkpt lat="45.73666" lon="9.1789983"><ele>348.59999999999997</ele><time>2026-04-08T08:51:43.738Z</time></trkpt><trkpt lat="45.7366983" lon="9.179145"><ele>349.2</ele><time>2026-04-08T08:51:44.737Z</time></trkpt><trkpt lat="45.7367367" lon="9.1792917"><ele>349.8</ele><time>2026-04-08T08:51:45.738Z</time></trkpt><trkpt lat="45.736775" lon="9.179435"><ele>350.4</ele><time>2026-04-08T08:51:46.737Z</time></trkpt><trkpt lat="45.73681" lon="9.1795683"><ele>351.0</ele><time>2026-04-08T08:51:47.738Z</time></trkpt><trkpt lat="45.73685" lon="9.1796917"><ele>351.6</ele><time>2026-04-08T08:51:48.737Z</time></trkpt><trkpt lat="45.7368883" lon="9.179815"><ele>352.20000000000005</ele><time>2026-04-08T08:51:49.738Z</time></trkpt><trkpt lat="45.7369183" lon="9.17994"><ele>352.79999999999995</ele><time>2026-04-08T08:51:50.738Z</time></trkpt><trkpt lat="45.7369483" lon="9.180075"><ele>353.4</ele><time>2026-04-08T08:51:51.738Z</time></trkpt><trkpt lat="45.7369733" lon="9.1802"><ele>354.0</ele><time>2026-04-08T08:51:52.738Z</time></trkpt><trkpt lat="45.737005" lon="9.1803267"><ele>354.0</ele><time>2026-04-08T08:51:53.738Z</time></trkpt><trkpt lat="45.7370333" lon="9.1804667"><ele>354.0</ele><time>2026-04-08T08:51:54.737Z</time></trkpt><trkpt lat="45.737075" lon="9.180605"><ele>354.0</ele><time>2026-04-08T08:51:55.738Z</time></trkpt><trkpt lat="45.7371117" lon="9.180745"><ele>354.0</ele><time>2026-04-08T08:51:56.738Z</time></trkpt><trkpt lat="45.7371533" lon="9.180885"><ele>354.0</ele><time>2026-04-08T08:51:57.738Z</time></trkpt><trkpt lat="45.7371917" lon="9.1810333"><ele>354.25</ele><time>2026-04-08T08:51:58.737Z</time></trkpt><trkpt lat="45.7372283" lon="9.1811933"><ele>354.5</ele><time>2026-04-08T08:51:59.738Z</time></trkpt><trkpt lat="45.7372583" lon="9.1813617"><ele>354.75</ele><time>2026-04-08T08:52:00.738Z</time></trkpt><trkpt lat="45.7372983" lon="9.1815267"><ele>355.0</ele><time>2026-04-08T08:52:01.738Z</time></trkpt><trkpt lat="45.7373433" lon="9.1817017"><ele>354.2</ele><time>2026-04-08T08:52:02.738Z</time></trkpt><trkpt lat="45.7373833" lon="9.1818667"><ele>353.4</ele><time>2026-04-08T08:52:03.738Z</time></trkpt><trkpt lat="45.7374217" lon="9.18202"><ele>352.6</ele><time>2026-04-08T08:52:04.738Z</time></trkpt><trkpt lat="45.73746" lon="9.18216"><ele>351.8</ele><time>2026-04-08T08:52:05.738Z</time></trkpt><trkpt lat="45.7374917" lon="9.1822833"><ele>351.0</ele><time>2026-04-08T08:52:06.738Z</time></trkpt><trkpt lat="45.737525" lon="9.1824033"><ele>350.8333333333333</ele><time>2026-04-08T08:52:07.737Z</time></trkpt><trkpt lat="45.7375633" lon="9.1825"><ele>350.6666666666667</ele><time>2026-04-08T08:52:08.738Z</time></trkpt><trkpt lat="45.737605" lon="9.1825833"><ele>350.5</ele><time>2026-04-08T08:52:09.738Z</time></trkpt><trkpt lat="45.7376567" lon="9.1826483"><ele>350.33333333333337</ele><time>2026-04-08T08:52:10.737Z</time></trkpt><trkpt lat="45.7377183" lon="9.18271"><ele>350.1666666666667</ele><time>2026-04-08T08:52:11.738Z</time></trkpt><trkpt lat="45.7378" lon="9.1827533"><ele>350.0</ele><time>2026-04-08T08:52:12.737Z</time></trkpt><trkpt lat="45.7378817" lon="9.18278"><ele>350.0</ele><time>2026-04-08T08:52:13.738Z</time></trkpt><trkpt lat="45.73797" lon="9.1827883"><ele>350.0</ele><time>2026-04-08T08:52:14.738Z</time></trkpt><trkpt lat="45.738065" lon="9.1827933"><ele>350.0</ele><time>2026-04-08T08:52:15.737Z</time></trkpt><trkpt lat="45.7381617" lon="9.182785"><ele>350.0</ele><time>2026-04-08T08:52:16.738Z</time></trkpt><trkpt lat="45.7382783" lon="9.1827817"><ele>350.0</ele><time>2026-04-08T08:52:17.738Z</time></trkpt><trkpt lat="45.7384" lon="9.1827733"><ele>350.0</ele><time>2026-04-08T08:52:18.738Z</time></trkpt><trkpt lat="45.7385233" lon="9.1827833"><ele>350.0</ele><time>2026-04-08T08:52:19.737Z</time></trkpt><trkpt lat="45.7386483" lon="9.1827967"><ele>350.0</ele><time>2026-04-08T08:52:20.738Z</time></trkpt><trkpt lat="45.7387733" lon="9.18281"><ele>350.0</ele><time>2026-04-08T08:52:21.738Z</time></trkpt><trkpt lat="45.738905" lon="9.1828133"><ele>349.75</ele><time>2026-04-08T08:52:22.738Z</time></trkpt><trkpt lat="45.73904" lon="9.1828183"><ele>349.5</ele><time>2026-04-08T08:52:23.738Z</time></trkpt><trkpt lat="45.7391717" lon="9.1828267"><ele>349.25</ele><time>2026-04-08T08:52:24.738Z</time></trkpt><trkpt lat="45.7392933" lon="9.18285"><ele>349.0</ele><time>2026-04-08T08:52:25.738Z</time></trkpt><trkpt lat="45.7394167" lon="9.18288"><ele>348.4</ele><time>2026-04-08T08:52:26.737Z</time></trkpt><trkpt lat="45.7395267" lon="9.1829217"><ele>347.79999999999995</ele><time>2026-04-08T08:52:27.738Z</time></trkpt><trkpt lat="45.73963" lon="9.18298"><ele>347.20000000000005</ele><time>2026-04-08T08:52:28.738Z</time></trkpt><trkpt lat="45.739725" lon="9.1830633"><ele>346.6</ele><time>2026-04-08T08:52:29.738Z</time></trkpt><trkpt lat="45.7398167" lon="9.1831567"><ele>346.0</ele><time>2026-04-08T08:52:30.738Z</time></trkpt><trkpt lat="45.7398983" lon="9.1832717"><ele>341.75</ele><time>2026-04-08T08:52:31.738Z</time></trkpt><trkpt lat="45.7399783" lon="9.1834033"><ele>337.5</ele><time>2026-04-08T08:52:32.737Z</time></trkpt><trkpt lat="45.7400533" lon="9.18354"><ele>333.25</ele><time>2026-04-08T08:52:33.738Z</time></trkpt><trkpt lat="45.7401333" lon="9.1836633"><ele>329.0</ele><time>2026-04-08T08:52:34.737Z</time></trkpt><trkpt lat="45.7402133" lon="9.1837833"><ele>329.6</ele><time>2026-04-08T08:52:35.738Z</time></trkpt><trkpt lat="45.740295" lon="9.1838767"><ele>330.2</ele><time>2026-04-08T08:52:36.738Z</time></trkpt><trkpt lat="45.740385" lon="9.1839617"><ele>330.8</ele><time>2026-04-08T08:52:37.738Z</time></trkpt><trkpt lat="45.7404767" lon="9.18404"><ele>331.40000000000003</ele><time>2026-04-08T08:52:38.738Z</time></trkpt><trkpt lat="45.7405733" lon="9.1841067"><ele>332.0</ele><time>2026-04-08T08:52:39.737Z</time></trkpt><trkpt lat="45.7406833" lon="9.1841467"><ele>335.5</ele><time>2026-04-08T08:52:40.738Z</time></trkpt><trkpt lat="45.740805" lon="9.1841867"><ele>339.0</ele><time>2026-04-08T08:52:41.738Z</time></trkpt><trkpt lat="45.7409283" lon="9.1842183"><ele>342.5</ele><time>2026-04-08T08:52:42.737Z</time></trkpt><trkpt lat="45.7410533" lon="9.18426"><ele>346.0</ele><time>2026-04-08T08:52:43.738Z</time></trkpt><trkpt lat="45.741175" lon="9.1842967"><ele>347.75</ele><time>2026-04-08T08:52:44.738Z</time></trkpt><trkpt lat="45.7412833" lon="9.18434"><ele>349.5</ele><time>2026-04-08T08:52:45.737Z</time></trkpt><trkpt lat="45.7413917" lon="9.1844"><ele>351.25</ele><time>2026-04-08T08:52:46.738Z</time></trkpt><trkpt lat="45.741495" lon="9.18447"><ele>353.0</ele><time>2026-04-08T08:52:47.737Z</time></trkpt><trkpt lat="45.7415883" lon="9.1845583"><ele>353.0</ele><time>2026-04-08T08:52:48.738Z</time></trkpt><trkpt lat="45.7416917" lon="9.1846517"><ele>353.0</ele><time>2026-04-08T08:52:49.738Z</time></trkpt><trkpt lat="45.7417883" lon="9.1847483"><ele>353.0</ele><time>2026-04-08T08:52:50.738Z</time></trkpt><trkpt lat="45.74188" lon="9.18486"><ele>353.0</ele><time>2026-04-08T08:52:51.737Z</time></trkpt><trkpt lat="45.7419833" lon="9.1849633"><ele>353.4</ele><time>2026-04-08T08:52:52.738Z</time></trkpt><trkpt lat="45.7420717" lon="9.1850633"><ele>353.79999999999995</ele><time>2026-04-08T08:52:53.738Z</time></trkpt><trkpt lat="45.74215" lon="9.1851617"><ele>354.2</ele><time>2026-04-08T08:52:54.738Z</time></trkpt><trkpt lat="45.7422267" lon="9.18525"><ele>354.6</ele><time>2026-04-08T08:52:55.737Z</time></trkpt><trkpt lat="45.74229" lon="9.18532"><ele>355.0</ele><time>2026-04-08T08:52:56.738Z</time></trkpt><trkpt lat="45.7423533" lon="9.185375"><ele>355.0</ele><time>2026-04-08T08:52:57.737Z</time></trkpt><trkpt lat="45.7424117" lon="9.1854417"><ele>355.0</ele><time>2026-04-08T08:52:58.738Z</time></trkpt><trkpt lat="45.7424617" lon="9.1855117"><ele>355.0</ele><time>2026-04-08T08:52:59.738Z</time></trkpt><trkpt lat="45.7424983" lon="9.1855867"><ele>355.0</ele><time>2026-04-08T08:53:00.738Z</time></trkpt><trkpt lat="45.7425917" lon="9.1857017"><ele>355.0</ele><time>2026-04-08T08:53:02.738Z</time></trkpt><trkpt lat="45.7426533" lon="9.18575"><ele>355.0</ele><time>2026-04-08T08:53:03.737Z</time></trkpt><trkpt lat="45.7427217" lon="9.1857983"><ele>355.6</ele><time>2026-04-08T08:53:04.738Z</time></trkpt><trkpt lat="45.7427983" lon="9.1858583"><ele>356.2</ele><time>2026-04-08T08:53:05.738Z</time></trkpt><trkpt lat="45.7428733" lon="9.1859317"><ele>356.79999999999995</ele><time>2026-04-08T08:53:06.738Z</time></trkpt><trkpt lat="45.742955" lon="9.186015"><ele>357.4</ele><time>2026-04-08T08:53:07.738Z</time></trkpt><trkpt lat="45.7430367" lon="9.1860983"><ele>358.0</ele><time>2026-04-08T08:53:08.738Z</time></trkpt><trkpt lat="45.7431233" lon="9.1861883"><ele>358.0</ele><time>2026-04-08T08:53:09.737Z</time></trkpt><trkpt lat="45.743205" lon="9.186265"><ele>358.0</ele><time>2026-04-08T08:53:10.738Z</time></trkpt><trkpt lat="45.743285" lon="9.18633"><ele>358.0</ele><time>2026-04-08T08:53:11.737Z</time></trkpt><trkpt lat="45.7433633" lon="9.1863783"><ele>358.0</ele><time>2026-04-08T08:53:12.738Z</time></trkpt><trkpt lat="45.7434367" lon="9.18641"><ele>358.0</ele><time>2026-04-08T08:53:13.737Z</time></trkpt><trkpt lat="45.7435033" lon="9.1864317"><ele>358.0</ele><time>2026-04-08T08:53:14.737Z</time></trkpt><trkpt lat="45.74357" lon="9.1864417"><ele>358.3333333333333</ele><time>2026-04-08T08:53:15.738Z</time></trkpt><trkpt lat="45.74364" lon="9.18645"><ele>358.66666666666663</ele><time>2026-04-08T08:53:16.738Z</time></trkpt><trkpt lat="45.743765" lon="9.1864767"><ele>359.0</ele><time>2026-04-08T08:53:18.738Z</time></trkpt><trkpt lat="45.74383" lon="9.1864833"><ele>359.3333333333333</ele><time>2026-04-08T08:53:19.738Z</time></trkpt><trkpt lat="45.743895" lon="9.1864917"><ele>359.6666666666667</ele><time>2026-04-08T08:53:20.738Z</time></trkpt><trkpt lat="45.7439617" lon="9.1864967"><ele>360.0</ele><time>2026-04-08T08:53:21.738Z</time></trkpt><trkpt lat="45.74404" lon="9.186505"><ele>360.0</ele><time>2026-04-08T08:53:22.738Z</time></trkpt><trkpt lat="45.7441183" lon="9.18654"><ele>360.0</ele><time>2026-04-08T08:53:23.738Z</time></trkpt><trkpt lat="45.7442067" lon="9.1865617"><ele>360.0</ele><time>2026-04-08T08:53:24.738Z</time></trkpt><trkpt lat="45.7442983" lon="9.1865783"><ele>360.0</ele><time>2026-04-08T08:53:25.738Z</time></trkpt><trkpt lat="45.7443933" lon="9.1865933"><ele>360.0</ele><time>2026-04-08T08:53:26.737Z</time></trkpt><trkpt lat="45.7444933" lon="9.1866083"><ele>360.2</ele><time>2026-04-08T08:53:27.738Z</time></trkpt><trkpt lat="45.7445933" lon="9.1866333"><ele>360.4</ele><time>2026-04-08T08:53:28.738Z</time></trkpt><trkpt lat="45.7446983" lon="9.186655"><ele>360.6</ele><time>2026-04-08T08:53:29.737Z</time></trkpt><trkpt lat="45.7448" lon="9.1866767"><ele>360.8</ele><time>2026-04-08T08:53:30.738Z</time></trkpt><trkpt lat="45.7449017" lon="9.1866933"><ele>361.0</ele><time>2026-04-08T08:53:31.738Z</time></trkpt><trkpt lat="45.7449983" lon="9.1867083"><ele>361.0</ele><time>2026-04-08T08:53:32.737Z</time></trkpt><trkpt lat="45.745095" lon="9.1867183"><ele>361.0</ele><time>2026-04-08T08:53:33.738Z</time></trkpt><trkpt lat="45.7451917" lon="9.18672"><ele>361.0</ele><time>2026-04-08T08:53:34.738Z</time></trkpt><trkpt lat="45.745295" lon="9.1867033"><ele>361.0</ele><time>2026-04-08T08:53:35.738Z</time></trkpt><trkpt lat="45.7453967" lon="9.1866867"><ele>361.0</ele><time>2026-04-08T08:53:36.738Z</time></trkpt><trkpt lat="45.7454783" lon="9.1866567"><ele>361.20000000000005</ele><time>2026-04-08T08:53:37.737Z</time></trkpt><trkpt lat="45.7455633" lon="9.186625"><ele>361.40000000000003</ele><time>2026-04-08T08:53:38.738Z</time></trkpt><trkpt lat="45.7456467" lon="9.1865683"><ele>361.6</ele><time>2026-04-08T08:53:39.738Z</time></trkpt><trkpt lat="45.745735" lon="9.1865133"><ele>361.8</ele><time>2026-04-08T08:53:40.737Z</time></trkpt><trkpt lat="45.7458217" lon="9.18645"><ele>362.0</ele><time>2026-04-08T08:53:41.738Z</time></trkpt><trkpt lat="45.7459117" lon="9.18638"><ele>362.0</ele><time>2026-04-08T08:53:42.738Z</time></trkpt><trkpt lat="45.7459983" lon="9.186315"><ele>362.0</ele><time>2026-04-08T08:53:43.738Z</time></trkpt><trkpt lat="45.74609" lon="9.1862433"><ele>362.0</ele><time>2026-04-08T08:53:44.737Z</time></trkpt><trkpt lat="45.746175" lon="9.1861717"><ele>362.0</ele><time>2026-04-08T08:53:45.738Z</time></trkpt><trkpt lat="45.7462633" lon="9.1861"><ele>362.0</ele><time>2026-04-08T08:53:46.738Z</time></trkpt><trkpt lat="45.74635" lon="9.1860367"><ele>362.0</ele><time>2026-04-08T08:53:47.738Z</time></trkpt><trkpt lat="45.7464283" lon="9.1859683"><ele>362.0</ele><time>2026-04-08T08:53:48.738Z</time></trkpt><trkpt lat="45.74651" lon="9.1859067"><ele>362.0</ele><time>2026-04-08T08:53:49.738Z</time></trkpt><trkpt lat="45.7465883" lon="9.185835"><ele>362.0</ele><time>2026-04-08T08:53:50.738Z</time></trkpt><trkpt lat="45.7466717" lon="9.18576"><ele>362.0</ele><time>2026-04-08T08:53:51.738Z</time></trkpt><trkpt lat="45.746755" lon="9.1856883"><ele>362.1666666666667</ele><time>2026-04-08T08:53:52.738Z</time></trkpt><trkpt lat="45.746845" lon="9.1856317"><ele>362.33333333333337</ele><time>2026-04-08T08:53:53.737Z</time></trkpt><trkpt lat="45.7469283" lon="9.1855667"><ele>362.5</ele><time>2026-04-08T08:53:54.738Z</time></trkpt><trkpt lat="45.747005" lon="9.1855"><ele>362.6666666666667</ele><time>2026-04-08T08:53:55.738Z</time></trkpt><trkpt lat="45.7470867" lon="9.1854517"><ele>362.8333333333333</ele><time>2026-04-08T08:53:56.738Z</time></trkpt><trkpt lat="45.7471483" lon="9.185395"><ele>363.0</ele><time>2026-04-08T08:53:57.737Z</time></trkpt><trkpt lat="45.7472033" lon="9.1853367"><ele>363.0</ele><time>2026-04-08T08:53:58.738Z</time></trkpt><trkpt lat="45.7472517" lon="9.1852783"><ele>363.0</ele><time>2026-04-08T08:53:59.737Z</time></trkpt><trkpt lat="45.7473083" lon="9.1852267"><ele>363.0</ele><time>2026-04-08T08:54:00.738Z</time></trkpt><trkpt lat="45.7473717" lon="9.18517"><ele>363.0</ele><time>2026-04-08T08:54:01.738Z</time></trkpt><trkpt lat="45.74744" lon="9.18511"><ele>363.0</ele><time>2026-04-08T08:54:02.737Z</time></trkpt><trkpt lat="45.7475117" lon="9.1850533"><ele>363.0</ele><time>2026-04-08T08:54:03.737Z</time></trkpt><trkpt lat="45.74759" lon="9.1850033"><ele>363.0</ele><time>2026-04-08T08:54:04.737Z</time></trkpt><trkpt lat="45.7476767" lon="9.1849567"><ele>363.0</ele><time>2026-04-08T08:54:05.738Z</time></trkpt><trkpt lat="45.74777" lon="9.1849067"><ele>363.0</ele><time>2026-04-08T08:54:06.738Z</time></trkpt><trkpt lat="45.7478683" lon="9.18487"><ele>363.0</ele><time>2026-04-08T08:54:07.738Z</time></trkpt><trkpt lat="45.7479683" lon="9.184845"><ele>363.0</ele><time>2026-04-08T08:54:08.738Z</time></trkpt><trkpt lat="45.74807" lon="9.184825"><ele>363.79999999999995</ele><time>2026-04-08T08:54:09.738Z</time></trkpt><trkpt lat="45.7481683" lon="9.18481"><ele>364.6</ele><time>2026-04-08T08:54:10.738Z</time></trkpt><trkpt lat="45.7482717" lon="9.1847967"><ele>365.4</ele><time>2026-04-08T08:54:11.738Z</time></trkpt><trkpt lat="45.7483817" lon="9.184785"><ele>366.20000000000005</ele><time>2026-04-08T08:54:12.738Z</time></trkpt><trkpt lat="45.7484883" lon="9.1847767"><ele>367.0</ele><time>2026-04-08T08:54:13.738Z</time></trkpt><trkpt lat="45.7485933" lon="9.1847533"><ele>367.8</ele><time>2026-04-08T08:54:14.738Z</time></trkpt><trkpt lat="45.7487" lon="9.1847467"><ele>368.6</ele><time>2026-04-08T08:54:15.738Z</time></trkpt><trkpt lat="45.7488083" lon="9.1847283"><ele>369.40000000000003</ele><time>2026-04-08T08:54:16.737Z</time></trkpt><trkpt lat="45.74892" lon="9.1847083"><ele>370.20000000000005</ele><time>2026-04-08T08:54:17.738Z</time></trkpt><trkpt lat="45.74903" lon="9.18469"><ele>371.0</ele><time>2026-04-08T08:54:18.738Z</time></trkpt><trkpt lat="45.7491383" lon="9.18468"><ele>371.0</ele><time>2026-04-08T08:54:19.737Z</time></trkpt><trkpt lat="45.7492533" lon="9.1846617"><ele>371.0</ele><time>2026-04-08T08:54:20.737Z</time></trkpt><trkpt lat="45.749365" lon="9.1846417"><ele>371.0</ele><time>2026-04-08T08:54:21.738Z</time></trkpt><trkpt lat="45.7494767" lon="9.184625"><ele>371.0</ele><time>2026-04-08T08:54:22.738Z</time></trkpt><trkpt lat="45.74959" lon="9.184605"><ele>369.75</ele><time>2026-04-08T08:54:23.737Z</time></trkpt><trkpt lat="45.7497083" lon="9.184595"><ele>368.5</ele><time>2026-04-08T08:54:24.738Z</time></trkpt><trkpt lat="45.7498217" lon="9.1845767"><ele>367.25</ele><time>2026-04-08T08:54:25.737Z</time></trkpt><trkpt lat="45.7499383" lon="9.1845567"><ele>366.0</ele><time>2026-04-08T08:54:26.738Z</time></trkpt><trkpt lat="45.750055" lon="9.1845283"><ele>366.0</ele><time>2026-04-08T08:54:27.738Z</time></trkpt><trkpt lat="45.7501667" lon="9.184505"><ele>366.0</ele><time>2026-04-08T08:54:28.738Z</time></trkpt><trkpt lat="45.7502783" lon="9.18449"><ele>366.0</ele><time>2026-04-08T08:54:29.738Z</time></trkpt><trkpt lat="45.7503933" lon="9.184475"><ele>366.0</ele><time>2026-04-08T08:54:30.738Z</time></trkpt><trkpt lat="45.75051" lon="9.18446"><ele>364.25</ele><time>2026-04-08T08:54:31.738Z</time></trkpt><trkpt lat="45.7506267" lon="9.184445"><ele>362.5</ele><time>2026-04-08T08:54:32.738Z</time></trkpt><trkpt lat="45.7507483" lon="9.1844283"><ele>360.75</ele><time>2026-04-08T08:54:33.738Z</time></trkpt><trkpt lat="45.7508583" lon="9.1844033"><ele>359.0</ele><time>2026-04-08T08:54:34.738Z</time></trkpt><trkpt lat="45.7509683" lon="9.184375"><ele>360.2</ele><time>2026-04-08T08:54:35.737Z</time></trkpt><trkpt lat="45.7510717" lon="9.184355"><ele>361.4</ele><time>2026-04-08T08:54:36.738Z</time></trkpt><trkpt lat="45.7511733" lon="9.184355"><ele>362.6</ele><time>2026-04-08T08:54:37.738Z</time></trkpt><trkpt lat="45.7512683" lon="9.1843433"><ele>363.8</ele><time>2026-04-08T08:54:38.738Z</time></trkpt><trkpt lat="45.751355" lon="9.1843217"><ele>365.0</ele><time>2026-04-08T08:54:39.737Z</time></trkpt><trkpt lat="45.7514333" lon="9.184275"><ele>365.0</ele><time>2026-04-08T08:54:40.738Z</time></trkpt><trkpt lat="45.7515083" lon="9.1842133"><ele>365.0</ele><time>2026-04-08T08:54:41.738Z</time></trkpt><trkpt lat="45.75157" lon="9.18412"><ele>365.0</ele><time>2026-04-08T08:54:42.737Z</time></trkpt><trkpt lat="45.75163" lon="9.1840167"><ele>365.0</ele><time>2026-04-08T08:54:43.737Z</time></trkpt><trkpt lat="45.75169" lon="9.1838967"><ele>365.0</ele><time>2026-04-08T08:54:44.737Z</time></trkpt><trkpt lat="45.7517517" lon="9.18378"><ele>363.6</ele><time>2026-04-08T08:54:45.737Z</time></trkpt><trkpt lat="45.7518233" lon="9.18367"><ele>362.2</ele><time>2026-04-08T08:54:46.738Z</time></trkpt><trkpt lat="45.751905" lon="9.1835883"><ele>360.79999999999995</ele><time>2026-04-08T08:54:47.738Z</time></trkpt><trkpt lat="45.7519983" lon="9.183525"><ele>359.4</ele><time>2026-04-08T08:54:48.737Z</time></trkpt><trkpt lat="45.7520967" lon="9.1834683"><ele>358.0</ele><time>2026-04-08T08:54:49.738Z</time></trkpt><trkpt lat="45.7522017" lon="9.18341"><ele>358.0</ele><time>2026-04-08T08:54:50.738Z</time></trkpt><trkpt lat="45.7523067" lon="9.1833417"><ele>358.0</ele><time>2026-04-08T08:54:51.738Z</time></trkpt><trkpt lat="45.7524167" lon="9.1832733"><ele>358.0</ele><time>2026-04-08T08:54:52.738Z</time></trkpt><trkpt lat="45.75252" lon="9.1831983"><ele>358.0</ele><time>2026-04-08T08:54:53.738Z</time></trkpt><trkpt lat="45.7526267" lon="9.1831283"><ele>355.25</ele><time>2026-04-08T08:54:54.738Z</time></trkpt><trkpt lat="45.7527417" lon="9.18306"><ele>352.5</ele><time>2026-04-08T08:54:55.738Z</time></trkpt><trkpt lat="45.75285" lon="9.1830033"><ele>349.75</ele><time>2026-04-08T08:54:56.738Z</time></trkpt><trkpt lat="45.7529583" lon="9.182945"><ele>347.0</ele><time>2026-04-08T08:54:57.738Z</time></trkpt><trkpt lat="45.7530633" lon="9.1828833"><ele>347.0</ele><time>2026-04-08T08:54:58.738Z</time></trkpt><trkpt lat="45.7531667" lon="9.1828317"><ele>347.0</ele><time>2026-04-08T08:54:59.738Z</time></trkpt><trkpt lat="45.7532633" lon="9.1827783"><ele>347.0</ele><time>2026-04-08T08:55:00.738Z</time></trkpt><trkpt lat="45.753355" lon="9.1827283"><ele>347.0</ele><time>2026-04-08T08:55:01.738Z</time></trkpt><trkpt lat="45.7534317" lon="9.1826633"><ele>347.0</ele><time>2026-04-08T08:55:02.737Z</time></trkpt><trkpt lat="45.7534967" lon="9.1825983"><ele>345.8571428571429</ele><time>2026-04-08T08:55:03.737Z</time></trkpt><trkpt lat="45.7535533" lon="9.18252"><ele>344.71428571428567</ele><time>2026-04-08T08:55:04.738Z</time></trkpt><trkpt lat="45.753595" lon="9.182435"><ele>343.57142857142856</ele><time>2026-04-08T08:55:05.737Z</time></trkpt><trkpt lat="45.75362" lon="9.1823417"><ele>342.42857142857144</ele><time>2026-04-08T08:55:06.738Z</time></trkpt><trkpt lat="45.7536367" lon="9.18225"><ele>341.28571428571433</ele><time>2026-04-08T08:55:07.738Z</time></trkpt><trkpt lat="45.7536417" lon="9.18215"><ele>340.1428571428571</ele><time>2026-04-08T08:55:08.738Z</time></trkpt><trkpt lat="45.7536367" lon="9.1820583"><ele>339.0</ele><time>2026-04-08T08:55:09.738Z</time></trkpt><trkpt lat="45.75365" lon="9.1819167"><ele>338.4285714285714</ele><time>2026-04-08T08:55:11.738Z</time></trkpt><trkpt lat="45.7536883" lon="9.1818183"><ele>337.8571428571429</ele><time>2026-04-08T08:55:13.737Z</time></trkpt><trkpt lat="45.7537117" lon="9.1817283"><ele>337.2857142857143</ele><time>2026-04-08T08:55:15.738Z</time></trkpt><trkpt lat="45.75369" lon="9.18163"><ele>336.71428571428567</ele><time>2026-04-08T08:55:18.738Z</time></trkpt><trkpt lat="45.75368" lon="9.18154"><ele>336.1428571428571</ele><time>2026-04-08T08:55:20.738Z</time></trkpt><trkpt lat="45.7536517" lon="9.18144"><ele>335.57142857142856</ele><time>2026-04-08T08:55:22.738Z</time></trkpt><trkpt lat="45.7536267" lon="9.1813233"><ele>335.0</ele><time>2026-04-08T08:55:24.738Z</time></trkpt><trkpt lat="45.753595" lon="9.1812033"><ele>335.5</ele><time>2026-04-08T08:55:26.738Z</time></trkpt><trkpt lat="45.7535717" lon="9.1810983"><ele>336.0</ele><time>2026-04-08T08:55:28.737Z</time></trkpt><trkpt lat="45.7535467" lon="9.1809883"><ele>336.5</ele><time>2026-04-08T08:55:30.738Z</time></trkpt><trkpt lat="45.7535183" lon="9.18088"><ele>337.0</ele><time>2026-04-08T08:55:32.738Z</time></trkpt><trkpt lat="45.753495" lon="9.1807667"><ele>337.5</ele><time>2026-04-08T08:55:34.737Z</time></trkpt><trkpt lat="45.7534483" lon="9.1806483"><ele>338.0</ele><time>2026-04-08T08:55:36.738Z</time></trkpt><trkpt lat="45.7534083" lon="9.1805467"><ele>336.6666666666667</ele><time>2026-04-08T08:55:38.738Z</time></trkpt><trkpt lat="45.7533633" lon="9.180445"><ele>335.33333333333337</ele><time>2026-04-08T08:55:40.738Z</time></trkpt><trkpt lat="45.7533117" lon="9.1803417"><ele>334.0</ele><time>2026-04-08T08:55:42.738Z</time></trkpt><trkpt lat="45.7532667" lon="9.1802333"><ele>332.6666666666667</ele><time>2026-04-08T08:55:44.737Z</time></trkpt><trkpt lat="45.7532317" lon="9.18013"><ele>331.3333333333333</ele><time>2026-04-08T08:55:46.737Z</time></trkpt><trkpt lat="45.7531983" lon="9.1800383"><ele>330.0</ele><time>2026-04-08T08:55:48.738Z</time></trkpt><trkpt lat="45.7531533" lon="9.179965"><ele>330.0</ele><time>2026-04-08T08:55:50.738Z</time></trkpt><trkpt lat="45.7530883" lon="9.17989"><ele>330.0</ele><time>2026-04-08T08:55:52.738Z</time></trkpt><trkpt lat="45.7529967" lon="9.1798217"><ele>330.0</ele><time>2026-04-08T08:55:54.737Z</time></trkpt><trkpt lat="45.7529267" lon="9.1797517"><ele>330.0</ele><time>2026-04-08T08:55:56.738Z</time></trkpt><trkpt lat="45.7528633" lon="9.17966"><ele>330.0</ele><time>2026-04-08T08:55:58.738Z</time></trkpt><trkpt lat="45.7527967" lon="9.1795383"><ele>330.0</ele><time>2026-04-08T08:56:00.737Z</time></trkpt><trkpt lat="45.7527283" lon="9.1794133"><ele>330.0</ele><time>2026-04-08T08:56:02.738Z</time></trkpt><trkpt lat="45.75267" lon="9.1793"><ele>330.0</ele><time>2026-04-08T08:56:04.737Z</time></trkpt><trkpt lat="45.752625" lon="9.1792117"><ele>330.0</ele><time>2026-04-08T08:56:06.737Z</time></trkpt><trkpt lat="45.75257" lon="9.179115"><ele>330.0</ele><time>2026-04-08T08:56:09.737Z</time></trkpt><trkpt lat="45.7525333" lon="9.1790317"><ele>330.0</ele><time>2026-04-08T08:56:12.738Z</time></trkpt><trkpt lat="45.7525117" lon="9.1789367"><ele>330.0</ele><time>2026-04-08T08:56:15.738Z</time></trkpt><trkpt lat="45.7525483" lon="9.1790117"><ele>330.0</ele><time>2026-04-08T08:57:08.737Z</time></trkpt><trkpt lat="45.7525967" lon="9.17913"><ele>330.0</ele><time>2026-04-08T08:57:11.738Z</time></trkpt><trkpt lat="45.75264" lon="9.179225"><ele>330.0</ele><time>2026-04-08T08:57:13.738Z</time></trkpt><trkpt lat="45.7526833" lon="9.1793083"><ele>330.0</ele><time>2026-04-08T08:57:15.738Z</time></trkpt><trkpt lat="45.7527383" lon="9.1793967"><ele>330.0</ele><time>2026-04-08T08:57:17.738Z</time></trkpt><trkpt lat="45.7527983" lon="9.1794933"><ele>330.0</ele><time>2026-04-08T08:57:19.738Z</time></trkpt><trkpt lat="45.7528633" lon="9.1795967"><ele>330.0</ele><time>2026-04-08T08:57:21.737Z</time></trkpt><trkpt lat="45.7529183" lon="9.1797"><ele>330.0</ele><time>2026-04-08T08:57:23.738Z</time></trkpt><trkpt lat="45.7529833" lon="9.1797717"><ele>330.0</ele><time>2026-04-08T08:57:25.738Z</time></trkpt><trkpt lat="45.753045" lon="9.1798233"><ele>330.0</ele><time>2026-04-08T08:57:27.738Z</time></trkpt><trkpt lat="45.753115" lon="9.17987"><ele>330.0</ele><time>2026-04-08T08:57:29.737Z</time></trkpt><trkpt lat="45.7531717" lon="9.1799533"><ele>330.0</ele><time>2026-04-08T08:57:31.738Z</time></trkpt><trkpt lat="45.7532283" lon="9.1800533"><ele>330.0</ele><time>2026-04-08T08:57:33.737Z</time></trkpt><trkpt lat="45.7532733" lon="9.1801667"><ele>330.0</ele><time>2026-04-08T08:57:35.738Z</time></trkpt><trkpt lat="45.7533333" lon="9.1803"><ele>330.0</ele><time>2026-04-08T08:57:37.737Z</time></trkpt><trkpt lat="45.753395" lon="9.1804167"><ele>330.0</ele><time>2026-04-08T08:57:39.738Z</time></trkpt><trkpt lat="45.7534567" lon="9.180545"><ele>329.8</ele><time>2026-04-08T08:57:41.738Z</time></trkpt><trkpt lat="45.7534967" lon="9.180685"><ele>329.6</ele><time>2026-04-08T08:57:43.738Z</time></trkpt><trkpt lat="45.7535367" lon="9.180825"><ele>329.4</ele><time>2026-04-08T08:57:45.738Z</time></trkpt><trkpt lat="45.753565" lon="9.1809733"><ele>329.2</ele><time>2026-04-08T08:57:47.738Z</time></trkpt><trkpt lat="45.7535883" lon="9.1811017"><ele>329.0</ele><time>2026-04-08T08:57:49.738Z</time></trkpt><trkpt lat="45.7536133" lon="9.1812133"><ele>329.0</ele><time>2026-04-08T08:57:51.737Z</time></trkpt><trkpt lat="45.7536483" lon="9.1813267"><ele>329.0</ele><time>2026-04-08T08:57:53.737Z</time></trkpt><trkpt lat="45.7536617" lon="9.181435"><ele>329.0</ele><time>2026-04-08T08:57:55.737Z</time></trkpt><trkpt lat="45.7536667" lon="9.1815317"><ele>329.0</ele><time>2026-04-08T08:57:57.737Z</time></trkpt><trkpt lat="45.7536783" lon="9.1816433"><ele>329.0</ele><time>2026-04-08T08:58:00.737Z</time></trkpt><trkpt lat="45.7537083" lon="9.1817483"><ele>329.0</ele><time>2026-04-08T08:58:27.738Z</time></trkpt><trkpt lat="45.7537783" lon="9.181735"><ele>329.0</ele><time>2026-04-08T08:58:30.737Z</time></trkpt><trkpt lat="45.7538267" lon="9.181675"><ele>329.0</ele><time>2026-04-08T08:58:32.737Z</time></trkpt><trkpt lat="45.753885" lon="9.1815883"><ele>329.0</ele><time>2026-04-08T08:58:34.737Z</time></trkpt><trkpt lat="45.7539583" lon="9.181495"><ele>329.0</ele><time>2026-04-08T08:58:36.738Z</time></trkpt><trkpt lat="45.7540483" lon="9.18138"><ele>329.0</ele><time>2026-04-08T08:58:38.738Z</time></trkpt><trkpt lat="45.7541517" lon="9.181255"><ele>329.0</ele><time>2026-04-08T08:58:40.738Z</time></trkpt><trkpt lat="45.7542067" lon="9.1811933"><ele>329.0</ele><time>2026-04-08T08:58:41.738Z</time></trkpt><trkpt lat="45.7542667" lon="9.181135"><ele>329.0</ele><time>2026-04-08T08:58:42.738Z</time></trkpt><trkpt lat="45.7543267" lon="9.1810817"><ele>329.0</ele><time>2026-04-08T08:58:43.738Z</time></trkpt><trkpt lat="45.7543933" lon="9.1810317"><ele>329.0</ele><time>2026-04-08T08:58:44.738Z</time></trkpt><trkpt lat="45.7544617" lon="9.1809817"><ele>329.0</ele><time>2026-04-08T08:58:45.737Z</time></trkpt><trkpt lat="45.7545333" lon="9.1809417"><ele>329.0</ele><time>2026-04-08T08:58:46.737Z</time></trkpt><trkpt lat="45.7546067" lon="9.1809"><ele>329.83333333333337</ele><time>2026-04-08T08:58:47.737Z</time></trkpt><trkpt lat="45.7546833" lon="9.1808717"><ele>330.6666666666667</ele><time>2026-04-08T08:58:48.738Z</time></trkpt><trkpt lat="45.7547567" lon="9.1808433"><ele>331.5</ele><time>2026-04-08T08:58:49.738Z</time></trkpt><trkpt lat="45.7548383" lon="9.1808333"><ele>332.3333333333333</ele><time>2026-04-08T08:58:50.738Z</time></trkpt><trkpt lat="45.75492" lon="9.1808333"><ele>333.16666666666663</ele><time>2026-04-08T08:58:51.737Z</time></trkpt><trkpt lat="45.755005" lon="9.18084"><ele>334.0</ele><time>2026-04-08T08:58:52.738Z</time></trkpt><trkpt lat="45.755085" lon="9.1808333"><ele>334.0</ele><time>2026-04-08T08:58:53.737Z</time></trkpt><trkpt lat="45.7551633" lon="9.180825"><ele>334.0</ele><time>2026-04-08T08:58:54.738Z</time></trkpt><trkpt lat="45.75524" lon="9.1808067"><ele>334.0</ele><time>2026-04-08T08:58:55.738Z</time></trkpt><trkpt lat="45.7553133" lon="9.180795"><ele>334.0</ele><time>2026-04-08T08:58:56.738Z</time></trkpt><trkpt lat="45.755395" lon="9.1807583"><ele>334.0</ele><time>2026-04-08T08:58:57.738Z</time></trkpt><trkpt lat="45.755475" lon="9.1807217"><ele>334.0</ele><time>2026-04-08T08:58:58.738Z</time></trkpt><trkpt lat="45.75555" lon="9.180675"><ele>333.16666666666663</ele><time>2026-04-08T08:58:59.738Z</time></trkpt><trkpt lat="45.7556217" lon="9.1806267"><ele>332.3333333333333</ele><time>2026-04-08T08:59:00.737Z</time></trkpt><trkpt lat="45.7557017" lon="9.1805783"><ele>331.5</ele><time>2026-04-08T08:59:01.738Z</time></trkpt><trkpt lat="45.7557783" lon="9.1805383"><ele>330.6666666666667</ele><time>2026-04-08T08:59:02.738Z</time></trkpt><trkpt lat="45.7558533" lon="9.1805"><ele>329.83333333333337</ele><time>2026-04-08T08:59:03.737Z</time></trkpt><trkpt lat="45.755935" lon="9.1804567"><ele>329.0</ele><time>2026-04-08T08:59:04.738Z</time></trkpt><trkpt lat="45.7560133" lon="9.18042"><ele>330.0</ele><time>2026-04-08T08:59:05.737Z</time></trkpt><trkpt lat="45.7560867" lon="9.1803867"><ele>331.0</ele><time>2026-04-08T08:59:06.737Z</time></trkpt><trkpt lat="45.756165" lon="9.180345"><ele>332.0</ele><time>2026-04-08T08:59:07.738Z</time></trkpt><trkpt lat="45.75624" lon="9.1802983"><ele>333.0</ele><time>2026-04-08T08:59:08.737Z</time></trkpt><trkpt lat="45.7563217" lon="9.180255"><ele>334.0</ele><time>2026-04-08T08:59:09.738Z</time></trkpt><trkpt lat="45.7564033" lon="9.18021"><ele>335.0</ele><time>2026-04-08T08:59:10.738Z</time></trkpt><trkpt lat="45.7564883" lon="9.18017"><ele>335.0</ele><time>2026-04-08T08:59:11.738Z</time></trkpt><trkpt lat="45.7565783" lon="9.1801317"><ele>335.0</ele><time>2026-04-08T08:59:12.737Z</time></trkpt><trkpt lat="45.7566633" lon="9.1800867"><ele>335.0</ele><time>2026-04-08T08:59:13.738Z</time></trkpt><trkpt lat="45.7567583" lon="9.1800417"><ele>335.0</ele><time>2026-04-08T08:59:14.738Z</time></trkpt><trkpt lat="45.7568517" lon="9.1799983"><ele>335.0</ele><time>2026-04-08T08:59:15.738Z</time></trkpt><trkpt lat="45.7569433" lon="9.1799617"><ele>335.0</ele><time>2026-04-08T08:59:16.737Z</time></trkpt><trkpt lat="45.757025" lon="9.17991"><ele>335.0</ele><time>2026-04-08T08:59:17.737Z</time></trkpt><trkpt lat="45.7571083" lon="9.1798533"><ele>335.0</ele><time>2026-04-08T08:59:18.737Z</time></trkpt><trkpt lat="45.7571917" lon="9.1797983"><ele>335.0</ele><time>2026-04-08T08:59:19.737Z</time></trkpt><trkpt lat="45.757275" lon="9.1797567"><ele>335.0</ele><time>2026-04-08T08:59:20.738Z</time></trkpt><trkpt lat="45.7573667" lon="9.1797217"><ele>335.0</ele><time>2026-04-08T08:59:21.737Z</time></trkpt><trkpt lat="45.7574617" lon="9.1796817"><ele>335.0</ele><time>2026-04-08T08:59:22.738Z</time></trkpt><trkpt lat="45.7575567" lon="9.179635"><ele>335.0</ele><time>2026-04-08T08:59:23.737Z</time></trkpt><trkpt lat="45.7576467" lon="9.1795933"><ele>335.0</ele><time>2026-04-08T08:59:24.738Z</time></trkpt><trkpt lat="45.757735" lon="9.1795467"><ele>335.0</ele><time>2026-04-08T08:59:25.737Z</time></trkpt><trkpt lat="45.75783" lon="9.1795167"><ele>335.0</ele><time>2026-04-08T08:59:26.737Z</time></trkpt><trkpt lat="45.75792" lon="9.1794867"><ele>335.0</ele><time>2026-04-08T08:59:27.738Z</time></trkpt><trkpt lat="45.75801" lon="9.17947"><ele>335.0</ele><time>2026-04-08T08:59:28.737Z</time></trkpt><trkpt lat="45.7581083" lon="9.1794633"><ele>335.0</ele><time>2026-04-08T08:59:29.737Z</time></trkpt><trkpt lat="45.7582067" lon="9.179455"><ele>335.0</ele><time>2026-04-08T08:59:30.737Z</time></trkpt><trkpt lat="45.7583083" lon="9.1794467"><ele>335.0</ele><time>2026-04-08T08:59:31.737Z</time></trkpt><trkpt lat="45.7584033" lon="9.1794417"><ele>335.0</ele><time>2026-04-08T08:59:32.737Z</time></trkpt><trkpt lat="45.7585033" lon="9.1794433"><ele>335.0</ele><time>2026-04-08T08:59:33.737Z</time></trkpt><trkpt lat="45.7586033" lon="9.1794467"><ele>335.0</ele><time>2026-04-08T08:59:34.737Z</time></trkpt><trkpt lat="45.7587" lon="9.1794417"><ele>335.0</ele><time>2026-04-08T08:59:35.736Z</time></trkpt><trkpt lat="45.7587983" lon="9.1794367"><ele>335.0</ele><time>2026-04-08T08:59:36.736Z</time></trkpt><trkpt lat="45.7589" lon="9.1794417"><ele>335.0</ele><time>2026-04-08T08:59:37.736Z</time></trkpt><trkpt lat="45.758995" lon="9.1794367"><ele>335.0</ele><time>2026-04-08T08:59:38.737Z</time></trkpt><trkpt lat="45.759095" lon="9.1794317"><ele>335.0</ele><time>2026-04-08T08:59:39.737Z</time></trkpt><trkpt lat="45.7591933" lon="9.179425"><ele>335.0</ele><time>2026-04-08T08:59:40.737Z</time></trkpt><trkpt lat="45.7592933" lon="9.17942"><ele>335.2</ele><time>2026-04-08T08:59:41.737Z</time></trkpt><trkpt lat="45.75939" lon="9.17942"><ele>335.4</ele><time>2026-04-08T08:59:42.737Z</time></trkpt><trkpt lat="45.7594917" lon="9.1794233"><ele>335.6</ele><time>2026-04-08T08:59:43.737Z</time></trkpt><trkpt lat="45.7595883" lon="9.17942"><ele>335.8</ele><time>2026-04-08T08:59:44.737Z</time></trkpt><trkpt lat="45.759685" lon="9.1794133"><ele>336.0</ele><time>2026-04-08T08:59:45.737Z</time></trkpt><trkpt lat="45.7597767" lon="9.1794133"><ele>336.0</ele><time>2026-04-08T08:59:46.737Z</time></trkpt><trkpt lat="45.7598733" lon="9.1794017"><ele>336.0</ele><time>2026-04-08T08:59:47.737Z</time></trkpt><trkpt lat="45.7599733" lon="9.1793967"><ele>336.0</ele><time>2026-04-08T08:59:48.736Z</time></trkpt><trkpt lat="45.7600783" lon="9.17941"><ele>336.0</ele><time>2026-04-08T08:59:49.737Z</time></trkpt><trkpt lat="45.7601767" lon="9.17941"><ele>336.0</ele><time>2026-04-08T08:59:50.737Z</time></trkpt><trkpt lat="45.7602733" lon="9.1794133"><ele>336.6</ele><time>2026-04-08T08:59:51.737Z</time></trkpt><trkpt lat="45.760365" lon="9.1794183"><ele>337.20000000000005</ele><time>2026-04-08T08:59:52.737Z</time></trkpt><trkpt lat="45.760455" lon="9.1794317"><ele>337.79999999999995</ele><time>2026-04-08T08:59:53.737Z</time></trkpt><trkpt lat="45.760545" lon="9.1794567"><ele>338.4</ele><time>2026-04-08T08:59:54.737Z</time></trkpt><trkpt lat="45.7606383" lon="9.17948"><ele>339.0</ele><time>2026-04-08T08:59:55.737Z</time></trkpt><trkpt lat="45.7607367" lon="9.179515"><ele>339.0</ele><time>2026-04-08T08:59:56.736Z</time></trkpt><trkpt lat="45.7608333" lon="9.1795533"><ele>339.0</ele><time>2026-04-08T08:59:57.737Z</time></trkpt><trkpt lat="45.76093" lon="9.1795867"><ele>339.0</ele><time>2026-04-08T08:59:58.737Z</time></trkpt><trkpt lat="45.7610233" lon="9.17962"><ele>339.0</ele><time>2026-04-08T08:59:59.737Z</time></trkpt><trkpt lat="45.761105" lon="9.179645"><ele>339.0</ele><time>2026-04-08T09:00:00.737Z</time></trkpt><trkpt lat="45.7611817" lon="9.1796667"><ele>339.3333333333333</ele><time>2026-04-08T09:00:01.737Z</time></trkpt><trkpt lat="45.7612867" lon="9.1796933"><ele>339.6666666666667</ele><time>2026-04-08T09:00:03.737Z</time></trkpt><trkpt lat="45.7613567" lon="9.1796983"><ele>340.0</ele><time>2026-04-08T09:00:05.737Z</time></trkpt><trkpt lat="45.7613483" lon="9.1795783"><ele>340.33333333333337</ele><time>2026-04-08T09:01:24.737Z</time></trkpt><trkpt lat="45.7613433" lon="9.17942"><ele>340.6666666666667</ele><time>2026-04-08T09:01:26.737Z</time></trkpt><trkpt lat="45.7613367" lon="9.1793217"><ele>341.0</ele><time>2026-04-08T09:01:27.737Z</time></trkpt><trkpt lat="45.7613317" lon="9.1792183"><ele>341.0</ele><time>2026-04-08T09:01:28.736Z</time></trkpt><trkpt lat="45.7613333" lon="9.1791167"><ele>341.0</ele><time>2026-04-08T09:01:29.737Z</time></trkpt><trkpt lat="45.7613433" lon="9.17901"><ele>341.0</ele><time>2026-04-08T09:01:30.736Z</time></trkpt><trkpt lat="45.7613467" lon="9.1788983"><ele>341.0</ele><time>2026-04-08T09:01:31.737Z</time></trkpt><trkpt lat="45.7613517" lon="9.17879"><ele>341.0</ele><time>2026-04-08T09:01:32.737Z</time></trkpt><trkpt lat="45.7613583" lon="9.1786783"><ele>341.0</ele><time>2026-04-08T09:01:33.737Z</time></trkpt><trkpt lat="45.761375" lon="9.1785633"><ele>341.1666666666667</ele><time>2026-04-08T09:01:34.737Z</time></trkpt><trkpt lat="45.7614033" lon="9.1784517"><ele>341.33333333333337</ele><time>2026-04-08T09:01:35.736Z</time></trkpt><trkpt lat="45.761435" lon="9.1783417"><ele>341.5</ele><time>2026-04-08T09:01:36.736Z</time></trkpt><trkpt lat="45.761485" lon="9.1782367"><ele>341.6666666666667</ele><time>2026-04-08T09:01:37.737Z</time></trkpt><trkpt lat="45.7615383" lon="9.178135"><ele>341.8333333333333</ele><time>2026-04-08T09:01:38.736Z</time></trkpt><trkpt lat="45.7616017" lon="9.17803"><ele>342.0</ele><time>2026-04-08T09:01:39.737Z</time></trkpt><trkpt lat="45.7616633" lon="9.1779233"><ele>342.0</ele><time>2026-04-08T09:01:40.737Z</time></trkpt><trkpt lat="45.76173" lon="9.177815"><ele>342.0</ele><time>2026-04-08T09:01:41.736Z</time></trkpt><trkpt lat="45.7618" lon="9.1777017"><ele>342.0</ele><time>2026-04-08T09:01:42.736Z</time></trkpt><trkpt lat="45.761865" lon="9.177585"><ele>342.0</ele><time>2026-04-08T09:01:43.736Z</time></trkpt><trkpt lat="45.7619267" lon="9.1774717"><ele>342.0</ele><time>2026-04-08T09:01:44.736Z</time></trkpt><trkpt lat="45.7619933" lon="9.17736"><ele>344.0</ele><time>2026-04-08T09:01:45.736Z</time></trkpt><trkpt lat="45.7620467" lon="9.1772567"><ele>346.0</ele><time>2026-04-08T09:01:46.737Z</time></trkpt><trkpt lat="45.7620967" lon="9.1771583"><ele>348.0</ele><time>2026-04-08T09:01:47.736Z</time></trkpt><trkpt lat="45.76215" lon="9.177065"><ele>350.0</ele><time>2026-04-08T09:01:48.736Z</time></trkpt><trkpt lat="45.76219" lon="9.176965"><ele>352.0</ele><time>2026-04-08T09:01:49.737Z</time></trkpt><trkpt lat="45.76221" lon="9.17686"><ele>354.0</ele><time>2026-04-08T09:01:50.737Z</time></trkpt><trkpt lat="45.762215" lon="9.17675"><ele>354.0</ele><time>2026-04-08T09:01:51.737Z</time></trkpt><trkpt lat="45.7622117" lon="9.176635"><ele>354.0</ele><time>2026-04-08T09:01:52.737Z</time></trkpt><trkpt lat="45.762205" lon="9.1765067"><ele>354.0</ele><time>2026-04-08T09:01:53.736Z</time></trkpt><trkpt lat="45.7621867" lon="9.176375"><ele>354.0</ele><time>2026-04-08T09:01:54.736Z</time></trkpt><trkpt lat="45.7621517" lon="9.1762433"><ele>354.0</ele><time>2026-04-08T09:01:55.737Z</time></trkpt><trkpt lat="45.7621233" lon="9.1761083"><ele>355.0</ele><time>2026-04-08T09:01:56.736Z</time></trkpt><trkpt lat="45.7620933" lon="9.175975"><ele>356.0</ele><time>2026-04-08T09:01:57.737Z</time></trkpt><trkpt lat="45.7620533" lon="9.1758367"><ele>357.0</ele><time>2026-04-08T09:01:58.737Z</time></trkpt><trkpt lat="45.76202" lon="9.1756983"><ele>358.0</ele><time>2026-04-08T09:01:59.737Z</time></trkpt><trkpt lat="45.7619867" lon="9.175565"><ele>359.0</ele><time>2026-04-08T09:02:00.737Z</time></trkpt><trkpt lat="45.76195" lon="9.1754417"><ele>359.2</ele><time>2026-04-08T09:02:01.737Z</time></trkpt><trkpt lat="45.76192" lon="9.175305"><ele>359.4</ele><time>2026-04-08T09:02:02.737Z</time></trkpt><trkpt lat="45.7618867" lon="9.175175"><ele>359.6</ele><time>2026-04-08T09:02:03.736Z</time></trkpt><trkpt lat="45.761855" lon="9.1750467"><ele>359.8</ele><time>2026-04-08T09:02:04.737Z</time></trkpt><trkpt lat="45.7618267" lon="9.1749183"><ele>360.0</ele><time>2026-04-08T09:02:05.736Z</time></trkpt><trkpt lat="45.7617983" lon="9.1747967"><ele>361.3333333333333</ele><time>2026-04-08T09:02:06.737Z</time></trkpt><trkpt lat="45.7617717" lon="9.1746733"><ele>362.6666666666667</ele><time>2026-04-08T09:02:07.736Z</time></trkpt><trkpt lat="45.761755" lon="9.1745617"><ele>364.0</ele><time>2026-04-08T09:02:08.737Z</time></trkpt><trkpt lat="45.76175" lon="9.17445"><ele>365.33333333333337</ele><time>2026-04-08T09:02:09.736Z</time></trkpt><trkpt lat="45.76176" lon="9.1743517"><ele>366.6666666666667</ele><time>2026-04-08T09:02:10.737Z</time></trkpt><trkpt lat="45.7617817" lon="9.1742467"><ele>368.0</ele><time>2026-04-08T09:02:11.737Z</time></trkpt><trkpt lat="45.7618183" lon="9.1741467"><ele>368.0</ele><time>2026-04-08T09:02:12.737Z</time></trkpt><trkpt lat="45.7618583" lon="9.174045"><ele>368.0</ele><time>2026-04-08T09:02:13.737Z</time></trkpt><trkpt lat="45.7619133" lon="9.1739633"><ele>368.0</ele><time>2026-04-08T09:02:14.737Z</time></trkpt><trkpt lat="45.76198" lon="9.1739067"><ele>368.0</ele><time>2026-04-08T09:02:15.736Z</time></trkpt><trkpt lat="45.7620517" lon="9.17386"><ele>368.0</ele><time>2026-04-08T09:02:16.737Z</time></trkpt><trkpt lat="45.7621383" lon="9.1738217"><ele>368.0</ele><time>2026-04-08T09:02:17.737Z</time></trkpt><trkpt lat="45.7622367" lon="9.1737933"><ele>369.4</ele><time>2026-04-08T09:02:18.737Z</time></trkpt><trkpt lat="45.762345" lon="9.1737667"><ele>370.79999999999995</ele><time>2026-04-08T09:02:19.737Z</time></trkpt><trkpt lat="45.7624417" lon="9.17374"><ele>372.2</ele><time>2026-04-08T09:02:20.736Z</time></trkpt><trkpt lat="45.7625417" lon="9.1737133"><ele>373.6</ele><time>2026-04-08T09:02:21.736Z</time></trkpt><trkpt lat="45.7626383" lon="9.17368"><ele>375.0</ele><time>2026-04-08T09:02:22.736Z</time></trkpt><trkpt lat="45.7627267" lon="9.1736483"><ele>375.0</ele><time>2026-04-08T09:02:23.736Z</time></trkpt><trkpt lat="45.762805" lon="9.1736233"><ele>375.0</ele><time>2026-04-08T09:02:24.737Z</time></trkpt><trkpt lat="45.76287" lon="9.1736017"><ele>375.0</ele><time>2026-04-08T09:02:25.737Z</time></trkpt><trkpt lat="45.7629633" lon="9.1735583"><ele>375.0</ele><time>2026-04-08T09:02:27.736Z</time></trkpt><trkpt lat="45.7630133" lon="9.1734767"><ele>375.0</ele><time>2026-04-08T09:02:30.736Z</time></trkpt><trkpt lat="45.7629983" lon="9.1733583"><ele>375.0</ele><time>2026-04-08T09:02:42.737Z</time></trkpt><trkpt lat="45.762885" lon="9.17328"><ele>375.0</ele><time>2026-04-08T09:02:44.736Z</time></trkpt><trkpt lat="45.7628" lon="9.1732517"><ele>375.0</ele><time>2026-04-08T09:02:45.737Z</time></trkpt><trkpt lat="45.7627" lon="9.173215"><ele>375.0</ele><time>2026-04-08T09:02:46.736Z</time></trkpt><trkpt lat="45.7625967" lon="9.1731733"><ele>375.0</ele><time>2026-04-08T09:02:47.737Z</time></trkpt><trkpt lat="45.7624967" lon="9.1731183"><ele>375.0</ele><time>2026-04-08T09:02:48.736Z</time></trkpt><trkpt lat="45.7624017" lon="9.1730617"><ele>378.2</ele><time>2026-04-08T09:02:49.737Z</time></trkpt><trkpt lat="45.76231" lon="9.173"><ele>381.4</ele><time>2026-04-08T09:02:50.737Z</time></trkpt><trkpt lat="45.762225" lon="9.1729217"><ele>384.6</ele><time>2026-04-08T09:02:51.737Z</time></trkpt><trkpt lat="45.762145" lon="9.17284"><ele>387.8</ele><time>2026-04-08T09:02:52.737Z</time></trkpt><trkpt lat="45.7620717" lon="9.1727433"><ele>391.0</ele><time>2026-04-08T09:02:53.737Z</time></trkpt><trkpt lat="45.762" lon="9.1726417"><ele>391.0</ele><time>2026-04-08T09:02:54.736Z</time></trkpt><trkpt lat="45.7619383" lon="9.17252"><ele>391.0</ele><time>2026-04-08T09:02:55.737Z</time></trkpt><trkpt lat="45.7618717" lon="9.1723933"><ele>391.0</ele><time>2026-04-08T09:02:56.737Z</time></trkpt><trkpt lat="45.761815" lon="9.172265"><ele>391.0</ele><time>2026-04-08T09:02:57.737Z</time></trkpt><trkpt lat="45.7617717" lon="9.1721233"><ele>391.0</ele><time>2026-04-08T09:02:58.736Z</time></trkpt><trkpt lat="45.7617383" lon="9.17198"><ele>391.5</ele><time>2026-04-08T09:02:59.737Z</time></trkpt><trkpt lat="45.7617117" lon="9.1718217"><ele>392.0</ele><time>2026-04-08T09:03:00.737Z</time></trkpt><trkpt lat="45.7616867" lon="9.1716417"><ele>392.5</ele><time>2026-04-08T09:03:01.737Z</time></trkpt><trkpt lat="45.7616833" lon="9.1714667"><ele>393.0</ele><time>2026-04-08T09:03:02.737Z</time></trkpt><trkpt lat="45.7616767" lon="9.1712917"><ele>393.0</ele><time>2026-04-08T09:03:03.737Z</time></trkpt><trkpt lat="45.7616667" lon="9.1711133"><ele>393.0</ele><time>2026-04-08T09:03:04.737Z</time></trkpt><trkpt lat="45.7616633" lon="9.1709367"><ele>393.0</ele><time>2026-04-08T09:03:05.737Z</time></trkpt><trkpt lat="45.7616467" lon="9.1707533"><ele>393.0</ele><time>2026-04-08T09:03:06.737Z</time></trkpt><trkpt lat="45.7616267" lon="9.1705667"><ele>391.75</ele><time>2026-04-08T09:03:07.736Z</time></trkpt><trkpt lat="45.7616117" lon="9.1703783"><ele>390.5</ele><time>2026-04-08T09:03:08.737Z</time></trkpt><trkpt lat="45.76159" lon="9.1701883"><ele>389.25</ele><time>2026-04-08T09:03:09.737Z</time></trkpt><trkpt lat="45.761575" lon="9.1699933"><ele>388.0</ele><time>2026-04-08T09:03:10.737Z</time></trkpt><trkpt lat="45.7615633" lon="9.1697983"><ele>387.5</ele><time>2026-04-08T09:03:11.737Z</time></trkpt><trkpt lat="45.76155" lon="9.1695917"><ele>387.0</ele><time>2026-04-08T09:03:12.737Z</time></trkpt><trkpt lat="45.76154" lon="9.1693867"><ele>386.5</ele><time>2026-04-08T09:03:13.737Z</time></trkpt><trkpt lat="45.7615233" lon="9.1691833"><ele>386.0</ele><time>2026-04-08T09:03:14.736Z</time></trkpt><trkpt lat="45.7615033" lon="9.168985"><ele>385.75</ele><time>2026-04-08T09:03:15.736Z</time></trkpt><trkpt lat="45.7614833" lon="9.1687767"><ele>385.5</ele><time>2026-04-08T09:03:16.736Z</time></trkpt><trkpt lat="45.7614717" lon="9.1685683"><ele>385.25</ele><time>2026-04-08T09:03:17.737Z</time></trkpt><trkpt lat="45.7614567" lon="9.16837"><ele>385.0</ele><time>2026-04-08T09:03:18.737Z</time></trkpt><trkpt lat="45.7614417" lon="9.1681767"><ele>384.5</ele><time>2026-04-08T09:03:19.737Z</time></trkpt><trkpt lat="45.7614283" lon="9.167985"><ele>384.0</ele><time>2026-04-08T09:03:20.737Z</time></trkpt><trkpt lat="45.76141" lon="9.1678033"><ele>383.5</ele><time>2026-04-08T09:03:21.736Z</time></trkpt><trkpt lat="45.761395" lon="9.1676233"><ele>383.0</ele><time>2026-04-08T09:03:22.737Z</time></trkpt><trkpt lat="45.7613817" lon="9.1674417"><ele>384.5</ele><time>2026-04-08T09:03:23.737Z</time></trkpt><trkpt lat="45.7613667" lon="9.1672667"><ele>386.0</ele><time>2026-04-08T09:03:24.737Z</time></trkpt><trkpt lat="45.7613433" lon="9.16709"><ele>387.5</ele><time>2026-04-08T09:03:25.737Z</time></trkpt><trkpt lat="45.7613267" lon="9.1669167"><ele>389.0</ele><time>2026-04-08T09:03:26.737Z</time></trkpt><trkpt lat="45.7613133" lon="9.1667433"><ele>389.0</ele><time>2026-04-08T09:03:27.736Z</time></trkpt><trkpt lat="45.7613" lon="9.16657"><ele>389.0</ele><time>2026-04-08T09:03:28.737Z</time></trkpt><trkpt lat="45.76128" lon="9.1663983"><ele>389.0</ele><time>2026-04-08T09:03:29.737Z</time></trkpt><trkpt lat="45.7612667" lon="9.1662333"><ele>389.0</ele><time>2026-04-08T09:03:30.737Z</time></trkpt><trkpt lat="45.7612567" lon="9.1660733"><ele>389.6</ele><time>2026-04-08T09:03:31.737Z</time></trkpt><trkpt lat="45.7612467" lon="9.1659233"><ele>390.2</ele><time>2026-04-08T09:03:32.737Z</time></trkpt><trkpt lat="45.7612383" lon="9.16578"><ele>390.8</ele><time>2026-04-08T09:03:33.737Z</time></trkpt><trkpt lat="45.7612183" lon="9.1656433"><ele>391.40000000000003</ele><time>2026-04-08T09:03:34.737Z</time></trkpt><trkpt lat="45.7611867" lon="9.16551"><ele>392.0</ele><time>2026-04-08T09:03:35.737Z</time></trkpt><trkpt lat="45.7611467" lon="9.1653917"><ele>391.99999999999994</ele><time>2026-04-08T09:03:36.737Z</time></trkpt><trkpt lat="45.761095" lon="9.1652867"><ele>392.0</ele><time>2026-04-08T09:03:37.736Z</time></trkpt><trkpt lat="45.76104" lon="9.1652083"><ele>392.0</ele><time>2026-04-08T09:03:38.737Z</time></trkpt><trkpt lat="45.7609767" lon="9.16515"><ele>392.0</ele><time>2026-04-08T09:03:39.737Z</time></trkpt><trkpt lat="45.7608933" lon="9.1650933"><ele>391.99999999999994</ele><time>2026-04-08T09:03:40.737Z</time></trkpt><trkpt lat="45.7608033" lon="9.1650533"><ele>392.0</ele><time>2026-04-08T09:03:41.737Z</time></trkpt><trkpt lat="45.7607067" lon="9.1650267"><ele>391.20000000000005</ele><time>2026-04-08T09:03:42.736Z</time></trkpt><trkpt lat="45.760605" lon="9.1650017"><ele>390.4</ele><time>2026-04-08T09:03:43.736Z</time></trkpt><trkpt lat="45.7604983" lon="9.1649767"><ele>389.6</ele><time>2026-04-08T09:03:44.737Z</time></trkpt><trkpt lat="45.7603933" lon="9.1649483"><ele>388.79999999999995</ele><time>2026-04-08T09:03:45.737Z</time></trkpt><trkpt lat="45.7602967" lon="9.1649133"><ele>388.0</ele><time>2026-04-08T09:03:46.736Z</time></trkpt><trkpt lat="45.7602167" lon="9.1648883"><ele>386.00000000000006</ele><time>2026-04-08T09:03:47.737Z</time></trkpt><trkpt lat="45.7601383" lon="9.1648333"><ele>384.0</ele><time>2026-04-08T09:03:48.737Z</time></trkpt><trkpt lat="45.7600817" lon="9.164765"><ele>382.0</ele><time>2026-04-08T09:03:49.737Z</time></trkpt><trkpt lat="45.760035" lon="9.16468"><ele>380.0</ele><time>2026-04-08T09:03:50.737Z</time></trkpt><trkpt lat="45.7600067" lon="9.1645817"><ele>378.0</ele><time>2026-04-08T09:03:51.737Z</time></trkpt><trkpt lat="45.7599883" lon="9.1643933"><ele>376.0</ele><time>2026-04-08T09:03:53.737Z</time></trkpt><trkpt lat="45.7600083" lon="9.164265"><ele>376.0</ele><time>2026-04-08T09:03:54.737Z</time></trkpt><trkpt lat="45.76005" lon="9.1641483"><ele>376.0</ele><time>2026-04-08T09:03:55.736Z</time></trkpt><trkpt lat="45.760105" lon="9.1640233"><ele>376.0</ele><time>2026-04-08T09:03:56.737Z</time></trkpt><trkpt lat="45.7601683" lon="9.1638933"><ele>376.0</ele><time>2026-04-08T09:03:57.736Z</time></trkpt><trkpt lat="45.7602417" lon="9.16375"><ele>376.0</ele><time>2026-04-08T09:03:58.737Z</time></trkpt><trkpt lat="45.7603083" lon="9.1636033"><ele>377.25</ele><time>2026-04-08T09:03:59.736Z</time></trkpt><trkpt lat="45.7603717" lon="9.1634567"><ele>378.5</ele><time>2026-04-08T09:04:00.737Z</time></trkpt><trkpt lat="45.7604433" lon="9.16331"><ele>379.75</ele><time>2026-04-08T09:04:01.737Z</time></trkpt><trkpt lat="45.7605067" lon="9.1631683"><ele>381.0</ele><time>2026-04-08T09:04:02.737Z</time></trkpt><trkpt lat="45.7605633" lon="9.1630417"><ele>379.1666666666667</ele><time>2026-04-08T09:04:03.736Z</time></trkpt><trkpt lat="45.76062" lon="9.16293"><ele>377.3333333333333</ele><time>2026-04-08T09:04:04.737Z</time></trkpt><trkpt lat="45.7606617" lon="9.1628217"><ele>375.5</ele><time>2026-04-08T09:04:05.737Z</time></trkpt><trkpt lat="45.7607017" lon="9.162725"><ele>373.66666666666663</ele><time>2026-04-08T09:04:06.736Z</time></trkpt><trkpt lat="45.76072" lon="9.162625"><ele>371.8333333333333</ele><time>2026-04-08T09:04:07.736Z</time></trkpt><trkpt lat="45.7607233" lon="9.16252"><ele>370.0</ele><time>2026-04-08T09:04:08.737Z</time></trkpt><trkpt lat="45.760715" lon="9.1624183"><ele>369.66666666666663</ele><time>2026-04-08T09:04:09.737Z</time></trkpt><trkpt lat="45.7607033" lon="9.1623133"><ele>369.3333333333333</ele><time>2026-04-08T09:04:10.737Z</time></trkpt><trkpt lat="45.76068" lon="9.1622067"><ele>369.0</ele><time>2026-04-08T09:04:11.737Z</time></trkpt><trkpt lat="45.7606367" lon="9.16211"><ele>368.6666666666667</ele><time>2026-04-08T09:04:12.736Z</time></trkpt><trkpt lat="45.7605933" lon="9.1620167"><ele>368.33333333333337</ele><time>2026-04-08T09:04:13.737Z</time></trkpt><trkpt lat="45.760535" lon="9.1619317"><ele>368.0</ele><time>2026-04-08T09:04:14.737Z</time></trkpt><trkpt lat="45.7604683" lon="9.1618533"><ele>368.0</ele><time>2026-04-08T09:04:15.737Z</time></trkpt><trkpt lat="45.760385" lon="9.1617683"><ele>368.0</ele><time>2026-04-08T09:04:16.736Z</time></trkpt><trkpt lat="45.7602983" lon="9.16168"><ele>368.0</ele><time>2026-04-08T09:04:17.736Z</time></trkpt><trkpt lat="45.7601983" lon="9.16158"><ele>368.0</ele><time>2026-04-08T09:04:18.737Z</time></trkpt><trkpt lat="45.7601067" lon="9.1614883"><ele>368.0</ele><time>2026-04-08T09:04:19.736Z</time></trkpt><trkpt lat="45.76" lon="9.16139"><ele>370.25</ele><time>2026-04-08T09:04:20.737Z</time></trkpt><trkpt lat="45.759885" lon="9.16128"><ele>372.5</ele><time>2026-04-08T09:04:21.737Z</time></trkpt><trkpt lat="45.7597683" lon="9.161175"><ele>374.75</ele><time>2026-04-08T09:04:22.737Z</time></trkpt><trkpt lat="45.7596567" lon="9.1610717"><ele>377.0</ele><time>2026-04-08T09:04:23.737Z</time></trkpt><trkpt lat="45.759545" lon="9.1609717"><ele>377.0</ele><time>2026-04-08T09:04:24.737Z</time></trkpt><trkpt lat="45.7594367" lon="9.1608717"><ele>377.0</ele><time>2026-04-08T09:04:25.737Z</time></trkpt><trkpt lat="45.7593317" lon="9.1607667"><ele>377.0</ele><time>2026-04-08T09:04:26.736Z</time></trkpt><trkpt lat="45.75923" lon="9.1606583"><ele>377.0</ele><time>2026-04-08T09:04:27.737Z</time></trkpt><trkpt lat="45.7591383" lon="9.160555"><ele>380.0</ele><time>2026-04-08T09:04:28.737Z</time></trkpt><trkpt lat="45.759035" lon="9.160455"><ele>383.0</ele><time>2026-04-08T09:04:29.736Z</time></trkpt><trkpt lat="45.7589367" lon="9.1603567"><ele>386.0</ele><time>2026-04-08T09:04:30.737Z</time></trkpt><trkpt lat="45.7588433" lon="9.1602517"><ele>389.0</ele><time>2026-04-08T09:04:31.737Z</time></trkpt><trkpt lat="45.75876" lon="9.160145"><ele>389.0</ele><time>2026-04-08T09:04:32.737Z</time></trkpt><trkpt lat="45.7586917" lon="9.1600117"><ele>389.0</ele><time>2026-04-08T09:04:33.737Z</time></trkpt><trkpt lat="45.7586233" lon="9.159865"><ele>389.0</ele><time>2026-04-08T09:04:34.736Z</time></trkpt><trkpt lat="45.75856" lon="9.1597267"><ele>389.0</ele><time>2026-04-08T09:04:35.737Z</time></trkpt><trkpt lat="45.758495" lon="9.1595833"><ele>391.0</ele><time>2026-04-08T09:04:36.736Z</time></trkpt><trkpt lat="45.7584283" lon="9.1594483"><ele>393.0</ele><time>2026-04-08T09:04:37.736Z</time></trkpt><trkpt lat="45.75836" lon="9.159305"><ele>395.0</ele><time>2026-04-08T09:04:38.737Z</time></trkpt><trkpt lat="45.7582867" lon="9.15916"><ele>397.0</ele><time>2026-04-08T09:04:39.736Z</time></trkpt><trkpt lat="45.7582067" lon="9.1590083"><ele>397.0</ele><time>2026-04-08T09:04:40.737Z</time></trkpt><trkpt lat="45.7581467" lon="9.1588567"><ele>397.0</ele><time>2026-04-08T09:04:41.737Z</time></trkpt><trkpt lat="45.7580883" lon="9.1586933"><ele>397.0</ele><time>2026-04-08T09:04:42.737Z</time></trkpt><trkpt lat="45.7580167" lon="9.15852"><ele>397.0</ele><time>2026-04-08T09:04:43.737Z</time></trkpt><trkpt lat="45.7579367" lon="9.15836"><ele>397.0</ele><time>2026-04-08T09:04:44.736Z</time></trkpt><trkpt lat="45.757865" lon="9.1581783"><ele>397.0</ele><time>2026-04-08T09:04:45.737Z</time></trkpt><trkpt lat="45.75778" lon="9.1580033"><ele>397.0</ele><time>2026-04-08T09:04:46.737Z</time></trkpt><trkpt lat="45.7577" lon="9.15783"><ele>397.0</ele><time>2026-04-08T09:04:47.737Z</time></trkpt><trkpt lat="45.757625" lon="9.1576617"><ele>396.0</ele><time>2026-04-08T09:04:48.737Z</time></trkpt><trkpt lat="45.7575533" lon="9.1574817"><ele>395.0</ele><time>2026-04-08T09:04:49.737Z</time></trkpt><trkpt lat="45.7574833" lon="9.1573067"><ele>394.0</ele><time>2026-04-08T09:04:50.737Z</time></trkpt><trkpt lat="45.7574067" lon="9.157135"><ele>393.0</ele><time>2026-04-08T09:04:51.737Z</time></trkpt><trkpt lat="45.7573283" lon="9.1569633"><ele>393.0</ele><time>2026-04-08T09:04:52.737Z</time></trkpt><trkpt lat="45.7572533" lon="9.1568"><ele>393.0</ele><time>2026-04-08T09:04:53.737Z</time></trkpt><trkpt lat="45.7571733" lon="9.156635"><ele>393.0</ele><time>2026-04-08T09:04:54.736Z</time></trkpt><trkpt lat="45.7570917" lon="9.15647"><ele>393.0</ele><time>2026-04-08T09:04:55.736Z</time></trkpt><trkpt lat="45.757015" lon="9.1562917"><ele>394.0</ele><time>2026-04-08T09:04:56.736Z</time></trkpt><trkpt lat="45.75695" lon="9.1561167"><ele>395.0</ele><time>2026-04-08T09:04:57.737Z</time></trkpt><trkpt lat="45.7568767" lon="9.15594"><ele>396.0</ele><time>2026-04-08T09:04:58.737Z</time></trkpt><trkpt lat="45.7568083" lon="9.15576"><ele>397.0</ele><time>2026-04-08T09:04:59.737Z</time></trkpt><trkpt lat="45.7567383" lon="9.1555833"><ele>394.0</ele><time>2026-04-08T09:05:00.737Z</time></trkpt><trkpt lat="45.756665" lon="9.1554067"><ele>391.0</ele><time>2026-04-08T09:05:01.737Z</time></trkpt><trkpt lat="45.7565917" lon="9.1552267"><ele>388.0</ele><time>2026-04-08T09:05:02.737Z</time></trkpt><trkpt lat="45.7565233" lon="9.1550433"><ele>385.0</ele><time>2026-04-08T09:05:03.737Z</time></trkpt><trkpt lat="45.756455" lon="9.1548567"><ele>384.33333333333337</ele><time>2026-04-08T09:05:04.737Z</time></trkpt><trkpt lat="45.756385" lon="9.1546767"><ele>383.6666666666667</ele><time>2026-04-08T09:05:05.737Z</time></trkpt><trkpt lat="45.7563083" lon="9.15449"><ele>383.0</ele><time>2026-04-08T09:05:06.737Z</time></trkpt><trkpt lat="45.7562267" lon="9.1543017"><ele>383.0</ele><time>2026-04-08T09:05:07.737Z</time></trkpt><trkpt lat="45.7561533" lon="9.1541233"><ele>383.0</ele><time>2026-04-08T09:05:08.737Z</time></trkpt><trkpt lat="45.7560783" lon="9.1539417"><ele>383.0</ele><time>2026-04-08T09:05:09.737Z</time></trkpt><trkpt lat="45.7560033" lon="9.1537567"><ele>383.0</ele><time>2026-04-08T09:05:10.737Z</time></trkpt><trkpt lat="45.755925" lon="9.1535783"><ele>382.0</ele><time>2026-04-08T09:05:11.737Z</time></trkpt><trkpt lat="45.7558517" lon="9.1533933"><ele>381.0</ele><time>2026-04-08T09:05:12.737Z</time></trkpt><trkpt lat="45.7557783" lon="9.15321"><ele>380.0</ele><time>2026-04-08T09:05:13.736Z</time></trkpt><trkpt lat="45.7557083" lon="9.15303"><ele>379.0</ele><time>2026-04-08T09:05:14.737Z</time></trkpt><trkpt lat="45.7556383" lon="9.1528567"><ele>378.0</ele><time>2026-04-08T09:05:15.736Z</time></trkpt><trkpt lat="45.7555633" lon="9.1526783"><ele>377.0</ele><time>2026-04-08T09:05:16.737Z</time></trkpt><trkpt lat="45.7554867" lon="9.1525033"><ele>376.0</ele><time>2026-04-08T09:05:17.736Z</time></trkpt><trkpt lat="45.7554083" lon="9.152345"><ele>375.0</ele><time>2026-04-08T09:05:18.737Z</time></trkpt><trkpt lat="45.7553217" lon="9.1521917"><ele>375.0</ele><time>2026-04-08T09:05:19.737Z</time></trkpt><trkpt lat="45.755235" lon="9.15204"><ele>375.0</ele><time>2026-04-08T09:05:20.737Z</time></trkpt><trkpt lat="45.7551467" lon="9.151895"><ele>375.0</ele><time>2026-04-08T09:05:21.736Z</time></trkpt><trkpt lat="45.7550533" lon="9.1517567"><ele>375.0</ele><time>2026-04-08T09:05:22.736Z</time></trkpt><trkpt lat="45.7549633" lon="9.1516133"><ele>374.25</ele><time>2026-04-08T09:05:23.737Z</time></trkpt><trkpt lat="45.7548783" lon="9.15147"><ele>373.5</ele><time>2026-04-08T09:05:24.737Z</time></trkpt><trkpt lat="45.7547917" lon="9.1513417"><ele>372.75</ele><time>2026-04-08T09:05:25.737Z</time></trkpt><trkpt lat="45.7547067" lon="9.1512167"><ele>372.0</ele><time>2026-04-08T09:05:26.736Z</time></trkpt><trkpt lat="45.7546217" lon="9.151085"><ele>372.0</ele><time>2026-04-08T09:05:27.737Z</time></trkpt><trkpt lat="45.75454" lon="9.150955"><ele>372.0</ele><time>2026-04-08T09:05:28.737Z</time></trkpt><trkpt lat="45.7544583" lon="9.15083"><ele>372.0</ele><time>2026-04-08T09:05:29.737Z</time></trkpt><trkpt lat="45.7543917" lon="9.1507033"><ele>372.0</ele><time>2026-04-08T09:05:30.737Z</time></trkpt><trkpt lat="45.7543367" lon="9.1505767"><ele>371.40000000000003</ele><time>2026-04-08T09:05:31.737Z</time></trkpt><trkpt lat="45.7542917" lon="9.150455"><ele>370.8</ele><time>2026-04-08T09:05:32.737Z</time></trkpt><trkpt lat="45.7542383" lon="9.1503117"><ele>370.2</ele><time>2026-04-08T09:05:33.737Z</time></trkpt><trkpt lat="45.754205" lon="9.150165"><ele>369.6</ele><time>2026-04-08T09:05:34.736Z</time></trkpt><trkpt lat="45.754175" lon="9.150005"><ele>369.0</ele><time>2026-04-08T09:05:35.736Z</time></trkpt><trkpt lat="45.7541467" lon="9.149835"><ele>368.75</ele><time>2026-04-08T09:05:36.737Z</time></trkpt><trkpt lat="45.7541283" lon="9.149655"><ele>368.5</ele><time>2026-04-08T09:05:37.737Z</time></trkpt><trkpt lat="45.7541133" lon="9.1494717"><ele>368.25</ele><time>2026-04-08T09:05:38.737Z</time></trkpt><trkpt lat="45.754095" lon="9.1492917"><ele>368.0</ele><time>2026-04-08T09:05:39.737Z</time></trkpt><trkpt lat="45.754075" lon="9.14912"><ele>367.25</ele><time>2026-04-08T09:05:40.737Z</time></trkpt><trkpt lat="45.7540517" lon="9.148945"><ele>366.5</ele><time>2026-04-08T09:05:41.737Z</time></trkpt><trkpt lat="45.7540167" lon="9.1487833"><ele>365.75</ele><time>2026-04-08T09:05:42.737Z</time></trkpt><trkpt lat="45.75397" lon="9.1486333"><ele>365.0</ele><time>2026-04-08T09:05:43.737Z</time></trkpt><trkpt lat="45.7539083" lon="9.1484817"><ele>365.0</ele><time>2026-04-08T09:05:44.737Z</time></trkpt><trkpt lat="45.753845" lon="9.1483433"><ele>365.0</ele><time>2026-04-08T09:05:45.736Z</time></trkpt><trkpt lat="45.7537683" lon="9.1482117"><ele>365.0</ele><time>2026-04-08T09:05:46.737Z</time></trkpt><trkpt lat="45.7536967" lon="9.14808"><ele>365.0</ele><time>2026-04-08T09:05:47.736Z</time></trkpt><trkpt lat="45.7536233" lon="9.1479483"><ele>365.25</ele><time>2026-04-08T09:05:48.737Z</time></trkpt><trkpt lat="45.753545" lon="9.1478183"><ele>365.5</ele><time>2026-04-08T09:05:49.737Z</time></trkpt><trkpt lat="45.7534683" lon="9.1476833"><ele>365.75</ele><time>2026-04-08T09:05:50.737Z</time></trkpt><trkpt lat="45.7533867" lon="9.147545"><ele>366.0</ele><time>2026-04-08T09:05:51.737Z</time></trkpt><trkpt lat="45.7533067" lon="9.1474217"><ele>366.25</ele><time>2026-04-08T09:05:52.736Z</time></trkpt><trkpt lat="45.7532233" lon="9.1473017"><ele>366.5</ele><time>2026-04-08T09:05:53.737Z</time></trkpt><trkpt lat="45.75313" lon="9.1471533"><ele>366.75</ele><time>2026-04-08T09:05:54.737Z</time></trkpt><trkpt lat="45.75305" lon="9.147"><ele>367.0</ele><time>2026-04-08T09:05:55.737Z</time></trkpt><trkpt lat="45.75296" lon="9.1468333"><ele>367.0</ele><time>2026-04-08T09:05:56.736Z</time></trkpt><trkpt lat="45.752875" lon="9.1466783"><ele>367.0</ele><time>2026-04-08T09:05:57.737Z</time></trkpt><trkpt lat="45.75279" lon="9.1465333"><ele>367.0</ele><time>2026-04-08T09:05:58.736Z</time></trkpt><trkpt lat="45.75271" lon="9.1464"><ele>367.0</ele><time>2026-04-08T09:05:59.737Z</time></trkpt><trkpt lat="45.75263" lon="9.1462733"><ele>367.75</ele><time>2026-04-08T09:06:00.737Z</time></trkpt><trkpt lat="45.752545" lon="9.146165"><ele>368.5</ele><time>2026-04-08T09:06:01.737Z</time></trkpt><trkpt lat="45.752455" lon="9.1460767"><ele>369.25</ele><time>2026-04-08T09:06:02.736Z</time></trkpt><trkpt lat="45.7523583" lon="9.145995"><ele>370.0</ele><time>2026-04-08T09:06:03.737Z</time></trkpt><trkpt lat="45.7522567" lon="9.1459083"><ele>370.0</ele><time>2026-04-08T09:06:04.737Z</time></trkpt><trkpt lat="45.7521467" lon="9.145835"><ele>370.0</ele><time>2026-04-08T09:06:05.737Z</time></trkpt><trkpt lat="45.7520367" lon="9.1457583"><ele>370.0</ele><time>2026-04-08T09:06:06.737Z</time></trkpt><trkpt lat="45.751925" lon="9.1456667"><ele>370.0</ele><time>2026-04-08T09:06:07.737Z</time></trkpt><trkpt lat="45.751815" lon="9.14558"><ele>369.5</ele><time>2026-04-08T09:06:08.737Z</time></trkpt><trkpt lat="45.7517083" lon="9.1455017"><ele>369.0</ele><time>2026-04-08T09:06:09.736Z</time></trkpt><trkpt lat="45.7516017" lon="9.145425"><ele>368.5</ele><time>2026-04-08T09:06:10.737Z</time></trkpt><trkpt lat="45.7514933" lon="9.1453733"><ele>368.0</ele><time>2026-04-08T09:06:11.736Z</time></trkpt><trkpt lat="45.751385" lon="9.1453267"><ele>368.0</ele><time>2026-04-08T09:06:12.737Z</time></trkpt><trkpt lat="45.7512767" lon="9.1452933"><ele>368.0</ele><time>2026-04-08T09:06:13.737Z</time></trkpt><trkpt lat="45.7511733" lon="9.145275"><ele>368.0</ele><time>2026-04-08T09:06:14.737Z</time></trkpt><trkpt lat="45.75106" lon="9.145275"><ele>368.0</ele><time>2026-04-08T09:06:15.737Z</time></trkpt><trkpt lat="45.7509483" lon="9.145265"><ele>368.0</ele><time>2026-04-08T09:06:16.737Z</time></trkpt><trkpt lat="45.7508383" lon="9.1452567"><ele>367.79999999999995</ele><time>2026-04-08T09:06:17.736Z</time></trkpt><trkpt lat="45.7507333" lon="9.1452483"><ele>367.6</ele><time>2026-04-08T09:06:18.737Z</time></trkpt><trkpt lat="45.7506283" lon="9.1452317"><ele>367.4</ele><time>2026-04-08T09:06:19.737Z</time></trkpt><trkpt lat="45.75052" lon="9.1451883"><ele>367.20000000000005</ele><time>2026-04-08T09:06:20.737Z</time></trkpt><trkpt lat="45.75042" lon="9.1451383"><ele>367.0</ele><time>2026-04-08T09:06:21.737Z</time></trkpt><trkpt lat="45.7503217" lon="9.1450833"><ele>367.0</ele><time>2026-04-08T09:06:22.737Z</time></trkpt><trkpt lat="45.750225" lon="9.14502"><ele>367.0</ele><time>2026-04-08T09:06:23.736Z</time></trkpt><trkpt lat="45.7501267" lon="9.1449467"><ele>367.0</ele><time>2026-04-08T09:06:24.737Z</time></trkpt><trkpt lat="45.750025" lon="9.14487"><ele>367.0</ele><time>2026-04-08T09:06:25.737Z</time></trkpt><trkpt lat="45.749925" lon="9.1448083"><ele>367.0</ele><time>2026-04-08T09:06:26.737Z</time></trkpt><trkpt lat="45.7498283" lon="9.1447533"><ele>366.0</ele><time>2026-04-08T09:06:27.737Z</time></trkpt><trkpt lat="45.7497367" lon="9.144695"><ele>365.0</ele><time>2026-04-08T09:06:28.736Z</time></trkpt><trkpt lat="45.7496317" lon="9.1446167"><ele>364.0</ele><time>2026-04-08T09:06:29.737Z</time></trkpt><trkpt lat="45.749535" lon="9.144545"><ele>363.0</ele><time>2026-04-08T09:06:30.737Z</time></trkpt><trkpt lat="45.74944" lon="9.1444933"><ele>362.0</ele><time>2026-04-08T09:06:31.736Z</time></trkpt><trkpt lat="45.7493467" lon="9.144435"><ele>361.40000000000003</ele><time>2026-04-08T09:06:32.737Z</time></trkpt><trkpt lat="45.7492583" lon="9.144375"><ele>360.8</ele><time>2026-04-08T09:06:33.736Z</time></trkpt><trkpt lat="45.7491683" lon="9.14431"><ele>360.2</ele><time>2026-04-08T09:06:34.737Z</time></trkpt><trkpt lat="45.749075" lon="9.1442533"><ele>359.6</ele><time>2026-04-08T09:06:35.736Z</time></trkpt><trkpt lat="45.7489867" lon="9.1441967"><ele>359.0</ele><time>2026-04-08T09:06:36.736Z</time></trkpt><trkpt lat="45.748895" lon="9.144135"><ele>359.0</ele><time>2026-04-08T09:06:37.737Z</time></trkpt><trkpt lat="45.7488083" lon="9.144075"><ele>359.0</ele><time>2026-04-08T09:06:38.737Z</time></trkpt><trkpt lat="45.7487167" lon="9.1440267"><ele>359.0</ele><time>2026-04-08T09:06:39.737Z</time></trkpt><trkpt lat="45.7486267" lon="9.1439767"><ele>359.0</ele><time>2026-04-08T09:06:40.737Z</time></trkpt><trkpt lat="45.7485383" lon="9.143905"><ele>359.0</ele><time>2026-04-08T09:06:41.737Z</time></trkpt><trkpt lat="45.7484383" lon="9.14385"><ele>358.4</ele><time>2026-04-08T09:06:42.737Z</time></trkpt><trkpt lat="45.748345" lon="9.143805"><ele>357.79999999999995</ele><time>2026-04-08T09:06:43.737Z</time></trkpt><trkpt lat="45.748245" lon="9.1437767"><ele>357.20000000000005</ele><time>2026-04-08T09:06:44.736Z</time></trkpt><trkpt lat="45.7481467" lon="9.143745"><ele>356.6</ele><time>2026-04-08T09:06:45.736Z</time></trkpt><trkpt lat="45.7480483" lon="9.1437117"><ele>356.0</ele><time>2026-04-08T09:06:46.736Z</time></trkpt><trkpt lat="45.74795" lon="9.1436717"><ele>356.0</ele><time>2026-04-08T09:06:47.737Z</time></trkpt><trkpt lat="45.7478483" lon="9.14363"><ele>356.0</ele><time>2026-04-08T09:06:48.737Z</time></trkpt><trkpt lat="45.74774" lon="9.1435783"><ele>356.0</ele><time>2026-04-08T09:06:49.736Z</time></trkpt><trkpt lat="45.747635" lon="9.143545"><ele>356.0</ele><time>2026-04-08T09:06:50.736Z</time></trkpt><trkpt lat="45.7475283" lon="9.1434983"><ele>356.0</ele><time>2026-04-08T09:06:51.736Z</time></trkpt><trkpt lat="45.7474167" lon="9.1434683"><ele>355.8</ele><time>2026-04-08T09:06:52.736Z</time></trkpt><trkpt lat="45.7473183" lon="9.1434283"><ele>355.6</ele><time>2026-04-08T09:06:53.737Z</time></trkpt><trkpt lat="45.7472117" lon="9.14339"><ele>355.4</ele><time>2026-04-08T09:06:54.737Z</time></trkpt><trkpt lat="45.7471133" lon="9.1433583"><ele>355.2</ele><time>2026-04-08T09:06:55.737Z</time></trkpt><trkpt lat="45.74701" lon="9.143325"><ele>355.0</ele><time>2026-04-08T09:06:56.736Z</time></trkpt><trkpt lat="45.7468983" lon="9.14328"><ele>355.0</ele><time>2026-04-08T09:06:57.737Z</time></trkpt><trkpt lat="45.746795" lon="9.1432367"><ele>355.0</ele><time>2026-04-08T09:06:58.737Z</time></trkpt><trkpt lat="45.7466983" lon="9.143195"><ele>355.0</ele><time>2026-04-08T09:06:59.737Z</time></trkpt><trkpt lat="45.7466017" lon="9.143145"><ele>355.0</ele><time>2026-04-08T09:07:00.737Z</time></trkpt><trkpt lat="45.746515" lon="9.143075"><ele>355.0</ele><time>2026-04-08T09:07:01.737Z</time></trkpt><trkpt lat="45.7464233" lon="9.1430067"><ele>354.6</ele><time>2026-04-08T09:07:02.736Z</time></trkpt><trkpt lat="45.7463467" lon="9.1429283"><ele>354.2</ele><time>2026-04-08T09:07:03.737Z</time></trkpt><trkpt lat="45.7462717" lon="9.1428333"><ele>353.79999999999995</ele><time>2026-04-08T09:07:04.737Z</time></trkpt><trkpt lat="45.74619" lon="9.142745"><ele>353.4</ele><time>2026-04-08T09:07:05.737Z</time></trkpt><trkpt lat="45.746115" lon="9.1426383"><ele>353.0</ele><time>2026-04-08T09:07:06.737Z</time></trkpt><trkpt lat="45.746035" lon="9.1425317"><ele>353.0</ele><time>2026-04-08T09:07:07.736Z</time></trkpt><trkpt lat="45.745945" lon="9.14243"><ele>353.0</ele><time>2026-04-08T09:07:08.737Z</time></trkpt><trkpt lat="45.74586" lon="9.142325"><ele>353.0</ele><time>2026-04-08T09:07:09.737Z</time></trkpt><trkpt lat="45.7457683" lon="9.1422317"><ele>353.0</ele><time>2026-04-08T09:07:10.736Z</time></trkpt><trkpt lat="45.74568" lon="9.1421233"><ele>351.75</ele><time>2026-04-08T09:07:11.737Z</time></trkpt><trkpt lat="45.7455933" lon="9.1420083"><ele>350.5</ele><time>2026-04-08T09:07:12.736Z</time></trkpt><trkpt lat="45.7455067" lon="9.1419067"><ele>349.25</ele><time>2026-04-08T09:07:13.737Z</time></trkpt><trkpt lat="45.745415" lon="9.14181"><ele>348.0</ele><time>2026-04-08T09:07:14.736Z</time></trkpt><trkpt lat="45.7453333" lon="9.1417083"><ele>348.0</ele><time>2026-04-08T09:07:15.737Z</time></trkpt><trkpt lat="45.7452517" lon="9.1416217"><ele>348.0</ele><time>2026-04-08T09:07:16.737Z</time></trkpt><trkpt lat="45.74517" lon="9.1415383"><ele>348.0</ele><time>2026-04-08T09:07:17.736Z</time></trkpt><trkpt lat="45.7450867" lon="9.14144"><ele>348.0</ele><time>2026-04-08T09:07:18.737Z</time></trkpt><trkpt lat="45.745005" lon="9.1413517"><ele>348.0</ele><time>2026-04-08T09:07:19.737Z</time></trkpt><trkpt lat="45.7449283" lon="9.141255"><ele>347.2</ele><time>2026-04-08T09:07:20.737Z</time></trkpt><trkpt lat="45.7448617" lon="9.1411683"><ele>346.4</ele><time>2026-04-08T09:07:21.737Z</time></trkpt><trkpt lat="45.7448" lon="9.1410583"><ele>345.59999999999997</ele><time>2026-04-08T09:07:22.737Z</time></trkpt><trkpt lat="45.744745" lon="9.1409533"><ele>344.79999999999995</ele><time>2026-04-08T09:07:23.736Z</time></trkpt><trkpt lat="45.7446933" lon="9.140845"><ele>344.0</ele><time>2026-04-08T09:07:24.737Z</time></trkpt><trkpt lat="45.74464" lon="9.1407333"><ele>344.1666666666667</ele><time>2026-04-08T09:07:25.736Z</time></trkpt><trkpt lat="45.7445967" lon="9.14063"><ele>344.33333333333337</ele><time>2026-04-08T09:07:26.737Z</time></trkpt><trkpt lat="45.7445583" lon="9.1405417"><ele>344.5</ele><time>2026-04-08T09:07:27.736Z</time></trkpt><trkpt lat="45.74453" lon="9.1404583"><ele>344.6666666666667</ele><time>2026-04-08T09:07:28.736Z</time></trkpt><trkpt lat="45.7444967" lon="9.1403333"><ele>344.8333333333333</ele><time>2026-04-08T09:07:30.737Z</time></trkpt><trkpt lat="45.7444817" lon="9.1402417"><ele>345.0</ele><time>2026-04-08T09:07:32.737Z</time></trkpt><trkpt lat="45.74447" lon="9.1401383"><ele>345.0</ele><time>2026-04-08T09:07:36.735Z</time></trkpt><trkpt lat="45.744475" lon="9.1400283"><ele>345.0</ele><time>2026-04-08T09:07:39.735Z</time></trkpt><trkpt lat="45.74445" lon="9.1399367"><ele>345.0</ele><time>2026-04-08T09:07:43.736Z</time></trkpt><trkpt lat="45.74441" lon="9.13983"><ele>345.0</ele><time>2026-04-08T09:07:48.735Z</time></trkpt><trkpt lat="45.7443483" lon="9.139785"><ele>345.0</ele><time>2026-04-08T09:07:50.736Z</time></trkpt><trkpt lat="45.7442767" lon="9.1397517"><ele>345.0</ele><time>2026-04-08T09:07:52.736Z</time></trkpt><trkpt lat="45.7442167" lon="9.139715"><ele>345.0</ele><time>2026-04-08T09:07:54.736Z</time></trkpt><trkpt lat="45.7441633" lon="9.139665"><ele>345.1666666666667</ele><time>2026-04-08T09:07:56.735Z</time></trkpt><trkpt lat="45.7441067" lon="9.1395883"><ele>345.3333333333333</ele><time>2026-04-08T09:07:58.735Z</time></trkpt><trkpt lat="45.7440467" lon="9.13951"><ele>345.5</ele><time>2026-04-08T09:08:00.736Z</time></trkpt><trkpt lat="45.7439883" lon="9.1394117"><ele>345.66666666666663</ele><time>2026-04-08T09:08:02.736Z</time></trkpt><trkpt lat="45.7439383" lon="9.1392917"><ele>345.8333333333333</ele><time>2026-04-08T09:08:04.736Z</time></trkpt><trkpt lat="45.7439067" lon="9.1391933"><ele>346.0</ele><time>2026-04-08T09:08:06.736Z</time></trkpt><trkpt lat="45.7438667" lon="9.139105"><ele>346.16666666666663</ele><time>2026-04-08T09:08:09.736Z</time></trkpt><trkpt lat="45.7437917" lon="9.1389683"><ele>346.3333333333333</ele><time>2026-04-08T09:08:41.736Z</time></trkpt><trkpt lat="45.7437467" lon="9.13889"><ele>346.5</ele><time>2026-04-08T09:08:43.736Z</time></trkpt><trkpt lat="45.7436967" lon="9.1387783"><ele>346.6666666666667</ele><time>2026-04-08T09:08:45.735Z</time></trkpt><trkpt lat="45.7436467" lon="9.13867"><ele>346.83333333333337</ele><time>2026-04-08T09:08:47.736Z</time></trkpt><trkpt lat="45.7436067" lon="9.1385817"><ele>347.0</ele><time>2026-04-08T09:08:49.735Z</time></trkpt><trkpt lat="45.7435567" lon="9.138465"><ele>347.20000000000005</ele><time>2026-04-08T09:08:51.736Z</time></trkpt><trkpt lat="45.7435067" lon="9.1383283"><ele>347.4</ele><time>2026-04-08T09:08:53.736Z</time></trkpt><trkpt lat="45.7434233" lon="9.13818"><ele>347.6</ele><time>2026-04-08T09:08:55.736Z</time></trkpt><trkpt lat="45.7433767" lon="9.13809"><ele>347.79999999999995</ele><time>2026-04-08T09:08:56.736Z</time></trkpt><trkpt lat="45.743335" lon="9.1379917"><ele>348.0</ele><time>2026-04-08T09:08:57.735Z</time></trkpt><trkpt lat="45.7432983" lon="9.137885"><ele>348.3333333333333</ele><time>2026-04-08T09:08:58.736Z</time></trkpt><trkpt lat="45.7432567" lon="9.1377833"><ele>348.6666666666667</ele><time>2026-04-08T09:08:59.736Z</time></trkpt><trkpt lat="45.7432083" lon="9.1376817"><ele>349.0</ele><time>2026-04-08T09:09:00.736Z</time></trkpt><trkpt lat="45.7431633" lon="9.1375817"><ele>349.33333333333337</ele><time>2026-04-08T09:09:01.736Z</time></trkpt><trkpt lat="45.7431167" lon="9.137485"><ele>349.6666666666667</ele><time>2026-04-08T09:09:02.736Z</time></trkpt><trkpt lat="45.7430683" lon="9.1373817"><ele>350.0</ele><time>2026-04-08T09:09:03.736Z</time></trkpt><trkpt lat="45.743015" lon="9.1372817"><ele>350.8</ele><time>2026-04-08T09:09:04.735Z</time></trkpt><trkpt lat="45.74296" lon="9.1371783"><ele>351.6</ele><time>2026-04-08T09:09:05.736Z</time></trkpt><trkpt lat="45.742905" lon="9.1370733"><ele>352.4</ele><time>2026-04-08T09:09:06.736Z</time></trkpt><trkpt lat="45.7428483" lon="9.136965"><ele>353.2</ele><time>2026-04-08T09:09:07.736Z</time></trkpt><trkpt lat="45.7427917" lon="9.136855"><ele>354.0</ele><time>2026-04-08T09:09:08.736Z</time></trkpt><trkpt lat="45.7427367" lon="9.13674"><ele>354.3333333333333</ele><time>2026-04-08T09:09:09.735Z</time></trkpt><trkpt lat="45.7426867" lon="9.1366317"><ele>354.6666666666667</ele><time>2026-04-08T09:09:10.735Z</time></trkpt><trkpt lat="45.7426433" lon="9.1365333"><ele>355.0</ele><time>2026-04-08T09:09:11.736Z</time></trkpt><trkpt lat="45.7425967" lon="9.136445"><ele>355.33333333333337</ele><time>2026-04-08T09:09:12.736Z</time></trkpt><trkpt lat="45.7425517" lon="9.1363617"><ele>355.6666666666667</ele><time>2026-04-08T09:09:13.735Z</time></trkpt><trkpt lat="45.7425083" lon="9.1362817"><ele>356.0</ele><time>2026-04-08T09:09:14.736Z</time></trkpt><trkpt lat="45.7424667" lon="9.136205"><ele>356.0</ele><time>2026-04-08T09:09:15.735Z</time></trkpt><trkpt lat="45.7424" lon="9.1360917"><ele>356.0</ele><time>2026-04-08T09:09:17.736Z</time></trkpt><trkpt lat="45.74236" lon="9.1360017"><ele>356.0</ele><time>2026-04-08T09:09:19.736Z</time></trkpt><trkpt lat="45.7423383" lon="9.1359117"><ele>356.0</ele><time>2026-04-08T09:09:21.736Z</time></trkpt><trkpt lat="45.7423217" lon="9.1358183"><ele>356.0</ele><time>2026-04-08T09:09:23.736Z</time></trkpt><trkpt lat="45.7423183" lon="9.1357"><ele>356.0</ele><time>2026-04-08T09:09:25.736Z</time></trkpt><trkpt lat="45.7423183" lon="9.135585"><ele>356.5</ele><time>2026-04-08T09:09:27.736Z</time></trkpt><trkpt lat="45.7423517" lon="9.135475"><ele>357.0</ele><time>2026-04-08T09:09:29.736Z</time></trkpt><trkpt lat="45.7424017" lon="9.135345"><ele>357.5</ele><time>2026-04-08T09:09:31.735Z</time></trkpt><trkpt lat="45.7424533" lon="9.13522"><ele>358.0</ele><time>2026-04-08T09:09:33.736Z</time></trkpt><trkpt lat="45.7425" lon="9.1351283"><ele>358.5</ele><time>2026-04-08T09:09:35.736Z</time></trkpt><trkpt lat="45.7425367" lon="9.135025"><ele>359.0</ele><time>2026-04-08T09:09:38.736Z</time></trkpt><trkpt lat="45.7425717" lon="9.13492"><ele>359.0</ele><time>2026-04-08T09:09:40.736Z</time></trkpt><trkpt lat="45.74263" lon="9.1348117"><ele>359.0</ele><time>2026-04-08T09:09:42.736Z</time></trkpt><trkpt lat="45.7426867" lon="9.13467"><ele>359.0</ele><time>2026-04-08T09:09:44.736Z</time></trkpt><trkpt lat="45.7427483" lon="9.1345133"><ele>359.0</ele><time>2026-04-08T09:09:46.736Z</time></trkpt><trkpt lat="45.7427633" lon="9.1344183"><ele>359.0</ele><time>2026-04-08T09:09:47.735Z</time></trkpt><trkpt lat="45.7427767" lon="9.13432"><ele>359.83333333333337</ele><time>2026-04-08T09:09:48.736Z</time></trkpt><trkpt lat="45.7427867" lon="9.1342117"><ele>360.6666666666667</ele><time>2026-04-08T09:09:49.736Z</time></trkpt><trkpt lat="45.7427933" lon="9.1340983"><ele>361.5</ele><time>2026-04-08T09:09:50.736Z</time></trkpt><trkpt lat="45.7427967" lon="9.1339767"><ele>362.3333333333333</ele><time>2026-04-08T09:09:51.735Z</time></trkpt><trkpt lat="45.7428133" lon="9.133865"><ele>363.16666666666663</ele><time>2026-04-08T09:09:52.736Z</time></trkpt><trkpt lat="45.742825" lon="9.1337517"><ele>364.0</ele><time>2026-04-08T09:09:53.736Z</time></trkpt><trkpt lat="45.742845" lon="9.13363"><ele>364.16666666666663</ele><time>2026-04-08T09:09:54.736Z</time></trkpt><trkpt lat="45.7428567" lon="9.133505"><ele>364.3333333333333</ele><time>2026-04-08T09:09:55.736Z</time></trkpt><trkpt lat="45.742875" lon="9.133385"><ele>364.5</ele><time>2026-04-08T09:09:56.736Z</time></trkpt><trkpt lat="45.7428883" lon="9.1332783"><ele>364.6666666666667</ele><time>2026-04-08T09:09:57.736Z</time></trkpt><trkpt lat="45.7429033" lon="9.1331817"><ele>364.83333333333337</ele><time>2026-04-08T09:09:58.735Z</time></trkpt><trkpt lat="45.7429117" lon="9.1330833"><ele>365.0</ele><time>2026-04-08T09:09:59.736Z</time></trkpt><trkpt lat="45.7429217" lon="9.1329533"><ele>365.0</ele><time>2026-04-08T09:10:01.736Z</time></trkpt><trkpt lat="45.7429433" lon="9.1328383"><ele>365.0</ele><time>2026-04-08T09:10:04.736Z</time></trkpt><trkpt lat="45.7429867" lon="9.1327"><ele>365.0</ele><time>2026-04-08T09:10:30.736Z</time></trkpt><trkpt lat="45.7430083" lon="9.1325783"><ele>365.0</ele><time>2026-04-08T09:10:32.735Z</time></trkpt><trkpt lat="45.7430183" lon="9.13244"><ele>365.0</ele><time>2026-04-08T09:10:34.736Z</time></trkpt><trkpt lat="45.7430317" lon="9.1322917"><ele>364.25</ele><time>2026-04-08T09:10:36.735Z</time></trkpt><trkpt lat="45.743045" lon="9.13213"><ele>363.5</ele><time>2026-04-08T09:10:38.736Z</time></trkpt><trkpt lat="45.743085" lon="9.13196"><ele>362.75</ele><time>2026-04-08T09:10:40.736Z</time></trkpt><trkpt lat="45.74311" lon="9.1317933"><ele>362.0</ele><time>2026-04-08T09:10:42.736Z</time></trkpt><trkpt lat="45.743135" lon="9.13165"><ele>361.5</ele><time>2026-04-08T09:10:44.736Z</time></trkpt><trkpt lat="45.7431667" lon="9.1315417"><ele>361.0</ele><time>2026-04-08T09:10:46.736Z</time></trkpt><trkpt lat="45.7431967" lon="9.1314467"><ele>360.5</ele><time>2026-04-08T09:10:48.736Z</time></trkpt><trkpt lat="45.7432883" lon="9.1314033"><ele>360.0</ele><time>2026-04-08T09:10:50.736Z</time></trkpt><trkpt lat="45.7433717" lon="9.1313817"><ele>359.5</ele><time>2026-04-08T09:10:51.735Z</time></trkpt><trkpt lat="45.7434567" lon="9.1313717"><ele>359.0</ele><time>2026-04-08T09:10:52.736Z</time></trkpt><trkpt lat="45.743535" lon="9.131355"><ele>359.33333333333337</ele><time>2026-04-08T09:10:53.736Z</time></trkpt><trkpt lat="45.743615" lon="9.1313267"><ele>359.6666666666667</ele><time>2026-04-08T09:10:54.736Z</time></trkpt><trkpt lat="45.74369" lon="9.1312917"><ele>360.0</ele><time>2026-04-08T09:10:55.736Z</time></trkpt><trkpt lat="45.7437983" lon="9.1312533"><ele>360.3333333333333</ele><time>2026-04-08T09:10:56.736Z</time></trkpt><trkpt lat="45.7438817" lon="9.1312183"><ele>360.66666666666663</ele><time>2026-04-08T09:10:57.735Z</time></trkpt><trkpt lat="45.7439617" lon="9.1312017"><ele>361.0</ele><time>2026-04-08T09:10:58.736Z</time></trkpt><trkpt lat="45.74404" lon="9.1311833"><ele>361.0</ele><time>2026-04-08T09:10:59.736Z</time></trkpt><trkpt lat="45.74413" lon="9.1311617"><ele>361.0</ele><time>2026-04-08T09:11:00.736Z</time></trkpt><trkpt lat="45.7442183" lon="9.131155"><ele>361.0</ele><time>2026-04-08T09:11:01.736Z</time></trkpt><trkpt lat="45.7442933" lon="9.1311133"><ele>361.0</ele><time>2026-04-08T09:11:02.736Z</time></trkpt><trkpt lat="45.74436" lon="9.1310667"><ele>361.0</ele><time>2026-04-08T09:11:03.736Z</time></trkpt><trkpt lat="45.7444333" lon="9.1310167"><ele>361.0</ele><time>2026-04-08T09:11:04.736Z</time></trkpt><trkpt lat="45.7445017" lon="9.130975"><ele>361.3333333333333</ele><time>2026-04-08T09:11:05.735Z</time></trkpt><trkpt lat="45.7445733" lon="9.1309567"><ele>361.66666666666663</ele><time>2026-04-08T09:11:06.736Z</time></trkpt><trkpt lat="45.7446383" lon="9.13094"><ele>362.0</ele><time>2026-04-08T09:11:07.736Z</time></trkpt><trkpt lat="45.7447017" lon="9.13091"><ele>362.3333333333333</ele><time>2026-04-08T09:11:08.736Z</time></trkpt><trkpt lat="45.7447933" lon="9.130875"><ele>362.6666666666667</ele><time>2026-04-08T09:11:10.736Z</time></trkpt><trkpt lat="45.7448467" lon="9.13078"><ele>363.0</ele><time>2026-04-08T09:11:13.735Z</time></trkpt><trkpt lat="45.74483" lon="9.1306783"><ele>361.8333333333333</ele><time>2026-04-08T09:11:15.736Z</time></trkpt><trkpt lat="45.7447433" lon="9.130615"><ele>360.6666666666667</ele><time>2026-04-08T09:11:17.735Z</time></trkpt><trkpt lat="45.7446783" lon="9.1305767"><ele>359.5</ele><time>2026-04-08T09:11:18.736Z</time></trkpt><trkpt lat="45.7445867" lon="9.1305133"><ele>358.33333333333337</ele><time>2026-04-08T09:11:19.736Z</time></trkpt><trkpt lat="45.7445067" lon="9.1304667"><ele>357.1666666666667</ele><time>2026-04-08T09:11:20.736Z</time></trkpt><trkpt lat="45.74443" lon="9.1304267"><ele>356.0</ele><time>2026-04-08T09:11:21.735Z</time></trkpt><trkpt lat="45.7443617" lon="9.13037"><ele>356.0</ele><time>2026-04-08T09:11:22.736Z</time></trkpt><trkpt lat="45.7442983" lon="9.130315"><ele>356.0</ele><time>2026-04-08T09:11:23.736Z</time></trkpt><trkpt lat="45.74423" lon="9.1302567"><ele>356.0</ele><time>2026-04-08T09:11:24.736Z</time></trkpt><trkpt lat="45.7441483" lon="9.1302033"><ele>356.0</ele><time>2026-04-08T09:11:25.736Z</time></trkpt><trkpt lat="45.7440767" lon="9.13015"><ele>356.0</ele><time>2026-04-08T09:11:26.736Z</time></trkpt><trkpt lat="45.7440067" lon="9.1300967"><ele>356.0</ele><time>2026-04-08T09:11:27.735Z</time></trkpt><trkpt lat="45.7439383" lon="9.13004"><ele>356.0</ele><time>2026-04-08T09:11:28.736Z</time></trkpt><trkpt lat="45.7438683" lon="9.129985"><ele>356.0</ele><time>2026-04-08T09:11:29.736Z</time></trkpt><trkpt lat="45.7438" lon="9.129935"><ele>356.0</ele><time>2026-04-08T09:11:30.736Z</time></trkpt><trkpt lat="45.7437367" lon="9.1298783"><ele>356.0</ele><time>2026-04-08T09:11:31.735Z</time></trkpt><trkpt lat="45.7436783" lon="9.1298183"><ele>356.0</ele><time>2026-04-08T09:11:32.736Z</time></trkpt><trkpt lat="45.7435817" lon="9.12976"><ele>356.0</ele><time>2026-04-08T09:11:34.736Z</time></trkpt><trkpt lat="45.7435417" lon="9.1296883"><ele>355.83333333333337</ele><time>2026-04-08T09:11:36.736Z</time></trkpt><trkpt lat="45.74351" lon="9.1295633"><ele>355.6666666666667</ele><time>2026-04-08T09:11:39.736Z</time></trkpt><trkpt lat="45.7435017" lon="9.12943"><ele>355.5</ele><time>2026-04-08T09:11:41.735Z</time></trkpt><trkpt lat="45.7434833" lon="9.1293383"><ele>355.3333333333333</ele><time>2026-04-08T09:11:43.735Z</time></trkpt><trkpt lat="45.743405" lon="9.12932"><ele>355.16666666666663</ele><time>2026-04-08T09:11:45.736Z</time></trkpt><trkpt lat="45.7433233" lon="9.12934"><ele>355.0</ele><time>2026-04-08T09:11:47.736Z</time></trkpt><trkpt lat="45.74324" lon="9.12935"><ele>355.0</ele><time>2026-04-08T09:11:50.735Z</time></trkpt><trkpt lat="45.7431533" lon="9.12932"><ele>355.0</ele><time>2026-04-08T09:11:53.736Z</time></trkpt><trkpt lat="45.743085" lon="9.1292783"><ele>355.0</ele><time>2026-04-08T09:11:55.735Z</time></trkpt><trkpt lat="45.742995" lon="9.1292183"><ele>355.0</ele><time>2026-04-08T09:11:57.736Z</time></trkpt><trkpt lat="45.7429017" lon="9.129155"><ele>355.0</ele><time>2026-04-08T09:11:59.736Z</time></trkpt><trkpt lat="45.7427833" lon="9.1290917"><ele>355.5</ele><time>2026-04-08T09:12:01.736Z</time></trkpt><trkpt lat="45.7426667" lon="9.1290567"><ele>356.0</ele><time>2026-04-08T09:12:03.736Z</time></trkpt><trkpt lat="45.7425467" lon="9.1290133"><ele>356.5</ele><time>2026-04-08T09:12:05.736Z</time></trkpt><trkpt lat="45.74244" lon="9.1289617"><ele>357.0</ele><time>2026-04-08T09:12:07.736Z</time></trkpt><trkpt lat="45.7423433" lon="9.128895"><ele>357.0</ele><time>2026-04-08T09:12:09.735Z</time></trkpt><trkpt lat="45.7422417" lon="9.128835"><ele>357.0</ele><time>2026-04-08T09:12:11.736Z</time></trkpt><trkpt lat="45.742195" lon="9.1287717"><ele>357.0</ele><time>2026-04-08T09:12:12.735Z</time></trkpt><trkpt lat="45.742135" lon="9.1287267"><ele>357.0</ele><time>2026-04-08T09:12:13.736Z</time></trkpt><trkpt lat="45.7420767" lon="9.128665"><ele>357.0</ele><time>2026-04-08T09:12:14.735Z</time></trkpt><trkpt lat="45.7420083" lon="9.1286033"><ele>357.0</ele><time>2026-04-08T09:12:15.736Z</time></trkpt><trkpt lat="45.7419433" lon="9.1285467"><ele>356.6</ele><time>2026-04-08T09:12:16.736Z</time></trkpt><trkpt lat="45.741865" lon="9.1284833"><ele>356.20000000000005</ele><time>2026-04-08T09:12:17.736Z</time></trkpt><trkpt lat="45.741785" lon="9.1284233"><ele>355.8</ele><time>2026-04-08T09:12:18.736Z</time></trkpt><trkpt lat="45.7417083" lon="9.1283667"><ele>355.4</ele><time>2026-04-08T09:12:19.736Z</time></trkpt><trkpt lat="45.741645" lon="9.128315"><ele>355.0</ele><time>2026-04-08T09:12:20.736Z</time></trkpt><trkpt lat="45.74153" lon="9.1282467"><ele>355.0</ele><time>2026-04-08T09:12:22.736Z</time></trkpt><trkpt lat="45.7414233" lon="9.1282133"><ele>355.0</ele><time>2026-04-08T09:12:24.735Z</time></trkpt><trkpt lat="45.7413583" lon="9.128235"><ele>355.0</ele><time>2026-04-08T09:12:25.736Z</time></trkpt><trkpt lat="45.7412283" lon="9.128315"><ele>355.0</ele><time>2026-04-08T09:12:27.735Z</time></trkpt><trkpt lat="45.7411467" lon="9.128375"><ele>355.0</ele><time>2026-04-08T09:12:28.736Z</time></trkpt><trkpt lat="45.74106" lon="9.1284467"><ele>355.4</ele><time>2026-04-08T09:12:29.735Z</time></trkpt><trkpt lat="45.7409567" lon="9.1285067"><ele>355.8</ele><time>2026-04-08T09:12:30.735Z</time></trkpt><trkpt lat="45.740855" lon="9.1285867"><ele>356.20000000000005</ele><time>2026-04-08T09:12:31.736Z</time></trkpt><trkpt lat="45.7407633" lon="9.128655"><ele>356.6</ele><time>2026-04-08T09:12:32.735Z</time></trkpt><trkpt lat="45.74068" lon="9.1287167"><ele>357.0</ele><time>2026-04-08T09:12:33.736Z</time></trkpt><trkpt lat="45.740605" lon="9.128765"><ele>357.0</ele><time>2026-04-08T09:12:34.736Z</time></trkpt><trkpt lat="45.7405283" lon="9.128805"><ele>357.0</ele><time>2026-04-08T09:12:35.736Z</time></trkpt><trkpt lat="45.740455" lon="9.1288417"><ele>357.0</ele><time>2026-04-08T09:12:36.736Z</time></trkpt><trkpt lat="45.7403917" lon="9.1288733"><ele>357.0</ele><time>2026-04-08T09:12:37.736Z</time></trkpt><trkpt lat="45.7403017" lon="9.1288833"><ele>357.0</ele><time>2026-04-08T09:12:38.736Z</time></trkpt><trkpt lat="45.7402267" lon="9.128925"><ele>357.0</ele><time>2026-04-08T09:12:39.736Z</time></trkpt><trkpt lat="45.74015" lon="9.1289467"><ele>357.0</ele><time>2026-04-08T09:12:40.736Z</time></trkpt><trkpt lat="45.740095" lon="9.1290083"><ele>357.0</ele><time>2026-04-08T09:12:41.735Z</time></trkpt><trkpt lat="45.7400117" lon="9.1290433"><ele>357.0</ele><time>2026-04-08T09:12:42.735Z</time></trkpt><trkpt lat="45.7399417" lon="9.1290567"><ele>357.0</ele><time>2026-04-08T09:12:43.736Z</time></trkpt><trkpt lat="45.7398417" lon="9.1290283"><ele>357.0</ele><time>2026-04-08T09:12:45.735Z</time></trkpt><trkpt lat="45.7397417" lon="9.1290317"><ele>357.0</ele><time>2026-04-08T09:12:47.736Z</time></trkpt><trkpt lat="45.7397083" lon="9.1289333"><ele>357.0</ele><time>2026-04-08T09:12:49.736Z</time></trkpt><trkpt lat="45.739685" lon="9.1288017"><ele>357.0</ele><time>2026-04-08T09:12:51.736Z</time></trkpt><trkpt lat="45.7396467" lon="9.1286683"><ele>357.0</ele><time>2026-04-08T09:12:53.736Z</time></trkpt><trkpt lat="45.739605" lon="9.12859"><ele>357.0</ele><time>2026-04-08T09:12:55.736Z</time></trkpt><trkpt lat="45.7395433" lon="9.12839"><ele>357.0</ele><time>2026-04-08T09:13:11.736Z</time></trkpt><trkpt lat="45.739515" lon="9.128215"><ele>356.0</ele><time>2026-04-08T09:13:13.736Z</time></trkpt><trkpt lat="45.7395083" lon="9.12811"><ele>355.0</ele><time>2026-04-08T09:13:14.736Z</time></trkpt><trkpt lat="45.7395317" lon="9.127995"><ele>354.0</ele><time>2026-04-08T09:13:15.735Z</time></trkpt><trkpt lat="45.7395417" lon="9.1278817"><ele>353.0</ele><time>2026-04-08T09:13:16.736Z</time></trkpt><trkpt lat="45.7395683" lon="9.1277533"><ele>352.0</ele><time>2026-04-08T09:13:17.735Z</time></trkpt><trkpt lat="45.7395933" lon="9.1276183"><ele>351.0</ele><time>2026-04-08T09:13:18.736Z</time></trkpt><trkpt lat="45.7396167" lon="9.12751"><ele>349.6</ele><time>2026-04-08T09:13:19.735Z</time></trkpt><trkpt lat="45.739645" lon="9.12739"><ele>348.20000000000005</ele><time>2026-04-08T09:13:20.736Z</time></trkpt><trkpt lat="45.739675" lon="9.12727"><ele>346.79999999999995</ele><time>2026-04-08T09:13:21.736Z</time></trkpt><trkpt lat="45.7397083" lon="9.127145"><ele>345.4</ele><time>2026-04-08T09:13:22.736Z</time></trkpt><trkpt lat="45.7397483" lon="9.127015"><ele>344.0</ele><time>2026-04-08T09:13:23.736Z</time></trkpt><trkpt lat="45.7397733" lon="9.1268883"><ele>344.0</ele><time>2026-04-08T09:13:24.736Z</time></trkpt><trkpt lat="45.7397933" lon="9.1267717"><ele>344.0</ele><time>2026-04-08T09:13:25.735Z</time></trkpt><trkpt lat="45.7398133" lon="9.1266583"><ele>344.0</ele><time>2026-04-08T09:13:26.736Z</time></trkpt><trkpt lat="45.7398317" lon="9.126545"><ele>344.0</ele><time>2026-04-08T09:13:27.735Z</time></trkpt><trkpt lat="45.739855" lon="9.1264217"><ele>344.0</ele><time>2026-04-08T09:13:28.736Z</time></trkpt><trkpt lat="45.7398667" lon="9.1263033"><ele>344.0</ele><time>2026-04-08T09:13:29.736Z</time></trkpt><trkpt lat="45.7398767" lon="9.1261983"><ele>342.8571428571429</ele><time>2026-04-08T09:13:30.736Z</time></trkpt><trkpt lat="45.7399" lon="9.126095"><ele>341.7142857142857</ele><time>2026-04-08T09:13:31.735Z</time></trkpt><trkpt lat="45.7399217" lon="9.126"><ele>340.57142857142856</ele><time>2026-04-08T09:13:32.735Z</time></trkpt><trkpt lat="45.739945" lon="9.1259133"><ele>339.42857142857144</ele><time>2026-04-08T09:13:33.736Z</time></trkpt><trkpt lat="45.73997" lon="9.125775"><ele>338.2857142857143</ele><time>2026-04-08T09:13:35.736Z</time></trkpt><trkpt lat="45.73999" lon="9.1256767"><ele>337.14285714285717</ele><time>2026-04-08T09:13:38.736Z</time></trkpt><trkpt lat="45.74001" lon="9.12559"><ele>336.0</ele><time>2026-04-08T09:14:14.735Z</time></trkpt><trkpt lat="45.7400283" lon="9.1254067"><ele>334.6</ele><time>2026-04-08T09:14:16.735Z</time></trkpt><trkpt lat="45.740045" lon="9.12529"><ele>333.20000000000005</ele><time>2026-04-08T09:14:17.736Z</time></trkpt><trkpt lat="45.740075" lon="9.1251583"><ele>331.79999999999995</ele><time>2026-04-08T09:14:18.736Z</time></trkpt><trkpt lat="45.7400983" lon="9.1250217"><ele>330.4</ele><time>2026-04-08T09:14:19.735Z</time></trkpt><trkpt lat="45.7401233" lon="9.1248767"><ele>329.0</ele><time>2026-04-08T09:14:20.735Z</time></trkpt><trkpt lat="45.7401483" lon="9.1247333"><ele>328.0</ele><time>2026-04-08T09:14:21.736Z</time></trkpt><trkpt lat="45.74017" lon="9.1245867"><ele>327.0</ele><time>2026-04-08T09:14:22.736Z</time></trkpt><trkpt lat="45.7401933" lon="9.124445"><ele>326.0</ele><time>2026-04-08T09:14:23.736Z</time></trkpt><trkpt lat="45.7402167" lon="9.12429"><ele>325.0</ele><time>2026-04-08T09:14:24.736Z</time></trkpt><trkpt lat="45.7402433" lon="9.1241367"><ele>324.0</ele><time>2026-04-08T09:14:25.736Z</time></trkpt><trkpt lat="45.7402633" lon="9.1239683"><ele>322.8</ele><time>2026-04-08T09:14:26.736Z</time></trkpt><trkpt lat="45.7402967" lon="9.1238283"><ele>321.59999999999997</ele><time>2026-04-08T09:14:27.736Z</time></trkpt><trkpt lat="45.7403267" lon="9.1236817"><ele>320.4</ele><time>2026-04-08T09:14:28.735Z</time></trkpt><trkpt lat="45.740355" lon="9.1235383"><ele>319.2</ele><time>2026-04-08T09:14:29.736Z</time></trkpt><trkpt lat="45.7403783" lon="9.1233933"><ele>318.0</ele><time>2026-04-08T09:14:30.736Z</time></trkpt><trkpt lat="45.7403933" lon="9.1232617"><ele>316.8</ele><time>2026-04-08T09:14:31.735Z</time></trkpt><trkpt lat="45.740405" lon="9.12313"><ele>315.6</ele><time>2026-04-08T09:14:32.735Z</time></trkpt><trkpt lat="45.7404267" lon="9.1229967"><ele>314.4</ele><time>2026-04-08T09:14:33.736Z</time></trkpt><trkpt lat="45.7404467" lon="9.1228717"><ele>313.2</ele><time>2026-04-08T09:14:34.735Z</time></trkpt><trkpt lat="45.7404667" lon="9.1227467"><ele>312.0</ele><time>2026-04-08T09:14:35.736Z</time></trkpt><trkpt lat="45.7404867" lon="9.12262"><ele>312.0</ele><time>2026-04-08T09:14:36.736Z</time></trkpt><trkpt lat="45.74051" lon="9.1225033"><ele>312.0</ele><time>2026-04-08T09:14:37.736Z</time></trkpt><trkpt lat="45.7405367" lon="9.12238"><ele>312.0</ele><time>2026-04-08T09:14:38.736Z</time></trkpt><trkpt lat="45.740555" lon="9.1222683"><ele>312.0</ele><time>2026-04-08T09:14:39.736Z</time></trkpt><trkpt lat="45.740575" lon="9.1221683"><ele>312.0</ele><time>2026-04-08T09:14:40.736Z</time></trkpt><trkpt lat="45.74059" lon="9.1220617"><ele>312.0</ele><time>2026-04-08T09:14:41.735Z</time></trkpt><trkpt lat="45.7406117" lon="9.1219517"><ele>311.8333333333333</ele><time>2026-04-08T09:14:42.736Z</time></trkpt><trkpt lat="45.7406267" lon="9.1218417"><ele>311.6666666666667</ele><time>2026-04-08T09:14:43.736Z</time></trkpt><trkpt lat="45.7406433" lon="9.12173"><ele>311.5</ele><time>2026-04-08T09:14:44.735Z</time></trkpt><trkpt lat="45.74066" lon="9.1216033"><ele>311.33333333333337</ele><time>2026-04-08T09:14:45.736Z</time></trkpt><trkpt lat="45.7406817" lon="9.1214733"><ele>311.1666666666667</ele><time>2026-04-08T09:14:46.736Z</time></trkpt><trkpt lat="45.7406983" lon="9.12134"><ele>311.0</ele><time>2026-04-08T09:14:47.736Z</time></trkpt><trkpt lat="45.7407183" lon="9.1212017"><ele>310.8</ele><time>2026-04-08T09:14:48.736Z</time></trkpt><trkpt lat="45.7407417" lon="9.1210467"><ele>310.6</ele><time>2026-04-08T09:14:49.735Z</time></trkpt><trkpt lat="45.7407633" lon="9.1209067"><ele>310.4</ele><time>2026-04-08T09:14:50.735Z</time></trkpt><trkpt lat="45.7407817" lon="9.1207717"><ele>310.2</ele><time>2026-04-08T09:14:51.735Z</time></trkpt><trkpt lat="45.7408" lon="9.1206533"><ele>310.0</ele><time>2026-04-08T09:14:52.735Z</time></trkpt><trkpt lat="45.7408133" lon="9.1205567"><ele>309.8571428571429</ele><time>2026-04-08T09:14:53.735Z</time></trkpt><trkpt lat="45.7408283" lon="9.1204617"><ele>309.7142857142857</ele><time>2026-04-08T09:14:54.736Z</time></trkpt><trkpt lat="45.7408567" lon="9.1203717"><ele>309.57142857142856</ele><time>2026-04-08T09:14:57.736Z</time></trkpt><trkpt lat="45.740915" lon="9.1203167"><ele>309.42857142857144</ele><time>2026-04-08T09:15:14.734Z</time></trkpt><trkpt lat="45.7409067" lon="9.12022"><ele>309.2857142857143</ele><time>2026-04-08T09:15:16.734Z</time></trkpt><trkpt lat="45.740915" lon="9.12009"><ele>309.14285714285717</ele><time>2026-04-08T09:15:19.735Z</time></trkpt><trkpt lat="45.7409217" lon="9.11998"><ele>309.0</ele><time>2026-04-08T09:15:22.735Z</time></trkpt><trkpt lat="45.7409283" lon="9.11986"><ele>309.0</ele><time>2026-04-08T09:15:26.734Z</time></trkpt><trkpt lat="45.740915" lon="9.1197467"><ele>309.0</ele><time>2026-04-08T09:15:29.735Z</time></trkpt><trkpt lat="45.7409233" lon="9.1196367"><ele>309.0</ele><time>2026-04-08T09:15:32.735Z</time></trkpt><trkpt lat="45.7409533" lon="9.1195383"><ele>309.0</ele><time>2026-04-08T09:15:35.735Z</time></trkpt><trkpt lat="45.7409883" lon="9.1194633"><ele>309.0</ele><time>2026-04-08T09:15:38.735Z</time></trkpt><trkpt lat="45.7410183" lon="9.11935"><ele>309.0</ele><time>2026-04-08T09:15:41.734Z</time></trkpt><trkpt lat="45.7410517" lon="9.1192583"><ele>309.0</ele><time>2026-04-08T09:15:43.734Z</time></trkpt><trkpt lat="45.7411133" lon="9.119135"><ele>309.0</ele><time>2026-04-08T09:15:45.734Z</time></trkpt><trkpt lat="45.7411483" lon="9.1190167"><ele>309.0</ele><time>2026-04-08T09:15:47.734Z</time></trkpt><trkpt lat="45.7411267" lon="9.118915"><ele>309.0</ele><time>2026-04-08T09:15:49.735Z</time></trkpt><trkpt lat="45.7410367" lon="9.1188367"><ele>309.0</ele><time>2026-04-08T09:15:51.735Z</time></trkpt><trkpt lat="45.74097" lon="9.1188083"><ele>309.0</ele><time>2026-04-08T09:15:52.735Z</time></trkpt><trkpt lat="45.7408967" lon="9.1187867"><ele>309.0</ele><time>2026-04-08T09:15:53.734Z</time></trkpt><trkpt lat="45.74082" lon="9.1187583"><ele>309.0</ele><time>2026-04-08T09:15:54.734Z</time></trkpt><trkpt lat="45.7407467" lon="9.1187"><ele>309.0</ele><time>2026-04-08T09:15:55.735Z</time></trkpt><trkpt lat="45.7406633" lon="9.1186217"><ele>309.0</ele><time>2026-04-08T09:15:56.735Z</time></trkpt><trkpt lat="45.7405783" lon="9.1185367"><ele>309.0</ele><time>2026-04-08T09:15:57.735Z</time></trkpt><trkpt lat="45.7404917" lon="9.11845"><ele>309.0</ele><time>2026-04-08T09:15:58.735Z</time></trkpt><trkpt lat="45.7403967" lon="9.1183567"><ele>309.0</ele><time>2026-04-08T09:15:59.735Z</time></trkpt><trkpt lat="45.740295" lon="9.11827"><ele>309.0</ele><time>2026-04-08T09:16:00.735Z</time></trkpt><trkpt lat="45.7401883" lon="9.1181783"><ele>309.0</ele><time>2026-04-08T09:16:01.734Z</time></trkpt><trkpt lat="45.7400817" lon="9.1180833"><ele>308.0</ele><time>2026-04-08T09:16:02.735Z</time></trkpt><trkpt lat="45.73997" lon="9.1179883"><ele>307.0</ele><time>2026-04-08T09:16:03.734Z</time></trkpt><trkpt lat="45.73986" lon="9.11789"><ele>306.0</ele><time>2026-04-08T09:16:04.735Z</time></trkpt><trkpt lat="45.739745" lon="9.1177867"><ele>305.0</ele><time>2026-04-08T09:16:05.735Z</time></trkpt><trkpt lat="45.7396267" lon="9.1176817"><ele>305.0</ele><time>2026-04-08T09:16:06.735Z</time></trkpt><trkpt lat="45.7395067" lon="9.11757"><ele>305.0</ele><time>2026-04-08T09:16:07.735Z</time></trkpt><trkpt lat="45.739385" lon="9.117455"><ele>305.0</ele><time>2026-04-08T09:16:08.735Z</time></trkpt><trkpt lat="45.73927" lon="9.1173433"><ele>305.0</ele><time>2026-04-08T09:16:09.734Z</time></trkpt><trkpt lat="45.739155" lon="9.1172383"><ele>305.0</ele><time>2026-04-08T09:16:10.734Z</time></trkpt><trkpt lat="45.7390467" lon="9.1171333"><ele>305.0</ele><time>2026-04-08T09:16:11.735Z</time></trkpt><trkpt lat="45.7389367" lon="9.11704"><ele>305.0</ele><time>2026-04-08T09:16:12.735Z</time></trkpt><trkpt lat="45.7388267" lon="9.1169383"><ele>305.0</ele><time>2026-04-08T09:16:13.734Z</time></trkpt><trkpt lat="45.7387167" lon="9.116835"><ele>305.0</ele><time>2026-04-08T09:16:14.735Z</time></trkpt><trkpt lat="45.7386033" lon="9.1167333"><ele>305.0</ele><time>2026-04-08T09:16:15.734Z</time></trkpt><trkpt lat="45.7384883" lon="9.1166317"><ele>305.0</ele><time>2026-04-08T09:16:16.735Z</time></trkpt><trkpt lat="45.7383733" lon="9.11653"><ele>305.0</ele><time>2026-04-08T09:16:17.734Z</time></trkpt><trkpt lat="45.7382533" lon="9.1164233"><ele>304.5</ele><time>2026-04-08T09:16:18.734Z</time></trkpt><trkpt lat="45.7381383" lon="9.1163117"><ele>304.0</ele><time>2026-04-08T09:16:19.735Z</time></trkpt><trkpt lat="45.7380267" lon="9.1162017"><ele>303.5</ele><time>2026-04-08T09:16:20.734Z</time></trkpt><trkpt lat="45.7379083" lon="9.1160917"><ele>303.0</ele><time>2026-04-08T09:16:21.735Z</time></trkpt><trkpt lat="45.7377983" lon="9.1159717"><ele>303.0</ele><time>2026-04-08T09:16:22.735Z</time></trkpt><trkpt lat="45.73769" lon="9.11585"><ele>303.0</ele><time>2026-04-08T09:16:23.734Z</time></trkpt><trkpt lat="45.7375767" lon="9.1157267"><ele>303.0</ele><time>2026-04-08T09:16:24.735Z</time></trkpt><trkpt lat="45.737465" lon="9.1156017"><ele>303.0</ele><time>2026-04-08T09:16:25.735Z</time></trkpt><trkpt lat="45.737355" lon="9.1154733"><ele>302.75</ele><time>2026-04-08T09:16:26.735Z</time></trkpt><trkpt lat="45.7372533" lon="9.1153417"><ele>302.5</ele><time>2026-04-08T09:16:27.734Z</time></trkpt><trkpt lat="45.737155" lon="9.11521"><ele>302.25</ele><time>2026-04-08T09:16:28.735Z</time></trkpt><trkpt lat="45.7370617" lon="9.115075"><ele>302.0</ele><time>2026-04-08T09:16:29.735Z</time></trkpt><trkpt lat="45.7369717" lon="9.1149367"><ele>301.75</ele><time>2026-04-08T09:16:30.734Z</time></trkpt><trkpt lat="45.73688" lon="9.1147933"><ele>301.5</ele><time>2026-04-08T09:16:31.735Z</time></trkpt><trkpt lat="45.736785" lon="9.1146517"><ele>301.25</ele><time>2026-04-08T09:16:32.735Z</time></trkpt><trkpt lat="45.7366933" lon="9.1145017"><ele>301.0</ele><time>2026-04-08T09:16:33.734Z</time></trkpt><trkpt lat="45.7365967" lon="9.11435"><ele>301.0</ele><time>2026-04-08T09:16:34.735Z</time></trkpt><trkpt lat="45.7365017" lon="9.1142033"><ele>301.0</ele><time>2026-04-08T09:16:35.734Z</time></trkpt><trkpt lat="45.7364017" lon="9.114055"><ele>301.0</ele><time>2026-04-08T09:16:36.735Z</time></trkpt><trkpt lat="45.73631" lon="9.1139"><ele>301.0</ele><time>2026-04-08T09:16:37.735Z</time></trkpt><trkpt lat="45.7362067" lon="9.1137467"><ele>300.25</ele><time>2026-04-08T09:16:38.734Z</time></trkpt><trkpt lat="45.7361033" lon="9.113595"><ele>299.5</ele><time>2026-04-08T09:16:39.734Z</time></trkpt><trkpt lat="45.7359983" lon="9.11345"><ele>298.75</ele><time>2026-04-08T09:16:40.735Z</time></trkpt><trkpt lat="45.7358883" lon="9.1133117"><ele>298.0</ele><time>2026-04-08T09:16:41.735Z</time></trkpt><trkpt lat="45.7357767" lon="9.1131833"><ele>297.75</ele><time>2026-04-08T09:16:42.734Z</time></trkpt><trkpt lat="45.735665" lon="9.113055"><ele>297.5</ele><time>2026-04-08T09:16:43.734Z</time></trkpt><trkpt lat="45.73555" lon="9.11293"><ele>297.25</ele><time>2026-04-08T09:16:44.735Z</time></trkpt><trkpt lat="45.73544" lon="9.1128083"><ele>297.0</ele><time>2026-04-08T09:16:45.735Z</time></trkpt><trkpt lat="45.73533" lon="9.1126883"><ele>296.75</ele><time>2026-04-08T09:16:46.735Z</time></trkpt><trkpt lat="45.73522" lon="9.1125733"><ele>296.5</ele><time>2026-04-08T09:16:47.734Z</time></trkpt><trkpt lat="45.7351083" lon="9.1124617"><ele>296.25</ele><time>2026-04-08T09:16:48.735Z</time></trkpt><trkpt lat="45.735005" lon="9.11235"><ele>296.0</ele><time>2026-04-08T09:16:49.735Z</time></trkpt><trkpt lat="45.734905" lon="9.1122367"><ele>295.6</ele><time>2026-04-08T09:16:50.735Z</time></trkpt><trkpt lat="45.734815" lon="9.11213"><ele>295.20000000000005</ele><time>2026-04-08T09:16:51.734Z</time></trkpt><trkpt lat="45.7347467" lon="9.1120283"><ele>294.79999999999995</ele><time>2026-04-08T09:16:52.735Z</time></trkpt><trkpt lat="45.7346883" lon="9.1119383"><ele>294.4</ele><time>2026-04-08T09:16:53.735Z</time></trkpt><trkpt lat="45.7346383" lon="9.1118583"><ele>294.0</ele><time>2026-04-08T09:16:54.735Z</time></trkpt><trkpt lat="45.7345683" lon="9.1117517"><ele>294.0</ele><time>2026-04-08T09:16:56.734Z</time></trkpt><trkpt lat="45.7345283" lon="9.11168"><ele>294.0</ele><time>2026-04-08T09:16:57.735Z</time></trkpt><trkpt lat="45.7344833" lon="9.1116067"><ele>294.0</ele><time>2026-04-08T09:16:58.735Z</time></trkpt><trkpt lat="45.734425" lon="9.1115433"><ele>294.0</ele><time>2026-04-08T09:16:59.734Z</time></trkpt><trkpt lat="45.734355" lon="9.1114933"><ele>294.0</ele><time>2026-04-08T09:17:00.735Z</time></trkpt><trkpt lat="45.734285" lon="9.1114433"><ele>294.0</ele><time>2026-04-08T09:17:01.734Z</time></trkpt><trkpt lat="45.7342083" lon="9.111385"><ele>294.0</ele><time>2026-04-08T09:17:02.735Z</time></trkpt><trkpt lat="45.734135" lon="9.11131"><ele>294.59999999999997</ele><time>2026-04-08T09:17:03.735Z</time></trkpt><trkpt lat="45.73406" lon="9.1112283"><ele>295.2</ele><time>2026-04-08T09:17:04.735Z</time></trkpt><trkpt lat="45.733975" lon="9.11113"><ele>295.79999999999995</ele><time>2026-04-08T09:17:05.735Z</time></trkpt><trkpt lat="45.7338867" lon="9.11103"><ele>296.4</ele><time>2026-04-08T09:17:06.734Z</time></trkpt><trkpt lat="45.733795" lon="9.1109167"><ele>297.0</ele><time>2026-04-08T09:17:07.735Z</time></trkpt><trkpt lat="45.7336967" lon="9.1107967"><ele>296.75</ele><time>2026-04-08T09:17:08.735Z</time></trkpt><trkpt lat="45.7335917" lon="9.1106667"><ele>296.5</ele><time>2026-04-08T09:17:09.735Z</time></trkpt><trkpt lat="45.7334833" lon="9.1105333"><ele>296.25</ele><time>2026-04-08T09:17:10.735Z</time></trkpt><trkpt lat="45.733375" lon="9.110395"><ele>296.0</ele><time>2026-04-08T09:17:11.735Z</time></trkpt><trkpt lat="45.73326" lon="9.1102567"><ele>296.0</ele><time>2026-04-08T09:17:12.735Z</time></trkpt><trkpt lat="45.7331467" lon="9.11011"><ele>296.0</ele><time>2026-04-08T09:17:13.735Z</time></trkpt><trkpt lat="45.7330317" lon="9.1099683"><ele>296.0</ele><time>2026-04-08T09:17:14.735Z</time></trkpt><trkpt lat="45.73292" lon="9.10983"><ele>296.0</ele><time>2026-04-08T09:17:15.734Z</time></trkpt><trkpt lat="45.7328083" lon="9.1096883"><ele>296.0</ele><time>2026-04-08T09:17:16.735Z</time></trkpt><trkpt lat="45.7327" lon="9.1095667"><ele>296.0</ele><time>2026-04-08T09:17:17.734Z</time></trkpt><trkpt lat="45.7325967" lon="9.1094433"><ele>296.0</ele><time>2026-04-08T09:17:18.735Z</time></trkpt><trkpt lat="45.7324933" lon="9.109335"><ele>296.25</ele><time>2026-04-08T09:17:19.735Z</time></trkpt><trkpt lat="45.7323883" lon="9.1092333"><ele>296.5</ele><time>2026-04-08T09:17:20.735Z</time></trkpt><trkpt lat="45.7322867" lon="9.10914"><ele>296.75</ele><time>2026-04-08T09:17:21.735Z</time></trkpt><trkpt lat="45.73218" lon="9.1090483"><ele>297.0</ele><time>2026-04-08T09:17:22.734Z</time></trkpt><trkpt lat="45.7320767" lon="9.10897"><ele>296.4</ele><time>2026-04-08T09:17:23.735Z</time></trkpt><trkpt lat="45.7319783" lon="9.1088983"><ele>295.79999999999995</ele><time>2026-04-08T09:17:24.734Z</time></trkpt><trkpt lat="45.7318817" lon="9.1088267"><ele>295.2</ele><time>2026-04-08T09:17:25.734Z</time></trkpt><trkpt lat="45.7317817" lon="9.1087633"><ele>294.59999999999997</ele><time>2026-04-08T09:17:26.734Z</time></trkpt><trkpt lat="45.7316833" lon="9.1087083"><ele>294.0</ele><time>2026-04-08T09:17:27.735Z</time></trkpt><trkpt lat="45.7315833" lon="9.1086517"><ele>294.0</ele><time>2026-04-08T09:17:28.735Z</time></trkpt><trkpt lat="45.7314883" lon="9.1086017"><ele>294.0</ele><time>2026-04-08T09:17:29.734Z</time></trkpt><trkpt lat="45.7313933" lon="9.1085533"><ele>294.0</ele><time>2026-04-08T09:17:30.734Z</time></trkpt><trkpt lat="45.7312967" lon="9.1085033"><ele>294.0</ele><time>2026-04-08T09:17:31.734Z</time></trkpt><trkpt lat="45.7312033" lon="9.10846"><ele>294.0</ele><time>2026-04-08T09:17:32.734Z</time></trkpt><trkpt lat="45.731105" lon="9.1084117"><ele>294.8</ele><time>2026-04-08T09:17:33.735Z</time></trkpt><trkpt lat="45.7310117" lon="9.1083717"><ele>295.59999999999997</ele><time>2026-04-08T09:17:34.734Z</time></trkpt><trkpt lat="45.73092" lon="9.1083467"><ele>296.4</ele><time>2026-04-08T09:17:35.735Z</time></trkpt><trkpt lat="45.7308267" lon="9.1083333"><ele>297.2</ele><time>2026-04-08T09:17:36.734Z</time></trkpt><trkpt lat="45.7307417" lon="9.10834"><ele>298.0</ele><time>2026-04-08T09:17:37.734Z</time></trkpt><trkpt lat="45.7306517" lon="9.10836"><ele>298.0</ele><time>2026-04-08T09:17:38.735Z</time></trkpt><trkpt lat="45.7305583" lon="9.1083783"><ele>298.0</ele><time>2026-04-08T09:17:39.735Z</time></trkpt><trkpt lat="45.73046" lon="9.108395"><ele>298.0</ele><time>2026-04-08T09:17:40.735Z</time></trkpt><trkpt lat="45.7303467" lon="9.1084133"><ele>298.0</ele><time>2026-04-08T09:17:41.734Z</time></trkpt><trkpt lat="45.7302133" lon="9.1084367"><ele>298.0</ele><time>2026-04-08T09:17:42.735Z</time></trkpt><trkpt lat="45.730085" lon="9.1084633"><ele>298.25</ele><time>2026-04-08T09:17:43.735Z</time></trkpt><trkpt lat="45.7299517" lon="9.1084867"><ele>298.5</ele><time>2026-04-08T09:17:44.735Z</time></trkpt><trkpt lat="45.7298233" lon="9.1085117"><ele>298.75</ele><time>2026-04-08T09:17:45.735Z</time></trkpt><trkpt lat="45.7296933" lon="9.1085417"><ele>299.0</ele><time>2026-04-08T09:17:46.734Z</time></trkpt><trkpt lat="45.7295883" lon="9.1085617"><ele>299.0</ele><time>2026-04-08T09:17:47.734Z</time></trkpt><trkpt lat="45.7294983" lon="9.1085717"><ele>299.0</ele><time>2026-04-08T09:17:48.734Z</time></trkpt><trkpt lat="45.7294283" lon="9.1085733"><ele>299.0</ele><time>2026-04-08T09:17:49.734Z</time></trkpt><trkpt lat="45.7293383" lon="9.108565"><ele>299.0</ele><time>2026-04-08T09:17:51.734Z</time></trkpt><trkpt lat="45.729255" lon="9.108525"><ele>299.0</ele><time>2026-04-08T09:17:53.735Z</time></trkpt><trkpt lat="45.7291583" lon="9.1084467"><ele>299.0</ele><time>2026-04-08T09:17:55.735Z</time></trkpt><trkpt lat="45.729045" lon="9.1083267"><ele>299.2</ele><time>2026-04-08T09:17:57.735Z</time></trkpt><trkpt lat="45.7289917" lon="9.10824"><ele>299.4</ele><time>2026-04-08T09:17:58.735Z</time></trkpt><trkpt lat="45.7289433" lon="9.1081417"><ele>299.6</ele><time>2026-04-08T09:17:59.735Z</time></trkpt><trkpt lat="45.7289083" lon="9.108025"><ele>299.8</ele><time>2026-04-08T09:18:00.734Z</time></trkpt><trkpt lat="45.728885" lon="9.107895"><ele>300.0</ele><time>2026-04-08T09:18:01.735Z</time></trkpt><trkpt lat="45.72886" lon="9.1077517"><ele>300.0</ele><time>2026-04-08T09:18:02.734Z</time></trkpt><trkpt lat="45.7288383" lon="9.1076"><ele>300.0</ele><time>2026-04-08T09:18:03.735Z</time></trkpt><trkpt lat="45.728815" lon="9.1074417"><ele>300.0</ele><time>2026-04-08T09:18:04.735Z</time></trkpt><trkpt lat="45.7287917" lon="9.10728"><ele>300.0</ele><time>2026-04-08T09:18:05.735Z</time></trkpt><trkpt lat="45.728765" lon="9.10713"><ele>300.0</ele><time>2026-04-08T09:18:06.735Z</time></trkpt><trkpt lat="45.7287367" lon="9.1069783"><ele>300.2</ele><time>2026-04-08T09:18:07.734Z</time></trkpt><trkpt lat="45.7287067" lon="9.1068317"><ele>300.4</ele><time>2026-04-08T09:18:08.735Z</time></trkpt><trkpt lat="45.728665" lon="9.1067033"><ele>300.6</ele><time>2026-04-08T09:18:09.734Z</time></trkpt><trkpt lat="45.7286083" lon="9.106595"><ele>300.8</ele><time>2026-04-08T09:18:10.734Z</time></trkpt><trkpt lat="45.728545" lon="9.1064883"><ele>301.0</ele><time>2026-04-08T09:18:11.734Z</time></trkpt><trkpt lat="45.7284767" lon="9.1063933"><ele>299.8</ele><time>2026-04-08T09:18:12.735Z</time></trkpt><trkpt lat="45.7283983" lon="9.1063067"><ele>298.6</ele><time>2026-04-08T09:18:13.735Z</time></trkpt><trkpt lat="45.7282967" lon="9.1062467"><ele>297.4</ele><time>2026-04-08T09:18:14.735Z</time></trkpt><trkpt lat="45.7282017" lon="9.1062033"><ele>296.2</ele><time>2026-04-08T09:18:15.735Z</time></trkpt><trkpt lat="45.7280983" lon="9.1061817"><ele>295.0</ele><time>2026-04-08T09:18:16.735Z</time></trkpt><trkpt lat="45.7279933" lon="9.10616"><ele>295.0</ele><time>2026-04-08T09:18:17.735Z</time></trkpt><trkpt lat="45.7278867" lon="9.1061483"><ele>295.0</ele><time>2026-04-08T09:18:18.735Z</time></trkpt><trkpt lat="45.727785" lon="9.1061567"><ele>295.0</ele><time>2026-04-08T09:18:19.735Z</time></trkpt><trkpt lat="45.7276917" lon="9.1061783"><ele>295.0</ele><time>2026-04-08T09:18:20.734Z</time></trkpt><trkpt lat="45.7276" lon="9.1062267"><ele>295.0</ele><time>2026-04-08T09:18:21.735Z</time></trkpt><trkpt lat="45.727515" lon="9.1062883"><ele>294.8</ele><time>2026-04-08T09:18:22.734Z</time></trkpt><trkpt lat="45.72744" lon="9.106375"><ele>294.6</ele><time>2026-04-08T09:18:23.735Z</time></trkpt><trkpt lat="45.7273717" lon="9.1064817"><ele>294.4</ele><time>2026-04-08T09:18:24.735Z</time></trkpt><trkpt lat="45.727305" lon="9.1066017"><ele>294.2</ele><time>2026-04-08T09:18:25.735Z</time></trkpt><trkpt lat="45.7272433" lon="9.10674"><ele>294.0</ele><time>2026-04-08T09:18:26.734Z</time></trkpt><trkpt lat="45.7271783" lon="9.1068783"><ele>294.0</ele><time>2026-04-08T09:18:27.735Z</time></trkpt><trkpt lat="45.727115" lon="9.107025"><ele>294.0</ele><time>2026-04-08T09:18:28.735Z</time></trkpt><trkpt lat="45.7270583" lon="9.10716"><ele>294.0</ele><time>2026-04-08T09:18:29.735Z</time></trkpt><trkpt lat="45.7269983" lon="9.1072783"><ele>294.0</ele><time>2026-04-08T09:18:30.735Z</time></trkpt><trkpt lat="45.726935" lon="9.1073817"><ele>294.0</ele><time>2026-04-08T09:18:31.735Z</time></trkpt><trkpt lat="45.7268617" lon="9.10746"><ele>294.0</ele><time>2026-04-08T09:18:32.735Z</time></trkpt><trkpt lat="45.72678" lon="9.1075217"><ele>294.0</ele><time>2026-04-08T09:18:33.735Z</time></trkpt><trkpt lat="45.7266933" lon="9.1075567"><ele>294.0</ele><time>2026-04-08T09:18:34.735Z</time></trkpt><trkpt lat="45.7266" lon="9.1075683"><ele>294.0</ele><time>2026-04-08T09:18:35.734Z</time></trkpt><trkpt lat="45.7265117" lon="9.10757"><ele>294.0</ele><time>2026-04-08T09:18:36.735Z</time></trkpt><trkpt lat="45.7264117" lon="9.10753"><ele>294.0</ele><time>2026-04-08T09:18:37.734Z</time></trkpt><trkpt lat="45.7263067" lon="9.1074733"><ele>294.0</ele><time>2026-04-08T09:18:38.735Z</time></trkpt><trkpt lat="45.7261917" lon="9.107405"><ele>294.0</ele><time>2026-04-08T09:18:39.735Z</time></trkpt><trkpt lat="45.7260767" lon="9.1073083"><ele>294.0</ele><time>2026-04-08T09:18:40.734Z</time></trkpt><trkpt lat="45.72596" lon="9.107205"><ele>291.6666666666667</ele><time>2026-04-08T09:18:41.734Z</time></trkpt><trkpt lat="45.725835" lon="9.1070933"><ele>289.33333333333337</ele><time>2026-04-08T09:18:42.735Z</time></trkpt><trkpt lat="45.72569" lon="9.1069733"><ele>287.0</ele><time>2026-04-08T09:18:43.735Z</time></trkpt><trkpt lat="45.7255433" lon="9.106835"><ele>287.0</ele><time>2026-04-08T09:18:44.735Z</time></trkpt><trkpt lat="45.7253867" lon="9.1066933"><ele>287.0</ele><time>2026-04-08T09:18:45.735Z</time></trkpt><trkpt lat="45.72521" lon="9.1065383"><ele>287.0</ele><time>2026-04-08T09:18:46.735Z</time></trkpt><trkpt lat="45.725035" lon="9.1063983"><ele>284.6666666666667</ele><time>2026-04-08T09:18:47.735Z</time></trkpt><trkpt lat="45.7248667" lon="9.106275"><ele>282.3333333333333</ele><time>2026-04-08T09:18:48.734Z</time></trkpt><trkpt lat="45.7247033" lon="9.1061433"><ele>280.0</ele><time>2026-04-08T09:18:49.735Z</time></trkpt><trkpt lat="45.7245417" lon="9.1060283"><ele>279.3333333333333</ele><time>2026-04-08T09:18:50.735Z</time></trkpt><trkpt lat="45.7243833" lon="9.1058967"><ele>278.6666666666667</ele><time>2026-04-08T09:18:51.735Z</time></trkpt><trkpt lat="45.7242267" lon="9.1057667"><ele>278.0</ele><time>2026-04-08T09:18:52.735Z</time></trkpt><trkpt lat="45.7240817" lon="9.105645"><ele>276.33333333333337</ele><time>2026-04-08T09:18:53.734Z</time></trkpt><trkpt lat="45.7239433" lon="9.1055267"><ele>274.6666666666667</ele><time>2026-04-08T09:18:54.735Z</time></trkpt><trkpt lat="45.7238083" lon="9.10541"><ele>273.0</ele><time>2026-04-08T09:18:55.735Z</time></trkpt><trkpt lat="45.7236833" lon="9.10527"><ele>273.0</ele><time>2026-04-08T09:18:56.734Z</time></trkpt><trkpt lat="45.7235633" lon="9.1051117"><ele>273.0</ele><time>2026-04-08T09:18:57.734Z</time></trkpt><trkpt lat="45.72345" lon="9.1049467"><ele>273.0</ele><time>2026-04-08T09:18:58.734Z</time></trkpt><trkpt lat="45.7233367" lon="9.1047767"><ele>270.6666666666667</ele><time>2026-04-08T09:18:59.735Z</time></trkpt><trkpt lat="45.723215" lon="9.104645"><ele>268.33333333333337</ele><time>2026-04-08T09:19:00.734Z</time></trkpt><trkpt lat="45.7230933" lon="9.10451"><ele>266.0</ele><time>2026-04-08T09:19:01.735Z</time></trkpt><trkpt lat="45.72296" lon="9.104385"><ele>266.0</ele><time>2026-04-08T09:19:02.735Z</time></trkpt><trkpt lat="45.7228167" lon="9.104265"><ele>266.0</ele><time>2026-04-08T09:19:03.735Z</time></trkpt><trkpt lat="45.722675" lon="9.1041683"><ele>266.0</ele><time>2026-04-08T09:19:04.735Z</time></trkpt><trkpt lat="45.7225267" lon="9.10406"><ele>267.0</ele><time>2026-04-08T09:19:05.735Z</time></trkpt><trkpt lat="45.7223783" lon="9.1039383"><ele>268.0</ele><time>2026-04-08T09:19:06.735Z</time></trkpt><trkpt lat="45.72222" lon="9.10382"><ele>269.0</ele><time>2026-04-08T09:19:07.734Z</time></trkpt><trkpt lat="45.7220683" lon="9.1037117"><ele>269.0</ele><time>2026-04-08T09:19:08.735Z</time></trkpt><trkpt lat="45.72192" lon="9.1035983"><ele>269.0</ele><time>2026-04-08T09:19:09.735Z</time></trkpt><trkpt lat="45.7217733" lon="9.1034933"><ele>269.0</ele><time>2026-04-08T09:19:10.735Z</time></trkpt><trkpt lat="45.7216367" lon="9.1033833"><ele>267.75</ele><time>2026-04-08T09:19:11.735Z</time></trkpt><trkpt lat="45.7215017" lon="9.1032717"><ele>266.5</ele><time>2026-04-08T09:19:12.735Z</time></trkpt><trkpt lat="45.7213817" lon="9.1031433"><ele>265.25</ele><time>2026-04-08T09:19:13.735Z</time></trkpt><trkpt lat="45.7212733" lon="9.1030083"><ele>264.0</ele><time>2026-04-08T09:19:14.735Z</time></trkpt><trkpt lat="45.7211683" lon="9.1028567"><ele>263.3333333333333</ele><time>2026-04-08T09:19:15.734Z</time></trkpt><trkpt lat="45.7210633" lon="9.10271"><ele>262.66666666666663</ele><time>2026-04-08T09:19:16.734Z</time></trkpt><trkpt lat="45.7209517" lon="9.10256"><ele>262.0</ele><time>2026-04-08T09:19:17.735Z</time></trkpt><trkpt lat="45.72084" lon="9.102405"><ele>260.75</ele><time>2026-04-08T09:19:18.734Z</time></trkpt><trkpt lat="45.7207333" lon="9.10226"><ele>259.5</ele><time>2026-04-08T09:19:19.735Z</time></trkpt><trkpt lat="45.7206367" lon="9.1021183"><ele>258.25</ele><time>2026-04-08T09:19:20.735Z</time></trkpt><trkpt lat="45.7205467" lon="9.1019867"><ele>257.0</ele><time>2026-04-08T09:19:21.735Z</time></trkpt><trkpt lat="45.72047" lon="9.1018783"><ele>257.0</ele><time>2026-04-08T09:19:22.735Z</time></trkpt><trkpt lat="45.7204083" lon="9.101785"><ele>257.0</ele><time>2026-04-08T09:19:23.735Z</time></trkpt><trkpt lat="45.72036" lon="9.1017117"><ele>257.0</ele><time>2026-04-08T09:19:24.735Z</time></trkpt><trkpt lat="45.7203083" lon="9.1015817"><ele>257.0</ele><time>2026-04-08T09:19:26.735Z</time></trkpt><trkpt lat="45.7202883" lon="9.10145"><ele>257.0</ele><time>2026-04-08T09:19:28.735Z</time></trkpt><trkpt lat="45.720275" lon="9.1012933"><ele>256.0</ele><time>2026-04-08T09:19:30.735Z</time></trkpt><trkpt lat="45.720225" lon="9.1011817"><ele>255.0</ele><time>2026-04-08T09:19:32.735Z</time></trkpt><trkpt lat="45.72014" lon="9.101135"><ele>254.0</ele><time>2026-04-08T09:19:34.735Z</time></trkpt><trkpt lat="45.7200333" lon="9.1011567"><ele>253.0</ele><time>2026-04-08T09:19:36.734Z</time></trkpt><trkpt lat="45.7199667" lon="9.1011683"><ele>252.00000000000003</ele><time>2026-04-08T09:19:37.735Z</time></trkpt><trkpt lat="45.7198867" lon="9.1011617"><ele>251.0</ele><time>2026-04-08T09:19:38.735Z</time></trkpt><trkpt lat="45.719795" lon="9.1011267"><ele>251.0</ele><time>2026-04-08T09:19:39.735Z</time></trkpt><trkpt lat="45.719695" lon="9.1010767"><ele>251.0</ele><time>2026-04-08T09:19:40.734Z</time></trkpt><trkpt lat="45.71958" lon="9.1010183"><ele>251.0</ele><time>2026-04-08T09:19:41.734Z</time></trkpt><trkpt lat="45.7194617" lon="9.100955"><ele>251.0</ele><time>2026-04-08T09:19:42.735Z</time></trkpt><trkpt lat="45.7193367" lon="9.1008867"><ele>251.0</ele><time>2026-04-08T09:19:43.734Z</time></trkpt><trkpt lat="45.7192117" lon="9.1008117"><ele>251.0</ele><time>2026-04-08T09:19:44.735Z</time></trkpt><trkpt lat="45.7190817" lon="9.100725"><ele>251.0</ele><time>2026-04-08T09:19:45.734Z</time></trkpt><trkpt lat="45.7189483" lon="9.1006467"><ele>251.0</ele><time>2026-04-08T09:19:46.735Z</time></trkpt><trkpt lat="45.718815" lon="9.10057"><ele>250.25</ele><time>2026-04-08T09:19:47.735Z</time></trkpt><trkpt lat="45.7186817" lon="9.100495"><ele>249.5</ele><time>2026-04-08T09:19:48.735Z</time></trkpt><trkpt lat="45.71855" lon="9.1004167"><ele>248.75</ele><time>2026-04-08T09:19:49.734Z</time></trkpt><trkpt lat="45.71842" lon="9.1003417"><ele>248.0</ele><time>2026-04-08T09:19:50.735Z</time></trkpt><trkpt lat="45.7182933" lon="9.1002633"><ele>248.0</ele><time>2026-04-08T09:19:51.735Z</time></trkpt><trkpt lat="45.718165" lon="9.1001783"><ele>248.0</ele><time>2026-04-08T09:19:52.735Z</time></trkpt><trkpt lat="45.71804" lon="9.1001133"><ele>248.0</ele><time>2026-04-08T09:19:53.735Z</time></trkpt><trkpt lat="45.71793" lon="9.1000567"><ele>248.0</ele><time>2026-04-08T09:19:54.735Z</time></trkpt><trkpt lat="45.7178167" lon="9.100015"><ele>248.0</ele><time>2026-04-08T09:19:55.735Z</time></trkpt><trkpt lat="45.7177067" lon="9.099975"><ele>248.0</ele><time>2026-04-08T09:19:56.735Z</time></trkpt><trkpt lat="45.717595" lon="9.0999367"><ele>248.0</ele><time>2026-04-08T09:19:57.735Z</time></trkpt><trkpt lat="45.7174867" lon="9.099895"><ele>248.0</ele><time>2026-04-08T09:19:58.735Z</time></trkpt><trkpt lat="45.7173783" lon="9.0998683"><ele>248.0</ele><time>2026-04-08T09:19:59.735Z</time></trkpt><trkpt lat="45.7172717" lon="9.0998417"><ele>248.0</ele><time>2026-04-08T09:20:00.735Z</time></trkpt><trkpt lat="45.7171783" lon="9.0998217"><ele>248.0</ele><time>2026-04-08T09:20:01.734Z</time></trkpt><trkpt lat="45.71709" lon="9.0998017"><ele>248.0</ele><time>2026-04-08T09:20:02.735Z</time></trkpt><trkpt lat="45.7169983" lon="9.0997833"><ele>248.0</ele><time>2026-04-08T09:20:03.735Z</time></trkpt><trkpt lat="45.7169033" lon="9.0997633"><ele>248.60000000000002</ele><time>2026-04-08T09:20:04.734Z</time></trkpt><trkpt lat="45.7168133" lon="9.0997383"><ele>249.20000000000002</ele><time>2026-04-08T09:20:05.734Z</time></trkpt><trkpt lat="45.7167283" lon="9.09972"><ele>249.8</ele><time>2026-04-08T09:20:06.735Z</time></trkpt><trkpt lat="45.7166433" lon="9.09971"><ele>250.4</ele><time>2026-04-08T09:20:07.735Z</time></trkpt><trkpt lat="45.7165517" lon="9.0997"><ele>251.0</ele><time>2026-04-08T09:20:08.735Z</time></trkpt><trkpt lat="45.7164533" lon="9.0996983"><ele>251.0</ele><time>2026-04-08T09:20:09.735Z</time></trkpt><trkpt lat="45.7163533" lon="9.099715"><ele>251.00000000000003</ele><time>2026-04-08T09:20:10.734Z</time></trkpt><trkpt lat="45.7162617" lon="9.09973"><ele>251.00000000000003</ele><time>2026-04-08T09:20:11.735Z</time></trkpt><trkpt lat="45.7161633" lon="9.099745"><ele>251.0</ele><time>2026-04-08T09:20:12.735Z</time></trkpt><trkpt lat="45.71607" lon="9.0997517"><ele>251.0</ele><time>2026-04-08T09:20:13.735Z</time></trkpt><trkpt lat="45.715975" lon="9.099755"><ele>250.8</ele><time>2026-04-08T09:20:14.734Z</time></trkpt><trkpt lat="45.7158783" lon="9.0997617"><ele>250.60000000000002</ele><time>2026-04-08T09:20:15.735Z</time></trkpt><trkpt lat="45.71577" lon="9.0997567"><ele>250.4</ele><time>2026-04-08T09:20:16.734Z</time></trkpt><trkpt lat="45.715655" lon="9.0997517"><ele>250.2</ele><time>2026-04-08T09:20:17.735Z</time></trkpt><trkpt lat="45.71554" lon="9.0997483"><ele>250.0</ele><time>2026-04-08T09:20:18.735Z</time></trkpt><trkpt lat="45.7154233" lon="9.09974"><ele>250.0</ele><time>2026-04-08T09:20:19.735Z</time></trkpt><trkpt lat="45.7152967" lon="9.09972"><ele>250.0</ele><time>2026-04-08T09:20:20.735Z</time></trkpt><trkpt lat="45.71517" lon="9.0997117"><ele>250.0</ele><time>2026-04-08T09:20:21.734Z</time></trkpt><trkpt lat="45.71504" lon="9.0997033"><ele>250.0</ele><time>2026-04-08T09:20:22.735Z</time></trkpt><trkpt lat="45.7149117" lon="9.09968"><ele>249.5</ele><time>2026-04-08T09:20:23.735Z</time></trkpt><trkpt lat="45.71478" lon="9.099655"><ele>249.0</ele><time>2026-04-08T09:20:24.735Z</time></trkpt><trkpt lat="45.7146583" lon="9.0996067"><ele>248.5</ele><time>2026-04-08T09:20:25.734Z</time></trkpt><trkpt lat="45.7145417" lon="9.0995367"><ele>248.0</ele><time>2026-04-08T09:20:26.735Z</time></trkpt><trkpt lat="45.71442" lon="9.0994667"><ele>248.25</ele><time>2026-04-08T09:20:27.735Z</time></trkpt><trkpt lat="45.7142967" lon="9.099405"><ele>248.5</ele><time>2026-04-08T09:20:28.735Z</time></trkpt><trkpt lat="45.7141717" lon="9.0993433"><ele>248.75</ele><time>2026-04-08T09:20:29.734Z</time></trkpt><trkpt lat="45.7140417" lon="9.099285"><ele>249.0</ele><time>2026-04-08T09:20:30.735Z</time></trkpt><trkpt lat="45.7139133" lon="9.0992283"><ele>249.0</ele><time>2026-04-08T09:20:31.735Z</time></trkpt><trkpt lat="45.7137883" lon="9.099165"><ele>249.0</ele><time>2026-04-08T09:20:32.734Z</time></trkpt><trkpt lat="45.713675" lon="9.0991033"><ele>249.0</ele><time>2026-04-08T09:20:33.735Z</time></trkpt><trkpt lat="45.71355" lon="9.0990583"><ele>249.0</ele><time>2026-04-08T09:20:34.735Z</time></trkpt><trkpt lat="45.7134233" lon="9.0990183"><ele>249.39999999999998</ele><time>2026-04-08T09:20:35.735Z</time></trkpt><trkpt lat="45.71331" lon="9.0989783"><ele>249.79999999999998</ele><time>2026-04-08T09:20:36.735Z</time></trkpt><trkpt lat="45.7132" lon="9.09897"><ele>250.20000000000002</ele><time>2026-04-08T09:20:37.735Z</time></trkpt><trkpt lat="45.7130917" lon="9.0989583"><ele>250.60000000000002</ele><time>2026-04-08T09:20:38.735Z</time></trkpt><trkpt lat="45.71299" lon="9.098935"><ele>251.0</ele><time>2026-04-08T09:20:39.734Z</time></trkpt><trkpt lat="45.7128967" lon="9.0988933"><ele>251.0</ele><time>2026-04-08T09:20:40.734Z</time></trkpt><trkpt lat="45.7128133" lon="9.0988367"><ele>251.00000000000003</ele><time>2026-04-08T09:20:41.734Z</time></trkpt><trkpt lat="45.7127367" lon="9.0987533"><ele>251.00000000000003</ele><time>2026-04-08T09:20:42.735Z</time></trkpt><trkpt lat="45.7126833" lon="9.0986433"><ele>251.0</ele><time>2026-04-08T09:20:43.735Z</time></trkpt><trkpt lat="45.7126333" lon="9.0985183"><ele>251.0</ele><time>2026-04-08T09:20:44.735Z</time></trkpt><trkpt lat="45.7125867" lon="9.0983883"><ele>251.0</ele><time>2026-04-08T09:20:45.734Z</time></trkpt><trkpt lat="45.7125533" lon="9.0982517"><ele>251.00000000000003</ele><time>2026-04-08T09:20:46.734Z</time></trkpt><trkpt lat="45.7125367" lon="9.0981067"><ele>251.00000000000003</ele><time>2026-04-08T09:20:47.734Z</time></trkpt><trkpt lat="45.71254" lon="9.09796"><ele>251.0</ele><time>2026-04-08T09:20:48.735Z</time></trkpt><trkpt lat="45.712545" lon="9.0978117"><ele>251.0</ele><time>2026-04-08T09:20:49.734Z</time></trkpt><trkpt lat="45.71256" lon="9.0976617"><ele>252.25</ele><time>2026-04-08T09:20:50.735Z</time></trkpt><trkpt lat="45.7125933" lon="9.097515"><ele>253.5</ele><time>2026-04-08T09:20:51.735Z</time></trkpt><trkpt lat="45.7126417" lon="9.0973717"><ele>254.75</ele><time>2026-04-08T09:20:52.735Z</time></trkpt><trkpt lat="45.7127083" lon="9.0972417"><ele>256.0</ele><time>2026-04-08T09:20:53.735Z</time></trkpt><trkpt lat="45.7127967" lon="9.09712"><ele>258.25</ele><time>2026-04-08T09:20:54.735Z</time></trkpt><trkpt lat="45.7128983" lon="9.0970067"><ele>260.5</ele><time>2026-04-08T09:20:55.734Z</time></trkpt><trkpt lat="45.7130133" lon="9.0969017"><ele>262.75</ele><time>2026-04-08T09:20:56.735Z</time></trkpt><trkpt lat="45.71313" lon="9.0968217"><ele>265.0</ele><time>2026-04-08T09:20:57.735Z</time></trkpt><trkpt lat="45.7132533" lon="9.0967533"><ele>265.0</ele><time>2026-04-08T09:20:58.735Z</time></trkpt><trkpt lat="45.7133733" lon="9.0967017"><ele>265.0</ele><time>2026-04-08T09:20:59.735Z</time></trkpt><trkpt lat="45.7135033" lon="9.0966517"><ele>265.0</ele><time>2026-04-08T09:21:00.735Z</time></trkpt><trkpt lat="45.7136417" lon="9.09661"><ele>265.0</ele><time>2026-04-08T09:21:01.735Z</time></trkpt><trkpt lat="45.7137767" lon="9.0965617"><ele>265.5</ele><time>2026-04-08T09:21:02.735Z</time></trkpt><trkpt lat="45.7139083" lon="9.0965083"><ele>266.0</ele><time>2026-04-08T09:21:03.735Z</time></trkpt><trkpt lat="45.7140233" lon="9.0964683"><ele>266.5</ele><time>2026-04-08T09:21:04.735Z</time></trkpt><trkpt lat="45.71413" lon="9.0964267"><ele>267.0</ele><time>2026-04-08T09:21:05.734Z</time></trkpt><trkpt lat="45.7142267" lon="9.0963683"><ele>267.0</ele><time>2026-04-08T09:21:06.734Z</time></trkpt><trkpt lat="45.71432" lon="9.0963017"><ele>267.0</ele><time>2026-04-08T09:21:07.734Z</time></trkpt><trkpt lat="45.7143967" lon="9.0962083"><ele>267.0</ele><time>2026-04-08T09:21:08.734Z</time></trkpt><trkpt lat="45.7144567" lon="9.0961083"><ele>267.0</ele><time>2026-04-08T09:21:09.735Z</time></trkpt><trkpt lat="45.714495" lon="9.09599"><ele>267.0</ele><time>2026-04-08T09:21:10.734Z</time></trkpt><trkpt lat="45.7145133" lon="9.0958617"><ele>269.1666666666667</ele><time>2026-04-08T09:21:11.735Z</time></trkpt><trkpt lat="45.7145167" lon="9.0957283"><ele>271.3333333333333</ele><time>2026-04-08T09:21:12.735Z</time></trkpt><trkpt lat="45.71451" lon="9.0956"><ele>273.5</ele><time>2026-04-08T09:21:13.735Z</time></trkpt><trkpt lat="45.7144983" lon="9.0954733"><ele>275.66666666666663</ele><time>2026-04-08T09:21:14.735Z</time></trkpt><trkpt lat="45.7144733" lon="9.0953667"><ele>277.8333333333333</ele><time>2026-04-08T09:21:15.734Z</time></trkpt><trkpt lat="45.7144333" lon="9.0952767"><ele>280.0</ele><time>2026-04-08T09:21:16.735Z</time></trkpt><trkpt lat="45.7143517" lon="9.0952217"><ele>280.2</ele><time>2026-04-08T09:21:17.734Z</time></trkpt><trkpt lat="45.7142667" lon="9.0951583"><ele>280.4</ele><time>2026-04-08T09:21:18.735Z</time></trkpt><trkpt lat="45.7141817" lon="9.09511"><ele>280.6</ele><time>2026-04-08T09:21:19.735Z</time></trkpt><trkpt lat="45.7140767" lon="9.0950833"><ele>280.8</ele><time>2026-04-08T09:21:20.735Z</time></trkpt><trkpt lat="45.7139633" lon="9.0950767"><ele>281.0</ele><time>2026-04-08T09:21:21.734Z</time></trkpt><trkpt lat="45.7138417" lon="9.0950567"><ele>281.0</ele><time>2026-04-08T09:21:22.735Z</time></trkpt><trkpt lat="45.7137133" lon="9.095065"><ele>281.0</ele><time>2026-04-08T09:21:23.735Z</time></trkpt><trkpt lat="45.713575" lon="9.0950783"><ele>281.0</ele><time>2026-04-08T09:21:24.735Z</time></trkpt><trkpt lat="45.7134367" lon="9.0950817"><ele>281.0</ele><time>2026-04-08T09:21:25.734Z</time></trkpt><trkpt lat="45.713285" lon="9.095085"><ele>283.0</ele><time>2026-04-08T09:21:26.734Z</time></trkpt><trkpt lat="45.71312" lon="9.09509"><ele>285.0</ele><time>2026-04-08T09:21:27.734Z</time></trkpt><trkpt lat="45.7129533" lon="9.0951"><ele>287.0</ele><time>2026-04-08T09:21:28.735Z</time></trkpt><trkpt lat="45.7127817" lon="9.09511"><ele>287.0</ele><time>2026-04-08T09:21:29.735Z</time></trkpt><trkpt lat="45.712605" lon="9.095115"><ele>287.0</ele><time>2026-04-08T09:21:30.734Z</time></trkpt><trkpt lat="45.7124217" lon="9.0951217"><ele>287.0</ele><time>2026-04-08T09:21:31.734Z</time></trkpt><trkpt lat="45.71225" lon="9.0951183"><ele>287.0</ele><time>2026-04-08T09:21:32.735Z</time></trkpt><trkpt lat="45.7120717" lon="9.0951067"><ele>287.0</ele><time>2026-04-08T09:21:33.734Z</time></trkpt><trkpt lat="45.7119017" lon="9.09509"><ele>287.0</ele><time>2026-04-08T09:21:34.735Z</time></trkpt><trkpt lat="45.7117333" lon="9.0950917"><ele>287.6666666666667</ele><time>2026-04-08T09:21:35.735Z</time></trkpt><trkpt lat="45.711575" lon="9.0951017"><ele>288.3333333333333</ele><time>2026-04-08T09:21:36.735Z</time></trkpt><trkpt lat="45.711415" lon="9.0951017"><ele>289.0</ele><time>2026-04-08T09:21:37.735Z</time></trkpt><trkpt lat="45.7112517" lon="9.0950983"><ele>289.0</ele><time>2026-04-08T09:21:38.735Z</time></trkpt><trkpt lat="45.711095" lon="9.0950967"><ele>289.0</ele><time>2026-04-08T09:21:39.735Z</time></trkpt><trkpt lat="45.7109467" lon="9.0950967"><ele>289.0</ele><time>2026-04-08T09:21:40.735Z</time></trkpt><trkpt lat="45.7108117" lon="9.0950983"><ele>289.0</ele><time>2026-04-08T09:21:41.735Z</time></trkpt><trkpt lat="45.7106733" lon="9.09511"><ele>289.59999999999997</ele><time>2026-04-08T09:21:42.735Z</time></trkpt><trkpt lat="45.7105467" lon="9.0951167"><ele>290.2</ele><time>2026-04-08T09:21:43.735Z</time></trkpt><trkpt lat="45.71044" lon="9.0951033"><ele>290.79999999999995</ele><time>2026-04-08T09:21:44.735Z</time></trkpt><trkpt lat="45.71034" lon="9.095075"><ele>291.4</ele><time>2026-04-08T09:21:45.734Z</time></trkpt><trkpt lat="45.7102433" lon="9.09503"><ele>292.0</ele><time>2026-04-08T09:21:46.735Z</time></trkpt><trkpt lat="45.710155" lon="9.0949733"><ele>292.8</ele><time>2026-04-08T09:21:47.734Z</time></trkpt><trkpt lat="45.710085" lon="9.0948717"><ele>293.6</ele><time>2026-04-08T09:21:48.734Z</time></trkpt><trkpt lat="45.7100217" lon="9.0947683"><ele>294.40000000000003</ele><time>2026-04-08T09:21:49.733Z</time></trkpt><trkpt lat="45.70998" lon="9.094645"><ele>295.2</ele><time>2026-04-08T09:21:50.734Z</time></trkpt><trkpt lat="45.7099533" lon="9.0945183"><ele>296.0</ele><time>2026-04-08T09:21:51.733Z</time></trkpt><trkpt lat="45.709935" lon="9.09438"><ele>296.0</ele><time>2026-04-08T09:21:52.733Z</time></trkpt><trkpt lat="45.7099217" lon="9.0942267"><ele>296.0</ele><time>2026-04-08T09:21:53.734Z</time></trkpt><trkpt lat="45.709915" lon="9.0940667"><ele>296.0</ele><time>2026-04-08T09:21:54.734Z</time></trkpt><trkpt lat="45.7099" lon="9.0939067"><ele>296.0</ele><time>2026-04-08T09:21:55.734Z</time></trkpt><trkpt lat="45.7098783" lon="9.093755"><ele>296.0</ele><time>2026-04-08T09:21:56.733Z</time></trkpt><trkpt lat="45.7098383" lon="9.093635"><ele>296.2</ele><time>2026-04-08T09:21:57.733Z</time></trkpt><trkpt lat="45.7097767" lon="9.09353"><ele>296.40000000000003</ele><time>2026-04-08T09:21:58.734Z</time></trkpt><trkpt lat="45.7097017" lon="9.09343"><ele>296.6</ele><time>2026-04-08T09:21:59.734Z</time></trkpt><trkpt lat="45.7096267" lon="9.0933267"><ele>296.8</ele><time>2026-04-08T09:22:00.733Z</time></trkpt><trkpt lat="45.70955" lon="9.0932333"><ele>297.0</ele><time>2026-04-08T09:22:01.733Z</time></trkpt><trkpt lat="45.7094683" lon="9.0931467"><ele>300.4</ele><time>2026-04-08T09:22:02.733Z</time></trkpt><trkpt lat="45.7093767" lon="9.0930833"><ele>303.79999999999995</ele><time>2026-04-08T09:22:03.734Z</time></trkpt><trkpt lat="45.7092817" lon="9.0930433"><ele>307.2</ele><time>2026-04-08T09:22:04.734Z</time></trkpt><trkpt lat="45.7091867" lon="9.0930233"><ele>310.59999999999997</ele><time>2026-04-08T09:22:05.734Z</time></trkpt><trkpt lat="45.70909" lon="9.09304"><ele>314.0</ele><time>2026-04-08T09:22:06.734Z</time></trkpt><trkpt lat="45.7089933" lon="9.0930867"><ele>314.0</ele><time>2026-04-08T09:22:07.733Z</time></trkpt><trkpt lat="45.70889" lon="9.09314"><ele>314.0</ele><time>2026-04-08T09:22:08.734Z</time></trkpt><trkpt lat="45.7087833" lon="9.093205"><ele>314.0</ele><time>2026-04-08T09:22:09.734Z</time></trkpt><trkpt lat="45.70867" lon="9.0932683"><ele>314.0</ele><time>2026-04-08T09:22:10.733Z</time></trkpt><trkpt lat="45.70855" lon="9.0933367"><ele>312.5</ele><time>2026-04-08T09:22:11.734Z</time></trkpt><trkpt lat="45.708425" lon="9.0934"><ele>311.0</ele><time>2026-04-08T09:22:12.734Z</time></trkpt><trkpt lat="45.7083017" lon="9.0934517"><ele>309.5</ele><time>2026-04-08T09:22:13.734Z</time></trkpt><trkpt lat="45.7081717" lon="9.0934917"><ele>308.0</ele><time>2026-04-08T09:22:14.734Z</time></trkpt><trkpt lat="45.708035" lon="9.0935317"><ele>308.0</ele><time>2026-04-08T09:22:15.734Z</time></trkpt><trkpt lat="45.7078933" lon="9.0935633"><ele>308.0</ele><time>2026-04-08T09:22:16.734Z</time></trkpt><trkpt lat="45.7077433" lon="9.0935967"><ele>308.0</ele><time>2026-04-08T09:22:17.734Z</time></trkpt><trkpt lat="45.7075883" lon="9.093625"><ele>308.75</ele><time>2026-04-08T09:22:18.734Z</time></trkpt><trkpt lat="45.7074333" lon="9.093645"><ele>309.5</ele><time>2026-04-08T09:22:19.733Z</time></trkpt><trkpt lat="45.7072917" lon="9.0936783"><ele>310.25</ele><time>2026-04-08T09:22:20.734Z</time></trkpt><trkpt lat="45.70716" lon="9.093715"><ele>311.0</ele><time>2026-04-08T09:22:21.733Z</time></trkpt><trkpt lat="45.7070333" lon="9.0937417"><ele>311.0</ele><time>2026-04-08T09:22:22.734Z</time></trkpt><trkpt lat="45.706915" lon="9.0937583"><ele>311.0</ele><time>2026-04-08T09:22:23.733Z</time></trkpt><trkpt lat="45.706795" lon="9.0937717"><ele>311.0</ele><time>2026-04-08T09:22:24.734Z</time></trkpt><trkpt lat="45.7066683" lon="9.0937667"><ele>311.0</ele><time>2026-04-08T09:22:25.734Z</time></trkpt><trkpt lat="45.7065367" lon="9.09375"><ele>310.75</ele><time>2026-04-08T09:22:26.734Z</time></trkpt><trkpt lat="45.7064167" lon="9.0937383"><ele>310.5</ele><time>2026-04-08T09:22:27.734Z</time></trkpt><trkpt lat="45.7062983" lon="9.0937433"><ele>310.25</ele><time>2026-04-08T09:22:28.734Z</time></trkpt><trkpt lat="45.7061833" lon="9.0937583"><ele>310.0</ele><time>2026-04-08T09:22:29.734Z</time></trkpt><trkpt lat="45.70607" lon="9.0937883"><ele>310.0</ele><time>2026-04-08T09:22:30.734Z</time></trkpt><trkpt lat="45.7059467" lon="9.0938283"><ele>310.0</ele><time>2026-04-08T09:22:31.734Z</time></trkpt><trkpt lat="45.705835" lon="9.0938917"><ele>310.0</ele><time>2026-04-08T09:22:32.734Z</time></trkpt><trkpt lat="45.70573" lon="9.0939467"><ele>310.0</ele><time>2026-04-08T09:22:33.734Z</time></trkpt><trkpt lat="45.7056333" lon="9.094005"><ele>310.0</ele><time>2026-04-08T09:22:34.734Z</time></trkpt><trkpt lat="45.7055483" lon="9.0940583"><ele>310.0</ele><time>2026-04-08T09:22:35.734Z</time></trkpt><trkpt lat="45.705465" lon="9.0941017"><ele>310.0</ele><time>2026-04-08T09:22:36.734Z</time></trkpt><trkpt lat="45.7053783" lon="9.094135"><ele>310.0</ele><time>2026-04-08T09:22:37.734Z</time></trkpt><trkpt lat="45.7052983" lon="9.09416"><ele>310.0</ele><time>2026-04-08T09:22:38.734Z</time></trkpt><trkpt lat="45.7052233" lon="9.0941717"><ele>310.0</ele><time>2026-04-08T09:22:39.733Z</time></trkpt><trkpt lat="45.7051017" lon="9.0941333"><ele>309.3333333333333</ele><time>2026-04-08T09:22:41.734Z</time></trkpt><trkpt lat="45.7050417" lon="9.09409"><ele>308.66666666666663</ele><time>2026-04-08T09:22:42.734Z</time></trkpt><trkpt lat="45.7049933" lon="9.09402"><ele>308.0</ele><time>2026-04-08T09:22:43.734Z</time></trkpt><trkpt lat="45.704945" lon="9.0939333"><ele>307.3333333333333</ele><time>2026-04-08T09:22:44.734Z</time></trkpt><trkpt lat="45.7049" lon="9.0938333"><ele>306.6666666666667</ele><time>2026-04-08T09:22:45.733Z</time></trkpt><trkpt lat="45.70486" lon="9.0937017"><ele>306.0</ele><time>2026-04-08T09:22:46.734Z</time></trkpt><trkpt lat="45.70483" lon="9.0935533"><ele>305.6</ele><time>2026-04-08T09:22:47.734Z</time></trkpt><trkpt lat="45.704795" lon="9.0934033"><ele>305.20000000000005</ele><time>2026-04-08T09:22:48.734Z</time></trkpt><trkpt lat="45.7047617" lon="9.0932533"><ele>304.79999999999995</ele><time>2026-04-08T09:22:49.733Z</time></trkpt><trkpt lat="45.7047267" lon="9.0931067"><ele>304.4</ele><time>2026-04-08T09:22:50.734Z</time></trkpt><trkpt lat="45.704695" lon="9.0929583"><ele>304.0</ele><time>2026-04-08T09:22:51.733Z</time></trkpt><trkpt lat="45.7046633" lon="9.092815"><ele>303.4</ele><time>2026-04-08T09:22:52.734Z</time></trkpt><trkpt lat="45.704635" lon="9.0926817"><ele>302.79999999999995</ele><time>2026-04-08T09:22:53.733Z</time></trkpt><trkpt lat="45.7046117" lon="9.0925533"><ele>302.20000000000005</ele><time>2026-04-08T09:22:54.734Z</time></trkpt><trkpt lat="45.7045933" lon="9.0924183"><ele>301.6</ele><time>2026-04-08T09:22:55.734Z</time></trkpt><trkpt lat="45.7045617" lon="9.0922917"><ele>301.0</ele><time>2026-04-08T09:22:56.733Z</time></trkpt><trkpt lat="45.7045317" lon="9.09217"><ele>300.8</ele><time>2026-04-08T09:22:57.734Z</time></trkpt><trkpt lat="45.7045167" lon="9.0920483"><ele>300.6</ele><time>2026-04-08T09:22:58.734Z</time></trkpt><trkpt lat="45.7044883" lon="9.09195"><ele>300.4</ele><time>2026-04-08T09:22:59.733Z</time></trkpt><trkpt lat="45.7044517" lon="9.0917917"><ele>300.2</ele><time>2026-04-08T09:23:01.733Z</time></trkpt><trkpt lat="45.704435" lon="9.0916683"><ele>300.0</ele><time>2026-04-08T09:23:03.734Z</time></trkpt><trkpt lat="45.7044267" lon="9.0915467"><ele>300.0</ele><time>2026-04-08T09:23:05.734Z</time></trkpt><trkpt lat="45.70442" lon="9.0914417"><ele>300.0</ele><time>2026-04-08T09:23:07.734Z</time></trkpt><trkpt lat="45.7044267" lon="9.0913117"><ele>300.0</ele><time>2026-04-08T09:23:10.734Z</time></trkpt><trkpt lat="45.70445" lon="9.0912017"><ele>300.0</ele><time>2026-04-08T09:23:13.734Z</time></trkpt><trkpt lat="45.70444" lon="9.09108"><ele>300.0</ele><time>2026-04-08T09:23:15.734Z</time></trkpt><trkpt lat="45.7043717" lon="9.0909817"><ele>300.0</ele><time>2026-04-08T09:23:17.734Z</time></trkpt><trkpt lat="45.7042683" lon="9.09088"><ele>299.6666666666667</ele><time>2026-04-08T09:23:19.733Z</time></trkpt><trkpt lat="45.7042217" lon="9.0907967"><ele>299.3333333333333</ele><time>2026-04-08T09:23:20.734Z</time></trkpt><trkpt lat="45.7041783" lon="9.0907017"><ele>299.0</ele><time>2026-04-08T09:23:21.734Z</time></trkpt><trkpt lat="45.7041383" lon="9.0905867"><ele>298.66666666666663</ele><time>2026-04-08T09:23:22.734Z</time></trkpt><trkpt lat="45.7041083" lon="9.0904683"><ele>298.3333333333333</ele><time>2026-04-08T09:23:23.734Z</time></trkpt><trkpt lat="45.704075" lon="9.0903367"><ele>298.0</ele><time>2026-04-08T09:23:24.734Z</time></trkpt><trkpt lat="45.70405" lon="9.0902067"><ele>298.0</ele><time>2026-04-08T09:23:25.734Z</time></trkpt><trkpt lat="45.7040267" lon="9.090075"><ele>298.0</ele><time>2026-04-08T09:23:26.734Z</time></trkpt><trkpt lat="45.7040067" lon="9.08994"><ele>298.0</ele><time>2026-04-08T09:23:27.733Z</time></trkpt><trkpt lat="45.703975" lon="9.089795"><ele>298.0</ele><time>2026-04-08T09:23:28.734Z</time></trkpt><trkpt lat="45.7039483" lon="9.0896483"><ele>298.0</ele><time>2026-04-08T09:23:29.734Z</time></trkpt><trkpt lat="45.7039217" lon="9.089505"><ele>297.8</ele><time>2026-04-08T09:23:30.733Z</time></trkpt><trkpt lat="45.7038933" lon="9.08935"><ele>297.6</ele><time>2026-04-08T09:23:31.733Z</time></trkpt><trkpt lat="45.7038583" lon="9.0892083"><ele>297.4</ele><time>2026-04-08T09:23:32.734Z</time></trkpt><trkpt lat="45.7038267" lon="9.089065"><ele>297.2</ele><time>2026-04-08T09:23:33.733Z</time></trkpt><trkpt lat="45.703795" lon="9.0889267"><ele>297.0</ele><time>2026-04-08T09:23:34.734Z</time></trkpt><trkpt lat="45.7037633" lon="9.0887867"><ele>296.8</ele><time>2026-04-08T09:23:35.734Z</time></trkpt><trkpt lat="45.7037283" lon="9.0886467"><ele>296.6</ele><time>2026-04-08T09:23:36.733Z</time></trkpt><trkpt lat="45.7037083" lon="9.08851"><ele>296.40000000000003</ele><time>2026-04-08T09:23:37.734Z</time></trkpt><trkpt lat="45.7036783" lon="9.0883533"><ele>296.2</ele><time>2026-04-08T09:23:38.733Z</time></trkpt><trkpt lat="45.70364" lon="9.0882017"><ele>296.0</ele><time>2026-04-08T09:23:39.734Z</time></trkpt><trkpt lat="45.7036067" lon="9.0880667"><ele>296.40000000000003</ele><time>2026-04-08T09:23:40.734Z</time></trkpt><trkpt lat="45.7035733" lon="9.0879383"><ele>296.8</ele><time>2026-04-08T09:23:41.734Z</time></trkpt><trkpt lat="45.7035417" lon="9.0878183"><ele>297.20000000000005</ele><time>2026-04-08T09:23:42.733Z</time></trkpt><trkpt lat="45.7035167" lon="9.0876967"><ele>297.6</ele><time>2026-04-08T09:23:43.734Z</time></trkpt><trkpt lat="45.7034833" lon="9.087565"><ele>298.0</ele><time>2026-04-08T09:23:44.733Z</time></trkpt><trkpt lat="45.7034517" lon="9.0874367"><ele>298.4</ele><time>2026-04-08T09:23:45.734Z</time></trkpt><trkpt lat="45.7034167" lon="9.08731"><ele>298.8</ele><time>2026-04-08T09:23:46.733Z</time></trkpt><trkpt lat="45.703385" lon="9.0871783"><ele>299.2</ele><time>2026-04-08T09:23:47.734Z</time></trkpt><trkpt lat="45.7033517" lon="9.0870417"><ele>299.6</ele><time>2026-04-08T09:23:48.734Z</time></trkpt><trkpt lat="45.703315" lon="9.0868933"><ele>300.0</ele><time>2026-04-08T09:23:49.734Z</time></trkpt><trkpt lat="45.7032867" lon="9.0867433"><ele>300.2</ele><time>2026-04-08T09:23:50.734Z</time></trkpt><trkpt lat="45.703255" lon="9.086585"><ele>300.4</ele><time>2026-04-08T09:23:51.734Z</time></trkpt><trkpt lat="45.70323" lon="9.0864367"><ele>300.6</ele><time>2026-04-08T09:23:52.734Z</time></trkpt><trkpt lat="45.7032033" lon="9.0862967"><ele>300.8</ele><time>2026-04-08T09:23:53.734Z</time></trkpt><trkpt lat="45.7031767" lon="9.0861567"><ele>301.0</ele><time>2026-04-08T09:23:54.734Z</time></trkpt><trkpt lat="45.7031467" lon="9.0860167"><ele>301.0</ele><time>2026-04-08T09:23:55.734Z</time></trkpt><trkpt lat="45.7031167" lon="9.0858733"><ele>301.0</ele><time>2026-04-08T09:23:56.734Z</time></trkpt><trkpt lat="45.70309" lon="9.0857317"><ele>301.0</ele><time>2026-04-08T09:23:57.734Z</time></trkpt><trkpt lat="45.7030617" lon="9.0855917"><ele>301.0</ele><time>2026-04-08T09:23:58.733Z</time></trkpt><trkpt lat="45.70303" lon="9.08546"><ele>301.0</ele><time>2026-04-08T09:23:59.734Z</time></trkpt><trkpt lat="45.7029983" lon="9.085345"><ele>301.16666666666663</ele><time>2026-04-08T09:24:00.734Z</time></trkpt><trkpt lat="45.7029717" lon="9.0852483"><ele>301.3333333333333</ele><time>2026-04-08T09:24:01.734Z</time></trkpt><trkpt lat="45.70293" lon="9.0850867"><ele>301.5</ele><time>2026-04-08T09:24:03.734Z</time></trkpt><trkpt lat="45.7029133" lon="9.0849983"><ele>301.6666666666667</ele><time>2026-04-08T09:24:04.734Z</time></trkpt><trkpt lat="45.70289" lon="9.0849033"><ele>301.83333333333337</ele><time>2026-04-08T09:24:05.734Z</time></trkpt><trkpt lat="45.702865" lon="9.0847917"><ele>302.0</ele><time>2026-04-08T09:24:06.734Z</time></trkpt><trkpt lat="45.7028317" lon="9.0846667"><ele>302.0</ele><time>2026-04-08T09:24:07.734Z</time></trkpt><trkpt lat="45.7027967" lon="9.0845317"><ele>302.0</ele><time>2026-04-08T09:24:08.734Z</time></trkpt><trkpt lat="45.7027583" lon="9.08438"><ele>302.0</ele><time>2026-04-08T09:24:09.734Z</time></trkpt><trkpt lat="45.7027217" lon="9.084225"><ele>302.0</ele><time>2026-04-08T09:24:10.733Z</time></trkpt><trkpt lat="45.7026867" lon="9.0840633"><ele>302.0</ele><time>2026-04-08T09:24:11.734Z</time></trkpt><trkpt lat="45.7026483" lon="9.0839117"><ele>302.1666666666667</ele><time>2026-04-08T09:24:12.734Z</time></trkpt><trkpt lat="45.7026167" lon="9.0837767"><ele>302.33333333333337</ele><time>2026-04-08T09:24:13.734Z</time></trkpt><trkpt lat="45.7025867" lon="9.08364"><ele>302.5</ele><time>2026-04-08T09:24:14.734Z</time></trkpt><trkpt lat="45.7025617" lon="9.083515"><ele>302.6666666666667</ele><time>2026-04-08T09:24:15.734Z</time></trkpt><trkpt lat="45.70255" lon="9.0834067"><ele>302.8333333333333</ele><time>2026-04-08T09:24:16.734Z</time></trkpt><trkpt lat="45.7025367" lon="9.0833133"><ele>303.0</ele><time>2026-04-08T09:24:17.734Z</time></trkpt><trkpt lat="45.702515" lon="9.0831883"><ele>303.1666666666667</ele><time>2026-04-08T09:24:19.734Z</time></trkpt><trkpt lat="45.7025" lon="9.0831"><ele>303.3333333333333</ele><time>2026-04-08T09:24:21.733Z</time></trkpt><trkpt lat="45.7024733" lon="9.0829633"><ele>303.5</ele><time>2026-04-08T09:24:23.734Z</time></trkpt><trkpt lat="45.7024533" lon="9.0828717"><ele>303.66666666666663</ele><time>2026-04-08T09:24:24.734Z</time></trkpt><trkpt lat="45.702435" lon="9.0827767"><ele>303.8333333333333</ele><time>2026-04-08T09:24:25.734Z</time></trkpt><trkpt lat="45.7024117" lon="9.08267"><ele>304.0</ele><time>2026-04-08T09:24:26.734Z</time></trkpt><trkpt lat="45.7023867" lon="9.0825533"><ele>304.0</ele><time>2026-04-08T09:24:27.734Z</time></trkpt><trkpt lat="45.7023617" lon="9.0824333"><ele>304.0</ele><time>2026-04-08T09:24:28.733Z</time></trkpt><trkpt lat="45.702335" lon="9.0823167"><ele>304.0</ele><time>2026-04-08T09:24:29.734Z</time></trkpt><trkpt lat="45.7023083" lon="9.0821967"><ele>304.0</ele><time>2026-04-08T09:24:30.733Z</time></trkpt><trkpt lat="45.7022867" lon="9.0820883"><ele>304.0</ele><time>2026-04-08T09:24:31.733Z</time></trkpt><trkpt lat="45.7022517" lon="9.0819767"><ele>304.0</ele><time>2026-04-08T09:24:32.734Z</time></trkpt><trkpt lat="45.70223" lon="9.0818783"><ele>304.0</ele><time>2026-04-08T09:24:33.733Z</time></trkpt><trkpt lat="45.7021983" lon="9.0817867"><ele>304.0</ele><time>2026-04-08T09:24:34.734Z</time></trkpt><trkpt lat="45.7021667" lon="9.0817017"><ele>304.0</ele><time>2026-04-08T09:24:35.733Z</time></trkpt><trkpt lat="45.70213" lon="9.0815717"><ele>304.0</ele><time>2026-04-08T09:24:37.734Z</time></trkpt><trkpt lat="45.702115" lon="9.0814617"><ele>304.0</ele><time>2026-04-08T09:24:39.734Z</time></trkpt><trkpt lat="45.7021167" lon="9.08136"><ele>304.0</ele><time>2026-04-08T09:24:56.734Z</time></trkpt><trkpt lat="45.702075" lon="9.0812133"><ele>303.66666666666663</ele><time>2026-04-08T09:24:58.734Z</time></trkpt><trkpt lat="45.702045" lon="9.0811267"><ele>303.3333333333333</ele><time>2026-04-08T09:24:59.734Z</time></trkpt><trkpt lat="45.7020217" lon="9.0810317"><ele>303.0</ele><time>2026-04-08T09:25:00.733Z</time></trkpt><trkpt lat="45.7019933" lon="9.080925"><ele>302.6666666666667</ele><time>2026-04-08T09:25:01.734Z</time></trkpt><trkpt lat="45.7019667" lon="9.08081"><ele>302.33333333333337</ele><time>2026-04-08T09:25:02.734Z</time></trkpt><trkpt lat="45.7019417" lon="9.0806917"><ele>302.0</ele><time>2026-04-08T09:25:03.734Z</time></trkpt><trkpt lat="45.7019167" lon="9.080555"><ele>302.0</ele><time>2026-04-08T09:25:04.734Z</time></trkpt><trkpt lat="45.7018867" lon="9.0804117"><ele>302.0</ele><time>2026-04-08T09:25:05.734Z</time></trkpt><trkpt lat="45.7018517" lon="9.0802633"><ele>302.0</ele><time>2026-04-08T09:25:06.734Z</time></trkpt><trkpt lat="45.7018133" lon="9.080105"><ele>302.0</ele><time>2026-04-08T09:25:07.734Z</time></trkpt><trkpt lat="45.70178" lon="9.0799517"><ele>302.0</ele><time>2026-04-08T09:25:08.734Z</time></trkpt><trkpt lat="45.7017467" lon="9.0798033"><ele>302.0</ele><time>2026-04-08T09:25:09.734Z</time></trkpt><trkpt lat="45.7017183" lon="9.0796533"><ele>302.0</ele><time>2026-04-08T09:25:10.734Z</time></trkpt><trkpt lat="45.701685" lon="9.0795017"><ele>302.0</ele><time>2026-04-08T09:25:11.734Z</time></trkpt><trkpt lat="45.7016517" lon="9.07936"><ele>302.0</ele><time>2026-04-08T09:25:12.734Z</time></trkpt><trkpt lat="45.7016083" lon="9.0792267"><ele>302.0</ele><time>2026-04-08T09:25:13.734Z</time></trkpt><trkpt lat="45.7015717" lon="9.0790883"><ele>301.8</ele><time>2026-04-08T09:25:14.734Z</time></trkpt><trkpt lat="45.7015417" lon="9.0789483"><ele>301.6</ele><time>2026-04-08T09:25:15.734Z</time></trkpt><trkpt lat="45.7015083" lon="9.0788033"><ele>301.40000000000003</ele><time>2026-04-08T09:25:16.734Z</time></trkpt><trkpt lat="45.7014733" lon="9.07865"><ele>301.2</ele><time>2026-04-08T09:25:17.734Z</time></trkpt><trkpt lat="45.7014417" lon="9.0784967"><ele>301.0</ele><time>2026-04-08T09:25:18.734Z</time></trkpt><trkpt lat="45.701405" lon="9.07835"><ele>300.8</ele><time>2026-04-08T09:25:19.734Z</time></trkpt><trkpt lat="45.701365" lon="9.0782133"><ele>300.6</ele><time>2026-04-08T09:25:20.733Z</time></trkpt><trkpt lat="45.7013317" lon="9.0780633"><ele>300.4</ele><time>2026-04-08T09:25:21.733Z</time></trkpt><trkpt lat="45.7012983" lon="9.077915"><ele>300.2</ele><time>2026-04-08T09:25:22.734Z</time></trkpt><trkpt lat="45.701265" lon="9.0777683"><ele>300.0</ele><time>2026-04-08T09:25:23.734Z</time></trkpt><trkpt lat="45.7012367" lon="9.077625"><ele>300.0</ele><time>2026-04-08T09:25:24.734Z</time></trkpt><trkpt lat="45.7012083" lon="9.0774867"><ele>300.0</ele><time>2026-04-08T09:25:25.734Z</time></trkpt><trkpt lat="45.701185" lon="9.07734"><ele>300.0</ele><time>2026-04-08T09:25:26.734Z</time></trkpt><trkpt lat="45.70116" lon="9.0771933"><ele>300.0</ele><time>2026-04-08T09:25:27.734Z</time></trkpt><trkpt lat="45.701125" lon="9.0770533"><ele>300.0</ele><time>2026-04-08T09:25:28.734Z</time></trkpt><trkpt lat="45.70109" lon="9.0769067"><ele>300.8</ele><time>2026-04-08T09:25:29.734Z</time></trkpt><trkpt lat="45.701055" lon="9.0767583"><ele>301.6</ele><time>2026-04-08T09:25:30.733Z</time></trkpt><trkpt lat="45.7010217" lon="9.0766017"><ele>302.4</ele><time>2026-04-08T09:25:31.734Z</time></trkpt><trkpt lat="45.7009817" lon="9.0764583"><ele>303.2</ele><time>2026-04-08T09:25:32.734Z</time></trkpt><trkpt lat="45.7009467" lon="9.07633"><ele>304.0</ele><time>2026-04-08T09:25:33.733Z</time></trkpt><trkpt lat="45.70091" lon="9.0762033"><ele>304.0</ele><time>2026-04-08T09:25:34.733Z</time></trkpt><trkpt lat="45.70086" lon="9.076085"><ele>304.0</ele><time>2026-04-08T09:25:35.734Z</time></trkpt><trkpt lat="45.7007933" lon="9.0759683"><ele>304.0</ele><time>2026-04-08T09:25:36.733Z</time></trkpt><trkpt lat="45.700715" lon="9.0758483"><ele>304.0</ele><time>2026-04-08T09:25:37.734Z</time></trkpt><trkpt lat="45.7006467" lon="9.075725"><ele>304.0</ele><time>2026-04-08T09:25:38.734Z</time></trkpt><trkpt lat="45.7005767" lon="9.075595"><ele>304.25</ele><time>2026-04-08T09:25:39.734Z</time></trkpt><trkpt lat="45.70051" lon="9.0754567"><ele>304.5</ele><time>2026-04-08T09:25:40.734Z</time></trkpt><trkpt lat="45.7004417" lon="9.0753183"><ele>304.75</ele><time>2026-04-08T09:25:41.733Z</time></trkpt><trkpt lat="45.70037" lon="9.0751783"><ele>305.0</ele><time>2026-04-08T09:25:42.734Z</time></trkpt><trkpt lat="45.7002933" lon="9.0750467"><ele>304.75</ele><time>2026-04-08T09:25:43.734Z</time></trkpt><trkpt lat="45.7002183" lon="9.0749133"><ele>304.5</ele><time>2026-04-08T09:25:44.734Z</time></trkpt><trkpt lat="45.7001433" lon="9.074775"><ele>304.25</ele><time>2026-04-08T09:25:45.734Z</time></trkpt><trkpt lat="45.7000667" lon="9.0746317"><ele>304.0</ele><time>2026-04-08T09:25:46.733Z</time></trkpt><trkpt lat="45.6999883" lon="9.0744883"><ele>304.0</ele><time>2026-04-08T09:25:47.734Z</time></trkpt><trkpt lat="45.69991" lon="9.0743483"><ele>304.0</ele><time>2026-04-08T09:25:48.734Z</time></trkpt><trkpt lat="45.6998367" lon="9.0742033"><ele>304.0</ele><time>2026-04-08T09:25:49.734Z</time></trkpt><trkpt lat="45.6997733" lon="9.0740717"><ele>304.0</ele><time>2026-04-08T09:25:50.734Z</time></trkpt><trkpt lat="45.6996983" lon="9.0739383"><ele>304.0</ele><time>2026-04-08T09:25:51.734Z</time></trkpt><trkpt lat="45.69963" lon="9.0737967"><ele>304.0</ele><time>2026-04-08T09:25:52.734Z</time></trkpt><trkpt lat="45.6995583" lon="9.073655"><ele>304.0</ele><time>2026-04-08T09:25:53.733Z</time></trkpt><trkpt lat="45.699505" lon="9.0734933"><ele>304.0</ele><time>2026-04-08T09:25:54.734Z</time></trkpt><trkpt lat="45.6994483" lon="9.073345"><ele>302.5</ele><time>2026-04-08T09:25:55.734Z</time></trkpt><trkpt lat="45.6993833" lon="9.0732117"><ele>301.0</ele><time>2026-04-08T09:25:56.734Z</time></trkpt><trkpt lat="45.6993217" lon="9.0730667"><ele>299.5</ele><time>2026-04-08T09:25:57.733Z</time></trkpt><trkpt lat="45.699265" lon="9.0729217"><ele>298.0</ele><time>2026-04-08T09:25:58.734Z</time></trkpt><trkpt lat="45.6992067" lon="9.07278"><ele>298.0</ele><time>2026-04-08T09:25:59.734Z</time></trkpt><trkpt lat="45.6991433" lon="9.0726317"><ele>298.0</ele><time>2026-04-08T09:26:00.733Z</time></trkpt><trkpt lat="45.6990683" lon="9.07249"><ele>298.0</ele><time>2026-04-08T09:26:01.734Z</time></trkpt><trkpt lat="45.6990133" lon="9.07234"><ele>298.0</ele><time>2026-04-08T09:26:02.733Z</time></trkpt><trkpt lat="45.6989467" lon="9.0722"><ele>297.8</ele><time>2026-04-08T09:26:03.734Z</time></trkpt><trkpt lat="45.698885" lon="9.0720617"><ele>297.6</ele><time>2026-04-08T09:26:04.734Z</time></trkpt><trkpt lat="45.6988283" lon="9.0719217"><ele>297.4</ele><time>2026-04-08T09:26:05.734Z</time></trkpt><trkpt lat="45.6987783" lon="9.0717867"><ele>297.2</ele><time>2026-04-08T09:26:06.733Z</time></trkpt><trkpt lat="45.69873" lon="9.0716733"><ele>297.0</ele><time>2026-04-08T09:26:07.733Z</time></trkpt><trkpt lat="45.69869" lon="9.0715833"><ele>296.5</ele><time>2026-04-08T09:26:08.734Z</time></trkpt><trkpt lat="45.69865" lon="9.0715"><ele>296.0</ele><time>2026-04-08T09:26:09.734Z</time></trkpt><trkpt lat="45.6986067" lon="9.0714167"><ele>295.5</ele><time>2026-04-08T09:26:10.734Z</time></trkpt><trkpt lat="45.6985633" lon="9.0713267"><ele>295.0</ele><time>2026-04-08T09:26:11.733Z</time></trkpt><trkpt lat="45.6985183" lon="9.071225"><ele>294.5</ele><time>2026-04-08T09:26:12.734Z</time></trkpt><trkpt lat="45.6984683" lon="9.0711117"><ele>294.0</ele><time>2026-04-08T09:26:13.734Z</time></trkpt><trkpt lat="45.6984183" lon="9.07099"><ele>293.4</ele><time>2026-04-08T09:26:14.734Z</time></trkpt><trkpt lat="45.6983633" lon="9.0708533"><ele>292.79999999999995</ele><time>2026-04-08T09:26:15.734Z</time></trkpt><trkpt lat="45.6983083" lon="9.0707133"><ele>292.20000000000005</ele><time>2026-04-08T09:26:16.734Z</time></trkpt><trkpt lat="45.6982567" lon="9.07057"><ele>291.6</ele><time>2026-04-08T09:26:17.734Z</time></trkpt><trkpt lat="45.6982083" lon="9.0704283"><ele>291.0</ele><time>2026-04-08T09:26:18.734Z</time></trkpt><trkpt lat="45.6981583" lon="9.0702967"><ele>290.40000000000003</ele><time>2026-04-08T09:26:19.733Z</time></trkpt><trkpt lat="45.6981067" lon="9.0701717"><ele>289.8</ele><time>2026-04-08T09:26:20.734Z</time></trkpt><trkpt lat="45.6980533" lon="9.0700617"><ele>289.20000000000005</ele><time>2026-04-08T09:26:21.734Z</time></trkpt><trkpt lat="45.6980067" lon="9.069965"><ele>288.6</ele><time>2026-04-08T09:26:22.734Z</time></trkpt><trkpt lat="45.6979683" lon="9.0698867"><ele>288.0</ele><time>2026-04-08T09:26:23.734Z</time></trkpt><trkpt lat="45.697905" lon="9.069765"><ele>286.8333333333333</ele><time>2026-04-08T09:26:25.733Z</time></trkpt><trkpt lat="45.6978617" lon="9.069685"><ele>285.6666666666667</ele><time>2026-04-08T09:26:28.734Z</time></trkpt><trkpt lat="45.697785" lon="9.0696283"><ele>284.5</ele><time>2026-04-08T09:26:37.734Z</time></trkpt><trkpt lat="45.6977033" lon="9.069645"><ele>283.33333333333337</ele><time>2026-04-08T09:26:39.734Z</time></trkpt><trkpt lat="45.697625" lon="9.069735"><ele>282.1666666666667</ele><time>2026-04-08T09:26:41.734Z</time></trkpt><trkpt lat="45.6975767" lon="9.0697967"><ele>281.0</ele><time>2026-04-08T09:26:42.734Z</time></trkpt><trkpt lat="45.6975183" lon="9.0698583"><ele>280.8</ele><time>2026-04-08T09:26:43.734Z</time></trkpt><trkpt lat="45.6974017" lon="9.0699283"><ele>280.6</ele><time>2026-04-08T09:26:45.734Z</time></trkpt><trkpt lat="45.6972817" lon="9.0699533"><ele>280.4</ele><time>2026-04-08T09:26:47.733Z</time></trkpt><trkpt lat="45.697215" lon="9.0699617"><ele>280.2</ele><time>2026-04-08T09:26:48.734Z</time></trkpt><trkpt lat="45.6971417" lon="9.0699717"><ele>280.0</ele><time>2026-04-08T09:26:49.733Z</time></trkpt><trkpt lat="45.6970633" lon="9.0699883"><ele>280.4</ele><time>2026-04-08T09:26:50.734Z</time></trkpt><trkpt lat="45.6969833" lon="9.07"><ele>280.8</ele><time>2026-04-08T09:26:51.734Z</time></trkpt><trkpt lat="45.6968983" lon="9.0700067"><ele>281.2</ele><time>2026-04-08T09:26:52.734Z</time></trkpt><trkpt lat="45.6967983" lon="9.0699983"><ele>281.6</ele><time>2026-04-08T09:26:53.734Z</time></trkpt><trkpt lat="45.6967067" lon="9.0700067"><ele>282.0</ele><time>2026-04-08T09:26:54.734Z</time></trkpt><trkpt lat="45.69661" lon="9.0700317"><ele>282.0</ele><time>2026-04-08T09:26:55.733Z</time></trkpt><trkpt lat="45.6965167" lon="9.07006"><ele>282.0</ele><time>2026-04-08T09:26:56.734Z</time></trkpt><trkpt lat="45.696415" lon="9.070085"><ele>282.0</ele><time>2026-04-08T09:26:57.734Z</time></trkpt><trkpt lat="45.6963133" lon="9.070115"><ele>282.0</ele><time>2026-04-08T09:26:58.734Z</time></trkpt><trkpt lat="45.696215" lon="9.0701417"><ele>282.0</ele><time>2026-04-08T09:26:59.734Z</time></trkpt><trkpt lat="45.6961183" lon="9.0701817"><ele>282.0</ele><time>2026-04-08T09:27:00.733Z</time></trkpt><trkpt lat="45.6960217" lon="9.07022"><ele>282.0</ele><time>2026-04-08T09:27:01.734Z</time></trkpt><trkpt lat="45.6959317" lon="9.07026"><ele>282.0</ele><time>2026-04-08T09:27:02.733Z</time></trkpt><trkpt lat="45.695835" lon="9.070295"><ele>282.0</ele><time>2026-04-08T09:27:03.734Z</time></trkpt><trkpt lat="45.6957383" lon="9.0703233"><ele>282.0</ele><time>2026-04-08T09:27:04.734Z</time></trkpt><trkpt lat="45.69564" lon="9.07034"><ele>282.0</ele><time>2026-04-08T09:27:05.734Z</time></trkpt><trkpt lat="45.6955433" lon="9.070365"><ele>282.0</ele><time>2026-04-08T09:27:06.733Z</time></trkpt><trkpt lat="45.6954533" lon="9.0704033"><ele>282.0</ele><time>2026-04-08T09:27:07.734Z</time></trkpt><trkpt lat="45.69537" lon="9.0704417"><ele>282.0</ele><time>2026-04-08T09:27:08.734Z</time></trkpt><trkpt lat="45.6952883" lon="9.070475"><ele>282.0</ele><time>2026-04-08T09:27:09.734Z</time></trkpt><trkpt lat="45.6951967" lon="9.070505"><ele>281.8</ele><time>2026-04-08T09:27:10.734Z</time></trkpt><trkpt lat="45.6951" lon="9.0705383"><ele>281.6</ele><time>2026-04-08T09:27:11.734Z</time></trkpt><trkpt lat="45.6950067" lon="9.070575"><ele>281.40000000000003</ele><time>2026-04-08T09:27:12.734Z</time></trkpt><trkpt lat="45.6949083" lon="9.0706083"><ele>281.2</ele><time>2026-04-08T09:27:13.734Z</time></trkpt><trkpt lat="45.6948" lon="9.0706533"><ele>281.0</ele><time>2026-04-08T09:27:14.733Z</time></trkpt><trkpt lat="45.6947033" lon="9.0706983"><ele>281.0</ele><time>2026-04-08T09:27:15.733Z</time></trkpt><trkpt lat="45.69461" lon="9.07074"><ele>281.0</ele><time>2026-04-08T09:27:16.734Z</time></trkpt><trkpt lat="45.6945267" lon="9.0707767"><ele>281.0</ele><time>2026-04-08T09:27:17.734Z</time></trkpt><trkpt lat="45.6944533" lon="9.070805"><ele>281.0</ele><time>2026-04-08T09:27:18.734Z</time></trkpt><trkpt lat="45.6943483" lon="9.0708567"><ele>281.0</ele><time>2026-04-08T09:27:20.733Z</time></trkpt><trkpt lat="45.6942817" lon="9.0708717"><ele>281.0</ele><time>2026-04-08T09:27:22.733Z</time></trkpt><trkpt lat="45.69419" lon="9.07079"><ele>280.6</ele><time>2026-04-08T09:27:31.734Z</time></trkpt><trkpt lat="45.694155" lon="9.07069"><ele>280.20000000000005</ele><time>2026-04-08T09:27:32.734Z</time></trkpt><trkpt lat="45.6941233" lon="9.070565"><ele>279.79999999999995</ele><time>2026-04-08T09:27:33.734Z</time></trkpt><trkpt lat="45.6940917" lon="9.07042"><ele>279.4</ele><time>2026-04-08T09:27:34.733Z</time></trkpt><trkpt lat="45.694065" lon="9.0702767"><ele>279.0</ele><time>2026-04-08T09:27:35.734Z</time></trkpt><trkpt lat="45.6940417" lon="9.070125"><ele>279.0</ele><time>2026-04-08T09:27:36.734Z</time></trkpt><trkpt lat="45.694015" lon="9.0699617"><ele>279.0</ele><time>2026-04-08T09:27:37.733Z</time></trkpt><trkpt lat="45.6939833" lon="9.0698067"><ele>279.0</ele><time>2026-04-08T09:27:38.734Z</time></trkpt><trkpt lat="45.6939433" lon="9.069645"><ele>279.0</ele><time>2026-04-08T09:27:39.734Z</time></trkpt><trkpt lat="45.6939033" lon="9.0694867"><ele>279.0</ele><time>2026-04-08T09:27:40.734Z</time></trkpt><trkpt lat="45.6938667" lon="9.0693217"><ele>279.0</ele><time>2026-04-08T09:27:41.733Z</time></trkpt><trkpt lat="45.6938283" lon="9.069155"><ele>279.0</ele><time>2026-04-08T09:27:42.734Z</time></trkpt><trkpt lat="45.69378" lon="9.06899"><ele>279.0</ele><time>2026-04-08T09:27:43.734Z</time></trkpt><trkpt lat="45.693725" lon="9.06883"><ele>278.5</ele><time>2026-04-08T09:27:44.734Z</time></trkpt><trkpt lat="45.6936667" lon="9.0686683"><ele>278.0</ele><time>2026-04-08T09:27:45.734Z</time></trkpt><trkpt lat="45.6936017" lon="9.068515"><ele>277.5</ele><time>2026-04-08T09:27:46.734Z</time></trkpt><trkpt lat="45.6935417" lon="9.0683517"><ele>277.0</ele><time>2026-04-08T09:27:47.734Z</time></trkpt><trkpt lat="45.69348" lon="9.0681883"><ele>276.5</ele><time>2026-04-08T09:27:48.734Z</time></trkpt><trkpt lat="45.6934233" lon="9.0680267"><ele>276.0</ele><time>2026-04-08T09:27:49.734Z</time></trkpt><trkpt lat="45.69337" lon="9.0678683"><ele>275.5</ele><time>2026-04-08T09:27:50.734Z</time></trkpt><trkpt lat="45.6933167" lon="9.0677167"><ele>275.0</ele><time>2026-04-08T09:27:51.734Z</time></trkpt><trkpt lat="45.6932667" lon="9.0675717"><ele>274.8</ele><time>2026-04-08T09:27:52.734Z</time></trkpt><trkpt lat="45.6932183" lon="9.0674417"><ele>274.6</ele><time>2026-04-08T09:27:53.734Z</time></trkpt><trkpt lat="45.6931783" lon="9.0673117"><ele>274.4</ele><time>2026-04-08T09:27:54.733Z</time></trkpt><trkpt lat="45.6931433" lon="9.0671983"><ele>274.2</ele><time>2026-04-08T09:27:55.734Z</time></trkpt><trkpt lat="45.6931167" lon="9.0670983"><ele>274.0</ele><time>2026-04-08T09:27:56.734Z</time></trkpt><trkpt lat="45.6930883" lon="9.0669633"><ele>274.00000000000006</ele><time>2026-04-08T09:27:58.734Z</time></trkpt><trkpt lat="45.6930883" lon="9.0668667"><ele>274.0</ele><time>2026-04-08T09:28:00.734Z</time></trkpt><trkpt lat="45.6931033" lon="9.06673"><ele>274.0</ele><time>2026-04-08T09:28:02.734Z</time></trkpt><trkpt lat="45.6931167" lon="9.0666383"><ele>274.0</ele><time>2026-04-08T09:28:03.734Z</time></trkpt><trkpt lat="45.6931267" lon="9.06654"><ele>274.0</ele><time>2026-04-08T09:28:04.733Z</time></trkpt><trkpt lat="45.6931133" lon="9.06644"><ele>274.00000000000006</ele><time>2026-04-08T09:28:05.734Z</time></trkpt><trkpt lat="45.6930817" lon="9.06635"><ele>274.0</ele><time>2026-04-08T09:28:06.734Z</time></trkpt><trkpt lat="45.693025" lon="9.0662733"><ele>274.16666666666663</ele><time>2026-04-08T09:28:07.734Z</time></trkpt><trkpt lat="45.6929567" lon="9.0662183"><ele>274.3333333333333</ele><time>2026-04-08T09:28:08.733Z</time></trkpt><trkpt lat="45.6928833" lon="9.0661567"><ele>274.5</ele><time>2026-04-08T09:28:09.734Z</time></trkpt><trkpt lat="45.69282" lon="9.0660917"><ele>274.6666666666667</ele><time>2026-04-08T09:28:10.734Z</time></trkpt><trkpt lat="45.69276" lon="9.0660133"><ele>274.83333333333337</ele><time>2026-04-08T09:28:11.733Z</time></trkpt><trkpt lat="45.69271" lon="9.0659117"><ele>275.0</ele><time>2026-04-08T09:28:12.734Z</time></trkpt><trkpt lat="45.6926583" lon="9.0657917"><ele>275.75</ele><time>2026-04-08T09:28:13.734Z</time></trkpt><trkpt lat="45.6926067" lon="9.0656617"><ele>276.5</ele><time>2026-04-08T09:28:14.734Z</time></trkpt><trkpt lat="45.6925483" lon="9.0655183"><ele>277.25</ele><time>2026-04-08T09:28:15.734Z</time></trkpt><trkpt lat="45.6924933" lon="9.0653633"><ele>278.0</ele><time>2026-04-08T09:28:16.734Z</time></trkpt><trkpt lat="45.692435" lon="9.06519"><ele>278.0</ele><time>2026-04-08T09:28:17.734Z</time></trkpt><trkpt lat="45.6923733" lon="9.0650067"><ele>278.0</ele><time>2026-04-08T09:28:18.733Z</time></trkpt><trkpt lat="45.6923083" lon="9.06482"><ele>278.0</ele><time>2026-04-08T09:28:19.734Z</time></trkpt><trkpt lat="45.69224" lon="9.0646217"><ele>278.0</ele><time>2026-04-08T09:28:20.734Z</time></trkpt><trkpt lat="45.692165" lon="9.0644217"><ele>278.33333333333337</ele><time>2026-04-08T09:28:21.733Z</time></trkpt><trkpt lat="45.6920933" lon="9.0642167"><ele>278.6666666666667</ele><time>2026-04-08T09:28:22.734Z</time></trkpt><trkpt lat="45.6920217" lon="9.0640117"><ele>279.0</ele><time>2026-04-08T09:28:23.734Z</time></trkpt><trkpt lat="45.69195" lon="9.0638"><ele>278.3333333333333</ele><time>2026-04-08T09:28:24.733Z</time></trkpt><trkpt lat="45.6918717" lon="9.0635867"><ele>277.66666666666663</ele><time>2026-04-08T09:28:25.734Z</time></trkpt><trkpt lat="45.6917983" lon="9.0633833"><ele>277.0</ele><time>2026-04-08T09:28:26.734Z</time></trkpt><trkpt lat="45.6917283" lon="9.0631717"><ele>277.0</ele><time>2026-04-08T09:28:27.734Z</time></trkpt><trkpt lat="45.6916633" lon="9.0629567"><ele>277.0</ele><time>2026-04-08T09:28:28.734Z</time></trkpt><trkpt lat="45.6915917" lon="9.062745"><ele>277.0</ele><time>2026-04-08T09:28:29.733Z</time></trkpt><trkpt lat="45.6915267" lon="9.062535"><ele>277.3333333333333</ele><time>2026-04-08T09:28:30.734Z</time></trkpt><trkpt lat="45.6914583" lon="9.0623317"><ele>277.6666666666667</ele><time>2026-04-08T09:28:31.734Z</time></trkpt><trkpt lat="45.69139" lon="9.0621267"><ele>278.0</ele><time>2026-04-08T09:28:32.734Z</time></trkpt><trkpt lat="45.69132" lon="9.0619233"><ele>278.0</ele><time>2026-04-08T09:28:33.734Z</time></trkpt><trkpt lat="45.6912483" lon="9.0617267"><ele>278.0</ele><time>2026-04-08T09:28:34.733Z</time></trkpt><trkpt lat="45.6911783" lon="9.0615183"><ele>278.0</ele><time>2026-04-08T09:28:35.734Z</time></trkpt><trkpt lat="45.6911083" lon="9.061315"><ele>277.6666666666667</ele><time>2026-04-08T09:28:36.734Z</time></trkpt><trkpt lat="45.69104" lon="9.0611217"><ele>277.3333333333333</ele><time>2026-04-08T09:28:37.734Z</time></trkpt><trkpt lat="45.6909683" lon="9.0609317"><ele>277.0</ele><time>2026-04-08T09:28:38.734Z</time></trkpt><trkpt lat="45.6909083" lon="9.0607383"><ele>276.5</ele><time>2026-04-08T09:28:39.734Z</time></trkpt><trkpt lat="45.6908483" lon="9.0605517"><ele>276.0</ele><time>2026-04-08T09:28:40.734Z</time></trkpt><trkpt lat="45.6907883" lon="9.06037"><ele>275.5</ele><time>2026-04-08T09:28:41.734Z</time></trkpt><trkpt lat="45.6907367" lon="9.0601883"><ele>275.0</ele><time>2026-04-08T09:28:42.734Z</time></trkpt><trkpt lat="45.6906967" lon="9.0600117"><ele>275.25</ele><time>2026-04-08T09:28:43.734Z</time></trkpt><trkpt lat="45.69066" lon="9.05983"><ele>275.5</ele><time>2026-04-08T09:28:44.733Z</time></trkpt><trkpt lat="45.690635" lon="9.0596417"><ele>275.75</ele><time>2026-04-08T09:28:45.734Z</time></trkpt><trkpt lat="45.6906217" lon="9.0594683"><ele>276.0</ele><time>2026-04-08T09:28:46.734Z</time></trkpt><trkpt lat="45.6906183" lon="9.0592967"><ele>276.0</ele><time>2026-04-08T09:28:47.733Z</time></trkpt><trkpt lat="45.6906317" lon="9.059135"><ele>276.0</ele><time>2026-04-08T09:28:48.733Z</time></trkpt><trkpt lat="45.6906433" lon="9.0589783"><ele>276.0</ele><time>2026-04-08T09:28:49.734Z</time></trkpt><trkpt lat="45.6906583" lon="9.0588233"><ele>276.0</ele><time>2026-04-08T09:28:50.734Z</time></trkpt><trkpt lat="45.6906817" lon="9.058675"><ele>276.0</ele><time>2026-04-08T09:28:51.734Z</time></trkpt><trkpt lat="45.6907083" lon="9.0585333"><ele>276.0</ele><time>2026-04-08T09:28:52.734Z</time></trkpt><trkpt lat="45.690745" lon="9.0583983"><ele>276.0</ele><time>2026-04-08T09:28:53.734Z</time></trkpt><trkpt lat="45.6907833" lon="9.0582867"><ele>276.0</ele><time>2026-04-08T09:28:54.734Z</time></trkpt><trkpt lat="45.690825" lon="9.0582117"><ele>276.0</ele><time>2026-04-08T09:28:55.734Z</time></trkpt><trkpt lat="45.6908633" lon="9.0580967"><ele>276.0</ele><time>2026-04-08T09:28:57.734Z</time></trkpt><trkpt lat="45.690915" lon="9.0580167"><ele>276.0</ele><time>2026-04-08T09:29:04.734Z</time></trkpt><trkpt lat="45.6909567" lon="9.0579383"><ele>276.0</ele><time>2026-04-08T09:29:05.734Z</time></trkpt><trkpt lat="45.69099" lon="9.057835"><ele>276.0</ele><time>2026-04-08T09:29:06.733Z</time></trkpt><trkpt lat="45.6910167" lon="9.0577217"><ele>276.0</ele><time>2026-04-08T09:29:07.734Z</time></trkpt><trkpt lat="45.6910383" lon="9.057595"><ele>276.0</ele><time>2026-04-08T09:29:08.734Z</time></trkpt><trkpt lat="45.691065" lon="9.05745"><ele>276.0</ele><time>2026-04-08T09:29:09.734Z</time></trkpt><trkpt lat="45.6910933" lon="9.0572783"><ele>276.0</ele><time>2026-04-08T09:29:10.734Z</time></trkpt><trkpt lat="45.6911183" lon="9.0571133"><ele>276.0</ele><time>2026-04-08T09:29:11.734Z</time></trkpt><trkpt lat="45.691155" lon="9.05695"><ele>276.0</ele><time>2026-04-08T09:29:12.734Z</time></trkpt><trkpt lat="45.6912" lon="9.0567867"><ele>276.0</ele><time>2026-04-08T09:29:13.734Z</time></trkpt><trkpt lat="45.6912433" lon="9.0566133"><ele>276.25</ele><time>2026-04-08T09:29:14.734Z</time></trkpt><trkpt lat="45.6912917" lon="9.05644"><ele>276.5</ele><time>2026-04-08T09:29:15.734Z</time></trkpt><trkpt lat="45.6913417" lon="9.056265"><ele>276.75</ele><time>2026-04-08T09:29:16.734Z</time></trkpt><trkpt lat="45.69139" lon="9.0560867"><ele>277.0</ele><time>2026-04-08T09:29:17.733Z</time></trkpt><trkpt lat="45.6914417" lon="9.055915"><ele>276.5</ele><time>2026-04-08T09:29:18.733Z</time></trkpt><trkpt lat="45.6914917" lon="9.05575"><ele>276.0</ele><time>2026-04-08T09:29:19.733Z</time></trkpt><trkpt lat="45.6915333" lon="9.0555817"><ele>275.5</ele><time>2026-04-08T09:29:20.733Z</time></trkpt><trkpt lat="45.69157" lon="9.05541"><ele>275.0</ele><time>2026-04-08T09:29:21.733Z</time></trkpt><trkpt lat="45.6915933" lon="9.05524"><ele>275.0</ele><time>2026-04-08T09:29:22.733Z</time></trkpt><trkpt lat="45.691605" lon="9.055075"><ele>275.0</ele><time>2026-04-08T09:29:23.733Z</time></trkpt><trkpt lat="45.69161" lon="9.0549217"><ele>275.0</ele><time>2026-04-08T09:29:24.733Z</time></trkpt><trkpt lat="45.6916133" lon="9.05477"><ele>275.0</ele><time>2026-04-08T09:29:25.732Z</time></trkpt><trkpt lat="45.6916083" lon="9.054625"><ele>275.0</ele><time>2026-04-08T09:29:26.733Z</time></trkpt><trkpt lat="45.6916067" lon="9.054485"><ele>275.1666666666667</ele><time>2026-04-08T09:29:27.733Z</time></trkpt><trkpt lat="45.6916083" lon="9.0543517"><ele>275.33333333333337</ele><time>2026-04-08T09:29:28.733Z</time></trkpt><trkpt lat="45.69161" lon="9.0542283"><ele>275.5</ele><time>2026-04-08T09:29:29.733Z</time></trkpt><trkpt lat="45.6916167" lon="9.0541217"><ele>275.6666666666667</ele><time>2026-04-08T09:29:30.732Z</time></trkpt><trkpt lat="45.6916183" lon="9.0540233"><ele>275.8333333333333</ele><time>2026-04-08T09:29:31.733Z</time></trkpt><trkpt lat="45.691605" lon="9.0539267"><ele>276.0</ele><time>2026-04-08T09:29:32.733Z</time></trkpt><trkpt lat="45.6915833" lon="9.05383"><ele>275.5</ele><time>2026-04-08T09:29:33.732Z</time></trkpt><trkpt lat="45.6915517" lon="9.0537333"><ele>275.0</ele><time>2026-04-08T09:29:34.732Z</time></trkpt><trkpt lat="45.6915167" lon="9.0536433"><ele>274.5</ele><time>2026-04-08T09:29:35.732Z</time></trkpt><trkpt lat="45.6914817" lon="9.0535383"><ele>274.0</ele><time>2026-04-08T09:29:36.733Z</time></trkpt><trkpt lat="45.6914567" lon="9.053415"><ele>273.5</ele><time>2026-04-08T09:29:37.733Z</time></trkpt><trkpt lat="45.6914367" lon="9.053275"><ele>273.0</ele><time>2026-04-08T09:29:38.732Z</time></trkpt><trkpt lat="45.6914217" lon="9.05313"><ele>273.0</ele><time>2026-04-08T09:29:39.733Z</time></trkpt><trkpt lat="45.6914" lon="9.0529717"><ele>273.0</ele><time>2026-04-08T09:29:40.733Z</time></trkpt><trkpt lat="45.6913683" lon="9.0527967"><ele>273.0</ele><time>2026-04-08T09:29:41.733Z</time></trkpt><trkpt lat="45.69134" lon="9.05261"><ele>273.0</ele><time>2026-04-08T09:29:42.733Z</time></trkpt><trkpt lat="45.6913133" lon="9.0524133"><ele>272.25</ele><time>2026-04-08T09:29:43.732Z</time></trkpt><trkpt lat="45.6912817" lon="9.0522133"><ele>271.5</ele><time>2026-04-08T09:29:44.733Z</time></trkpt><trkpt lat="45.6912517" lon="9.0520033"><ele>270.75</ele><time>2026-04-08T09:29:45.733Z</time></trkpt><trkpt lat="45.6912167" lon="9.05179"><ele>270.0</ele><time>2026-04-08T09:29:46.733Z</time></trkpt><trkpt lat="45.6911817" lon="9.0515717"><ele>270.3333333333333</ele><time>2026-04-08T09:29:47.732Z</time></trkpt><trkpt lat="45.6911467" lon="9.0513533"><ele>270.66666666666663</ele><time>2026-04-08T09:29:48.732Z</time></trkpt><trkpt lat="45.6911117" lon="9.051135"><ele>271.0</ele><time>2026-04-08T09:29:49.733Z</time></trkpt><trkpt lat="45.6910733" lon="9.05091"><ele>267.66666666666663</ele><time>2026-04-08T09:29:50.733Z</time></trkpt><trkpt lat="45.6910367" lon="9.0506867"><ele>264.3333333333333</ele><time>2026-04-08T09:29:51.733Z</time></trkpt><trkpt lat="45.6910017" lon="9.0504667"><ele>261.0</ele><time>2026-04-08T09:29:52.733Z</time></trkpt><trkpt lat="45.69097" lon="9.0502483"><ele>261.0</ele><time>2026-04-08T09:29:53.732Z</time></trkpt><trkpt lat="45.6909317" lon="9.0500283"><ele>261.0</ele><time>2026-04-08T09:29:54.733Z</time></trkpt><trkpt lat="45.6908933" lon="9.04981"><ele>261.0</ele><time>2026-04-08T09:29:55.732Z</time></trkpt><trkpt lat="45.6908567" lon="9.0495883"><ele>259.3333333333333</ele><time>2026-04-08T09:29:56.732Z</time></trkpt><trkpt lat="45.6908183" lon="9.04937"><ele>257.66666666666663</ele><time>2026-04-08T09:29:57.733Z</time></trkpt><trkpt lat="45.6907833" lon="9.04915"><ele>256.0</ele><time>2026-04-08T09:29:58.733Z</time></trkpt><trkpt lat="45.690755" lon="9.0489367"><ele>256.0</ele><time>2026-04-08T09:29:59.733Z</time></trkpt><trkpt lat="45.690725" lon="9.0487267"><ele>256.0</ele><time>2026-04-08T09:30:00.733Z</time></trkpt><trkpt lat="45.69069" lon="9.0485183"><ele>256.0</ele><time>2026-04-08T09:30:01.733Z</time></trkpt><trkpt lat="45.690655" lon="9.0483167"><ele>256.0</ele><time>2026-04-08T09:30:02.732Z</time></trkpt><trkpt lat="45.690625" lon="9.048115"><ele>256.75</ele><time>2026-04-08T09:30:03.732Z</time></trkpt><trkpt lat="45.6905983" lon="9.0479083"><ele>257.5</ele><time>2026-04-08T09:30:04.732Z</time></trkpt><trkpt lat="45.6905783" lon="9.047705"><ele>258.25</ele><time>2026-04-08T09:30:05.733Z</time></trkpt><trkpt lat="45.6905717" lon="9.047495"><ele>259.0</ele><time>2026-04-08T09:30:06.733Z</time></trkpt><trkpt lat="45.6905717" lon="9.047295"><ele>259.0</ele><time>2026-04-08T09:30:07.732Z</time></trkpt><trkpt lat="45.6905783" lon="9.04709"><ele>259.0</ele><time>2026-04-08T09:30:08.732Z</time></trkpt><trkpt lat="45.6906" lon="9.0468883"><ele>259.0</ele><time>2026-04-08T09:30:09.733Z</time></trkpt><trkpt lat="45.690625" lon="9.0466967"><ele>259.0</ele><time>2026-04-08T09:30:10.732Z</time></trkpt><trkpt lat="45.6906667" lon="9.0464983"><ele>259.75</ele><time>2026-04-08T09:30:11.732Z</time></trkpt><trkpt lat="45.6907117" lon="9.04629"><ele>260.5</ele><time>2026-04-08T09:30:12.732Z</time></trkpt><trkpt lat="45.6907617" lon="9.0460917"><ele>261.25</ele><time>2026-04-08T09:30:13.733Z</time></trkpt><trkpt lat="45.690805" lon="9.0458883"><ele>262.0</ele><time>2026-04-08T09:30:14.732Z</time></trkpt><trkpt lat="45.69085" lon="9.0456833"><ele>263.66666666666663</ele><time>2026-04-08T09:30:15.732Z</time></trkpt><trkpt lat="45.6908917" lon="9.0454783"><ele>265.3333333333333</ele><time>2026-04-08T09:30:16.733Z</time></trkpt><trkpt lat="45.6909417" lon="9.0452717"><ele>267.0</ele><time>2026-04-08T09:30:17.733Z</time></trkpt><trkpt lat="45.69099" lon="9.0450617"><ele>269.0</ele><time>2026-04-08T09:30:18.732Z</time></trkpt><trkpt lat="45.691035" lon="9.0448517"><ele>271.0</ele><time>2026-04-08T09:30:19.733Z</time></trkpt><trkpt lat="45.691085" lon="9.04464"><ele>273.0</ele><time>2026-04-08T09:30:20.733Z</time></trkpt><trkpt lat="45.6911317" lon="9.0444283"><ele>273.6666666666667</ele><time>2026-04-08T09:30:21.733Z</time></trkpt><trkpt lat="45.6911783" lon="9.0442133"><ele>274.33333333333337</ele><time>2026-04-08T09:30:22.732Z</time></trkpt><trkpt lat="45.6912217" lon="9.044005"><ele>275.0</ele><time>2026-04-08T09:30:23.733Z</time></trkpt><trkpt lat="45.6912667" lon="9.0438067"><ele>275.5</ele><time>2026-04-08T09:30:24.733Z</time></trkpt><trkpt lat="45.691305" lon="9.0436083"><ele>276.0</ele><time>2026-04-08T09:30:25.733Z</time></trkpt><trkpt lat="45.6913383" lon="9.0434133"><ele>276.5</ele><time>2026-04-08T09:30:26.733Z</time></trkpt><trkpt lat="45.6913667" lon="9.0432267"><ele>277.0</ele><time>2026-04-08T09:30:27.732Z</time></trkpt><trkpt lat="45.691395" lon="9.0430383"><ele>277.0</ele><time>2026-04-08T09:30:28.732Z</time></trkpt><trkpt lat="45.6914183" lon="9.0428533"><ele>277.0</ele><time>2026-04-08T09:30:29.733Z</time></trkpt><trkpt lat="45.6914333" lon="9.0426783"><ele>277.0</ele><time>2026-04-08T09:30:30.733Z</time></trkpt><trkpt lat="45.69145" lon="9.04251"><ele>277.0</ele><time>2026-04-08T09:30:31.732Z</time></trkpt><trkpt lat="45.69147" lon="9.0423467"><ele>277.0</ele><time>2026-04-08T09:30:32.732Z</time></trkpt><trkpt lat="45.6914867" lon="9.0421883"><ele>277.0</ele><time>2026-04-08T09:30:33.733Z</time></trkpt><trkpt lat="45.6915083" lon="9.0420367"><ele>277.0</ele><time>2026-04-08T09:30:34.732Z</time></trkpt><trkpt lat="45.6915283" lon="9.04189"><ele>277.0</ele><time>2026-04-08T09:30:35.733Z</time></trkpt><trkpt lat="45.6915467" lon="9.04176"><ele>277.0</ele><time>2026-04-08T09:30:36.733Z</time></trkpt><trkpt lat="45.691555" lon="9.041645"><ele>277.0</ele><time>2026-04-08T09:30:37.733Z</time></trkpt><trkpt lat="45.691565" lon="9.04155"><ele>277.0</ele><time>2026-04-08T09:30:38.732Z</time></trkpt><trkpt lat="45.6915783" lon="9.04139"><ele>277.0</ele><time>2026-04-08T09:30:40.732Z</time></trkpt><trkpt lat="45.6915983" lon="9.0412233"><ele>277.0</ele><time>2026-04-08T09:30:42.733Z</time></trkpt><trkpt lat="45.691615" lon="9.0410617"><ele>277.0</ele><time>2026-04-08T09:30:44.733Z</time></trkpt><trkpt lat="45.6916317" lon="9.0409167"><ele>277.0</ele><time>2026-04-08T09:30:46.733Z</time></trkpt><trkpt lat="45.6916383" lon="9.0407983"><ele>277.0</ele><time>2026-04-08T09:30:48.733Z</time></trkpt><trkpt lat="45.6916433" lon="9.04067"><ele>277.0</ele><time>2026-04-08T09:30:50.733Z</time></trkpt><trkpt lat="45.69167" lon="9.0405433"><ele>277.0</ele><time>2026-04-08T09:30:52.733Z</time></trkpt><trkpt lat="45.6917167" lon="9.0404183"><ele>277.0</ele><time>2026-04-08T09:30:54.733Z</time></trkpt><trkpt lat="45.6917333" lon="9.0402933"><ele>277.0</ele><time>2026-04-08T09:30:56.732Z</time></trkpt><trkpt lat="45.6917267" lon="9.0401483"><ele>277.0</ele><time>2026-04-08T09:30:58.733Z</time></trkpt><trkpt lat="45.6917217" lon="9.0400567"><ele>277.0</ele><time>2026-04-08T09:30:59.733Z</time></trkpt><trkpt lat="45.6917167" lon="9.0399583"><ele>277.0</ele><time>2026-04-08T09:31:00.733Z</time></trkpt><trkpt lat="45.69172" lon="9.0398533"><ele>277.0</ele><time>2026-04-08T09:31:01.733Z</time></trkpt><trkpt lat="45.69173" lon="9.03975"><ele>277.0</ele><time>2026-04-08T09:31:02.733Z</time></trkpt><trkpt lat="45.6917483" lon="9.03964"><ele>277.2</ele><time>2026-04-08T09:31:03.733Z</time></trkpt><trkpt lat="45.6917733" lon="9.0395167"><ele>277.4</ele><time>2026-04-08T09:31:04.733Z</time></trkpt><trkpt lat="45.6918033" lon="9.0393933"><ele>277.6</ele><time>2026-04-08T09:31:05.732Z</time></trkpt><trkpt lat="45.6918417" lon="9.0392583"><ele>277.8</ele><time>2026-04-08T09:31:06.732Z</time></trkpt><trkpt lat="45.69188" lon="9.03911"><ele>278.0</ele><time>2026-04-08T09:31:07.733Z</time></trkpt><trkpt lat="45.6919217" lon="9.0389633"><ele>278.4</ele><time>2026-04-08T09:31:08.733Z</time></trkpt><trkpt lat="45.691955" lon="9.0388133"><ele>278.8</ele><time>2026-04-08T09:31:09.733Z</time></trkpt><trkpt lat="45.6919917" lon="9.0386683"><ele>279.2</ele><time>2026-04-08T09:31:10.732Z</time></trkpt><trkpt lat="45.69203" lon="9.0385233"><ele>279.6</ele><time>2026-04-08T09:31:11.733Z</time></trkpt><trkpt lat="45.692065" lon="9.03838"><ele>280.0</ele><time>2026-04-08T09:31:12.733Z</time></trkpt><trkpt lat="45.692105" lon="9.038235"><ele>280.0</ele><time>2026-04-08T09:31:13.733Z</time></trkpt><trkpt lat="45.692145" lon="9.0380817"><ele>280.0</ele><time>2026-04-08T09:31:14.733Z</time></trkpt><trkpt lat="45.6921883" lon="9.037935"><ele>280.0</ele><time>2026-04-08T09:31:15.733Z</time></trkpt><trkpt lat="45.6922317" lon="9.0377967"><ele>280.0</ele><time>2026-04-08T09:31:16.732Z</time></trkpt><trkpt lat="45.6922733" lon="9.0376433"><ele>280.0</ele><time>2026-04-08T09:31:17.732Z</time></trkpt><trkpt lat="45.6923133" lon="9.0374917"><ele>279.5</ele><time>2026-04-08T09:31:18.733Z</time></trkpt><trkpt lat="45.6923567" lon="9.0373333"><ele>279.0</ele><time>2026-04-08T09:31:19.732Z</time></trkpt><trkpt lat="45.6923983" lon="9.0371767"><ele>278.5</ele><time>2026-04-08T09:31:20.733Z</time></trkpt><trkpt lat="45.6924367" lon="9.0370217"><ele>278.0</ele><time>2026-04-08T09:31:21.733Z</time></trkpt><trkpt lat="45.69247" lon="9.0368617"><ele>278.0</ele><time>2026-04-08T09:31:22.733Z</time></trkpt><trkpt lat="45.692505" lon="9.0367033"><ele>278.0</ele><time>2026-04-08T09:31:23.733Z</time></trkpt><trkpt lat="45.6925467" lon="9.0365567"><ele>278.0</ele><time>2026-04-08T09:31:24.733Z</time></trkpt><trkpt lat="45.6925883" lon="9.0364067"><ele>278.0</ele><time>2026-04-08T09:31:25.733Z</time></trkpt><trkpt lat="45.692635" lon="9.036255"><ele>277.75</ele><time>2026-04-08T09:31:26.732Z</time></trkpt><trkpt lat="45.6926717" lon="9.0360933"><ele>277.5</ele><time>2026-04-08T09:31:27.732Z</time></trkpt><trkpt lat="45.6927133" lon="9.0359317"><ele>277.25</ele><time>2026-04-08T09:31:28.732Z</time></trkpt><trkpt lat="45.6927583" lon="9.0357683"><ele>277.0</ele><time>2026-04-08T09:31:29.733Z</time></trkpt><trkpt lat="45.6928033" lon="9.035605"><ele>277.75</ele><time>2026-04-08T09:31:30.732Z</time></trkpt><trkpt lat="45.6928433" lon="9.03544"><ele>278.5</ele><time>2026-04-08T09:31:31.733Z</time></trkpt><trkpt lat="45.6928817" lon="9.0352833"><ele>279.25</ele><time>2026-04-08T09:31:32.733Z</time></trkpt><trkpt lat="45.692925" lon="9.035125"><ele>280.0</ele><time>2026-04-08T09:31:33.733Z</time></trkpt><trkpt lat="45.69297" lon="9.034995"><ele>280.0</ele><time>2026-04-08T09:31:34.733Z</time></trkpt><trkpt lat="45.6930167" lon="9.0348817"><ele>280.0</ele><time>2026-04-08T09:31:35.733Z</time></trkpt><trkpt lat="45.6930683" lon="9.0347717"><ele>280.0</ele><time>2026-04-08T09:31:36.733Z</time></trkpt><trkpt lat="45.6931333" lon="9.034665"><ele>280.0</ele><time>2026-04-08T09:31:37.733Z</time></trkpt><trkpt lat="45.6931883" lon="9.0345583"><ele>280.0</ele><time>2026-04-08T09:31:38.733Z</time></trkpt><trkpt lat="45.6932283" lon="9.034445"><ele>280.0</ele><time>2026-04-08T09:31:39.733Z</time></trkpt><trkpt lat="45.693255" lon="9.0343117"><ele>280.0</ele><time>2026-04-08T09:31:40.733Z</time></trkpt><trkpt lat="45.6932733" lon="9.03417"><ele>280.0</ele><time>2026-04-08T09:31:41.732Z</time></trkpt><trkpt lat="45.69329" lon="9.0340233"><ele>280.0</ele><time>2026-04-08T09:31:42.733Z</time></trkpt><trkpt lat="45.6933117" lon="9.0338767"><ele>280.0</ele><time>2026-04-08T09:31:43.732Z</time></trkpt><trkpt lat="45.693335" lon="9.0337267"><ele>280.0</ele><time>2026-04-08T09:31:44.732Z</time></trkpt><trkpt lat="45.6933683" lon="9.0335783"><ele>280.0</ele><time>2026-04-08T09:31:45.733Z</time></trkpt><trkpt lat="45.693405" lon="9.033435"><ele>280.0</ele><time>2026-04-08T09:31:46.732Z</time></trkpt><trkpt lat="45.6934483" lon="9.0332933"><ele>280.0</ele><time>2026-04-08T09:31:47.733Z</time></trkpt><trkpt lat="45.6934983" lon="9.0331667"><ele>280.0</ele><time>2026-04-08T09:31:48.733Z</time></trkpt><trkpt lat="45.6935567" lon="9.03305"><ele>280.6</ele><time>2026-04-08T09:31:49.733Z</time></trkpt><trkpt lat="45.6936233" lon="9.03294"><ele>281.2</ele><time>2026-04-08T09:31:50.733Z</time></trkpt><trkpt lat="45.693695" lon="9.0328417"><ele>281.8</ele><time>2026-04-08T09:31:51.733Z</time></trkpt><trkpt lat="45.693775" lon="9.03274"><ele>282.4</ele><time>2026-04-08T09:31:52.733Z</time></trkpt><trkpt lat="45.693855" lon="9.0326483"><ele>283.0</ele><time>2026-04-08T09:31:53.732Z</time></trkpt><trkpt lat="45.6939317" lon="9.03257"><ele>283.0</ele><time>2026-04-08T09:31:54.732Z</time></trkpt><trkpt lat="45.6940067" lon="9.032495"><ele>283.0</ele><time>2026-04-08T09:31:55.733Z</time></trkpt><trkpt lat="45.6940933" lon="9.0324317"><ele>283.0</ele><time>2026-04-08T09:31:56.733Z</time></trkpt><trkpt lat="45.6941733" lon="9.0323833"><ele>283.0</ele><time>2026-04-08T09:31:57.733Z</time></trkpt><trkpt lat="45.69426" lon="9.032345"><ele>283.0</ele><time>2026-04-08T09:31:58.733Z</time></trkpt><trkpt lat="45.6943417" lon="9.03231"><ele>283.0</ele><time>2026-04-08T09:31:59.732Z</time></trkpt><trkpt lat="45.6944133" lon="9.0322783"><ele>283.0</ele><time>2026-04-08T09:32:00.733Z</time></trkpt><trkpt lat="45.69448" lon="9.0322567"><ele>283.0</ele><time>2026-04-08T09:32:01.733Z</time></trkpt><trkpt lat="45.6945717" lon="9.0322283"><ele>283.0</ele><time>2026-04-08T09:32:03.733Z</time></trkpt><trkpt lat="45.6946417" lon="9.0321233"><ele>283.0</ele><time>2026-04-08T09:32:19.732Z</time></trkpt><trkpt lat="45.6946583" lon="9.0319617"><ele>283.25</ele><time>2026-04-08T09:32:21.732Z</time></trkpt><trkpt lat="45.6946533" lon="9.0317883"><ele>283.5</ele><time>2026-04-08T09:32:23.733Z</time></trkpt><trkpt lat="45.694645" lon="9.0316233"><ele>283.75</ele><time>2026-04-08T09:32:25.733Z</time></trkpt><trkpt lat="45.694645" lon="9.031455"><ele>284.0</ele><time>2026-04-08T09:32:27.733Z</time></trkpt><trkpt lat="45.6946517" lon="9.03129"><ele>284.0</ele><time>2026-04-08T09:32:29.733Z</time></trkpt><trkpt lat="45.694645" lon="9.0311367"><ele>284.0</ele><time>2026-04-08T09:32:31.733Z</time></trkpt><trkpt lat="45.69464" lon="9.031005"><ele>284.0</ele><time>2026-04-08T09:32:33.733Z</time></trkpt><trkpt lat="45.6946383" lon="9.0308917"><ele>284.0</ele><time>2026-04-08T09:32:35.733Z</time></trkpt><trkpt lat="45.6946183" lon="9.0307417"><ele>284.0</ele><time>2026-04-08T09:32:49.733Z</time></trkpt><trkpt lat="45.6945433" lon="9.030725"><ele>284.0</ele><time>2026-04-08T09:32:51.732Z</time></trkpt><trkpt lat="45.6944533" lon="9.0307167"><ele>284.0</ele><time>2026-04-08T09:32:53.732Z</time></trkpt><trkpt lat="45.6943817" lon="9.03071"><ele>284.0</ele><time>2026-04-08T09:32:55.733Z</time></trkpt><trkpt lat="45.694315" lon="9.0307083"><ele>284.0</ele><time>2026-04-08T09:32:57.733Z</time></trkpt><trkpt lat="45.6942383" lon="9.03067"><ele>284.0</ele><time>2026-04-08T09:33:00.733Z</time></trkpt><trkpt lat="45.6942367" lon="9.0305783"><ele>284.0</ele><time>2026-04-08T09:33:58.733Z</time></trkpt><trkpt lat="45.6942567" lon="9.03048"><ele>284.0</ele><time>2026-04-08T09:34:01.733Z</time></trkpt><trkpt lat="45.6942167" lon="9.0304"><ele>284.0</ele><time>2026-04-08T09:34:11.733Z</time></trkpt></trkseg></trk></gpx>